<?xml version="1.0" encoding="UTF-8" standalone="no" ?>
<gpx xmlns="http://www.topografix.com/GPX/1/1" xmlns:xsi="http://www.w3.org/2001/XMLSchema-instance" xsi:schemaLocation="http://www.topografix.com/GPX/1/1 http://www.topografix.com/GPX/1/1/gpx.xsd" version="1.1" creator="VisuGPX - https://www.visugpx.com">
  <metadata>
    <name>Valberg : boucle des villages raccourcie, avec options</name>
    <desc><![CDATA[Valberg village, col de l'Espaul, piste noire mont des Moulines, sommet du Countent, court-circuit de la piste noire à la borne 104 pour redescendre vers Beuil (temps limité) afin d'éviter Roubion, récupération de la piste noir au retour, qui se confond avec la rouge, avec quelques tentatives pour ajouter un peu de trajet quand même. Retour par Beuil, les Launes, puis on repart sur la grimpette des Eguilles, au sommet on en profite pour prendre une partie de la piste de descente avant de la quitter à gauche pour revenir par le haut du village de Valberg.]]></desc>
  </metadata>
  <trk>
    <name><![CDATA[Valberg : boucle des villages raccourcie, avec options_1]]></name>
    <trkseg>
      <trkpt lat="44.09402" lon="6.93295">
        <ele>1667.49939</ele>
        <time>2019-08-03T07:33:55.000Z</time>
      </trkpt>
      <trkpt lat="44.09444" lon="6.93213">
        <ele>1671.087036</ele>
        <time>2019-08-03T07:33:56.000Z</time>
      </trkpt>
      <trkpt lat="44.09507" lon="6.93111">
        <ele>1675.724121</ele>
        <time>2019-08-03T07:34:08.000Z</time>
      </trkpt>
      <trkpt lat="44.09511" lon="6.93107">
        <ele>1675.778809</ele>
        <time>2019-08-03T07:34:12.000Z</time>
      </trkpt>
      <trkpt lat="44.09514" lon="6.93112">
        <ele>1675.845459</ele>
        <time>2019-08-03T07:34:16.000Z</time>
      </trkpt>
      <trkpt lat="44.09518" lon="6.93114">
        <ele>1675.939209</ele>
        <time>2019-08-03T07:34:18.000Z</time>
      </trkpt>
      <trkpt lat="44.09516" lon="6.93132">
        <ele>1676.136597</ele>
        <time>2019-08-03T07:34:20.000Z</time>
      </trkpt>
      <trkpt lat="44.09504" lon="6.93193">
        <ele>1679.010742</ele>
        <time>2019-08-03T07:34:22.000Z</time>
      </trkpt>
      <trkpt lat="44.09497" lon="6.93212">
        <ele>1679.434082</ele>
        <time>2019-08-03T07:34:26.000Z</time>
      </trkpt>
      <trkpt lat="44.09418" lon="6.93383">
        <ele>1680.177002</ele>
        <time>2019-08-03T07:34:30.000Z</time>
      </trkpt>
      <trkpt lat="44.09397" lon="6.93431">
        <ele>1682.147217</ele>
        <time>2019-08-03T07:34:32.000Z</time>
      </trkpt>
      <trkpt lat="44.0939" lon="6.93453">
        <ele>1683.147461</ele>
        <time>2019-08-03T07:34:34.000Z</time>
      </trkpt>
      <trkpt lat="44.09385" lon="6.93474">
        <ele>1682.6875</ele>
        <time>2019-08-03T07:34:36.000Z</time>
      </trkpt>
      <trkpt lat="44.09382" lon="6.935">
        <ele>1683.32251</ele>
        <time>2019-08-03T07:34:38.000Z</time>
      </trkpt>
      <trkpt lat="44.09383" lon="6.93528">
        <ele>1684.973633</ele>
        <time>2019-08-03T07:34:46.000Z</time>
      </trkpt>
      <trkpt lat="44.09395" lon="6.93576">
        <ele>1691.368164</ele>
        <time>2019-08-03T07:34:51.000Z</time>
      </trkpt>
      <trkpt lat="44.09396" lon="6.93588">
        <ele>1692.178345</ele>
        <time>2019-08-03T07:34:53.000Z</time>
      </trkpt>
      <trkpt lat="44.09388" lon="6.9364">
        <ele>1690.226318</ele>
        <time>2019-08-03T07:34:59.000Z</time>
      </trkpt>
      <trkpt lat="44.0939" lon="6.93652">
        <ele>1689.331055</ele>
        <time>2019-08-03T07:35:01.000Z</time>
      </trkpt>
      <trkpt lat="44.09394" lon="6.93655">
        <ele>1689.527832</ele>
        <time>2019-08-03T07:35:03.000Z</time>
      </trkpt>
      <trkpt lat="44.09403" lon="6.93654">
        <ele>1691.50293</ele>
        <time>2019-08-03T07:35:05.000Z</time>
      </trkpt>
      <trkpt lat="44.09405" lon="6.93648">
        <ele>1693.516968</ele>
        <time>2019-08-03T07:35:07.000Z</time>
      </trkpt>
      <trkpt lat="44.09409" lon="6.93577">
        <ele>1697.617432</ele>
        <time>2019-08-03T07:35:27.000Z</time>
      </trkpt>
      <trkpt lat="44.09413" lon="6.93541">
        <ele>1698.845215</ele>
        <time>2019-08-03T07:35:33.000Z</time>
      </trkpt>
      <trkpt lat="44.0942" lon="6.93515">
        <ele>1701.735352</ele>
        <time>2019-08-03T07:35:37.000Z</time>
      </trkpt>
      <trkpt lat="44.09428" lon="6.93499">
        <ele>1703.420654</ele>
        <time>2019-08-03T07:35:41.000Z</time>
      </trkpt>
      <trkpt lat="44.09439" lon="6.93483">
        <ele>1705.630981</ele>
        <time>2019-08-03T07:35:45.000Z</time>
      </trkpt>
      <trkpt lat="44.09474" lon="6.93439">
        <ele>1710.833374</ele>
        <time>2019-08-03T07:35:49.000Z</time>
      </trkpt>
      <trkpt lat="44.0952" lon="6.93372">
        <ele>1711.047607</ele>
        <time>2019-08-03T07:35:51.000Z</time>
      </trkpt>
      <trkpt lat="44.09584" lon="6.93316">
        <ele>1714.020874</ele>
        <time>2019-08-03T07:35:53.000Z</time>
      </trkpt>
      <trkpt lat="44.09597" lon="6.93309">
        <ele>1713.604614</ele>
        <time>2019-08-03T07:35:55.000Z</time>
      </trkpt>
      <trkpt lat="44.0961" lon="6.93305">
        <ele>1713.680664</ele>
        <time>2019-08-03T07:35:57.000Z</time>
      </trkpt>
      <trkpt lat="44.09684" lon="6.93323">
        <ele>1715.743408</ele>
        <time>2019-08-03T07:36:01.000Z</time>
      </trkpt>
      <trkpt lat="44.09702" lon="6.93321">
        <ele>1715.831665</ele>
        <time>2019-08-03T07:36:03.000Z</time>
      </trkpt>
      <trkpt lat="44.0972" lon="6.93306">
        <ele>1715.028198</ele>
        <time>2019-08-03T07:36:04.000Z</time>
      </trkpt>
      <trkpt lat="44.09728" lon="6.93293">
        <ele>1714.668701</ele>
        <time>2019-08-03T07:36:06.000Z</time>
      </trkpt>
      <trkpt lat="44.0975" lon="6.93248">
        <ele>1716.23584</ele>
        <time>2019-08-03T07:36:08.000Z</time>
      </trkpt>
      <trkpt lat="44.09773" lon="6.93274">
        <ele>1718.00293</ele>
        <time>2019-08-03T07:36:10.000Z</time>
      </trkpt>
      <trkpt lat="44.09791" lon="6.93285">
        <ele>1718.594849</ele>
        <time>2019-08-03T07:36:12.000Z</time>
      </trkpt>
      <trkpt lat="44.09807" lon="6.93291">
        <ele>1719.029053</ele>
        <time>2019-08-03T07:36:16.000Z</time>
      </trkpt>
      <trkpt lat="44.09845" lon="6.93302">
        <ele>1722.190308</ele>
        <time>2019-08-03T07:36:22.000Z</time>
      </trkpt>
      <trkpt lat="44.09873" lon="6.93318">
        <ele>1724.033936</ele>
        <time>2019-08-03T07:36:24.000Z</time>
      </trkpt>
      <trkpt lat="44.09889" lon="6.93336">
        <ele>1723.843384</ele>
        <time>2019-08-03T07:36:28.000Z</time>
      </trkpt>
      <trkpt lat="44.09897" lon="6.93343">
        <ele>1723.752563</ele>
        <time>2019-08-03T07:36:32.000Z</time>
      </trkpt>
      <trkpt lat="44.09912" lon="6.93348">
        <ele>1723.779419</ele>
        <time>2019-08-03T07:36:34.000Z</time>
      </trkpt>
      <trkpt lat="44.09942" lon="6.93349">
        <ele>1726.235962</ele>
        <time>2019-08-03T07:36:36.000Z</time>
      </trkpt>
      <trkpt lat="44.09962" lon="6.93344">
        <ele>1729.097412</ele>
        <time>2019-08-03T07:36:40.000Z</time>
      </trkpt>
      <trkpt lat="44.09975" lon="6.93344">
        <ele>1730.168091</ele>
        <time>2019-08-03T07:36:42.000Z</time>
      </trkpt>
      <trkpt lat="44.09993" lon="6.93349">
        <ele>1731.061157</ele>
        <time>2019-08-03T07:36:44.000Z</time>
      </trkpt>
      <trkpt lat="44.10033" lon="6.93367">
        <ele>1732.718994</ele>
        <time>2019-08-03T07:36:46.000Z</time>
      </trkpt>
      <trkpt lat="44.10039" lon="6.93374">
        <ele>1732.336792</ele>
        <time>2019-08-03T07:36:51.000Z</time>
      </trkpt>
      <trkpt lat="44.10046" lon="6.93389">
        <ele>1729.401123</ele>
        <time>2019-08-03T07:36:52.000Z</time>
      </trkpt>
      <trkpt lat="44.10053" lon="6.93399">
        <ele>1728.311157</ele>
        <time>2019-08-03T07:36:54.000Z</time>
      </trkpt>
      <trkpt lat="44.10093" lon="6.93435">
        <ele>1730.049927</ele>
        <time>2019-08-03T07:36:56.000Z</time>
      </trkpt>
      <trkpt lat="44.10107" lon="6.93451">
        <ele>1729.699219</ele>
        <time>2019-08-03T07:36:58.000Z</time>
      </trkpt>
      <trkpt lat="44.10119" lon="6.9347">
        <ele>1729.084106</ele>
        <time>2019-08-03T07:37:00.000Z</time>
      </trkpt>
      <trkpt lat="44.10141" lon="6.93517">
        <ele>1729.902344</ele>
        <time>2019-08-03T07:37:02.000Z</time>
      </trkpt>
      <trkpt lat="44.10163" lon="6.93542">
        <ele>1735.931885</ele>
        <time>2019-08-03T07:37:04.000Z</time>
      </trkpt>
      <trkpt lat="44.10173" lon="6.9356">
        <ele>1737.773315</ele>
        <time>2019-08-03T07:37:06.000Z</time>
      </trkpt>
      <trkpt lat="44.10218" lon="6.9374">
        <ele>1738.1698</ele>
        <time>2019-08-03T07:37:08.000Z</time>
      </trkpt>
      <trkpt lat="44.10237" lon="6.93804">
        <ele>1738.276367</ele>
        <time>2019-08-03T07:37:14.000Z</time>
      </trkpt>
      <trkpt lat="44.10265" lon="6.93875">
        <ele>1738.731079</ele>
        <time>2019-08-03T07:37:18.000Z</time>
      </trkpt>
      <trkpt lat="44.10284" lon="6.93905">
        <ele>1739.522339</ele>
        <time>2019-08-03T07:37:20.000Z</time>
      </trkpt>
      <trkpt lat="44.10303" lon="6.93931">
        <ele>1739.731079</ele>
        <time>2019-08-03T07:37:22.000Z</time>
      </trkpt>
      <trkpt lat="44.10324" lon="6.93947">
        <ele>1740.344971</ele>
        <time>2019-08-03T07:37:26.000Z</time>
      </trkpt>
      <trkpt lat="44.10351" lon="6.93957">
        <ele>1741.893799</ele>
        <time>2019-08-03T07:37:30.000Z</time>
      </trkpt>
      <trkpt lat="44.1038" lon="6.93962">
        <ele>1743.335571</ele>
        <time>2019-08-03T07:37:34.000Z</time>
      </trkpt>
      <trkpt lat="44.10392" lon="6.93967">
        <ele>1743.491333</ele>
        <time>2019-08-03T07:37:38.000Z</time>
      </trkpt>
      <trkpt lat="44.10405" lon="6.93977">
        <ele>1742.759521</ele>
        <time>2019-08-03T07:37:42.000Z</time>
      </trkpt>
      <trkpt lat="44.10442" lon="6.94031">
        <ele>1737.861084</ele>
        <time>2019-08-03T07:37:44.000Z</time>
      </trkpt>
      <trkpt lat="44.10462" lon="6.94064">
        <ele>1740.828613</ele>
        <time>2019-08-03T07:37:46.000Z</time>
      </trkpt>
      <trkpt lat="44.10482" lon="6.94102">
        <ele>1745.27771</ele>
        <time>2019-08-03T07:37:48.000Z</time>
      </trkpt>
      <trkpt lat="44.10494" lon="6.9414">
        <ele>1748.290039</ele>
        <time>2019-08-03T07:37:50.000Z</time>
      </trkpt>
      <trkpt lat="44.10509" lon="6.94233">
        <ele>1750.828979</ele>
        <time>2019-08-03T07:37:56.000Z</time>
      </trkpt>
      <trkpt lat="44.10523" lon="6.94298">
        <ele>1751.065918</ele>
        <time>2019-08-03T07:37:58.000Z</time>
      </trkpt>
      <trkpt lat="44.10541" lon="6.94337">
        <ele>1752.369995</ele>
        <time>2019-08-03T07:38:00.000Z</time>
      </trkpt>
      <trkpt lat="44.1056" lon="6.94368">
        <ele>1753.362549</ele>
        <time>2019-08-03T07:38:04.000Z</time>
      </trkpt>
      <trkpt lat="44.1059" lon="6.94396">
        <ele>1752.984253</ele>
        <time>2019-08-03T07:38:06.000Z</time>
      </trkpt>
      <trkpt lat="44.10615" lon="6.9441">
        <ele>1752.637451</ele>
        <time>2019-08-03T07:38:08.000Z</time>
      </trkpt>
      <trkpt lat="44.10643" lon="6.94417">
        <ele>1752.255005</ele>
        <time>2019-08-03T07:38:10.000Z</time>
      </trkpt>
      <trkpt lat="44.10665" lon="6.9442">
        <ele>1752.252441</ele>
        <time>2019-08-03T07:38:16.000Z</time>
      </trkpt>
      <trkpt lat="44.1069" lon="6.94419">
        <ele>1751.964478</ele>
        <time>2019-08-03T07:38:20.000Z</time>
      </trkpt>
      <trkpt lat="44.10761" lon="6.94401">
        <ele>1757.890869</ele>
        <time>2019-08-03T07:38:22.000Z</time>
      </trkpt>
      <trkpt lat="44.10785" lon="6.94391">
        <ele>1763.461548</ele>
        <time>2019-08-03T07:38:24.000Z</time>
      </trkpt>
      <trkpt lat="44.10798" lon="6.94389">
        <ele>1765.635742</ele>
        <time>2019-08-03T07:38:26.000Z</time>
      </trkpt>
      <trkpt lat="44.10805" lon="6.94395">
        <ele>1766.345825</ele>
        <time>2019-08-03T07:38:28.000Z</time>
      </trkpt>
      <trkpt lat="44.10807" lon="6.94407">
        <ele>1765.298706</ele>
        <time>2019-08-03T07:38:30.000Z</time>
      </trkpt>
      <trkpt lat="44.10795" lon="6.94445">
        <ele>1755.038818</ele>
        <time>2019-08-03T07:38:32.000Z</time>
      </trkpt>
      <trkpt lat="44.10792" lon="6.94471">
        <ele>1754.251221</ele>
        <time>2019-08-03T07:38:34.000Z</time>
      </trkpt>
      <trkpt lat="44.10791" lon="6.94502">
        <ele>1755.069946</ele>
        <time>2019-08-03T07:38:36.000Z</time>
      </trkpt>
      <trkpt lat="44.10794" lon="6.94529">
        <ele>1756.45752</ele>
        <time>2019-08-03T07:38:38.000Z</time>
      </trkpt>
      <trkpt lat="44.10799" lon="6.94558">
        <ele>1759.243774</ele>
        <time>2019-08-03T07:38:40.000Z</time>
      </trkpt>
      <trkpt lat="44.108" lon="6.94628">
        <ele>1757.68689</ele>
        <time>2019-08-03T07:38:42.000Z</time>
      </trkpt>
      <trkpt lat="44.10798" lon="6.94641">
        <ele>1758.241577</ele>
        <time>2019-08-03T07:38:44.000Z</time>
      </trkpt>
      <trkpt lat="44.1077" lon="6.94704">
        <ele>1753.335693</ele>
        <time>2019-08-03T07:38:46.000Z</time>
      </trkpt>
      <trkpt lat="44.10773" lon="6.94721">
        <ele>1753.97998</ele>
        <time>2019-08-03T07:38:48.000Z</time>
      </trkpt>
      <trkpt lat="44.10779" lon="6.94736">
        <ele>1755.403687</ele>
        <time>2019-08-03T07:38:51.000Z</time>
      </trkpt>
      <trkpt lat="44.10792" lon="6.94755">
        <ele>1757.613525</ele>
        <time>2019-08-03T07:38:52.000Z</time>
      </trkpt>
      <trkpt lat="44.10827" lon="6.9479">
        <ele>1759.75769</ele>
        <time>2019-08-03T07:38:56.000Z</time>
      </trkpt>
      <trkpt lat="44.10837" lon="6.94812">
        <ele>1757.678711</ele>
        <time>2019-08-03T07:38:58.000Z</time>
      </trkpt>
      <trkpt lat="44.10898" lon="6.94915">
        <ele>1753.328735</ele>
        <time>2019-08-03T07:39:00.000Z</time>
      </trkpt>
      <trkpt lat="44.10954" lon="6.95041">
        <ele>1744.701538</ele>
        <time>2019-08-03T07:39:02.000Z</time>
      </trkpt>
      <trkpt lat="44.10994" lon="6.9515">
        <ele>1742.38501</ele>
        <time>2019-08-03T07:39:08.000Z</time>
      </trkpt>
      <trkpt lat="44.11002" lon="6.95181">
        <ele>1743.20752</ele>
        <time>2019-08-03T07:39:10.000Z</time>
      </trkpt>
      <trkpt lat="44.11005" lon="6.95206">
        <ele>1742.840332</ele>
        <time>2019-08-03T07:39:12.000Z</time>
      </trkpt>
      <trkpt lat="44.11004" lon="6.95229">
        <ele>1742.943848</ele>
        <time>2019-08-03T07:39:16.000Z</time>
      </trkpt>
      <trkpt lat="44.10998" lon="6.95264">
        <ele>1741.173096</ele>
        <time>2019-08-03T07:39:20.000Z</time>
      </trkpt>
      <trkpt lat="44.10998" lon="6.95298">
        <ele>1742.0177</ele>
        <time>2019-08-03T07:39:24.000Z</time>
      </trkpt>
      <trkpt lat="44.11012" lon="6.95426">
        <ele>1743.79126</ele>
        <time>2019-08-03T07:39:26.000Z</time>
      </trkpt>
      <trkpt lat="44.11011" lon="6.95461">
        <ele>1741.665039</ele>
        <time>2019-08-03T07:39:28.000Z</time>
      </trkpt>
      <trkpt lat="44.11022" lon="6.95522">
        <ele>1743.274536</ele>
        <time>2019-08-03T07:39:38.000Z</time>
      </trkpt>
      <trkpt lat="44.1103" lon="6.95579">
        <ele>1744.926636</ele>
        <time>2019-08-03T07:39:40.000Z</time>
      </trkpt>
      <trkpt lat="44.1104" lon="6.95722">
        <ele>1742.450684</ele>
        <time>2019-08-03T07:39:42.000Z</time>
      </trkpt>
      <trkpt lat="44.11047" lon="6.95737">
        <ele>1743.616333</ele>
        <time>2019-08-03T07:39:46.000Z</time>
      </trkpt>
      <trkpt lat="44.11063" lon="6.95758">
        <ele>1746.095215</ele>
        <time>2019-08-03T07:39:48.000Z</time>
      </trkpt>
      <trkpt lat="44.11065" lon="6.95768">
        <ele>1745.796631</ele>
        <time>2019-08-03T07:39:50.000Z</time>
      </trkpt>
      <trkpt lat="44.11066" lon="6.95788">
        <ele>1745.500488</ele>
        <time>2019-08-03T07:39:52.000Z</time>
      </trkpt>
      <trkpt lat="44.11072" lon="6.95802">
        <ele>1746.190552</ele>
        <time>2019-08-03T07:39:56.000Z</time>
      </trkpt>
      <trkpt lat="44.111" lon="6.9584">
        <ele>1743.571899</ele>
        <time>2019-08-03T07:39:58.000Z</time>
      </trkpt>
      <trkpt lat="44.11111" lon="6.95843">
        <ele>1744.526001</ele>
        <time>2019-08-03T07:40:00.000Z</time>
      </trkpt>
      <trkpt lat="44.11132" lon="6.95823">
        <ele>1752.229858</ele>
        <time>2019-08-03T07:40:02.000Z</time>
      </trkpt>
      <trkpt lat="44.11142" lon="6.95819">
        <ele>1755.494141</ele>
        <time>2019-08-03T07:40:04.000Z</time>
      </trkpt>
      <trkpt lat="44.11151" lon="6.95827">
        <ele>1754.813965</ele>
        <time>2019-08-03T07:40:06.000Z</time>
      </trkpt>
      <trkpt lat="44.11158" lon="6.95838">
        <ele>1752.832275</ele>
        <time>2019-08-03T07:40:08.000Z</time>
      </trkpt>
      <trkpt lat="44.11168" lon="6.95844">
        <ele>1752.540039</ele>
        <time>2019-08-03T07:40:10.000Z</time>
      </trkpt>
      <trkpt lat="44.11178" lon="6.95846">
        <ele>1753.849609</ele>
        <time>2019-08-03T07:40:12.000Z</time>
      </trkpt>
      <trkpt lat="44.11195" lon="6.95845">
        <ele>1758.696167</ele>
        <time>2019-08-03T07:40:14.000Z</time>
      </trkpt>
      <trkpt lat="44.1121" lon="6.95854">
        <ele>1761.318726</ele>
        <time>2019-08-03T07:40:16.000Z</time>
      </trkpt>
      <trkpt lat="44.11225" lon="6.95854">
        <ele>1765.796997</ele>
        <time>2019-08-03T07:40:20.000Z</time>
      </trkpt>
      <trkpt lat="44.11233" lon="6.9586">
        <ele>1768.775757</ele>
        <time>2019-08-03T07:40:24.000Z</time>
      </trkpt>
      <trkpt lat="44.11238" lon="6.95875">
        <ele>1770.260742</ele>
        <time>2019-08-03T07:40:26.000Z</time>
      </trkpt>
      <trkpt lat="44.11239" lon="6.9591">
        <ele>1767.983154</ele>
        <time>2019-08-03T07:40:28.000Z</time>
      </trkpt>
      <trkpt lat="44.11241" lon="6.95933">
        <ele>1757.8</ele>
        <time>2019-08-03T07:40:30.000Z</time>
      </trkpt>
      <trkpt lat="44.1127" lon="6.95977">
        <ele>1766</ele>
        <time>2019-08-03T07:40:32.000Z</time>
      </trkpt>
      <trkpt lat="44.11289" lon="6.96007">
        <ele>1756</ele>
        <time>2019-08-03T07:40:36.000Z</time>
      </trkpt>
      <trkpt lat="44.11309" lon="6.96019">
        <ele>1758.9</ele>
        <time>2019-08-03T07:40:42.000Z</time>
      </trkpt>
      <trkpt lat="44.11331" lon="6.96025">
        <ele>1760.9</ele>
        <time>2019-08-03T07:40:46.000Z</time>
      </trkpt>
      <trkpt lat="44.11351" lon="6.96027">
        <ele>1767.7</ele>
        <time>2019-08-03T07:40:48.000Z</time>
      </trkpt>
      <trkpt lat="44.11369" lon="6.96022">
        <ele>1768.3</ele>
        <time>2019-08-03T07:40:50.000Z</time>
      </trkpt>
      <trkpt lat="44.11403" lon="6.96008">
        <ele>1774.5</ele>
        <time>2019-08-03T07:40:55.000Z</time>
      </trkpt>
      <trkpt lat="44.11426" lon="6.96011">
        <ele>1777.2</ele>
        <time>2019-08-03T07:40:57.000Z</time>
      </trkpt>
      <trkpt lat="44.1145" lon="6.96015">
        <ele>1775</ele>
        <time>2019-08-03T07:40:59.000Z</time>
      </trkpt>
      <trkpt lat="44.1158" lon="6.96054">
        <ele>1777.1</ele>
        <time>2019-08-03T07:41:03.000Z</time>
      </trkpt>
      <trkpt lat="44.11609" lon="6.96057">
        <ele>1779</ele>
        <time>2019-08-03T07:41:07.000Z</time>
      </trkpt>
      <trkpt lat="44.11623" lon="6.96055">
        <ele>1779.6</ele>
        <time>2019-08-03T07:41:09.000Z</time>
      </trkpt>
      <trkpt lat="44.11635" lon="6.9605">
        <ele>1780.1</ele>
        <time>2019-08-03T07:43:21.000Z</time>
      </trkpt>
      <trkpt lat="44.11645" lon="6.9604">
        <ele>1782.1</ele>
        <time>2019-08-03T07:43:23.000Z</time>
      </trkpt>
      <trkpt lat="44.11662" lon="6.96027">
        <ele>1785.7</ele>
        <time>2019-08-03T07:43:25.000Z</time>
      </trkpt>
      <trkpt lat="44.11673" lon="6.96022">
        <ele>1783.9</ele>
        <time>2019-08-03T07:43:27.000Z</time>
      </trkpt>
      <trkpt lat="44.11734" lon="6.96005">
        <ele>1780.6</ele>
        <time>2019-08-03T07:43:31.000Z</time>
      </trkpt>
      <trkpt lat="44.11808" lon="6.95974">
        <ele>1790.8</ele>
        <time>2019-08-03T07:43:35.000Z</time>
      </trkpt>
      <trkpt lat="44.11862" lon="6.95978">
        <ele>1790.8</ele>
        <time>2019-08-03T07:43:37.000Z</time>
      </trkpt>
      <trkpt lat="44.11897" lon="6.95984">
        <ele>1792.5</ele>
        <time>2019-08-03T07:43:39.000Z</time>
      </trkpt>
      <trkpt lat="44.11931" lon="6.96003">
        <ele>1792.3</ele>
        <time>2019-08-03T07:43:43.000Z</time>
      </trkpt>
      <trkpt lat="44.11947" lon="6.9602">
        <ele>1792.7</ele>
        <time>2019-08-03T07:43:45.000Z</time>
      </trkpt>
      <trkpt lat="44.11958" lon="6.96042">
        <ele>1792.4</ele>
        <time>2019-08-03T07:43:47.000Z</time>
      </trkpt>
      <trkpt lat="44.11968" lon="6.96066">
        <ele>1792.4</ele>
        <time>2019-08-03T07:43:49.000Z</time>
      </trkpt>
      <trkpt lat="44.11987" lon="6.96077">
        <ele>1794.7</ele>
        <time>2019-08-03T07:43:51.000Z</time>
      </trkpt>
      <trkpt lat="44.12006" lon="6.96094">
        <ele>1799.1</ele>
        <time>2019-08-03T07:43:53.000Z</time>
      </trkpt>
      <trkpt lat="44.1202" lon="6.96115">
        <ele>1801.1</ele>
        <time>2019-08-03T07:43:55.000Z</time>
      </trkpt>
      <trkpt lat="44.12023" lon="6.96137">
        <ele>1801</ele>
        <time>2019-08-03T07:43:57.000Z</time>
      </trkpt>
      <trkpt lat="44.12025" lon="6.96183">
        <ele>1800.4</ele>
        <time>2019-08-03T07:43:59.000Z</time>
      </trkpt>
      <trkpt lat="44.12024" lon="6.96221">
        <ele>1800.6</ele>
        <time>2019-08-03T07:44:03.000Z</time>
      </trkpt>
      <trkpt lat="44.12031" lon="6.9628">
        <ele>1800.8</ele>
        <time>2019-08-03T07:44:07.000Z</time>
      </trkpt>
      <trkpt lat="44.12029" lon="6.96311">
        <ele>1799.8</ele>
        <time>2019-08-03T07:44:09.000Z</time>
      </trkpt>
      <trkpt lat="44.12029" lon="6.96338">
        <ele>1798.4</ele>
        <time>2019-08-03T07:44:11.000Z</time>
      </trkpt>
      <trkpt lat="44.12036" lon="6.96365">
        <ele>1800.6</ele>
        <time>2019-08-03T07:44:15.000Z</time>
      </trkpt>
      <trkpt lat="44.1206" lon="6.96415">
        <ele>1805.5</ele>
        <time>2019-08-03T07:44:19.000Z</time>
      </trkpt>
      <trkpt lat="44.12084" lon="6.96479">
        <ele>1817.8</ele>
        <time>2019-08-03T07:44:21.000Z</time>
      </trkpt>
      <trkpt lat="44.12111" lon="6.96518">
        <ele>1815.2</ele>
        <time>2019-08-03T07:44:23.000Z</time>
      </trkpt>
      <trkpt lat="44.12129" lon="6.96533">
        <ele>1817.2</ele>
        <time>2019-08-03T07:44:25.000Z</time>
      </trkpt>
      <trkpt lat="44.1214" lon="6.96548">
        <ele>1817.5</ele>
        <time>2019-08-03T07:44:27.000Z</time>
      </trkpt>
      <trkpt lat="44.12143" lon="6.96564">
        <ele>1817.2</ele>
        <time>2019-08-03T07:44:29.000Z</time>
      </trkpt>
      <trkpt lat="44.12139" lon="6.96599">
        <ele>1814.1</ele>
        <time>2019-08-03T07:44:33.000Z</time>
      </trkpt>
      <trkpt lat="44.12139" lon="6.96622">
        <ele>1814</ele>
        <time>2019-08-03T07:44:37.000Z</time>
      </trkpt>
      <trkpt lat="44.12132" lon="6.96689">
        <ele>1818.6</ele>
        <time>2019-08-03T07:44:39.000Z</time>
      </trkpt>
      <trkpt lat="44.12129" lon="6.96756">
        <ele>1828.2</ele>
        <time>2019-08-03T07:44:41.000Z</time>
      </trkpt>
      <trkpt lat="44.12114" lon="6.96791">
        <ele>1828.5</ele>
        <time>2019-08-03T07:44:43.000Z</time>
      </trkpt>
      <trkpt lat="44.12093" lon="6.96852">
        <ele>1837</ele>
        <time>2019-08-03T07:44:45.000Z</time>
      </trkpt>
      <trkpt lat="44.12074" lon="6.96889">
        <ele>1835.9</ele>
        <time>2019-08-03T07:44:47.000Z</time>
      </trkpt>
      <trkpt lat="44.12035" lon="6.96947">
        <ele>1844.3</ele>
        <time>2019-08-03T07:44:51.000Z</time>
      </trkpt>
      <trkpt lat="44.12004" lon="6.97006">
        <ele>1844.6</ele>
        <time>2019-08-03T07:44:52.000Z</time>
      </trkpt>
      <trkpt lat="44.12" lon="6.97019">
        <ele>1838.1</ele>
        <time>2019-08-03T07:44:58.000Z</time>
      </trkpt>
      <trkpt lat="44.11998" lon="6.97039">
        <ele>1836.6</ele>
        <time>2019-08-03T07:45:00.000Z</time>
      </trkpt>
      <trkpt lat="44.12001" lon="6.97081">
        <ele>1844.1</ele>
        <time>2019-08-03T07:45:06.000Z</time>
      </trkpt>
      <trkpt lat="44.12008" lon="6.97151">
        <ele>1849.4</ele>
        <time>2019-08-03T07:45:08.000Z</time>
      </trkpt>
      <trkpt lat="44.12006" lon="6.97175">
        <ele>1847.2</ele>
        <time>2019-08-03T07:45:10.000Z</time>
      </trkpt>
      <trkpt lat="44.11997" lon="6.97195">
        <ele>1832.2</ele>
        <time>2019-08-03T07:45:12.000Z</time>
      </trkpt>
      <trkpt lat="44.11983" lon="6.97221">
        <ele>1831</ele>
        <time>2019-08-03T07:45:16.000Z</time>
      </trkpt>
      <trkpt lat="44.11973" lon="6.97254">
        <ele>1832.6</ele>
        <time>2019-08-03T07:45:20.000Z</time>
      </trkpt>
      <trkpt lat="44.11961" lon="6.97296">
        <ele>1829.5</ele>
        <time>2019-08-03T07:45:22.000Z</time>
      </trkpt>
      <trkpt lat="44.11962" lon="6.97327">
        <ele>1829.4</ele>
        <time>2019-08-03T07:45:24.000Z</time>
      </trkpt>
      <trkpt lat="44.11976" lon="6.97364">
        <ele>1826</ele>
        <time>2019-08-03T07:45:28.000Z</time>
      </trkpt>
      <trkpt lat="44.12001" lon="6.97397">
        <ele>1827.6</ele>
        <time>2019-08-03T07:45:30.000Z</time>
      </trkpt>
      <trkpt lat="44.12016" lon="6.97416">
        <ele>1826.3</ele>
        <time>2019-08-03T07:45:32.000Z</time>
      </trkpt>
      <trkpt lat="44.12041" lon="6.97426">
        <ele>1816.9</ele>
        <time>2019-08-03T07:45:36.000Z</time>
      </trkpt>
      <trkpt lat="44.1208" lon="6.97438">
        <ele>1821</ele>
        <time>2019-08-03T07:45:38.000Z</time>
      </trkpt>
      <trkpt lat="44.12091" lon="6.97451">
        <ele>1832.5</ele>
        <time>2019-08-03T07:45:40.000Z</time>
      </trkpt>
      <trkpt lat="44.12093" lon="6.97475">
        <ele>1826</ele>
        <time>2019-08-03T07:45:42.000Z</time>
      </trkpt>
      <trkpt lat="44.12103" lon="6.9753">
        <ele>1808.6</ele>
        <time>2019-08-03T07:45:44.000Z</time>
      </trkpt>
      <trkpt lat="44.12138" lon="6.97605">
        <ele>1792.4</ele>
        <time>2019-08-03T07:45:46.000Z</time>
      </trkpt>
      <trkpt lat="44.12148" lon="6.97633">
        <ele>1789</ele>
        <time>2019-08-03T07:45:48.000Z</time>
      </trkpt>
      <trkpt lat="44.12176" lon="6.97679">
        <ele>1791.1</ele>
        <time>2019-08-03T07:45:50.000Z</time>
      </trkpt>
      <trkpt lat="44.12206" lon="6.97715">
        <ele>1790</ele>
        <time>2019-08-03T07:45:52.000Z</time>
      </trkpt>
      <trkpt lat="44.12221" lon="6.97746">
        <ele>1789</ele>
        <time>2019-08-03T07:45:54.000Z</time>
      </trkpt>
      <trkpt lat="44.12249" lon="6.97782">
        <ele>1772</ele>
        <time>2019-08-03T07:45:56.000Z</time>
      </trkpt>
      <trkpt lat="44.12278" lon="6.97802">
        <ele>1777</ele>
        <time>2019-08-03T07:46:04.000Z</time>
      </trkpt>
      <trkpt lat="44.12304" lon="6.97818">
        <ele>1775.1</ele>
        <time>2019-08-03T07:46:08.000Z</time>
      </trkpt>
      <trkpt lat="44.12322" lon="6.97824">
        <ele>1772.2</ele>
        <time>2019-08-03T07:46:12.000Z</time>
      </trkpt>
      <trkpt lat="44.12346" lon="6.97821">
        <ele>1775.4</ele>
        <time>2019-08-03T07:46:14.000Z</time>
      </trkpt>
      <trkpt lat="44.1237" lon="6.97826">
        <ele>1779.2</ele>
        <time>2019-08-03T07:46:16.000Z</time>
      </trkpt>
      <trkpt lat="44.12394" lon="6.97852">
        <ele>1762.6</ele>
        <time>2019-08-03T07:46:18.000Z</time>
      </trkpt>
      <trkpt lat="44.12403" lon="6.97855">
        <ele>1763.5</ele>
        <time>2019-08-03T07:46:20.000Z</time>
      </trkpt>
      <trkpt lat="44.1242" lon="6.97852">
        <ele>1774.6</ele>
        <time>2019-08-03T07:46:22.000Z</time>
      </trkpt>
      <trkpt lat="44.12428" lon="6.97857">
        <ele>1775.2</ele>
        <time>2019-08-03T07:46:28.000Z</time>
      </trkpt>
      <trkpt lat="44.12437" lon="6.97857">
        <ele>1776.1</ele>
        <time>2019-08-03T07:46:30.000Z</time>
      </trkpt>
      <trkpt lat="44.12443" lon="6.97858">
        <ele>1776.8</ele>
        <time>2019-08-03T07:46:32.000Z</time>
      </trkpt>
      <trkpt lat="44.12449" lon="6.97872">
        <ele>1776.7</ele>
        <time>2019-08-03T07:46:34.000Z</time>
      </trkpt>
      <trkpt lat="44.12449" lon="6.97878">
        <ele>1776.2</ele>
        <time>2019-08-03T07:46:36.000Z</time>
      </trkpt>
      <trkpt lat="44.12446" lon="6.97891">
        <ele>1774</ele>
        <time>2019-08-03T07:46:38.000Z</time>
      </trkpt>
      <trkpt lat="44.12426" lon="6.97937">
        <ele>1762.4</ele>
        <time>2019-08-03T07:46:42.000Z</time>
      </trkpt>
      <trkpt lat="44.12424" lon="6.97951">
        <ele>1763.2</ele>
        <time>2019-08-03T07:46:46.000Z</time>
      </trkpt>
      <trkpt lat="44.12431" lon="6.97967">
        <ele>1763.1</ele>
        <time>2019-08-03T07:46:48.000Z</time>
      </trkpt>
      <trkpt lat="44.12434" lon="6.97989">
        <ele>1760.3</ele>
        <time>2019-08-03T07:46:51.000Z</time>
      </trkpt>
      <trkpt lat="44.12437" lon="6.98047">
        <ele>1759.7</ele>
        <time>2019-08-03T07:46:52.000Z</time>
      </trkpt>
      <trkpt lat="44.12427" lon="6.98064">
        <ele>1756</ele>
        <time>2019-08-03T07:46:54.000Z</time>
      </trkpt>
      <trkpt lat="44.12424" lon="6.98078">
        <ele>1751.5</ele>
        <time>2019-08-03T07:46:56.000Z</time>
      </trkpt>
      <trkpt lat="44.12423" lon="6.98094">
        <ele>1750</ele>
        <time>2019-08-03T07:46:58.000Z</time>
      </trkpt>
      <trkpt lat="44.12428" lon="6.98149">
        <ele>1747.7</ele>
        <time>2019-08-03T07:47:02.000Z</time>
      </trkpt>
      <trkpt lat="44.12437" lon="6.98167">
        <ele>1746.7</ele>
        <time>2019-08-03T07:47:04.000Z</time>
      </trkpt>
      <trkpt lat="44.12453" lon="6.98187">
        <ele>1752.4</ele>
        <time>2019-08-03T07:47:06.000Z</time>
      </trkpt>
      <trkpt lat="44.12465" lon="6.98205">
        <ele>1754.8</ele>
        <time>2019-08-03T07:47:08.000Z</time>
      </trkpt>
      <trkpt lat="44.12468" lon="6.98217">
        <ele>1755.4</ele>
        <time>2019-08-03T07:47:10.000Z</time>
      </trkpt>
      <trkpt lat="44.12466" lon="6.98228">
        <ele>1755.5</ele>
        <time>2019-08-03T07:47:12.000Z</time>
      </trkpt>
      <trkpt lat="44.1246" lon="6.98232">
        <ele>1754.8</ele>
        <time>2019-08-03T07:47:14.000Z</time>
      </trkpt>
      <trkpt lat="44.12451" lon="6.98231">
        <ele>1753.6</ele>
        <time>2019-08-03T07:47:16.000Z</time>
      </trkpt>
      <trkpt lat="44.12441" lon="6.98229">
        <ele>1752.4</ele>
        <time>2019-08-03T07:47:18.000Z</time>
      </trkpt>
      <trkpt lat="44.12395" lon="6.98246">
        <ele>1740.5</ele>
        <time>2019-08-03T07:47:22.000Z</time>
      </trkpt>
      <trkpt lat="44.12386" lon="6.98251">
        <ele>1751.8</ele>
        <time>2019-08-03T07:47:24.000Z</time>
      </trkpt>
      <trkpt lat="44.12351" lon="6.98279">
        <ele>1751.5</ele>
        <time>2019-08-03T07:47:26.000Z</time>
      </trkpt>
      <trkpt lat="44.12294" lon="6.98357">
        <ele>1771.5</ele>
        <time>2019-08-03T07:47:28.000Z</time>
      </trkpt>
      <trkpt lat="44.12266" lon="6.98362">
        <ele>1769.1</ele>
        <time>2019-08-03T07:47:30.000Z</time>
      </trkpt>
      <trkpt lat="44.12258" lon="6.98369">
        <ele>1770.4</ele>
        <time>2019-08-03T07:47:32.000Z</time>
      </trkpt>
      <trkpt lat="44.12244" lon="6.98385">
        <ele>1767.2</ele>
        <time>2019-08-03T08:00:11.000Z</time>
      </trkpt>
      <trkpt lat="44.12179" lon="6.98412">
        <ele>1768</ele>
        <time>2019-08-03T08:00:17.000Z</time>
      </trkpt>
      <trkpt lat="44.12169" lon="6.98425">
        <ele>1778.5</ele>
        <time>2019-08-03T08:00:21.000Z</time>
      </trkpt>
      <trkpt lat="44.12153" lon="6.98431">
        <ele>1786.3</ele>
        <time>2019-08-03T08:00:23.000Z</time>
      </trkpt>
      <trkpt lat="44.1214" lon="6.98428">
        <ele>1789.9</ele>
        <time>2019-08-03T08:00:25.000Z</time>
      </trkpt>
      <trkpt lat="44.12127" lon="6.98418">
        <ele>1792.3</ele>
        <time>2019-08-03T08:00:27.000Z</time>
      </trkpt>
      <trkpt lat="44.12119" lon="6.98404">
        <ele>1777.4</ele>
        <time>2019-08-03T08:00:33.000Z</time>
      </trkpt>
      <trkpt lat="44.12113" lon="6.9839">
        <ele>1776.7</ele>
        <time>2019-08-03T08:00:35.000Z</time>
      </trkpt>
      <trkpt lat="44.12101" lon="6.98378">
        <ele>1776.2</ele>
        <time>2019-08-03T08:00:37.000Z</time>
      </trkpt>
      <trkpt lat="44.12077" lon="6.98347">
        <ele>1783.9</ele>
        <time>2019-08-03T08:00:39.000Z</time>
      </trkpt>
      <trkpt lat="44.12033" lon="6.98324">
        <ele>1773.8</ele>
        <time>2019-08-03T08:00:41.000Z</time>
      </trkpt>
      <trkpt lat="44.12021" lon="6.98315">
        <ele>1774.8</ele>
        <time>2019-08-03T08:00:43.000Z</time>
      </trkpt>
      <trkpt lat="44.12013" lon="6.98316">
        <ele>1777.2</ele>
        <time>2019-08-03T08:00:45.000Z</time>
      </trkpt>
      <trkpt lat="44.12011" lon="6.98325">
        <ele>1781.9</ele>
        <time>2019-08-03T08:00:47.000Z</time>
      </trkpt>
      <trkpt lat="44.12019" lon="6.98334">
        <ele>1793.7</ele>
        <time>2019-08-03T08:00:49.000Z</time>
      </trkpt>
      <trkpt lat="44.12033" lon="6.98339">
        <ele>1792.8</ele>
        <time>2019-08-03T08:00:51.000Z</time>
      </trkpt>
      <trkpt lat="44.12062" lon="6.98362">
        <ele>1791.1</ele>
        <time>2019-08-03T08:00:57.000Z</time>
      </trkpt>
      <trkpt lat="44.12079" lon="6.98404">
        <ele>1796.9</ele>
        <time>2019-08-03T08:00:59.000Z</time>
      </trkpt>
      <trkpt lat="44.12107" lon="6.98486">
        <ele>1802.8</ele>
        <time>2019-08-03T08:01:01.000Z</time>
      </trkpt>
      <trkpt lat="44.12113" lon="6.98493">
        <ele>1802.9</ele>
        <time>2019-08-03T08:01:09.000Z</time>
      </trkpt>
      <trkpt lat="44.12124" lon="6.98494">
        <ele>1802.4</ele>
        <time>2019-08-03T08:01:11.000Z</time>
      </trkpt>
      <trkpt lat="44.12162" lon="6.98493">
        <ele>1807.5</ele>
        <time>2019-08-03T08:01:13.000Z</time>
      </trkpt>
      <trkpt lat="44.12188" lon="6.98487">
        <ele>1802.9</ele>
        <time>2019-08-03T08:01:15.000Z</time>
      </trkpt>
      <trkpt lat="44.12197" lon="6.98489">
        <ele>1802.8</ele>
        <time>2019-08-03T08:01:19.000Z</time>
      </trkpt>
      <trkpt lat="44.122" lon="6.98497">
        <ele>1803.7</ele>
        <time>2019-08-03T08:01:21.000Z</time>
      </trkpt>
      <trkpt lat="44.12197" lon="6.98507">
        <ele>1824.7</ele>
        <time>2019-08-03T08:01:23.000Z</time>
      </trkpt>
      <trkpt lat="44.12186" lon="6.98509">
        <ele>1822.4</ele>
        <time>2019-08-03T08:01:25.000Z</time>
      </trkpt>
      <trkpt lat="44.12148" lon="6.98518">
        <ele>1815.9</ele>
        <time>2019-08-03T08:01:27.000Z</time>
      </trkpt>
      <trkpt lat="44.12116" lon="6.98535">
        <ele>1815.8</ele>
        <time>2019-08-03T08:01:29.000Z</time>
      </trkpt>
      <trkpt lat="44.12104" lon="6.98551">
        <ele>1815.2</ele>
        <time>2019-08-03T08:01:31.000Z</time>
      </trkpt>
      <trkpt lat="44.12095" lon="6.98569">
        <ele>1813.2</ele>
        <time>2019-08-03T08:01:41.000Z</time>
      </trkpt>
      <trkpt lat="44.12082" lon="6.986">
        <ele>1803.6</ele>
        <time>2019-08-03T08:01:45.000Z</time>
      </trkpt>
      <trkpt lat="44.12082" lon="6.98614">
        <ele>1801.6</ele>
        <time>2019-08-03T08:01:50.000Z</time>
      </trkpt>
      <trkpt lat="44.12086" lon="6.98628">
        <ele>1814.9</ele>
        <time>2019-08-03T08:01:52.000Z</time>
      </trkpt>
      <trkpt lat="44.12091" lon="6.98637">
        <ele>1814.6</ele>
        <time>2019-08-03T08:01:54.000Z</time>
      </trkpt>
      <trkpt lat="44.12085" lon="6.98622">
        <ele>1872</ele>
        <time>2019-08-03T08:01:56.000Z</time>
      </trkpt>
      <trkpt lat="44.12085" lon="6.98622">
        <ele>1872</ele>
        <time>2019-08-03T08:02:06.000Z</time>
      </trkpt>
      <trkpt lat="44.12095" lon="6.98643">
        <ele>1877</ele>
        <time>2019-08-03T08:02:08.000Z</time>
      </trkpt>
      <trkpt lat="44.12107" lon="6.98654">
        <ele>1878</ele>
        <time>2019-08-03T08:02:10.000Z</time>
      </trkpt>
      <trkpt lat="44.12117" lon="6.98665">
        <ele>1880</ele>
        <time>2019-08-03T08:02:12.000Z</time>
      </trkpt>
      <trkpt lat="44.12117" lon="6.98665">
        <ele>1880</ele>
        <time>2019-08-03T08:02:18.000Z</time>
      </trkpt>
      <trkpt lat="44.12117" lon="6.98665">
        <ele>1880</ele>
        <time>2019-08-03T08:02:19.000Z</time>
      </trkpt>
      <trkpt lat="44.12117" lon="6.98665">
        <ele>1880</ele>
        <time>2019-08-03T08:02:21.000Z</time>
      </trkpt>
      <trkpt lat="44.12143" lon="6.98694">
        <ele>1882</ele>
        <time>2019-08-03T08:02:27.000Z</time>
      </trkpt>
      <trkpt lat="44.12152" lon="6.98706">
        <ele>1885</ele>
        <time>2019-08-03T08:02:29.000Z</time>
      </trkpt>
      <trkpt lat="44.12152" lon="6.98706">
        <ele>1885</ele>
        <time>2019-08-03T08:02:31.000Z</time>
      </trkpt>
      <trkpt lat="44.12152" lon="6.98706">
        <ele>1885</ele>
        <time>2019-08-03T08:02:33.000Z</time>
      </trkpt>
      <trkpt lat="44.12152" lon="6.98706">
        <ele>1885</ele>
        <time>2019-08-03T08:02:35.000Z</time>
      </trkpt>
      <trkpt lat="44.12152" lon="6.98706">
        <ele>1885</ele>
        <time>2019-08-03T08:02:37.000Z</time>
      </trkpt>
      <trkpt lat="44.12194" lon="6.98724">
        <ele>1887</ele>
        <time>2019-08-03T08:02:39.000Z</time>
      </trkpt>
      <trkpt lat="44.12194" lon="6.98724">
        <ele>1887</ele>
        <time>2019-08-03T08:02:41.000Z</time>
      </trkpt>
      <trkpt lat="44.12194" lon="6.98724">
        <ele>1887</ele>
        <time>2019-08-03T08:06:07.000Z</time>
      </trkpt>
      <trkpt lat="44.12227" lon="6.9871">
        <ele>1884</ele>
        <time>2019-08-03T08:06:11.000Z</time>
      </trkpt>
      <trkpt lat="44.12227" lon="6.9871">
        <ele>1884</ele>
        <time>2019-08-03T08:06:15.000Z</time>
      </trkpt>
      <trkpt lat="44.12227" lon="6.9871">
        <ele>1884</ele>
        <time>2019-08-03T08:06:17.000Z</time>
      </trkpt>
      <trkpt lat="44.12227" lon="6.9871">
        <ele>1884</ele>
        <time>2019-08-03T08:06:19.000Z</time>
      </trkpt>
      <trkpt lat="44.12227" lon="6.9871">
        <ele>1884</ele>
        <time>2019-08-03T08:06:21.000Z</time>
      </trkpt>
      <trkpt lat="44.12244" lon="6.98723">
        <ele>1889</ele>
        <time>2019-08-03T08:06:23.000Z</time>
      </trkpt>
      <trkpt lat="44.1225" lon="6.98738">
        <ele>1891</ele>
        <time>2019-08-03T08:06:27.000Z</time>
      </trkpt>
      <trkpt lat="44.12256" lon="6.9875">
        <ele>1893</ele>
        <time>2019-08-03T08:06:33.000Z</time>
      </trkpt>
      <trkpt lat="44.12261" lon="6.98764">
        <ele>1896</ele>
        <time>2019-08-03T08:06:35.000Z</time>
      </trkpt>
      <trkpt lat="44.12268" lon="6.98783">
        <ele>1893</ele>
        <time>2019-08-03T08:06:39.000Z</time>
      </trkpt>
      <trkpt lat="44.12277" lon="6.98794">
        <ele>1893</ele>
        <time>2019-08-03T08:06:45.000Z</time>
      </trkpt>
      <trkpt lat="44.12277" lon="6.98794">
        <ele>1893</ele>
        <time>2019-08-03T08:06:47.000Z</time>
      </trkpt>
      <trkpt lat="44.12286" lon="6.988">
        <ele>1893</ele>
        <time>2019-08-03T08:06:49.000Z</time>
      </trkpt>
      <trkpt lat="44.12286" lon="6.988">
        <ele>1893</ele>
        <time>2019-08-03T08:06:53.000Z</time>
      </trkpt>
      <trkpt lat="44.12286" lon="6.988">
        <ele>1893</ele>
        <time>2019-08-03T08:06:57.000Z</time>
      </trkpt>
      <trkpt lat="44.12286" lon="6.988">
        <ele>1893</ele>
        <time>2019-08-03T08:06:59.000Z</time>
      </trkpt>
      <trkpt lat="44.12286" lon="6.988">
        <ele>1893</ele>
        <time>2019-08-03T08:07:01.000Z</time>
      </trkpt>
      <trkpt lat="44.12286" lon="6.988">
        <ele>1893</ele>
        <time>2019-08-03T08:07:03.000Z</time>
      </trkpt>
      <trkpt lat="44.12286" lon="6.988">
        <ele>1893</ele>
        <time>2019-08-03T08:07:09.000Z</time>
      </trkpt>
      <trkpt lat="44.12286" lon="6.988">
        <ele>1893</ele>
        <time>2019-08-03T08:07:13.000Z</time>
      </trkpt>
      <trkpt lat="44.12286" lon="6.988">
        <ele>1893</ele>
        <time>2019-08-03T08:07:17.000Z</time>
      </trkpt>
      <trkpt lat="44.12286" lon="6.988">
        <ele>1893</ele>
        <time>2019-08-03T08:07:19.000Z</time>
      </trkpt>
      <trkpt lat="44.1233" lon="6.98862">
        <ele>1903</ele>
        <time>2019-08-03T08:07:21.000Z</time>
      </trkpt>
      <trkpt lat="44.1233" lon="6.98862">
        <ele>1903</ele>
        <time>2019-08-03T08:07:23.000Z</time>
      </trkpt>
      <trkpt lat="44.1233" lon="6.98862">
        <ele>1903</ele>
        <time>2019-08-03T08:07:27.000Z</time>
      </trkpt>
      <trkpt lat="44.12351" lon="6.98885">
        <ele>1902</ele>
        <time>2019-08-03T08:07:30.000Z</time>
      </trkpt>
      <trkpt lat="44.12359" lon="6.98894">
        <ele>1903</ele>
        <time>2019-08-03T08:07:32.000Z</time>
      </trkpt>
      <trkpt lat="44.12359" lon="6.98894">
        <ele>1903</ele>
        <time>2019-08-03T08:07:34.000Z</time>
      </trkpt>
      <trkpt lat="44.12368" lon="6.98904">
        <ele>1904</ele>
        <time>2019-08-03T08:07:36.000Z</time>
      </trkpt>
      <trkpt lat="44.12379" lon="6.98912">
        <ele>1905</ele>
        <time>2019-08-03T08:07:39.000Z</time>
      </trkpt>
      <trkpt lat="44.12379" lon="6.98912">
        <ele>1905</ele>
        <time>2019-08-03T08:07:41.000Z</time>
      </trkpt>
      <trkpt lat="44.12379" lon="6.98912">
        <ele>1905</ele>
        <time>2019-08-03T08:07:43.000Z</time>
      </trkpt>
      <trkpt lat="44.12379" lon="6.98912">
        <ele>1905</ele>
        <time>2019-08-03T08:07:49.000Z</time>
      </trkpt>
      <trkpt lat="44.12389" lon="6.98927">
        <ele>1911</ele>
        <time>2019-08-03T08:07:51.000Z</time>
      </trkpt>
      <trkpt lat="44.12396" lon="6.98937">
        <ele>1910</ele>
        <time>2019-08-03T08:07:53.000Z</time>
      </trkpt>
      <trkpt lat="44.12402" lon="6.98944">
        <ele>1911</ele>
        <time>2019-08-03T08:07:55.000Z</time>
      </trkpt>
      <trkpt lat="44.12408" lon="6.98952">
        <ele>1911</ele>
        <time>2019-08-03T08:07:57.000Z</time>
      </trkpt>
      <trkpt lat="44.12413" lon="6.98957">
        <ele>1913</ele>
        <time>2019-08-03T08:07:59.000Z</time>
      </trkpt>
      <trkpt lat="44.12423" lon="6.98966">
        <ele>1914</ele>
        <time>2019-08-03T08:08:01.000Z</time>
      </trkpt>
      <trkpt lat="44.12423" lon="6.98966">
        <ele>1914</ele>
        <time>2019-08-03T08:08:05.000Z</time>
      </trkpt>
      <trkpt lat="44.12423" lon="6.98966">
        <ele>1914</ele>
        <time>2019-08-03T08:08:07.000Z</time>
      </trkpt>
      <trkpt lat="44.12423" lon="6.98966">
        <ele>1914</ele>
        <time>2019-08-03T08:08:09.000Z</time>
      </trkpt>
      <trkpt lat="44.12423" lon="6.98966">
        <ele>1914</ele>
        <time>2019-08-03T08:08:13.000Z</time>
      </trkpt>
      <trkpt lat="44.12423" lon="6.98966">
        <ele>1914</ele>
        <time>2019-08-03T08:08:17.000Z</time>
      </trkpt>
      <trkpt lat="44.12461" lon="6.99013">
        <ele>1914</ele>
        <time>2019-08-03T08:08:19.000Z</time>
      </trkpt>
      <trkpt lat="44.12461" lon="6.99013">
        <ele>1914</ele>
        <time>2019-08-03T08:08:21.000Z</time>
      </trkpt>
      <trkpt lat="44.12461" lon="6.99013">
        <ele>1914</ele>
        <time>2019-08-03T08:08:27.000Z</time>
      </trkpt>
      <trkpt lat="44.12471" lon="6.99051">
        <ele>1918</ele>
        <time>2019-08-03T08:08:29.000Z</time>
      </trkpt>
      <trkpt lat="44.12479" lon="6.99066">
        <ele>1918</ele>
        <time>2019-08-03T08:08:31.000Z</time>
      </trkpt>
      <trkpt lat="44.1249" lon="6.99078">
        <ele>1919</ele>
        <time>2019-08-03T08:08:33.000Z</time>
      </trkpt>
      <trkpt lat="44.125" lon="6.99088">
        <ele>1922</ele>
        <time>2019-08-03T08:09:34.000Z</time>
      </trkpt>
      <trkpt lat="44.12512" lon="6.99099">
        <ele>1923</ele>
        <time>2019-08-03T08:09:40.000Z</time>
      </trkpt>
      <trkpt lat="44.12512" lon="6.99099">
        <ele>1923</ele>
        <time>2019-08-03T08:09:42.000Z</time>
      </trkpt>
      <trkpt lat="44.12512" lon="6.99099">
        <ele>1923</ele>
        <time>2019-08-03T08:10:03.000Z</time>
      </trkpt>
      <trkpt lat="44.12512" lon="6.99099">
        <ele>1923</ele>
        <time>2019-08-03T08:10:05.000Z</time>
      </trkpt>
      <trkpt lat="44.12512" lon="6.99099">
        <ele>1923</ele>
        <time>2019-08-03T08:10:07.000Z</time>
      </trkpt>
      <trkpt lat="44.12512" lon="6.99099">
        <ele>1923</ele>
        <time>2019-08-03T08:10:09.000Z</time>
      </trkpt>
      <trkpt lat="44.12512" lon="6.99099">
        <ele>1923</ele>
        <time>2019-08-03T08:10:11.000Z</time>
      </trkpt>
      <trkpt lat="44.12559" lon="6.99142">
        <ele>1924</ele>
        <time>2019-08-03T08:10:15.000Z</time>
      </trkpt>
      <trkpt lat="44.12569" lon="6.99151">
        <ele>1923</ele>
        <time>2019-08-03T08:10:21.000Z</time>
      </trkpt>
      <trkpt lat="44.12569" lon="6.99151">
        <ele>1923</ele>
        <time>2019-08-03T08:10:23.000Z</time>
      </trkpt>
      <trkpt lat="44.12569" lon="6.99151">
        <ele>1923</ele>
        <time>2019-08-03T08:10:25.000Z</time>
      </trkpt>
      <trkpt lat="44.12569" lon="6.99151">
        <ele>1923</ele>
        <time>2019-08-03T08:10:27.000Z</time>
      </trkpt>
      <trkpt lat="44.12604" lon="6.9917">
        <ele>1924</ele>
        <time>2019-08-03T08:10:31.000Z</time>
      </trkpt>
      <trkpt lat="44.1261" lon="6.99176">
        <ele>1924</ele>
        <time>2019-08-03T08:10:33.000Z</time>
      </trkpt>
      <trkpt lat="44.12616" lon="6.99181">
        <ele>1924</ele>
        <time>2019-08-03T08:10:35.000Z</time>
      </trkpt>
      <trkpt lat="44.12623" lon="6.99186">
        <ele>1924</ele>
        <time>2019-08-03T08:10:39.000Z</time>
      </trkpt>
      <trkpt lat="44.12623" lon="6.99186">
        <ele>1924</ele>
        <time>2019-08-03T08:10:41.000Z</time>
      </trkpt>
      <trkpt lat="44.12623" lon="6.99186">
        <ele>1924</ele>
        <time>2019-08-03T08:10:43.000Z</time>
      </trkpt>
      <trkpt lat="44.12623" lon="6.99186">
        <ele>1924</ele>
        <time>2019-08-03T08:10:45.000Z</time>
      </trkpt>
      <trkpt lat="44.12639" lon="6.99198">
        <ele>1924</ele>
        <time>2019-08-03T08:10:47.000Z</time>
      </trkpt>
      <trkpt lat="44.12651" lon="6.99206">
        <ele>1924</ele>
        <time>2019-08-03T08:10:49.000Z</time>
      </trkpt>
      <trkpt lat="44.1266" lon="6.99211">
        <ele>1924</ele>
        <time>2019-08-03T08:10:53.000Z</time>
      </trkpt>
      <trkpt lat="44.12668" lon="6.99216">
        <ele>1924</ele>
        <time>2019-08-03T08:10:55.000Z</time>
      </trkpt>
      <trkpt lat="44.12675" lon="6.9922">
        <ele>1925</ele>
        <time>2019-08-03T08:10:57.000Z</time>
      </trkpt>
      <trkpt lat="44.12675" lon="6.9922">
        <ele>1925</ele>
        <time>2019-08-03T08:10:59.000Z</time>
      </trkpt>
      <trkpt lat="44.12675" lon="6.9922">
        <ele>1925</ele>
        <time>2019-08-03T08:11:01.000Z</time>
      </trkpt>
      <trkpt lat="44.12675" lon="6.9922">
        <ele>1925</ele>
        <time>2019-08-03T08:11:03.000Z</time>
      </trkpt>
      <trkpt lat="44.12675" lon="6.9922">
        <ele>1925</ele>
        <time>2019-08-03T08:11:05.000Z</time>
      </trkpt>
      <trkpt lat="44.12675" lon="6.9922">
        <ele>1925</ele>
        <time>2019-08-03T08:11:07.000Z</time>
      </trkpt>
      <trkpt lat="44.12675" lon="6.9922">
        <ele>1925</ele>
        <time>2019-08-03T08:11:09.000Z</time>
      </trkpt>
      <trkpt lat="44.12721" lon="6.99252">
        <ele>1932</ele>
        <time>2019-08-03T08:11:11.000Z</time>
      </trkpt>
      <trkpt lat="44.12721" lon="6.99252">
        <ele>1932</ele>
        <time>2019-08-03T08:11:13.000Z</time>
      </trkpt>
      <trkpt lat="44.12721" lon="6.99252">
        <ele>1932</ele>
        <time>2019-08-03T08:11:15.000Z</time>
      </trkpt>
      <trkpt lat="44.12721" lon="6.99252">
        <ele>1932</ele>
        <time>2019-08-03T08:11:17.000Z</time>
      </trkpt>
      <trkpt lat="44.12747" lon="6.99256">
        <ele>1935</ele>
        <time>2019-08-03T08:11:19.000Z</time>
      </trkpt>
      <trkpt lat="44.12747" lon="6.99256">
        <ele>1935</ele>
        <time>2019-08-03T08:11:21.000Z</time>
      </trkpt>
      <trkpt lat="44.12756" lon="6.9926">
        <ele>1936</ele>
        <time>2019-08-03T08:11:23.000Z</time>
      </trkpt>
      <trkpt lat="44.12766" lon="6.99267">
        <ele>1938</ele>
        <time>2019-08-03T08:11:25.000Z</time>
      </trkpt>
      <trkpt lat="44.12775" lon="6.99274">
        <ele>1938</ele>
        <time>2019-08-03T08:11:27.000Z</time>
      </trkpt>
      <trkpt lat="44.12775" lon="6.99274">
        <ele>1938</ele>
        <time>2019-08-03T08:11:29.000Z</time>
      </trkpt>
      <trkpt lat="44.12775" lon="6.99274">
        <ele>1938</ele>
        <time>2019-08-03T08:11:30.000Z</time>
      </trkpt>
      <trkpt lat="44.12775" lon="6.99274">
        <ele>1938</ele>
        <time>2019-08-03T08:11:42.000Z</time>
      </trkpt>
      <trkpt lat="44.12775" lon="6.99274">
        <ele>1938</ele>
        <time>2019-08-03T08:11:44.000Z</time>
      </trkpt>
      <trkpt lat="44.12775" lon="6.99274">
        <ele>1938</ele>
        <time>2019-08-03T08:11:46.000Z</time>
      </trkpt>
      <trkpt lat="44.12823" lon="6.99295">
        <ele>1939</ele>
        <time>2019-08-03T08:11:50.000Z</time>
      </trkpt>
      <trkpt lat="44.12832" lon="6.99298">
        <ele>1940</ele>
        <time>2019-08-03T08:11:52.000Z</time>
      </trkpt>
      <trkpt lat="44.12832" lon="6.99298">
        <ele>1940</ele>
        <time>2019-08-03T08:11:54.000Z</time>
      </trkpt>
      <trkpt lat="44.12832" lon="6.99298">
        <ele>1940</ele>
        <time>2019-08-03T08:11:56.000Z</time>
      </trkpt>
      <trkpt lat="44.12832" lon="6.99298">
        <ele>1940</ele>
        <time>2019-08-03T08:11:58.000Z</time>
      </trkpt>
      <trkpt lat="44.12843" lon="6.99299">
        <ele>1942</ele>
        <time>2019-08-03T08:12:00.000Z</time>
      </trkpt>
      <trkpt lat="44.1285" lon="6.99301">
        <ele>1943</ele>
        <time>2019-08-03T08:12:02.000Z</time>
      </trkpt>
      <trkpt lat="44.12856" lon="6.99302">
        <ele>1942</ele>
        <time>2019-08-03T08:12:04.000Z</time>
      </trkpt>
      <trkpt lat="44.12862" lon="6.99304">
        <ele>1942</ele>
        <time>2019-08-03T08:12:08.000Z</time>
      </trkpt>
      <trkpt lat="44.12867" lon="6.99305">
        <ele>1944</ele>
        <time>2019-08-03T08:12:10.000Z</time>
      </trkpt>
      <trkpt lat="44.12867" lon="6.99305">
        <ele>1944</ele>
        <time>2019-08-03T08:12:12.000Z</time>
      </trkpt>
      <trkpt lat="44.12867" lon="6.99305">
        <ele>1944</ele>
        <time>2019-08-03T08:12:14.000Z</time>
      </trkpt>
      <trkpt lat="44.12867" lon="6.99305">
        <ele>1944</ele>
        <time>2019-08-03T08:12:20.000Z</time>
      </trkpt>
      <trkpt lat="44.12867" lon="6.99305">
        <ele>1944</ele>
        <time>2019-08-03T08:12:22.000Z</time>
      </trkpt>
      <trkpt lat="44.12867" lon="6.99305">
        <ele>1944</ele>
        <time>2019-08-03T08:12:24.000Z</time>
      </trkpt>
      <trkpt lat="44.12867" lon="6.99305">
        <ele>1944</ele>
        <time>2019-08-03T08:12:26.000Z</time>
      </trkpt>
      <trkpt lat="44.12901" lon="6.99312">
        <ele>1953</ele>
        <time>2019-08-03T08:12:28.000Z</time>
      </trkpt>
      <trkpt lat="44.12901" lon="6.99312">
        <ele>1953</ele>
        <time>2019-08-03T08:12:30.000Z</time>
      </trkpt>
      <trkpt lat="44.12901" lon="6.99312">
        <ele>1953</ele>
        <time>2019-08-03T08:12:32.000Z</time>
      </trkpt>
      <trkpt lat="44.12901" lon="6.99312">
        <ele>1953</ele>
        <time>2019-08-03T08:12:34.000Z</time>
      </trkpt>
      <trkpt lat="44.12901" lon="6.99312">
        <ele>1953</ele>
        <time>2019-08-03T08:12:38.000Z</time>
      </trkpt>
      <trkpt lat="44.12901" lon="6.99312">
        <ele>1953</ele>
        <time>2019-08-03T08:12:42.000Z</time>
      </trkpt>
      <trkpt lat="44.12929" lon="6.99315">
        <ele>1963</ele>
        <time>2019-08-03T08:12:44.000Z</time>
      </trkpt>
      <trkpt lat="44.12938" lon="6.99317">
        <ele>1966</ele>
        <time>2019-08-03T08:12:46.000Z</time>
      </trkpt>
      <trkpt lat="44.12938" lon="6.99317">
        <ele>1966</ele>
        <time>2019-08-03T08:12:48.000Z</time>
      </trkpt>
      <trkpt lat="44.12938" lon="6.99317">
        <ele>1966</ele>
        <time>2019-08-03T08:12:56.000Z</time>
      </trkpt>
      <trkpt lat="44.12954" lon="6.99319">
        <ele>1968</ele>
        <time>2019-08-03T08:13:00.000Z</time>
      </trkpt>
      <trkpt lat="44.12954" lon="6.99319">
        <ele>1968</ele>
        <time>2019-08-03T08:13:04.000Z</time>
      </trkpt>
      <trkpt lat="44.12954" lon="6.99319">
        <ele>1968</ele>
        <time>2019-08-03T08:13:08.000Z</time>
      </trkpt>
      <trkpt lat="44.12954" lon="6.99319">
        <ele>1968</ele>
        <time>2019-08-03T08:13:10.000Z</time>
      </trkpt>
      <trkpt lat="44.12978" lon="6.99313">
        <ele>1968</ele>
        <time>2019-08-03T08:13:14.000Z</time>
      </trkpt>
      <trkpt lat="44.12978" lon="6.99313">
        <ele>1968</ele>
        <time>2019-08-03T08:13:18.000Z</time>
      </trkpt>
      <trkpt lat="44.12978" lon="6.99313">
        <ele>1968</ele>
        <time>2019-08-03T08:13:20.000Z</time>
      </trkpt>
      <trkpt lat="44.12997" lon="6.99309">
        <ele>1977</ele>
        <time>2019-08-03T08:13:22.000Z</time>
      </trkpt>
      <trkpt lat="44.12997" lon="6.99309">
        <ele>1977</ele>
        <time>2019-08-03T08:13:24.000Z</time>
      </trkpt>
      <trkpt lat="44.12997" lon="6.99309">
        <ele>1977</ele>
        <time>2019-08-03T08:13:26.000Z</time>
      </trkpt>
      <trkpt lat="44.12997" lon="6.99309">
        <ele>1977</ele>
        <time>2019-08-03T08:13:30.000Z</time>
      </trkpt>
      <trkpt lat="44.1302" lon="6.99314">
        <ele>1979</ele>
        <time>2019-08-03T08:13:32.000Z</time>
      </trkpt>
      <trkpt lat="44.13028" lon="6.99324">
        <ele>1979</ele>
        <time>2019-08-03T08:13:36.000Z</time>
      </trkpt>
      <trkpt lat="44.13028" lon="6.99324">
        <ele>1979</ele>
        <time>2019-08-03T08:13:38.000Z</time>
      </trkpt>
      <trkpt lat="44.13035" lon="6.99335">
        <ele>1977</ele>
        <time>2019-08-03T08:13:40.000Z</time>
      </trkpt>
      <trkpt lat="44.13042" lon="6.9935">
        <ele>1977</ele>
        <time>2019-08-03T08:13:42.000Z</time>
      </trkpt>
      <trkpt lat="44.13042" lon="6.9935">
        <ele>1977</ele>
        <time>2019-08-03T08:13:44.000Z</time>
      </trkpt>
      <trkpt lat="44.13042" lon="6.9935">
        <ele>1977</ele>
        <time>2019-08-03T08:13:46.000Z</time>
      </trkpt>
      <trkpt lat="44.13042" lon="6.9935">
        <ele>1977</ele>
        <time>2019-08-03T08:13:48.000Z</time>
      </trkpt>
      <trkpt lat="44.13055" lon="6.99376">
        <ele>1979</ele>
        <time>2019-08-03T08:13:52.000Z</time>
      </trkpt>
      <trkpt lat="44.13055" lon="6.99376">
        <ele>1979</ele>
        <time>2019-08-03T08:13:54.000Z</time>
      </trkpt>
      <trkpt lat="44.13055" lon="6.99376">
        <ele>1979</ele>
        <time>2019-08-03T08:13:56.000Z</time>
      </trkpt>
      <trkpt lat="44.13055" lon="6.99376">
        <ele>1979</ele>
        <time>2019-08-03T08:13:58.000Z</time>
      </trkpt>
      <trkpt lat="44.13055" lon="6.99376">
        <ele>1979</ele>
        <time>2019-08-03T08:14:00.000Z</time>
      </trkpt>
      <trkpt lat="44.13073" lon="6.99402">
        <ele>1979</ele>
        <time>2019-08-03T08:14:02.000Z</time>
      </trkpt>
      <trkpt lat="44.13078" lon="6.99414">
        <ele>1978</ele>
        <time>2019-08-03T08:14:08.000Z</time>
      </trkpt>
      <trkpt lat="44.13078" lon="6.99414">
        <ele>1978</ele>
        <time>2019-08-03T08:14:10.000Z</time>
      </trkpt>
      <trkpt lat="44.13084" lon="6.9943">
        <ele>1979</ele>
        <time>2019-08-03T08:14:12.000Z</time>
      </trkpt>
      <trkpt lat="44.13084" lon="6.99447">
        <ele>1982</ele>
        <time>2019-08-03T08:14:14.000Z</time>
      </trkpt>
      <trkpt lat="44.13085" lon="6.99463">
        <ele>1984</ele>
        <time>2019-08-03T08:14:16.000Z</time>
      </trkpt>
      <trkpt lat="44.13085" lon="6.99463">
        <ele>1984</ele>
        <time>2019-08-03T08:14:18.000Z</time>
      </trkpt>
      <trkpt lat="44.13085" lon="6.99463">
        <ele>1984</ele>
        <time>2019-08-03T08:14:24.000Z</time>
      </trkpt>
      <trkpt lat="44.13085" lon="6.99463">
        <ele>1984</ele>
        <time>2019-08-03T08:14:28.000Z</time>
      </trkpt>
      <trkpt lat="44.13085" lon="6.99463">
        <ele>1984</ele>
        <time>2019-08-03T08:14:30.000Z</time>
      </trkpt>
      <trkpt lat="44.13085" lon="6.99463">
        <ele>1984</ele>
        <time>2019-08-03T08:14:33.000Z</time>
      </trkpt>
      <trkpt lat="44.13067" lon="6.9951">
        <ele>1985</ele>
        <time>2019-08-03T08:14:35.000Z</time>
      </trkpt>
      <trkpt lat="44.13059" lon="6.99521">
        <ele>1987</ele>
        <time>2019-08-03T08:14:41.000Z</time>
      </trkpt>
      <trkpt lat="44.13059" lon="6.99521">
        <ele>1987</ele>
        <time>2019-08-03T08:16:39.000Z</time>
      </trkpt>
      <trkpt lat="44.13051" lon="6.99531">
        <ele>1986</ele>
        <time>2019-08-03T08:16:42.000Z</time>
      </trkpt>
      <trkpt lat="44.13051" lon="6.99531">
        <ele>1986</ele>
        <time>2019-08-03T08:16:46.000Z</time>
      </trkpt>
      <trkpt lat="44.13051" lon="6.99531">
        <ele>1986</ele>
        <time>2019-08-03T08:16:48.000Z</time>
      </trkpt>
      <trkpt lat="44.13051" lon="6.99531">
        <ele>1986</ele>
        <time>2019-08-03T08:16:50.000Z</time>
      </trkpt>
      <trkpt lat="44.13051" lon="6.99531">
        <ele>1986</ele>
        <time>2019-08-03T08:16:54.000Z</time>
      </trkpt>
      <trkpt lat="44.13051" lon="6.99531">
        <ele>1986</ele>
        <time>2019-08-03T08:16:56.000Z</time>
      </trkpt>
      <trkpt lat="44.13051" lon="6.99531">
        <ele>1986</ele>
        <time>2019-08-03T08:16:58.000Z</time>
      </trkpt>
      <trkpt lat="44.13051" lon="6.99531">
        <ele>1986</ele>
        <time>2019-08-03T08:17:00.000Z</time>
      </trkpt>
      <trkpt lat="44.1303" lon="6.99555">
        <ele>1988</ele>
        <time>2019-08-03T08:17:02.000Z</time>
      </trkpt>
      <trkpt lat="44.13018" lon="6.99568">
        <ele>1988</ele>
        <time>2019-08-03T08:17:08.000Z</time>
      </trkpt>
      <trkpt lat="44.13018" lon="6.99568">
        <ele>1988</ele>
        <time>2019-08-03T08:17:10.000Z</time>
      </trkpt>
      <trkpt lat="44.13018" lon="6.99568">
        <ele>1988</ele>
        <time>2019-08-03T08:17:12.000Z</time>
      </trkpt>
      <trkpt lat="44.13018" lon="6.99577">
        <ele>1986</ele>
        <time>2019-08-03T08:17:14.000Z</time>
      </trkpt>
      <trkpt lat="44.13018" lon="6.99577">
        <ele>1986</ele>
        <time>2019-08-03T08:17:18.000Z</time>
      </trkpt>
      <trkpt lat="44.13018" lon="6.99577">
        <ele>1986</ele>
        <time>2019-08-03T08:17:22.000Z</time>
      </trkpt>
      <trkpt lat="44.13023" lon="6.99575">
        <ele>1992</ele>
        <time>2019-08-03T08:17:24.000Z</time>
      </trkpt>
      <trkpt lat="44.13023" lon="6.99575">
        <ele>1992</ele>
        <time>2019-08-03T08:17:26.000Z</time>
      </trkpt>
      <trkpt lat="44.13023" lon="6.99575">
        <ele>1992</ele>
        <time>2019-08-03T08:17:29.000Z</time>
      </trkpt>
      <trkpt lat="44.13023" lon="6.99575">
        <ele>1992</ele>
        <time>2019-08-03T08:17:30.000Z</time>
      </trkpt>
      <trkpt lat="44.13023" lon="6.99575">
        <ele>1992</ele>
        <time>2019-08-03T08:19:03.000Z</time>
      </trkpt>
      <trkpt lat="44.13023" lon="6.99575">
        <ele>1992</ele>
        <time>2019-08-03T08:19:05.000Z</time>
      </trkpt>
      <trkpt lat="44.13034" lon="6.9957">
        <ele>1995</ele>
        <time>2019-08-03T08:19:07.000Z</time>
      </trkpt>
      <trkpt lat="44.13041" lon="6.99567">
        <ele>1996</ele>
        <time>2019-08-03T08:19:09.000Z</time>
      </trkpt>
      <trkpt lat="44.13047" lon="6.99564">
        <ele>1996</ele>
        <time>2019-08-03T08:19:11.000Z</time>
      </trkpt>
      <trkpt lat="44.13054" lon="6.99562">
        <ele>1996</ele>
        <time>2019-08-03T08:19:17.000Z</time>
      </trkpt>
      <trkpt lat="44.13059" lon="6.99561">
        <ele>1997</ele>
        <time>2019-08-03T08:19:21.000Z</time>
      </trkpt>
      <trkpt lat="44.13069" lon="6.9956">
        <ele>1998</ele>
        <time>2019-08-03T08:19:23.000Z</time>
      </trkpt>
      <trkpt lat="44.13069" lon="6.9956">
        <ele>1998</ele>
        <time>2019-08-03T08:19:25.000Z</time>
      </trkpt>
      <trkpt lat="44.13069" lon="6.9956">
        <ele>1998</ele>
        <time>2019-08-03T08:19:27.000Z</time>
      </trkpt>
      <trkpt lat="44.13069" lon="6.9956">
        <ele>1998</ele>
        <time>2019-08-03T08:19:36.000Z</time>
      </trkpt>
      <trkpt lat="44.13069" lon="6.9956">
        <ele>1998</ele>
        <time>2019-08-03T08:19:40.000Z</time>
      </trkpt>
      <trkpt lat="44.13111" lon="6.9956">
        <ele>2002</ele>
        <time>2019-08-03T08:19:42.000Z</time>
      </trkpt>
      <trkpt lat="44.1312" lon="6.99552">
        <ele>2002</ele>
        <time>2019-08-03T08:19:44.000Z</time>
      </trkpt>
      <trkpt lat="44.1312" lon="6.99552">
        <ele>2002</ele>
        <time>2019-08-03T08:19:46.000Z</time>
      </trkpt>
      <trkpt lat="44.1312" lon="6.99552">
        <ele>2002</ele>
        <time>2019-08-03T08:19:53.000Z</time>
      </trkpt>
      <trkpt lat="44.1312" lon="6.99552">
        <ele>2002</ele>
        <time>2019-08-03T08:20:09.000Z</time>
      </trkpt>
      <trkpt lat="44.1312" lon="6.99552">
        <ele>2002</ele>
        <time>2019-08-03T08:20:11.000Z</time>
      </trkpt>
      <trkpt lat="44.1312" lon="6.99552">
        <ele>2002</ele>
        <time>2019-08-03T08:20:13.000Z</time>
      </trkpt>
      <trkpt lat="44.13149" lon="6.99525">
        <ele>2005</ele>
        <time>2019-08-03T08:20:17.000Z</time>
      </trkpt>
      <trkpt lat="44.13149" lon="6.99525">
        <ele>2005</ele>
        <time>2019-08-03T08:23:17.000Z</time>
      </trkpt>
      <trkpt lat="44.13149" lon="6.99525">
        <ele>2005</ele>
        <time>2019-08-03T08:23:21.000Z</time>
      </trkpt>
      <trkpt lat="44.13149" lon="6.99525">
        <ele>2005</ele>
        <time>2019-08-03T08:23:27.000Z</time>
      </trkpt>
      <trkpt lat="44.13149" lon="6.99525">
        <ele>2005</ele>
        <time>2019-08-03T08:23:29.000Z</time>
      </trkpt>
      <trkpt lat="44.13149" lon="6.99525">
        <ele>2005</ele>
        <time>2019-08-03T08:23:31.000Z</time>
      </trkpt>
      <trkpt lat="44.13174" lon="6.99503">
        <ele>2009</ele>
        <time>2019-08-03T08:23:33.000Z</time>
      </trkpt>
      <trkpt lat="44.13181" lon="6.99497">
        <ele>2009</ele>
        <time>2019-08-03T08:23:35.000Z</time>
      </trkpt>
      <trkpt lat="44.13181" lon="6.99497">
        <ele>2009</ele>
        <time>2019-08-03T08:23:37.000Z</time>
      </trkpt>
      <trkpt lat="44.13181" lon="6.99497">
        <ele>2009</ele>
        <time>2019-08-03T08:23:39.000Z</time>
      </trkpt>
      <trkpt lat="44.13181" lon="6.99497">
        <ele>2009</ele>
        <time>2019-08-03T08:23:47.000Z</time>
      </trkpt>
      <trkpt lat="44.13181" lon="6.99497">
        <ele>2009</ele>
        <time>2019-08-03T08:23:51.000Z</time>
      </trkpt>
      <trkpt lat="44.13181" lon="6.99497">
        <ele>2009</ele>
        <time>2019-08-03T08:23:53.000Z</time>
      </trkpt>
      <trkpt lat="44.13181" lon="6.99497">
        <ele>2009</ele>
        <time>2019-08-03T08:23:55.000Z</time>
      </trkpt>
      <trkpt lat="44.13195" lon="6.99484">
        <ele>2017</ele>
        <time>2019-08-03T08:23:57.000Z</time>
      </trkpt>
      <trkpt lat="44.13203" lon="6.99475">
        <ele>2017</ele>
        <time>2019-08-03T08:23:59.000Z</time>
      </trkpt>
      <trkpt lat="44.13207" lon="6.99467">
        <ele>2017</ele>
        <time>2019-08-03T08:24:01.000Z</time>
      </trkpt>
      <trkpt lat="44.13211" lon="6.99461">
        <ele>2018</ele>
        <time>2019-08-03T08:26:51.000Z</time>
      </trkpt>
      <trkpt lat="44.13213" lon="6.99454">
        <ele>2021</ele>
        <time>2019-08-03T08:26:57.000Z</time>
      </trkpt>
      <trkpt lat="44.13216" lon="6.99442">
        <ele>2022</ele>
        <time>2019-08-03T08:27:03.000Z</time>
      </trkpt>
      <trkpt lat="44.13216" lon="6.99442">
        <ele>2022</ele>
        <time>2019-08-03T08:27:07.000Z</time>
      </trkpt>
      <trkpt lat="44.13216" lon="6.99442">
        <ele>2022</ele>
        <time>2019-08-03T08:27:13.000Z</time>
      </trkpt>
      <trkpt lat="44.13216" lon="6.99442">
        <ele>2022</ele>
        <time>2019-08-03T08:27:17.000Z</time>
      </trkpt>
      <trkpt lat="44.13216" lon="6.99442">
        <ele>2022</ele>
        <time>2019-08-03T08:27:19.000Z</time>
      </trkpt>
      <trkpt lat="44.13216" lon="6.99442">
        <ele>2022</ele>
        <time>2019-08-03T08:27:21.000Z</time>
      </trkpt>
      <trkpt lat="44.13216" lon="6.99442">
        <ele>2022</ele>
        <time>2019-08-03T08:27:23.000Z</time>
      </trkpt>
      <trkpt lat="44.13216" lon="6.99442">
        <ele>2022</ele>
        <time>2019-08-03T08:27:25.000Z</time>
      </trkpt>
      <trkpt lat="44.13216" lon="6.99442">
        <ele>2022</ele>
        <time>2019-08-03T08:27:26.000Z</time>
      </trkpt>
      <trkpt lat="44.13216" lon="6.99442">
        <ele>2022</ele>
        <time>2019-08-03T08:27:29.000Z</time>
      </trkpt>
      <trkpt lat="44.13225" lon="6.99428">
        <ele>2032</ele>
        <time>2019-08-03T08:27:31.000Z</time>
      </trkpt>
      <trkpt lat="44.1322" lon="6.99471">
        <ele>2029</ele>
        <time>2019-08-03T08:35:15.000Z</time>
      </trkpt>
      <trkpt lat="44.13211" lon="6.99502">
        <ele>2028</ele>
        <time>2019-08-03T08:35:19.000Z</time>
      </trkpt>
      <trkpt lat="44.13211" lon="6.99502">
        <ele>2028</ele>
        <time>2019-08-03T08:35:21.000Z</time>
      </trkpt>
      <trkpt lat="44.13211" lon="6.99502">
        <ele>2028</ele>
        <time>2019-08-03T08:35:23.000Z</time>
      </trkpt>
      <trkpt lat="44.13211" lon="6.99502">
        <ele>2028</ele>
        <time>2019-08-03T08:35:28.000Z</time>
      </trkpt>
      <trkpt lat="44.13173" lon="6.99574">
        <ele>2029</ele>
        <time>2019-08-03T08:35:30.000Z</time>
      </trkpt>
      <trkpt lat="44.13164" lon="6.9959">
        <ele>2028</ele>
        <time>2019-08-03T08:35:32.000Z</time>
      </trkpt>
      <trkpt lat="44.13156" lon="6.99605">
        <ele>2029</ele>
        <time>2019-08-03T08:35:34.000Z</time>
      </trkpt>
      <trkpt lat="44.13147" lon="6.99618">
        <ele>2029</ele>
        <time>2019-08-03T08:35:36.000Z</time>
      </trkpt>
      <trkpt lat="44.13137" lon="6.99628">
        <ele>2029</ele>
        <time>2019-08-03T08:35:42.000Z</time>
      </trkpt>
      <trkpt lat="44.13127" lon="6.99634">
        <ele>2029</ele>
        <time>2019-08-03T08:35:46.000Z</time>
      </trkpt>
      <trkpt lat="44.13127" lon="6.99634">
        <ele>2029</ele>
        <time>2019-08-03T08:35:50.000Z</time>
      </trkpt>
      <trkpt lat="44.13127" lon="6.99634">
        <ele>2029</ele>
        <time>2019-08-03T08:35:52.000Z</time>
      </trkpt>
      <trkpt lat="44.13127" lon="6.99634">
        <ele>2029</ele>
        <time>2019-08-03T08:35:54.000Z</time>
      </trkpt>
      <trkpt lat="44.13127" lon="6.99634">
        <ele>2029</ele>
        <time>2019-08-03T08:35:58.000Z</time>
      </trkpt>
      <trkpt lat="44.13088" lon="6.99648">
        <ele>2033</ele>
        <time>2019-08-03T08:36:00.000Z</time>
      </trkpt>
      <trkpt lat="44.13088" lon="6.99648">
        <ele>2033</ele>
        <time>2019-08-03T08:36:02.000Z</time>
      </trkpt>
      <trkpt lat="44.13088" lon="6.99648">
        <ele>2033</ele>
        <time>2019-08-03T08:36:04.000Z</time>
      </trkpt>
      <trkpt lat="44.13088" lon="6.99648">
        <ele>2033</ele>
        <time>2019-08-03T08:36:06.000Z</time>
      </trkpt>
      <trkpt lat="44.13088" lon="6.99648">
        <ele>2033</ele>
        <time>2019-08-03T08:36:08.000Z</time>
      </trkpt>
      <trkpt lat="44.13088" lon="6.99648">
        <ele>2033</ele>
        <time>2019-08-03T08:36:12.000Z</time>
      </trkpt>
      <trkpt lat="44.13088" lon="6.99648">
        <ele>2033</ele>
        <time>2019-08-03T08:36:16.000Z</time>
      </trkpt>
      <trkpt lat="44.13045" lon="6.99679">
        <ele>2045</ele>
        <time>2019-08-03T08:36:20.000Z</time>
      </trkpt>
      <trkpt lat="44.13045" lon="6.99679">
        <ele>2045</ele>
        <time>2019-08-03T08:36:22.000Z</time>
      </trkpt>
      <trkpt lat="44.13045" lon="6.99679">
        <ele>2045</ele>
        <time>2019-08-03T08:36:24.000Z</time>
      </trkpt>
      <trkpt lat="44.13045" lon="6.99679">
        <ele>2045</ele>
        <time>2019-08-03T08:36:26.000Z</time>
      </trkpt>
      <trkpt lat="44.13045" lon="6.99679">
        <ele>2045</ele>
        <time>2019-08-03T08:36:28.000Z</time>
      </trkpt>
      <trkpt lat="44.13045" lon="6.99679">
        <ele>2045</ele>
        <time>2019-08-03T08:36:30.000Z</time>
      </trkpt>
      <trkpt lat="44.13045" lon="6.99679">
        <ele>2045</ele>
        <time>2019-08-03T08:36:36.000Z</time>
      </trkpt>
      <trkpt lat="44.13045" lon="6.99679">
        <ele>2045</ele>
        <time>2019-08-03T08:36:38.000Z</time>
      </trkpt>
      <trkpt lat="44.13045" lon="6.99679">
        <ele>2045</ele>
        <time>2019-08-03T08:36:40.000Z</time>
      </trkpt>
      <trkpt lat="44.13024" lon="6.99701">
        <ele>2055</ele>
        <time>2019-08-03T08:36:42.000Z</time>
      </trkpt>
      <trkpt lat="44.13013" lon="6.99712">
        <ele>2057</ele>
        <time>2019-08-03T08:36:44.000Z</time>
      </trkpt>
      <trkpt lat="44.13006" lon="6.9972">
        <ele>2059</ele>
        <time>2019-08-03T08:36:46.000Z</time>
      </trkpt>
      <trkpt lat="44.13006" lon="6.9972">
        <ele>2059</ele>
        <time>2019-08-03T08:36:48.000Z</time>
      </trkpt>
      <trkpt lat="44.12993" lon="6.9973">
        <ele>2061</ele>
        <time>2019-08-03T08:36:50.000Z</time>
      </trkpt>
      <trkpt lat="44.12984" lon="6.99736">
        <ele>2060</ele>
        <time>2019-08-03T08:36:52.000Z</time>
      </trkpt>
      <trkpt lat="44.12984" lon="6.99736">
        <ele>2060</ele>
        <time>2019-08-03T08:36:54.000Z</time>
      </trkpt>
      <trkpt lat="44.12984" lon="6.99736">
        <ele>2060</ele>
        <time>2019-08-03T08:36:56.000Z</time>
      </trkpt>
      <trkpt lat="44.12972" lon="6.99746">
        <ele>2065</ele>
        <time>2019-08-03T08:36:58.000Z</time>
      </trkpt>
      <trkpt lat="44.12966" lon="6.99751">
        <ele>2068</ele>
        <time>2019-08-03T08:37:00.000Z</time>
      </trkpt>
      <trkpt lat="44.12962" lon="6.99755">
        <ele>2069</ele>
        <time>2019-08-03T08:37:02.000Z</time>
      </trkpt>
      <trkpt lat="44.12957" lon="6.99762">
        <ele>2073</ele>
        <time>2019-08-03T08:37:04.000Z</time>
      </trkpt>
      <trkpt lat="44.12953" lon="6.99767">
        <ele>2074</ele>
        <time>2019-08-03T08:37:06.000Z</time>
      </trkpt>
      <trkpt lat="44.1295" lon="6.99771">
        <ele>2073</ele>
        <time>2019-08-03T08:37:08.000Z</time>
      </trkpt>
      <trkpt lat="44.1295" lon="6.99771">
        <ele>2073</ele>
        <time>2019-08-03T08:37:12.000Z</time>
      </trkpt>
      <trkpt lat="44.1295" lon="6.99771">
        <ele>2073</ele>
        <time>2019-08-03T08:37:16.000Z</time>
      </trkpt>
      <trkpt lat="44.1295" lon="6.99771">
        <ele>2073</ele>
        <time>2019-08-03T08:37:18.000Z</time>
      </trkpt>
      <trkpt lat="44.1295" lon="6.99771">
        <ele>2073</ele>
        <time>2019-08-03T08:37:22.000Z</time>
      </trkpt>
      <trkpt lat="44.1295" lon="6.99771">
        <ele>2073</ele>
        <time>2019-08-03T08:37:25.000Z</time>
      </trkpt>
      <trkpt lat="44.12933" lon="6.99799">
        <ele>2069</ele>
        <time>2019-08-03T08:37:26.000Z</time>
      </trkpt>
      <trkpt lat="44.1293" lon="6.99811">
        <ele>2068</ele>
        <time>2019-08-03T08:37:28.000Z</time>
      </trkpt>
      <trkpt lat="44.12921" lon="6.99828">
        <ele>2069</ele>
        <time>2019-08-03T08:37:30.000Z</time>
      </trkpt>
      <trkpt lat="44.12921" lon="6.99828">
        <ele>2069</ele>
        <time>2019-08-03T08:37:32.000Z</time>
      </trkpt>
      <trkpt lat="44.12921" lon="6.99828">
        <ele>2069</ele>
        <time>2019-08-03T08:37:34.000Z</time>
      </trkpt>
      <trkpt lat="44.12921" lon="6.99828">
        <ele>2069</ele>
        <time>2019-08-03T08:37:36.000Z</time>
      </trkpt>
      <trkpt lat="44.12921" lon="6.99828">
        <ele>2069</ele>
        <time>2019-08-03T08:37:38.000Z</time>
      </trkpt>
      <trkpt lat="44.12915" lon="6.99848">
        <ele>2072</ele>
        <time>2019-08-03T08:37:40.000Z</time>
      </trkpt>
      <trkpt lat="44.12914" lon="6.9986">
        <ele>2072</ele>
        <time>2019-08-03T08:37:46.000Z</time>
      </trkpt>
      <trkpt lat="44.12914" lon="6.9986">
        <ele>2072</ele>
        <time>2019-08-03T08:37:50.000Z</time>
      </trkpt>
      <trkpt lat="44.12913" lon="6.99875">
        <ele>2071</ele>
        <time>2019-08-03T08:37:52.000Z</time>
      </trkpt>
      <trkpt lat="44.12908" lon="6.9989">
        <ele>2068</ele>
        <time>2019-08-03T08:37:54.000Z</time>
      </trkpt>
      <trkpt lat="44.12908" lon="6.9989">
        <ele>2068</ele>
        <time>2019-08-03T08:37:56.000Z</time>
      </trkpt>
      <trkpt lat="44.12908" lon="6.9989">
        <ele>2068</ele>
        <time>2019-08-03T08:37:58.000Z</time>
      </trkpt>
      <trkpt lat="44.12902" lon="6.99908">
        <ele>2064</ele>
        <time>2019-08-03T08:38:04.000Z</time>
      </trkpt>
      <trkpt lat="44.12902" lon="6.99908">
        <ele>2064</ele>
        <time>2019-08-03T08:38:08.000Z</time>
      </trkpt>
      <trkpt lat="44.12902" lon="6.99908">
        <ele>2064</ele>
        <time>2019-08-03T08:38:12.000Z</time>
      </trkpt>
      <trkpt lat="44.12902" lon="6.99908">
        <ele>2064</ele>
        <time>2019-08-03T08:38:14.000Z</time>
      </trkpt>
      <trkpt lat="44.12901" lon="6.9993">
        <ele>2061</ele>
        <time>2019-08-03T08:38:16.000Z</time>
      </trkpt>
      <trkpt lat="44.12905" lon="6.9995">
        <ele>2059</ele>
        <time>2019-08-03T08:38:18.000Z</time>
      </trkpt>
      <trkpt lat="44.12911" lon="6.99967">
        <ele>2057</ele>
        <time>2019-08-03T08:38:22.000Z</time>
      </trkpt>
      <trkpt lat="44.12916" lon="6.99984">
        <ele>2055</ele>
        <time>2019-08-03T08:38:24.000Z</time>
      </trkpt>
      <trkpt lat="44.12916" lon="6.99984">
        <ele>2055</ele>
        <time>2019-08-03T08:38:26.000Z</time>
      </trkpt>
      <trkpt lat="44.12916" lon="6.99984">
        <ele>2055</ele>
        <time>2019-08-03T08:38:28.000Z</time>
      </trkpt>
      <trkpt lat="44.12916" lon="6.99984">
        <ele>2055</ele>
        <time>2019-08-03T08:38:30.000Z</time>
      </trkpt>
      <trkpt lat="44.1292" lon="7.00012">
        <ele>2051</ele>
        <time>2019-08-03T08:38:34.000Z</time>
      </trkpt>
      <trkpt lat="44.12923" lon="7.00029">
        <ele>2050</ele>
        <time>2019-08-03T08:38:36.000Z</time>
      </trkpt>
      <trkpt lat="44.12925" lon="7.00042">
        <ele>2049</ele>
        <time>2019-08-03T08:38:38.000Z</time>
      </trkpt>
      <trkpt lat="44.12928" lon="7.00055">
        <ele>2048</ele>
        <time>2019-08-03T08:38:40.000Z</time>
      </trkpt>
      <trkpt lat="44.12928" lon="7.00055">
        <ele>2048</ele>
        <time>2019-08-03T08:38:42.000Z</time>
      </trkpt>
      <trkpt lat="44.12928" lon="7.00055">
        <ele>2048</ele>
        <time>2019-08-03T08:38:44.000Z</time>
      </trkpt>
      <trkpt lat="44.12928" lon="7.00055">
        <ele>2048</ele>
        <time>2019-08-03T08:38:46.000Z</time>
      </trkpt>
      <trkpt lat="44.12928" lon="7.00055">
        <ele>2048</ele>
        <time>2019-08-03T08:38:48.000Z</time>
      </trkpt>
      <trkpt lat="44.12927" lon="7.00067">
        <ele>2047</ele>
        <time>2019-08-03T08:38:54.000Z</time>
      </trkpt>
      <trkpt lat="44.12925" lon="7.00076">
        <ele>2045</ele>
        <time>2019-08-03T08:38:56.000Z</time>
      </trkpt>
      <trkpt lat="44.12924" lon="7.00085">
        <ele>2046</ele>
        <time>2019-08-03T08:38:58.000Z</time>
      </trkpt>
      <trkpt lat="44.12924" lon="7.00095">
        <ele>2045</ele>
        <time>2019-08-03T08:39:00.000Z</time>
      </trkpt>
      <trkpt lat="44.12923" lon="7.00107">
        <ele>2045</ele>
        <time>2019-08-03T08:39:02.000Z</time>
      </trkpt>
      <trkpt lat="44.12916" lon="7.00132">
        <ele>2044</ele>
        <time>2019-08-03T08:39:04.000Z</time>
      </trkpt>
      <trkpt lat="44.12909" lon="7.00146">
        <ele>2043</ele>
        <time>2019-08-03T08:39:10.000Z</time>
      </trkpt>
      <trkpt lat="44.12909" lon="7.00146">
        <ele>2043</ele>
        <time>2019-08-03T08:39:12.000Z</time>
      </trkpt>
      <trkpt lat="44.12909" lon="7.00146">
        <ele>2043</ele>
        <time>2019-08-03T08:39:14.000Z</time>
      </trkpt>
      <trkpt lat="44.12909" lon="7.00146">
        <ele>2043</ele>
        <time>2019-08-03T08:39:16.000Z</time>
      </trkpt>
      <trkpt lat="44.12899" lon="7.00185">
        <ele>2047</ele>
        <time>2019-08-03T08:39:18.000Z</time>
      </trkpt>
      <trkpt lat="44.12899" lon="7.00185">
        <ele>2047</ele>
        <time>2019-08-03T08:39:20.000Z</time>
      </trkpt>
      <trkpt lat="44.12899" lon="7.00185">
        <ele>2047</ele>
        <time>2019-08-03T08:39:25.000Z</time>
      </trkpt>
      <trkpt lat="44.12899" lon="7.00185">
        <ele>2047</ele>
        <time>2019-08-03T08:39:26.000Z</time>
      </trkpt>
      <trkpt lat="44.12899" lon="7.00185">
        <ele>2047</ele>
        <time>2019-08-03T08:39:28.000Z</time>
      </trkpt>
      <trkpt lat="44.12899" lon="7.00185">
        <ele>2047</ele>
        <time>2019-08-03T08:39:32.000Z</time>
      </trkpt>
      <trkpt lat="44.12899" lon="7.00185">
        <ele>2047</ele>
        <time>2019-08-03T08:39:36.000Z</time>
      </trkpt>
      <trkpt lat="44.12899" lon="7.00185">
        <ele>2047</ele>
        <time>2019-08-03T08:39:40.000Z</time>
      </trkpt>
      <trkpt lat="44.1289" lon="7.00233">
        <ele>2059</ele>
        <time>2019-08-03T08:39:44.000Z</time>
      </trkpt>
      <trkpt lat="44.1289" lon="7.00233">
        <ele>2059</ele>
        <time>2019-08-03T08:39:48.000Z</time>
      </trkpt>
      <trkpt lat="44.1289" lon="7.00233">
        <ele>2059</ele>
        <time>2019-08-03T08:39:52.000Z</time>
      </trkpt>
      <trkpt lat="44.1288" lon="7.0022">
        <ele>2059</ele>
        <time>2019-08-03T08:39:54.000Z</time>
      </trkpt>
      <trkpt lat="44.1288" lon="7.0022">
        <ele>2059</ele>
        <time>2019-08-03T08:39:58.000Z</time>
      </trkpt>
      <trkpt lat="44.1288" lon="7.0022">
        <ele>2059</ele>
        <time>2019-08-03T08:40:02.000Z</time>
      </trkpt>
      <trkpt lat="44.1288" lon="7.0022">
        <ele>2059</ele>
        <time>2019-08-03T08:40:04.000Z</time>
      </trkpt>
      <trkpt lat="44.1288" lon="7.0022">
        <ele>2059</ele>
        <time>2019-08-03T08:40:06.000Z</time>
      </trkpt>
      <trkpt lat="44.12863" lon="7.00229">
        <ele>2064</ele>
        <time>2019-08-03T08:40:08.000Z</time>
      </trkpt>
      <trkpt lat="44.12857" lon="7.00239">
        <ele>2061</ele>
        <time>2019-08-03T08:40:10.000Z</time>
      </trkpt>
      <trkpt lat="44.12857" lon="7.00239">
        <ele>2061</ele>
        <time>2019-08-03T08:40:12.000Z</time>
      </trkpt>
      <trkpt lat="44.12857" lon="7.00239">
        <ele>2061</ele>
        <time>2019-08-03T08:40:14.000Z</time>
      </trkpt>
      <trkpt lat="44.12846" lon="7.00249">
        <ele>2060</ele>
        <time>2019-08-03T08:40:16.000Z</time>
      </trkpt>
      <trkpt lat="44.12835" lon="7.00258">
        <ele>2059</ele>
        <time>2019-08-03T08:40:18.000Z</time>
      </trkpt>
      <trkpt lat="44.12835" lon="7.00258">
        <ele>2059</ele>
        <time>2019-08-03T08:40:20.000Z</time>
      </trkpt>
      <trkpt lat="44.12825" lon="7.0026">
        <ele>2057</ele>
        <time>2019-08-03T08:40:22.000Z</time>
      </trkpt>
      <trkpt lat="44.12808" lon="7.00269">
        <ele>2056</ele>
        <time>2019-08-03T08:40:24.000Z</time>
      </trkpt>
      <trkpt lat="44.12799" lon="7.00273">
        <ele>2054</ele>
        <time>2019-08-03T08:40:26.000Z</time>
      </trkpt>
      <trkpt lat="44.12791" lon="7.00281">
        <ele>2051</ele>
        <time>2019-08-03T08:40:28.000Z</time>
      </trkpt>
      <trkpt lat="44.12783" lon="7.00289">
        <ele>2050</ele>
        <time>2019-08-03T08:40:30.000Z</time>
      </trkpt>
      <trkpt lat="44.12783" lon="7.00289">
        <ele>2050</ele>
        <time>2019-08-03T08:40:32.000Z</time>
      </trkpt>
      <trkpt lat="44.12783" lon="7.00289">
        <ele>2050</ele>
        <time>2019-08-03T08:40:34.000Z</time>
      </trkpt>
      <trkpt lat="44.12786" lon="7.00329">
        <ele>2041</ele>
        <time>2019-08-03T08:40:36.000Z</time>
      </trkpt>
      <trkpt lat="44.1279" lon="7.00342">
        <ele>2038</ele>
        <time>2019-08-03T08:40:42.000Z</time>
      </trkpt>
      <trkpt lat="44.12794" lon="7.00358">
        <ele>2036</ele>
        <time>2019-08-03T08:40:44.000Z</time>
      </trkpt>
      <trkpt lat="44.12798" lon="7.00376">
        <ele>2035</ele>
        <time>2019-08-03T08:40:46.000Z</time>
      </trkpt>
      <trkpt lat="44.12801" lon="7.00393">
        <ele>2033</ele>
        <time>2019-08-03T08:40:48.000Z</time>
      </trkpt>
      <trkpt lat="44.12803" lon="7.00408">
        <ele>2031</ele>
        <time>2019-08-03T08:40:52.000Z</time>
      </trkpt>
      <trkpt lat="44.12805" lon="7.00423">
        <ele>2029</ele>
        <time>2019-08-03T08:40:54.000Z</time>
      </trkpt>
      <trkpt lat="44.12808" lon="7.00439">
        <ele>2028</ele>
        <time>2019-08-03T08:40:56.000Z</time>
      </trkpt>
      <trkpt lat="44.12807" lon="7.00455">
        <ele>2028</ele>
        <time>2019-08-03T08:41:00.000Z</time>
      </trkpt>
      <trkpt lat="44.12807" lon="7.00469">
        <ele>2024</ele>
        <time>2019-08-03T08:41:04.000Z</time>
      </trkpt>
      <trkpt lat="44.12805" lon="7.00486">
        <ele>2021</ele>
        <time>2019-08-03T08:41:06.000Z</time>
      </trkpt>
      <trkpt lat="44.12798" lon="7.00502">
        <ele>2020</ele>
        <time>2019-08-03T08:41:08.000Z</time>
      </trkpt>
      <trkpt lat="44.12786" lon="7.00511">
        <ele>2020</ele>
        <time>2019-08-03T08:41:10.000Z</time>
      </trkpt>
      <trkpt lat="44.12775" lon="7.00518">
        <ele>2018</ele>
        <time>2019-08-03T08:41:12.000Z</time>
      </trkpt>
      <trkpt lat="44.12761" lon="7.00519">
        <ele>2016</ele>
        <time>2019-08-03T08:41:14.000Z</time>
      </trkpt>
      <trkpt lat="44.12748" lon="7.00516">
        <ele>2013</ele>
        <time>2019-08-03T08:41:16.000Z</time>
      </trkpt>
      <trkpt lat="44.12739" lon="7.00514">
        <ele>2010</ele>
        <time>2019-08-03T08:41:18.000Z</time>
      </trkpt>
      <trkpt lat="44.12739" lon="7.00514">
        <ele>2010</ele>
        <time>2019-08-03T08:41:21.000Z</time>
      </trkpt>
      <trkpt lat="44.12739" lon="7.00514">
        <ele>2010</ele>
        <time>2019-08-03T08:41:23.000Z</time>
      </trkpt>
      <trkpt lat="44.12739" lon="7.00514">
        <ele>2010</ele>
        <time>2019-08-03T08:41:25.000Z</time>
      </trkpt>
      <trkpt lat="44.12674" lon="7.00524">
        <ele>2009</ele>
        <time>2019-08-03T08:41:26.000Z</time>
      </trkpt>
      <trkpt lat="44.12665" lon="7.00526">
        <ele>2009</ele>
        <time>2019-08-03T08:41:28.000Z</time>
      </trkpt>
      <trkpt lat="44.12653" lon="7.00528">
        <ele>2011</ele>
        <time>2019-08-03T08:41:30.000Z</time>
      </trkpt>
      <trkpt lat="44.12635" lon="7.00526">
        <ele>2010</ele>
        <time>2019-08-03T08:41:32.000Z</time>
      </trkpt>
      <trkpt lat="44.12625" lon="7.00523">
        <ele>2009</ele>
        <time>2019-08-03T08:41:34.000Z</time>
      </trkpt>
      <trkpt lat="44.12614" lon="7.00526">
        <ele>2008</ele>
        <time>2019-08-03T08:41:36.000Z</time>
      </trkpt>
      <trkpt lat="44.12603" lon="7.00531">
        <ele>2006</ele>
        <time>2019-08-03T08:41:38.000Z</time>
      </trkpt>
      <trkpt lat="44.12603" lon="7.00531">
        <ele>2006</ele>
        <time>2019-08-03T08:41:40.000Z</time>
      </trkpt>
      <trkpt lat="44.12603" lon="7.00531">
        <ele>2006</ele>
        <time>2019-08-03T08:41:42.000Z</time>
      </trkpt>
      <trkpt lat="44.12603" lon="7.00531">
        <ele>2006</ele>
        <time>2019-08-03T08:41:44.000Z</time>
      </trkpt>
      <trkpt lat="44.12603" lon="7.00531">
        <ele>2006</ele>
        <time>2019-08-03T08:41:48.000Z</time>
      </trkpt>
      <trkpt lat="44.12603" lon="7.00531">
        <ele>2006</ele>
        <time>2019-08-03T08:41:50.000Z</time>
      </trkpt>
      <trkpt lat="44.12603" lon="7.00531">
        <ele>2006</ele>
        <time>2019-08-03T08:41:52.000Z</time>
      </trkpt>
      <trkpt lat="44.12603" lon="7.00531">
        <ele>2006</ele>
        <time>2019-08-03T08:41:54.000Z</time>
      </trkpt>
      <trkpt lat="44.12603" lon="7.00531">
        <ele>2006</ele>
        <time>2019-08-03T08:41:56.000Z</time>
      </trkpt>
      <trkpt lat="44.12576" lon="7.00554">
        <ele>1992</ele>
        <time>2019-08-03T08:41:58.000Z</time>
      </trkpt>
      <trkpt lat="44.1256" lon="7.00563">
        <ele>1993</ele>
        <time>2019-08-03T08:42:00.000Z</time>
      </trkpt>
      <trkpt lat="44.12549" lon="7.00565">
        <ele>1992</ele>
        <time>2019-08-03T08:42:02.000Z</time>
      </trkpt>
      <trkpt lat="44.12539" lon="7.00564">
        <ele>1992</ele>
        <time>2019-08-03T08:42:04.000Z</time>
      </trkpt>
      <trkpt lat="44.1253" lon="7.00561">
        <ele>1992</ele>
        <time>2019-08-03T08:42:06.000Z</time>
      </trkpt>
      <trkpt lat="44.12515" lon="7.00553">
        <ele>1993</ele>
        <time>2019-08-03T08:42:08.000Z</time>
      </trkpt>
      <trkpt lat="44.12515" lon="7.00553">
        <ele>1993</ele>
        <time>2019-08-03T08:42:10.000Z</time>
      </trkpt>
      <trkpt lat="44.12515" lon="7.00553">
        <ele>1993</ele>
        <time>2019-08-03T08:42:12.000Z</time>
      </trkpt>
      <trkpt lat="44.12489" lon="7.0053">
        <ele>1992</ele>
        <time>2019-08-03T08:42:14.000Z</time>
      </trkpt>
      <trkpt lat="44.12478" lon="7.00517">
        <ele>1994</ele>
        <time>2019-08-03T08:42:16.000Z</time>
      </trkpt>
      <trkpt lat="44.12478" lon="7.00517">
        <ele>1994</ele>
        <time>2019-08-03T08:42:18.000Z</time>
      </trkpt>
      <trkpt lat="44.12478" lon="7.00517">
        <ele>1994</ele>
        <time>2019-08-03T08:42:20.000Z</time>
      </trkpt>
      <trkpt lat="44.12478" lon="7.00517">
        <ele>1994</ele>
        <time>2019-08-03T08:42:22.000Z</time>
      </trkpt>
      <trkpt lat="44.12447" lon="7.00488">
        <ele>2000</ele>
        <time>2019-08-03T08:42:24.000Z</time>
      </trkpt>
      <trkpt lat="44.12434" lon="7.00481">
        <ele>2003</ele>
        <time>2019-08-03T08:42:26.000Z</time>
      </trkpt>
      <trkpt lat="44.12421" lon="7.00474">
        <ele>2003</ele>
        <time>2019-08-03T08:42:28.000Z</time>
      </trkpt>
      <trkpt lat="44.12409" lon="7.00466">
        <ele>2002</ele>
        <time>2019-08-03T08:42:30.000Z</time>
      </trkpt>
      <trkpt lat="44.12409" lon="7.00466">
        <ele>2002</ele>
        <time>2019-08-03T08:42:32.000Z</time>
      </trkpt>
      <trkpt lat="44.12387" lon="7.00458">
        <ele>2008</ele>
        <time>2019-08-03T08:42:34.000Z</time>
      </trkpt>
      <trkpt lat="44.1237" lon="7.00446">
        <ele>2006</ele>
        <time>2019-08-03T08:42:40.000Z</time>
      </trkpt>
      <trkpt lat="44.12361" lon="7.00441">
        <ele>2007</ele>
        <time>2019-08-03T08:42:42.000Z</time>
      </trkpt>
      <trkpt lat="44.12361" lon="7.00441">
        <ele>2007</ele>
        <time>2019-08-03T08:42:44.000Z</time>
      </trkpt>
      <trkpt lat="44.12361" lon="7.00441">
        <ele>2007</ele>
        <time>2019-08-03T08:42:46.000Z</time>
      </trkpt>
      <trkpt lat="44.12361" lon="7.00441">
        <ele>2007</ele>
        <time>2019-08-03T08:42:48.000Z</time>
      </trkpt>
      <trkpt lat="44.12361" lon="7.00441">
        <ele>2007</ele>
        <time>2019-08-03T08:42:50.000Z</time>
      </trkpt>
      <trkpt lat="44.12361" lon="7.00441">
        <ele>2007</ele>
        <time>2019-08-03T08:42:52.000Z</time>
      </trkpt>
      <trkpt lat="44.12301" lon="7.00434">
        <ele>2009</ele>
        <time>2019-08-03T08:42:54.000Z</time>
      </trkpt>
      <trkpt lat="44.12291" lon="7.00437">
        <ele>2009</ele>
        <time>2019-08-03T08:42:56.000Z</time>
      </trkpt>
      <trkpt lat="44.12282" lon="7.0044">
        <ele>2008</ele>
        <time>2019-08-03T08:42:58.000Z</time>
      </trkpt>
      <trkpt lat="44.12272" lon="7.00446">
        <ele>2011</ele>
        <time>2019-08-03T08:43:00.000Z</time>
      </trkpt>
      <trkpt lat="44.12272" lon="7.00446">
        <ele>2011</ele>
        <time>2019-08-03T08:43:02.000Z</time>
      </trkpt>
      <trkpt lat="44.12272" lon="7.00446">
        <ele>2011</ele>
        <time>2019-08-03T08:43:04.000Z</time>
      </trkpt>
      <trkpt lat="44.12272" lon="7.00446">
        <ele>2011</ele>
        <time>2019-08-03T08:43:06.000Z</time>
      </trkpt>
      <trkpt lat="44.12237" lon="7.00474">
        <ele>2006</ele>
        <time>2019-08-03T08:43:10.000Z</time>
      </trkpt>
      <trkpt lat="44.12228" lon="7.0048">
        <ele>2004</ele>
        <time>2019-08-03T08:43:12.000Z</time>
      </trkpt>
      <trkpt lat="44.12219" lon="7.00488">
        <ele>2008</ele>
        <time>2019-08-03T08:43:14.000Z</time>
      </trkpt>
      <trkpt lat="44.12219" lon="7.00488">
        <ele>2008</ele>
        <time>2019-08-03T08:43:16.000Z</time>
      </trkpt>
      <trkpt lat="44.12219" lon="7.00488">
        <ele>2008</ele>
        <time>2019-08-03T08:43:18.000Z</time>
      </trkpt>
      <trkpt lat="44.12219" lon="7.00488">
        <ele>2008</ele>
        <time>2019-08-03T08:43:20.000Z</time>
      </trkpt>
      <trkpt lat="44.12197" lon="7.00502">
        <ele>2011</ele>
        <time>2019-08-03T08:43:26.000Z</time>
      </trkpt>
      <trkpt lat="44.12181" lon="7.00511">
        <ele>2011</ele>
        <time>2019-08-03T08:43:28.000Z</time>
      </trkpt>
      <trkpt lat="44.1217" lon="7.00517">
        <ele>2010</ele>
        <time>2019-08-03T08:43:33.000Z</time>
      </trkpt>
      <trkpt lat="44.1217" lon="7.00517">
        <ele>2010</ele>
        <time>2019-08-03T08:43:35.000Z</time>
      </trkpt>
      <trkpt lat="44.1217" lon="7.00517">
        <ele>2010</ele>
        <time>2019-08-03T08:43:37.000Z</time>
      </trkpt>
      <trkpt lat="44.1217" lon="7.00517">
        <ele>2010</ele>
        <time>2019-08-03T08:43:39.000Z</time>
      </trkpt>
      <trkpt lat="44.1217" lon="7.00517">
        <ele>2010</ele>
        <time>2019-08-03T08:43:41.000Z</time>
      </trkpt>
      <trkpt lat="44.12143" lon="7.00527">
        <ele>2012</ele>
        <time>2019-08-03T08:43:43.000Z</time>
      </trkpt>
      <trkpt lat="44.12143" lon="7.00527">
        <ele>2012</ele>
        <time>2019-08-03T08:43:45.000Z</time>
      </trkpt>
      <trkpt lat="44.12143" lon="7.00527">
        <ele>2012</ele>
        <time>2019-08-03T08:43:47.000Z</time>
      </trkpt>
      <trkpt lat="44.12143" lon="7.00527">
        <ele>2012</ele>
        <time>2019-08-03T08:43:49.000Z</time>
      </trkpt>
      <trkpt lat="44.12143" lon="7.00527">
        <ele>2012</ele>
        <time>2019-08-03T08:43:51.000Z</time>
      </trkpt>
      <trkpt lat="44.12092" lon="7.00545">
        <ele>2005</ele>
        <time>2019-08-03T08:43:53.000Z</time>
      </trkpt>
      <trkpt lat="44.12081" lon="7.00549">
        <ele>2005</ele>
        <time>2019-08-03T08:43:55.000Z</time>
      </trkpt>
      <trkpt lat="44.12066" lon="7.00555">
        <ele>2005</ele>
        <time>2019-08-03T08:43:57.000Z</time>
      </trkpt>
      <trkpt lat="44.12066" lon="7.00555">
        <ele>2005</ele>
        <time>2019-08-03T08:44:00.000Z</time>
      </trkpt>
      <trkpt lat="44.12053" lon="7.00564">
        <ele>2007</ele>
        <time>2019-08-03T08:44:02.000Z</time>
      </trkpt>
      <trkpt lat="44.12038" lon="7.00573">
        <ele>2006</ele>
        <time>2019-08-03T08:44:04.000Z</time>
      </trkpt>
      <trkpt lat="44.12038" lon="7.00573">
        <ele>2006</ele>
        <time>2019-08-03T08:44:06.000Z</time>
      </trkpt>
      <trkpt lat="44.12038" lon="7.00573">
        <ele>2006</ele>
        <time>2019-08-03T08:44:08.000Z</time>
      </trkpt>
      <trkpt lat="44.12038" lon="7.00573">
        <ele>2006</ele>
        <time>2019-08-03T08:44:10.000Z</time>
      </trkpt>
      <trkpt lat="44.12038" lon="7.00573">
        <ele>2006</ele>
        <time>2019-08-03T08:44:12.000Z</time>
      </trkpt>
      <trkpt lat="44.12003" lon="7.00602">
        <ele>2009</ele>
        <time>2019-08-03T08:44:14.000Z</time>
      </trkpt>
      <trkpt lat="44.12003" lon="7.00602">
        <ele>2009</ele>
        <time>2019-08-03T08:44:16.000Z</time>
      </trkpt>
      <trkpt lat="44.12003" lon="7.00602">
        <ele>2009</ele>
        <time>2019-08-03T08:44:18.000Z</time>
      </trkpt>
      <trkpt lat="44.12003" lon="7.00602">
        <ele>2009</ele>
        <time>2019-08-03T08:44:20.000Z</time>
      </trkpt>
      <trkpt lat="44.1198" lon="7.00619">
        <ele>2012</ele>
        <time>2019-08-03T08:44:22.000Z</time>
      </trkpt>
      <trkpt lat="44.11969" lon="7.0063">
        <ele>2013</ele>
        <time>2019-08-03T08:44:24.000Z</time>
      </trkpt>
      <trkpt lat="44.11969" lon="7.0063">
        <ele>2013</ele>
        <time>2019-08-03T08:44:26.000Z</time>
      </trkpt>
      <trkpt lat="44.11969" lon="7.0063">
        <ele>2013</ele>
        <time>2019-08-03T08:44:28.000Z</time>
      </trkpt>
      <trkpt lat="44.11969" lon="7.0063">
        <ele>2013</ele>
        <time>2019-08-03T08:44:31.000Z</time>
      </trkpt>
      <trkpt lat="44.11969" lon="7.0063">
        <ele>2013</ele>
        <time>2019-08-03T08:44:33.000Z</time>
      </trkpt>
      <trkpt lat="44.11945" lon="7.00653">
        <ele>2012</ele>
        <time>2019-08-03T08:44:35.000Z</time>
      </trkpt>
      <trkpt lat="44.11945" lon="7.00653">
        <ele>2012</ele>
        <time>2019-08-03T08:44:37.000Z</time>
      </trkpt>
      <trkpt lat="44.11945" lon="7.00653">
        <ele>2012</ele>
        <time>2019-08-03T08:44:39.000Z</time>
      </trkpt>
      <trkpt lat="44.11945" lon="7.00653">
        <ele>2012</ele>
        <time>2019-08-03T08:44:41.000Z</time>
      </trkpt>
      <trkpt lat="44.11945" lon="7.00653">
        <ele>2012</ele>
        <time>2019-08-03T08:44:43.000Z</time>
      </trkpt>
      <trkpt lat="44.11931" lon="7.0066">
        <ele>2016</ele>
        <time>2019-08-03T08:44:45.000Z</time>
      </trkpt>
      <trkpt lat="44.11922" lon="7.00665">
        <ele>2014</ele>
        <time>2019-08-03T08:44:47.000Z</time>
      </trkpt>
      <trkpt lat="44.11922" lon="7.00665">
        <ele>2014</ele>
        <time>2019-08-03T08:44:49.000Z</time>
      </trkpt>
      <trkpt lat="44.11922" lon="7.00665">
        <ele>2014</ele>
        <time>2019-08-03T08:44:51.000Z</time>
      </trkpt>
      <trkpt lat="44.11922" lon="7.00665">
        <ele>2014</ele>
        <time>2019-08-03T08:44:53.000Z</time>
      </trkpt>
      <trkpt lat="44.11909" lon="7.00678">
        <ele>2015</ele>
        <time>2019-08-03T08:44:55.000Z</time>
      </trkpt>
      <trkpt lat="44.11909" lon="7.00678">
        <ele>2015</ele>
        <time>2019-08-03T08:44:57.000Z</time>
      </trkpt>
      <trkpt lat="44.11909" lon="7.00678">
        <ele>2015</ele>
        <time>2019-08-03T08:44:59.000Z</time>
      </trkpt>
      <trkpt lat="44.11909" lon="7.00678">
        <ele>2015</ele>
        <time>2019-08-03T08:45:01.000Z</time>
      </trkpt>
      <trkpt lat="44.11909" lon="7.00678">
        <ele>2015</ele>
        <time>2019-08-03T08:45:03.000Z</time>
      </trkpt>
      <trkpt lat="44.11902" lon="7.0069">
        <ele>2019</ele>
        <time>2019-08-03T08:45:05.000Z</time>
      </trkpt>
      <trkpt lat="44.11902" lon="7.0069">
        <ele>2019</ele>
        <time>2019-08-03T08:45:07.000Z</time>
      </trkpt>
      <trkpt lat="44.11902" lon="7.0069">
        <ele>2019</ele>
        <time>2019-08-03T08:45:09.000Z</time>
      </trkpt>
      <trkpt lat="44.11902" lon="7.0069">
        <ele>2019</ele>
        <time>2019-08-03T08:45:11.000Z</time>
      </trkpt>
      <trkpt lat="44.11902" lon="7.0069">
        <ele>2019</ele>
        <time>2019-08-03T08:45:13.000Z</time>
      </trkpt>
      <trkpt lat="44.11872" lon="7.00714">
        <ele>2019</ele>
        <time>2019-08-03T08:45:15.000Z</time>
      </trkpt>
      <trkpt lat="44.11872" lon="7.00714">
        <ele>2019</ele>
        <time>2019-08-03T08:45:18.000Z</time>
      </trkpt>
      <trkpt lat="44.11841" lon="7.00722">
        <ele>2014</ele>
        <time>2019-08-03T08:45:20.000Z</time>
      </trkpt>
      <trkpt lat="44.11832" lon="7.0072">
        <ele>2012</ele>
        <time>2019-08-03T08:45:22.000Z</time>
      </trkpt>
      <trkpt lat="44.11832" lon="7.0072">
        <ele>2012</ele>
        <time>2019-08-03T08:45:25.000Z</time>
      </trkpt>
      <trkpt lat="44.11821" lon="7.00707">
        <ele>2011</ele>
        <time>2019-08-03T08:45:26.000Z</time>
      </trkpt>
      <trkpt lat="44.11821" lon="7.00707">
        <ele>2011</ele>
        <time>2019-08-03T08:45:28.000Z</time>
      </trkpt>
      <trkpt lat="44.11821" lon="7.00707">
        <ele>2011</ele>
        <time>2019-08-03T08:45:30.000Z</time>
      </trkpt>
      <trkpt lat="44.11821" lon="7.00707">
        <ele>2011</ele>
        <time>2019-08-03T08:45:32.000Z</time>
      </trkpt>
      <trkpt lat="44.11799" lon="7.0069">
        <ele>2002</ele>
        <time>2019-08-03T08:45:36.000Z</time>
      </trkpt>
      <trkpt lat="44.11788" lon="7.00686">
        <ele>1999</ele>
        <time>2019-08-03T08:45:38.000Z</time>
      </trkpt>
      <trkpt lat="44.11788" lon="7.00686">
        <ele>1999</ele>
        <time>2019-08-03T08:45:40.000Z</time>
      </trkpt>
      <trkpt lat="44.11788" lon="7.00686">
        <ele>1999</ele>
        <time>2019-08-03T08:45:42.000Z</time>
      </trkpt>
      <trkpt lat="44.11788" lon="7.00686">
        <ele>1999</ele>
        <time>2019-08-03T08:54:40.000Z</time>
      </trkpt>
      <trkpt lat="44.11788" lon="7.00686">
        <ele>1999</ele>
        <time>2019-08-03T08:54:42.000Z</time>
      </trkpt>
      <trkpt lat="44.11788" lon="7.00686">
        <ele>1999</ele>
        <time>2019-08-03T08:54:59.000Z</time>
      </trkpt>
      <trkpt lat="44.1177" lon="7.00673">
        <ele>1998</ele>
        <time>2019-08-03T08:55:05.000Z</time>
      </trkpt>
      <trkpt lat="44.11761" lon="7.00668">
        <ele>1997</ele>
        <time>2019-08-03T08:55:07.000Z</time>
      </trkpt>
      <trkpt lat="44.11749" lon="7.00661">
        <ele>1995</ele>
        <time>2019-08-03T08:55:09.000Z</time>
      </trkpt>
      <trkpt lat="44.11739" lon="7.00656">
        <ele>1993</ele>
        <time>2019-08-03T08:55:11.000Z</time>
      </trkpt>
      <trkpt lat="44.11725" lon="7.00646">
        <ele>1989</ele>
        <time>2019-08-03T08:55:13.000Z</time>
      </trkpt>
      <trkpt lat="44.1171" lon="7.00638">
        <ele>1987</ele>
        <time>2019-08-03T08:55:15.000Z</time>
      </trkpt>
      <trkpt lat="44.1171" lon="7.00638">
        <ele>1987</ele>
        <time>2019-08-03T08:55:17.000Z</time>
      </trkpt>
      <trkpt lat="44.11699" lon="7.0063">
        <ele>1985</ele>
        <time>2019-08-03T08:55:19.000Z</time>
      </trkpt>
      <trkpt lat="44.11699" lon="7.0063">
        <ele>1985</ele>
        <time>2019-08-03T08:55:21.000Z</time>
      </trkpt>
      <trkpt lat="44.11699" lon="7.0063">
        <ele>1985</ele>
        <time>2019-08-03T08:55:23.000Z</time>
      </trkpt>
      <trkpt lat="44.11699" lon="7.0063">
        <ele>1985</ele>
        <time>2019-08-03T08:55:25.000Z</time>
      </trkpt>
      <trkpt lat="44.11699" lon="7.0063">
        <ele>1985</ele>
        <time>2019-08-03T08:55:26.000Z</time>
      </trkpt>
      <trkpt lat="44.11699" lon="7.0063">
        <ele>1985</ele>
        <time>2019-08-03T08:55:28.000Z</time>
      </trkpt>
      <trkpt lat="44.11676" lon="7.00617">
        <ele>1985</ele>
        <time>2019-08-03T08:55:30.000Z</time>
      </trkpt>
      <trkpt lat="44.11661" lon="7.00606">
        <ele>1982</ele>
        <time>2019-08-03T08:55:32.000Z</time>
      </trkpt>
      <trkpt lat="44.11661" lon="7.00606">
        <ele>1982</ele>
        <time>2019-08-03T08:55:34.000Z</time>
      </trkpt>
      <trkpt lat="44.11647" lon="7.00599">
        <ele>1979</ele>
        <time>2019-08-03T08:55:36.000Z</time>
      </trkpt>
      <trkpt lat="44.11647" lon="7.00599">
        <ele>1979</ele>
        <time>2019-08-03T08:55:38.000Z</time>
      </trkpt>
      <trkpt lat="44.11647" lon="7.00599">
        <ele>1979</ele>
        <time>2019-08-03T08:55:40.000Z</time>
      </trkpt>
      <trkpt lat="44.11647" lon="7.00599">
        <ele>1979</ele>
        <time>2019-08-03T08:55:42.000Z</time>
      </trkpt>
      <trkpt lat="44.11647" lon="7.00599">
        <ele>1979</ele>
        <time>2019-08-03T08:55:44.000Z</time>
      </trkpt>
      <trkpt lat="44.11647" lon="7.00599">
        <ele>1979</ele>
        <time>2019-08-03T08:55:46.000Z</time>
      </trkpt>
      <trkpt lat="44.11581" lon="7.00581">
        <ele>1973</ele>
        <time>2019-08-03T08:55:48.000Z</time>
      </trkpt>
      <trkpt lat="44.11567" lon="7.00579">
        <ele>1970</ele>
        <time>2019-08-03T08:55:50.000Z</time>
      </trkpt>
      <trkpt lat="44.11554" lon="7.00573">
        <ele>1970</ele>
        <time>2019-08-03T08:55:52.000Z</time>
      </trkpt>
      <trkpt lat="44.11554" lon="7.00573">
        <ele>1970</ele>
        <time>2019-08-03T08:55:54.000Z</time>
      </trkpt>
      <trkpt lat="44.11554" lon="7.00573">
        <ele>1970</ele>
        <time>2019-08-03T08:55:56.000Z</time>
      </trkpt>
      <trkpt lat="44.11529" lon="7.00563">
        <ele>1963</ele>
        <time>2019-08-03T08:55:58.000Z</time>
      </trkpt>
      <trkpt lat="44.11529" lon="7.00563">
        <ele>1963</ele>
        <time>2019-08-03T08:56:01.000Z</time>
      </trkpt>
      <trkpt lat="44.11529" lon="7.00563">
        <ele>1963</ele>
        <time>2019-08-03T08:56:03.000Z</time>
      </trkpt>
      <trkpt lat="44.11529" lon="7.00563">
        <ele>1963</ele>
        <time>2019-08-03T08:56:05.000Z</time>
      </trkpt>
      <trkpt lat="44.11529" lon="7.00563">
        <ele>1963</ele>
        <time>2019-08-03T08:56:07.000Z</time>
      </trkpt>
      <trkpt lat="44.11529" lon="7.00563">
        <ele>1963</ele>
        <time>2019-08-03T08:56:09.000Z</time>
      </trkpt>
      <trkpt lat="44.11498" lon="7.00544">
        <ele>1958</ele>
        <time>2019-08-03T08:56:11.000Z</time>
      </trkpt>
      <trkpt lat="44.11485" lon="7.00534">
        <ele>1956</ele>
        <time>2019-08-03T08:56:13.000Z</time>
      </trkpt>
      <trkpt lat="44.11472" lon="7.00524">
        <ele>1954</ele>
        <time>2019-08-03T08:56:15.000Z</time>
      </trkpt>
      <trkpt lat="44.11472" lon="7.00524">
        <ele>1954</ele>
        <time>2019-08-03T08:56:17.000Z</time>
      </trkpt>
      <trkpt lat="44.11472" lon="7.00524">
        <ele>1954</ele>
        <time>2019-08-03T08:56:19.000Z</time>
      </trkpt>
      <trkpt lat="44.11472" lon="7.00524">
        <ele>1954</ele>
        <time>2019-08-03T08:56:21.000Z</time>
      </trkpt>
      <trkpt lat="44.11472" lon="7.00524">
        <ele>1954</ele>
        <time>2019-08-03T08:56:23.000Z</time>
      </trkpt>
      <trkpt lat="44.11472" lon="7.00524">
        <ele>1954</ele>
        <time>2019-08-03T08:56:25.000Z</time>
      </trkpt>
      <trkpt lat="44.11456" lon="7.00505">
        <ele>1947</ele>
        <time>2019-08-03T08:56:27.000Z</time>
      </trkpt>
      <trkpt lat="44.11445" lon="7.00492">
        <ele>1945</ele>
        <time>2019-08-03T08:56:29.000Z</time>
      </trkpt>
      <trkpt lat="44.11436" lon="7.00482">
        <ele>1944</ele>
        <time>2019-08-03T08:56:31.000Z</time>
      </trkpt>
      <trkpt lat="44.11429" lon="7.00473">
        <ele>1942</ele>
        <time>2019-08-03T08:56:33.000Z</time>
      </trkpt>
      <trkpt lat="44.11421" lon="7.00466">
        <ele>1940</ele>
        <time>2019-08-03T08:56:35.000Z</time>
      </trkpt>
      <trkpt lat="44.11408" lon="7.00451">
        <ele>1940</ele>
        <time>2019-08-03T08:56:37.000Z</time>
      </trkpt>
      <trkpt lat="44.114" lon="7.00443">
        <ele>1938</ele>
        <time>2019-08-03T08:56:39.000Z</time>
      </trkpt>
      <trkpt lat="44.1139" lon="7.00436">
        <ele>1936</ele>
        <time>2019-08-03T08:56:41.000Z</time>
      </trkpt>
      <trkpt lat="44.11382" lon="7.00428">
        <ele>1933</ele>
        <time>2019-08-03T08:56:43.000Z</time>
      </trkpt>
      <trkpt lat="44.11374" lon="7.0042">
        <ele>1932</ele>
        <time>2019-08-03T08:56:45.000Z</time>
      </trkpt>
      <trkpt lat="44.11366" lon="7.00414">
        <ele>1930</ele>
        <time>2019-08-03T08:56:47.000Z</time>
      </trkpt>
      <trkpt lat="44.11366" lon="7.00414">
        <ele>1930</ele>
        <time>2019-08-03T08:56:49.000Z</time>
      </trkpt>
      <trkpt lat="44.11366" lon="7.00414">
        <ele>1930</ele>
        <time>2019-08-03T08:56:51.000Z</time>
      </trkpt>
      <trkpt lat="44.11366" lon="7.00414">
        <ele>1930</ele>
        <time>2019-08-03T08:56:53.000Z</time>
      </trkpt>
      <trkpt lat="44.11366" lon="7.00414">
        <ele>1930</ele>
        <time>2019-08-03T08:56:55.000Z</time>
      </trkpt>
      <trkpt lat="44.11366" lon="7.00414">
        <ele>1930</ele>
        <time>2019-08-03T08:56:57.000Z</time>
      </trkpt>
      <trkpt lat="44.11366" lon="7.00414">
        <ele>1930</ele>
        <time>2019-08-03T08:56:59.000Z</time>
      </trkpt>
      <trkpt lat="44.11313" lon="7.0037">
        <ele>1920</ele>
        <time>2019-08-03T08:57:01.000Z</time>
      </trkpt>
      <trkpt lat="44.11297" lon="7.00361">
        <ele>1916</ele>
        <time>2019-08-03T08:57:03.000Z</time>
      </trkpt>
      <trkpt lat="44.11287" lon="7.00358">
        <ele>1914</ele>
        <time>2019-08-03T08:57:05.000Z</time>
      </trkpt>
      <trkpt lat="44.1127" lon="7.00352">
        <ele>1910</ele>
        <time>2019-08-03T08:57:07.000Z</time>
      </trkpt>
      <trkpt lat="44.1127" lon="7.00352">
        <ele>1910</ele>
        <time>2019-08-03T08:57:09.000Z</time>
      </trkpt>
      <trkpt lat="44.1127" lon="7.00352">
        <ele>1910</ele>
        <time>2019-08-03T08:57:11.000Z</time>
      </trkpt>
      <trkpt lat="44.1127" lon="7.00352">
        <ele>1910</ele>
        <time>2019-08-03T08:57:13.000Z</time>
      </trkpt>
      <trkpt lat="44.1127" lon="7.00352">
        <ele>1910</ele>
        <time>2019-08-03T08:57:15.000Z</time>
      </trkpt>
      <trkpt lat="44.1127" lon="7.00352">
        <ele>1910</ele>
        <time>2019-08-03T08:57:17.000Z</time>
      </trkpt>
      <trkpt lat="44.1127" lon="7.00352">
        <ele>1910</ele>
        <time>2019-08-03T08:57:19.000Z</time>
      </trkpt>
      <trkpt lat="44.1127" lon="7.00352">
        <ele>1910</ele>
        <time>2019-08-03T08:57:21.000Z</time>
      </trkpt>
      <trkpt lat="44.1127" lon="7.00352">
        <ele>1910</ele>
        <time>2019-08-03T08:57:23.000Z</time>
      </trkpt>
      <trkpt lat="44.1127" lon="7.00352">
        <ele>1910</ele>
        <time>2019-08-03T08:57:26.000Z</time>
      </trkpt>
      <trkpt lat="44.11224" lon="7.00302">
        <ele>1898</ele>
        <time>2019-08-03T08:57:28.000Z</time>
      </trkpt>
      <trkpt lat="44.11224" lon="7.00278">
        <ele>1894</ele>
        <time>2019-08-03T08:57:30.000Z</time>
      </trkpt>
      <trkpt lat="44.11224" lon="7.00263">
        <ele>1892</ele>
        <time>2019-08-03T08:57:32.000Z</time>
      </trkpt>
      <trkpt lat="44.11224" lon="7.00251">
        <ele>1891</ele>
        <time>2019-08-03T08:57:34.000Z</time>
      </trkpt>
      <trkpt lat="44.11224" lon="7.00251">
        <ele>1891</ele>
        <time>2019-08-03T08:57:36.000Z</time>
      </trkpt>
      <trkpt lat="44.11224" lon="7.00251">
        <ele>1891</ele>
        <time>2019-08-03T08:57:38.000Z</time>
      </trkpt>
      <trkpt lat="44.11217" lon="7.00217">
        <ele>1884</ele>
        <time>2019-08-03T08:57:40.000Z</time>
      </trkpt>
      <trkpt lat="44.11213" lon="7.00197">
        <ele>1879</ele>
        <time>2019-08-03T08:57:45.000Z</time>
      </trkpt>
      <trkpt lat="44.11208" lon="7.00177">
        <ele>1875</ele>
        <time>2019-08-03T08:57:47.000Z</time>
      </trkpt>
      <trkpt lat="44.11208" lon="7.00177">
        <ele>1875</ele>
        <time>2019-08-03T08:57:55.000Z</time>
      </trkpt>
      <trkpt lat="44.11208" lon="7.00177">
        <ele>1875</ele>
        <time>2019-08-03T08:57:59.000Z</time>
      </trkpt>
      <trkpt lat="44.11208" lon="7.00177">
        <ele>1875</ele>
        <time>2019-08-03T08:58:01.000Z</time>
      </trkpt>
      <trkpt lat="44.11194" lon="7.00173">
        <ele>1865</ele>
        <time>2019-08-03T08:58:03.000Z</time>
      </trkpt>
      <trkpt lat="44.11184" lon="7.00173">
        <ele>1862</ele>
        <time>2019-08-03T08:58:05.000Z</time>
      </trkpt>
      <trkpt lat="44.11177" lon="7.00177">
        <ele>1860</ele>
        <time>2019-08-03T08:58:07.000Z</time>
      </trkpt>
      <trkpt lat="44.11177" lon="7.00177">
        <ele>1860</ele>
        <time>2019-08-03T08:58:09.000Z</time>
      </trkpt>
      <trkpt lat="44.11177" lon="7.00177">
        <ele>1860</ele>
        <time>2019-08-03T08:58:11.000Z</time>
      </trkpt>
      <trkpt lat="44.11163" lon="7.00191">
        <ele>1853</ele>
        <time>2019-08-03T08:58:13.000Z</time>
      </trkpt>
      <trkpt lat="44.11153" lon="7.00203">
        <ele>1851</ele>
        <time>2019-08-03T08:58:15.000Z</time>
      </trkpt>
      <trkpt lat="44.11145" lon="7.00213">
        <ele>1849</ele>
        <time>2019-08-03T08:58:17.000Z</time>
      </trkpt>
      <trkpt lat="44.11138" lon="7.00224">
        <ele>1847</ele>
        <time>2019-08-03T09:00:27.000Z</time>
      </trkpt>
      <trkpt lat="44.11133" lon="7.00234">
        <ele>1845</ele>
        <time>2019-08-03T09:00:34.000Z</time>
      </trkpt>
      <trkpt lat="44.11133" lon="7.00234">
        <ele>1845</ele>
        <time>2019-08-03T09:00:36.000Z</time>
      </trkpt>
      <trkpt lat="44.11133" lon="7.00234">
        <ele>1845</ele>
        <time>2019-08-03T09:00:38.000Z</time>
      </trkpt>
      <trkpt lat="44.11133" lon="7.00234">
        <ele>1845</ele>
        <time>2019-08-03T09:00:40.000Z</time>
      </trkpt>
      <trkpt lat="44.11108" lon="7.00302">
        <ele>1835</ele>
        <time>2019-08-03T09:00:42.000Z</time>
      </trkpt>
      <trkpt lat="44.11106" lon="7.00314">
        <ele>1833</ele>
        <time>2019-08-03T09:00:44.000Z</time>
      </trkpt>
      <trkpt lat="44.11106" lon="7.00314">
        <ele>1833</ele>
        <time>2019-08-03T09:00:46.000Z</time>
      </trkpt>
      <trkpt lat="44.11106" lon="7.00314">
        <ele>1833</ele>
        <time>2019-08-03T09:00:48.000Z</time>
      </trkpt>
      <trkpt lat="44.11106" lon="7.00314">
        <ele>1833</ele>
        <time>2019-08-03T09:00:50.000Z</time>
      </trkpt>
      <trkpt lat="44.11106" lon="7.00314">
        <ele>1833</ele>
        <time>2019-08-03T09:00:52.000Z</time>
      </trkpt>
      <trkpt lat="44.11078" lon="7.00323">
        <ele>1824</ele>
        <time>2019-08-03T09:00:54.000Z</time>
      </trkpt>
      <trkpt lat="44.11078" lon="7.00323">
        <ele>1824</ele>
        <time>2019-08-03T09:00:56.000Z</time>
      </trkpt>
      <trkpt lat="44.11078" lon="7.00323">
        <ele>1824</ele>
        <time>2019-08-03T09:00:58.000Z</time>
      </trkpt>
      <trkpt lat="44.11078" lon="7.00323">
        <ele>1824</ele>
        <time>2019-08-03T09:01:00.000Z</time>
      </trkpt>
      <trkpt lat="44.11078" lon="7.00323">
        <ele>1824</ele>
        <time>2019-08-03T09:01:02.000Z</time>
      </trkpt>
      <trkpt lat="44.11078" lon="7.00323">
        <ele>1824</ele>
        <time>2019-08-03T09:01:04.000Z</time>
      </trkpt>
      <trkpt lat="44.11078" lon="7.00323">
        <ele>1824</ele>
        <time>2019-08-03T09:01:06.000Z</time>
      </trkpt>
      <trkpt lat="44.11078" lon="7.00323">
        <ele>1824</ele>
        <time>2019-08-03T09:01:08.000Z</time>
      </trkpt>
      <trkpt lat="44.11078" lon="7.00323">
        <ele>1824</ele>
        <time>2019-08-03T09:01:10.000Z</time>
      </trkpt>
      <trkpt lat="44.1106" lon="7.00258">
        <ele>1824</ele>
        <time>2019-08-03T09:01:12.000Z</time>
      </trkpt>
      <trkpt lat="44.11053" lon="7.00248">
        <ele>1821</ele>
        <time>2019-08-03T09:01:14.000Z</time>
      </trkpt>
      <trkpt lat="44.11047" lon="7.00238">
        <ele>1819</ele>
        <time>2019-08-03T09:01:16.000Z</time>
      </trkpt>
      <trkpt lat="44.11041" lon="7.00227">
        <ele>1817</ele>
        <time>2019-08-03T09:01:18.000Z</time>
      </trkpt>
      <trkpt lat="44.11033" lon="7.00215">
        <ele>1815</ele>
        <time>2019-08-03T09:01:20.000Z</time>
      </trkpt>
      <trkpt lat="44.11033" lon="7.00215">
        <ele>1815</ele>
        <time>2019-08-03T09:01:22.000Z</time>
      </trkpt>
      <trkpt lat="44.11033" lon="7.00215">
        <ele>1815</ele>
        <time>2019-08-03T09:01:25.000Z</time>
      </trkpt>
      <trkpt lat="44.11013" lon="7.00192">
        <ele>1809</ele>
        <time>2019-08-03T09:01:26.000Z</time>
      </trkpt>
      <trkpt lat="44.11007" lon="7.00189">
        <ele>1807</ele>
        <time>2019-08-03T09:01:28.000Z</time>
      </trkpt>
      <trkpt lat="44.11" lon="7.00188">
        <ele>1805</ele>
        <time>2019-08-03T09:01:30.000Z</time>
      </trkpt>
      <trkpt lat="44.10992" lon="7.00188">
        <ele>1803</ele>
        <time>2019-08-03T09:01:32.000Z</time>
      </trkpt>
      <trkpt lat="44.10983" lon="7.00189">
        <ele>1800</ele>
        <time>2019-08-03T09:01:34.000Z</time>
      </trkpt>
      <trkpt lat="44.10973" lon="7.00192">
        <ele>1797</ele>
        <time>2019-08-03T09:01:36.000Z</time>
      </trkpt>
      <trkpt lat="44.10954" lon="7.002">
        <ele>1795</ele>
        <time>2019-08-03T09:01:38.000Z</time>
      </trkpt>
      <trkpt lat="44.10943" lon="7.00206">
        <ele>1792</ele>
        <time>2019-08-03T09:01:40.000Z</time>
      </trkpt>
      <trkpt lat="44.10932" lon="7.00212">
        <ele>1790</ele>
        <time>2019-08-03T09:01:42.000Z</time>
      </trkpt>
      <trkpt lat="44.10919" lon="7.00212">
        <ele>1787</ele>
        <time>2019-08-03T09:01:44.000Z</time>
      </trkpt>
      <trkpt lat="44.10907" lon="7.00208">
        <ele>1786</ele>
        <time>2019-08-03T09:01:48.000Z</time>
      </trkpt>
      <trkpt lat="44.10896" lon="7.00206">
        <ele>1785</ele>
        <time>2019-08-03T09:01:50.000Z</time>
      </trkpt>
      <trkpt lat="44.10885" lon="7.00205">
        <ele>1784</ele>
        <time>2019-08-03T09:01:52.000Z</time>
      </trkpt>
      <trkpt lat="44.10885" lon="7.00205">
        <ele>1784</ele>
        <time>2019-08-03T09:01:54.000Z</time>
      </trkpt>
      <trkpt lat="44.10885" lon="7.00205">
        <ele>1784</ele>
        <time>2019-08-03T09:01:58.000Z</time>
      </trkpt>
      <trkpt lat="44.10885" lon="7.00205">
        <ele>1784</ele>
        <time>2019-08-03T09:02:00.000Z</time>
      </trkpt>
      <trkpt lat="44.10885" lon="7.00205">
        <ele>1784</ele>
        <time>2019-08-03T09:02:02.000Z</time>
      </trkpt>
      <trkpt lat="44.10885" lon="7.00205">
        <ele>1784</ele>
        <time>2019-08-03T09:02:04.000Z</time>
      </trkpt>
      <trkpt lat="44.10885" lon="7.00205">
        <ele>1784</ele>
        <time>2019-08-03T09:02:06.000Z</time>
      </trkpt>
      <trkpt lat="44.10813" lon="7.00189">
        <ele>1780</ele>
        <time>2019-08-03T09:02:08.000Z</time>
      </trkpt>
      <trkpt lat="44.10813" lon="7.00189">
        <ele>1780</ele>
        <time>2019-08-03T09:02:12.000Z</time>
      </trkpt>
      <trkpt lat="44.10813" lon="7.00189">
        <ele>1780</ele>
        <time>2019-08-03T09:02:14.000Z</time>
      </trkpt>
      <trkpt lat="44.1079" lon="7.00177">
        <ele>1780</ele>
        <time>2019-08-03T09:02:16.000Z</time>
      </trkpt>
      <trkpt lat="44.1079" lon="7.00177">
        <ele>1780</ele>
        <time>2019-08-03T09:02:18.000Z</time>
      </trkpt>
      <trkpt lat="44.1079" lon="7.00177">
        <ele>1780</ele>
        <time>2019-08-03T09:02:20.000Z</time>
      </trkpt>
      <trkpt lat="44.1079" lon="7.00177">
        <ele>1780</ele>
        <time>2019-08-03T09:02:22.000Z</time>
      </trkpt>
      <trkpt lat="44.10748" lon="7.00148">
        <ele>1780</ele>
        <time>2019-08-03T09:02:24.000Z</time>
      </trkpt>
      <trkpt lat="44.10735" lon="7.00142">
        <ele>1778</ele>
        <time>2019-08-03T09:02:26.000Z</time>
      </trkpt>
      <trkpt lat="44.10735" lon="7.00142">
        <ele>1778</ele>
        <time>2019-08-03T09:02:28.000Z</time>
      </trkpt>
      <trkpt lat="44.10735" lon="7.00142">
        <ele>1778</ele>
        <time>2019-08-03T09:02:32.000Z</time>
      </trkpt>
      <trkpt lat="44.10713" lon="7.00137">
        <ele>1777</ele>
        <time>2019-08-03T09:02:34.000Z</time>
      </trkpt>
      <trkpt lat="44.10703" lon="7.00134">
        <ele>1775</ele>
        <time>2019-08-03T09:02:36.000Z</time>
      </trkpt>
      <trkpt lat="44.10692" lon="7.00132">
        <ele>1773</ele>
        <time>2019-08-03T09:02:40.000Z</time>
      </trkpt>
      <trkpt lat="44.10679" lon="7.0013">
        <ele>1771</ele>
        <time>2019-08-03T09:02:42.000Z</time>
      </trkpt>
      <trkpt lat="44.10663" lon="7.00129">
        <ele>1766</ele>
        <time>2019-08-03T09:02:44.000Z</time>
      </trkpt>
      <trkpt lat="44.1063" lon="7.00132">
        <ele>1761</ele>
        <time>2019-08-03T09:02:46.000Z</time>
      </trkpt>
      <trkpt lat="44.1061" lon="7.00141">
        <ele>1757</ele>
        <time>2019-08-03T09:02:48.000Z</time>
      </trkpt>
      <trkpt lat="44.10595" lon="7.00147">
        <ele>1754</ele>
        <time>2019-08-03T09:02:50.000Z</time>
      </trkpt>
      <trkpt lat="44.10582" lon="7.00152">
        <ele>1752</ele>
        <time>2019-08-03T09:02:52.000Z</time>
      </trkpt>
      <trkpt lat="44.10564" lon="7.0016">
        <ele>1749</ele>
        <time>2019-08-03T09:02:54.000Z</time>
      </trkpt>
      <trkpt lat="44.10552" lon="7.00178">
        <ele>1746</ele>
        <time>2019-08-03T09:02:56.000Z</time>
      </trkpt>
      <trkpt lat="44.10543" lon="7.00197">
        <ele>1743</ele>
        <time>2019-08-03T09:02:58.000Z</time>
      </trkpt>
      <trkpt lat="44.10534" lon="7.00211">
        <ele>1742</ele>
        <time>2019-08-03T09:03:00.000Z</time>
      </trkpt>
      <trkpt lat="44.10524" lon="7.00226">
        <ele>1741</ele>
        <time>2019-08-03T09:03:02.000Z</time>
      </trkpt>
      <trkpt lat="44.10516" lon="7.00238">
        <ele>1738</ele>
        <time>2019-08-03T09:03:04.000Z</time>
      </trkpt>
      <trkpt lat="44.10508" lon="7.0025">
        <ele>1737</ele>
        <time>2019-08-03T09:03:06.000Z</time>
      </trkpt>
      <trkpt lat="44.10499" lon="7.00258">
        <ele>1736</ele>
        <time>2019-08-03T09:03:08.000Z</time>
      </trkpt>
      <trkpt lat="44.10499" lon="7.00258">
        <ele>1736</ele>
        <time>2019-08-03T09:03:10.000Z</time>
      </trkpt>
      <trkpt lat="44.10469" lon="7.00287">
        <ele>1731</ele>
        <time>2019-08-03T09:03:12.000Z</time>
      </trkpt>
      <trkpt lat="44.1046" lon="7.00301">
        <ele>1729</ele>
        <time>2019-08-03T09:03:14.000Z</time>
      </trkpt>
      <trkpt lat="44.1045" lon="7.00317">
        <ele>1728</ele>
        <time>2019-08-03T09:03:16.000Z</time>
      </trkpt>
      <trkpt lat="44.10437" lon="7.00329">
        <ele>1726</ele>
        <time>2019-08-03T09:03:18.000Z</time>
      </trkpt>
      <trkpt lat="44.10428" lon="7.00343">
        <ele>1724</ele>
        <time>2019-08-03T09:03:20.000Z</time>
      </trkpt>
      <trkpt lat="44.10417" lon="7.00357">
        <ele>1721</ele>
        <time>2019-08-03T09:03:22.000Z</time>
      </trkpt>
      <trkpt lat="44.10406" lon="7.00369">
        <ele>1720</ele>
        <time>2019-08-03T09:03:25.000Z</time>
      </trkpt>
      <trkpt lat="44.104" lon="7.00382">
        <ele>1717</ele>
        <time>2019-08-03T09:03:28.000Z</time>
      </trkpt>
      <trkpt lat="44.10392" lon="7.00389">
        <ele>1717</ele>
        <time>2019-08-03T09:03:30.000Z</time>
      </trkpt>
      <trkpt lat="44.10392" lon="7.00389">
        <ele>1717</ele>
        <time>2019-08-03T09:03:32.000Z</time>
      </trkpt>
      <trkpt lat="44.1037" lon="7.00387">
        <ele>1719</ele>
        <time>2019-08-03T09:03:34.000Z</time>
      </trkpt>
      <trkpt lat="44.10359" lon="7.00384">
        <ele>1720</ele>
        <time>2019-08-03T09:03:36.000Z</time>
      </trkpt>
      <trkpt lat="44.10349" lon="7.00382">
        <ele>1720</ele>
        <time>2019-08-03T09:03:38.000Z</time>
      </trkpt>
      <trkpt lat="44.10339" lon="7.00381">
        <ele>1722</ele>
        <time>2019-08-03T09:03:40.000Z</time>
      </trkpt>
      <trkpt lat="44.10339" lon="7.00381">
        <ele>1722</ele>
        <time>2019-08-03T09:03:42.000Z</time>
      </trkpt>
      <trkpt lat="44.10339" lon="7.00381">
        <ele>1722</ele>
        <time>2019-08-03T09:03:44.000Z</time>
      </trkpt>
      <trkpt lat="44.10339" lon="7.00381">
        <ele>1722</ele>
        <time>2019-08-03T09:03:46.000Z</time>
      </trkpt>
      <trkpt lat="44.10339" lon="7.00381">
        <ele>1722</ele>
        <time>2019-08-03T09:03:48.000Z</time>
      </trkpt>
      <trkpt lat="44.10339" lon="7.00381">
        <ele>1722</ele>
        <time>2019-08-03T09:03:50.000Z</time>
      </trkpt>
      <trkpt lat="44.10339" lon="7.00381">
        <ele>1722</ele>
        <time>2019-08-03T09:03:52.000Z</time>
      </trkpt>
      <trkpt lat="44.10339" lon="7.00381">
        <ele>1722</ele>
        <time>2019-08-03T09:03:54.000Z</time>
      </trkpt>
      <trkpt lat="44.10339" lon="7.00381">
        <ele>1722</ele>
        <time>2019-08-03T09:03:56.000Z</time>
      </trkpt>
      <trkpt lat="44.10339" lon="7.00381">
        <ele>1722</ele>
        <time>2019-08-03T09:03:57.000Z</time>
      </trkpt>
      <trkpt lat="44.10339" lon="7.00381">
        <ele>1722</ele>
        <time>2019-08-03T09:03:59.000Z</time>
      </trkpt>
      <trkpt lat="44.10295" lon="7.00346">
        <ele>1730</ele>
        <time>2019-08-03T09:04:01.000Z</time>
      </trkpt>
      <trkpt lat="44.10271" lon="7.00323">
        <ele>1730</ele>
        <time>2019-08-03T09:04:03.000Z</time>
      </trkpt>
      <trkpt lat="44.10258" lon="7.00306">
        <ele>1731</ele>
        <time>2019-08-03T09:04:05.000Z</time>
      </trkpt>
      <trkpt lat="44.10249" lon="7.00292">
        <ele>1731</ele>
        <time>2019-08-03T09:04:07.000Z</time>
      </trkpt>
      <trkpt lat="44.10242" lon="7.0028">
        <ele>1730</ele>
        <time>2019-08-03T09:04:09.000Z</time>
      </trkpt>
      <trkpt lat="44.10225" lon="7.0026">
        <ele>1729</ele>
        <time>2019-08-03T09:04:11.000Z</time>
      </trkpt>
      <trkpt lat="44.10219" lon="7.00245">
        <ele>1727</ele>
        <time>2019-08-03T09:04:13.000Z</time>
      </trkpt>
      <trkpt lat="44.10218" lon="7.0023">
        <ele>1726</ele>
        <time>2019-08-03T09:04:15.000Z</time>
      </trkpt>
      <trkpt lat="44.10218" lon="7.00216">
        <ele>1727</ele>
        <time>2019-08-03T09:04:17.000Z</time>
      </trkpt>
      <trkpt lat="44.1022" lon="7.00202">
        <ele>1727</ele>
        <time>2019-08-03T09:04:19.000Z</time>
      </trkpt>
      <trkpt lat="44.1022" lon="7.00202">
        <ele>1727</ele>
        <time>2019-08-03T09:04:21.000Z</time>
      </trkpt>
      <trkpt lat="44.1022" lon="7.00202">
        <ele>1727</ele>
        <time>2019-08-03T09:04:23.000Z</time>
      </trkpt>
      <trkpt lat="44.1022" lon="7.00202">
        <ele>1727</ele>
        <time>2019-08-03T09:04:26.000Z</time>
      </trkpt>
      <trkpt lat="44.1022" lon="7.00202">
        <ele>1727</ele>
        <time>2019-08-03T09:04:30.000Z</time>
      </trkpt>
      <trkpt lat="44.10192" lon="7.00187">
        <ele>1718</ele>
        <time>2019-08-03T09:04:32.000Z</time>
      </trkpt>
      <trkpt lat="44.10192" lon="7.00187">
        <ele>1718</ele>
        <time>2019-08-03T09:04:34.000Z</time>
      </trkpt>
      <trkpt lat="44.10192" lon="7.00187">
        <ele>1718</ele>
        <time>2019-08-03T09:04:36.000Z</time>
      </trkpt>
      <trkpt lat="44.10192" lon="7.00187">
        <ele>1718</ele>
        <time>2019-08-03T09:04:38.000Z</time>
      </trkpt>
      <trkpt lat="44.10192" lon="7.00187">
        <ele>1718</ele>
        <time>2019-08-03T09:04:40.000Z</time>
      </trkpt>
      <trkpt lat="44.10192" lon="7.00187">
        <ele>1718</ele>
        <time>2019-08-03T09:04:42.000Z</time>
      </trkpt>
      <trkpt lat="44.10192" lon="7.00217">
        <ele>1715</ele>
        <time>2019-08-03T09:04:44.000Z</time>
      </trkpt>
      <trkpt lat="44.10192" lon="7.00217">
        <ele>1715</ele>
        <time>2019-08-03T09:04:46.000Z</time>
      </trkpt>
      <trkpt lat="44.10181" lon="7.00204">
        <ele>1712</ele>
        <time>2019-08-03T09:04:48.000Z</time>
      </trkpt>
      <trkpt lat="44.10174" lon="7.00193">
        <ele>1710</ele>
        <time>2019-08-03T09:04:50.000Z</time>
      </trkpt>
      <trkpt lat="44.10169" lon="7.0018">
        <ele>1707</ele>
        <time>2019-08-03T09:04:52.000Z</time>
      </trkpt>
      <trkpt lat="44.10161" lon="7.00166">
        <ele>1705</ele>
        <time>2019-08-03T09:04:54.000Z</time>
      </trkpt>
      <trkpt lat="44.10155" lon="7.00153">
        <ele>1702</ele>
        <time>2019-08-03T09:04:56.000Z</time>
      </trkpt>
      <trkpt lat="44.1015" lon="7.00139">
        <ele>1700</ele>
        <time>2019-08-03T09:04:58.000Z</time>
      </trkpt>
      <trkpt lat="44.10148" lon="7.00121">
        <ele>1699</ele>
        <time>2019-08-03T09:05:00.000Z</time>
      </trkpt>
      <trkpt lat="44.10144" lon="7.001">
        <ele>1696</ele>
        <time>2019-08-03T09:05:02.000Z</time>
      </trkpt>
      <trkpt lat="44.1014" lon="7.00076">
        <ele>1694</ele>
        <time>2019-08-03T09:05:04.000Z</time>
      </trkpt>
      <trkpt lat="44.10138" lon="7.00051">
        <ele>1692</ele>
        <time>2019-08-03T09:05:06.000Z</time>
      </trkpt>
      <trkpt lat="44.1014" lon="7.00026">
        <ele>1692</ele>
        <time>2019-08-03T09:05:08.000Z</time>
      </trkpt>
      <trkpt lat="44.10143" lon="7.00004">
        <ele>1690</ele>
        <time>2019-08-03T09:05:10.000Z</time>
      </trkpt>
      <trkpt lat="44.10147" lon="6.99982">
        <ele>1690</ele>
        <time>2019-08-03T09:05:12.000Z</time>
      </trkpt>
      <trkpt lat="44.10146" lon="6.99961">
        <ele>1690</ele>
        <time>2019-08-03T09:05:14.000Z</time>
      </trkpt>
      <trkpt lat="44.1015" lon="6.99945">
        <ele>1687</ele>
        <time>2019-08-03T09:05:16.000Z</time>
      </trkpt>
      <trkpt lat="44.10159" lon="6.99935">
        <ele>1686</ele>
        <time>2019-08-03T09:05:18.000Z</time>
      </trkpt>
      <trkpt lat="44.10159" lon="6.99935">
        <ele>1686</ele>
        <time>2019-08-03T09:05:20.000Z</time>
      </trkpt>
      <trkpt lat="44.10159" lon="6.99935">
        <ele>1686</ele>
        <time>2019-08-03T09:05:22.000Z</time>
      </trkpt>
      <trkpt lat="44.10159" lon="6.99935">
        <ele>1686</ele>
        <time>2019-08-03T09:05:24.000Z</time>
      </trkpt>
      <trkpt lat="44.10159" lon="6.99935">
        <ele>1686</ele>
        <time>2019-08-03T09:05:26.000Z</time>
      </trkpt>
      <trkpt lat="44.10159" lon="6.99935">
        <ele>1686</ele>
        <time>2019-08-03T09:05:28.000Z</time>
      </trkpt>
      <trkpt lat="44.10153" lon="6.99922">
        <ele>1680</ele>
        <time>2019-08-03T09:05:30.000Z</time>
      </trkpt>
      <trkpt lat="44.10141" lon="6.99921">
        <ele>1679</ele>
        <time>2019-08-03T09:05:32.000Z</time>
      </trkpt>
      <trkpt lat="44.10129" lon="6.99923">
        <ele>1679</ele>
        <time>2019-08-03T09:05:34.000Z</time>
      </trkpt>
      <trkpt lat="44.10116" lon="6.99928">
        <ele>1678</ele>
        <time>2019-08-03T09:05:36.000Z</time>
      </trkpt>
      <trkpt lat="44.10104" lon="6.99936">
        <ele>1678</ele>
        <time>2019-08-03T09:05:38.000Z</time>
      </trkpt>
      <trkpt lat="44.10096" lon="6.99944">
        <ele>1676</ele>
        <time>2019-08-03T09:05:40.000Z</time>
      </trkpt>
      <trkpt lat="44.10086" lon="6.99944">
        <ele>1673</ele>
        <time>2019-08-03T09:05:42.000Z</time>
      </trkpt>
      <trkpt lat="44.10062" lon="6.9994">
        <ele>1669</ele>
        <time>2019-08-03T09:05:44.000Z</time>
      </trkpt>
      <trkpt lat="44.10044" lon="6.99942">
        <ele>1667</ele>
        <time>2019-08-03T09:05:46.000Z</time>
      </trkpt>
      <trkpt lat="44.10027" lon="6.99937">
        <ele>1666</ele>
        <time>2019-08-03T09:05:48.000Z</time>
      </trkpt>
      <trkpt lat="44.10015" lon="6.99923">
        <ele>1665</ele>
        <time>2019-08-03T09:05:50.000Z</time>
      </trkpt>
      <trkpt lat="44.10004" lon="6.99911">
        <ele>1665</ele>
        <time>2019-08-03T09:05:52.000Z</time>
      </trkpt>
      <trkpt lat="44.09999" lon="6.99897">
        <ele>1663</ele>
        <time>2019-08-03T09:05:54.000Z</time>
      </trkpt>
      <trkpt lat="44.1" lon="6.99881">
        <ele>1662</ele>
        <time>2019-08-03T09:05:56.000Z</time>
      </trkpt>
      <trkpt lat="44.09996" lon="6.99862">
        <ele>1661</ele>
        <time>2019-08-03T09:05:57.000Z</time>
      </trkpt>
      <trkpt lat="44.09989" lon="6.99841">
        <ele>1661</ele>
        <time>2019-08-03T09:05:59.000Z</time>
      </trkpt>
      <trkpt lat="44.09982" lon="6.99819">
        <ele>1659</ele>
        <time>2019-08-03T09:06:08.000Z</time>
      </trkpt>
      <trkpt lat="44.09976" lon="6.99797">
        <ele>1657</ele>
        <time>2019-08-03T09:06:10.000Z</time>
      </trkpt>
      <trkpt lat="44.09971" lon="6.99774">
        <ele>1656</ele>
        <time>2019-08-03T09:06:12.000Z</time>
      </trkpt>
      <trkpt lat="44.09964" lon="6.99753">
        <ele>1654</ele>
        <time>2019-08-03T09:06:16.000Z</time>
      </trkpt>
      <trkpt lat="44.09954" lon="6.99734">
        <ele>1652</ele>
        <time>2019-08-03T09:06:18.000Z</time>
      </trkpt>
      <trkpt lat="44.09942" lon="6.99713">
        <ele>1651</ele>
        <time>2019-08-03T09:06:20.000Z</time>
      </trkpt>
      <trkpt lat="44.09928" lon="6.99696">
        <ele>1649</ele>
        <time>2019-08-03T09:06:22.000Z</time>
      </trkpt>
      <trkpt lat="44.09914" lon="6.99682">
        <ele>1648</ele>
        <time>2019-08-03T09:06:24.000Z</time>
      </trkpt>
      <trkpt lat="44.09901" lon="6.99673">
        <ele>1648</ele>
        <time>2019-08-03T09:06:26.000Z</time>
      </trkpt>
      <trkpt lat="44.09887" lon="6.99666">
        <ele>1647</ele>
        <time>2019-08-03T09:06:28.000Z</time>
      </trkpt>
      <trkpt lat="44.09871" lon="6.99664">
        <ele>1646</ele>
        <time>2019-08-03T09:06:30.000Z</time>
      </trkpt>
      <trkpt lat="44.09855" lon="6.9967">
        <ele>1646</ele>
        <time>2019-08-03T09:06:32.000Z</time>
      </trkpt>
      <trkpt lat="44.09842" lon="6.99682">
        <ele>1645</ele>
        <time>2019-08-03T09:06:34.000Z</time>
      </trkpt>
      <trkpt lat="44.09831" lon="6.99699">
        <ele>1641</ele>
        <time>2019-08-03T09:06:36.000Z</time>
      </trkpt>
      <trkpt lat="44.09826" lon="6.99721">
        <ele>1639</ele>
        <time>2019-08-03T09:06:38.000Z</time>
      </trkpt>
      <trkpt lat="44.09834" lon="6.99737">
        <ele>1638</ele>
        <time>2019-08-03T09:06:40.000Z</time>
      </trkpt>
      <trkpt lat="44.09842" lon="6.99752">
        <ele>1638</ele>
        <time>2019-08-03T09:06:42.000Z</time>
      </trkpt>
      <trkpt lat="44.09851" lon="6.99775">
        <ele>1637</ele>
        <time>2019-08-03T09:06:44.000Z</time>
      </trkpt>
      <trkpt lat="44.09858" lon="6.99786">
        <ele>1636</ele>
        <time>2019-08-03T09:06:46.000Z</time>
      </trkpt>
      <trkpt lat="44.09868" lon="6.99801">
        <ele>1634</ele>
        <time>2019-08-03T09:06:48.000Z</time>
      </trkpt>
      <trkpt lat="44.09879" lon="6.99818">
        <ele>1633</ele>
        <time>2019-08-03T09:06:50.000Z</time>
      </trkpt>
      <trkpt lat="44.0989" lon="6.99832">
        <ele>1631</ele>
        <time>2019-08-03T09:06:52.000Z</time>
      </trkpt>
      <trkpt lat="44.0989" lon="6.99832">
        <ele>1631</ele>
        <time>2019-08-03T09:06:54.000Z</time>
      </trkpt>
      <trkpt lat="44.0989" lon="6.99832">
        <ele>1631</ele>
        <time>2019-08-03T09:06:56.000Z</time>
      </trkpt>
      <trkpt lat="44.0989" lon="6.99832">
        <ele>1631</ele>
        <time>2019-08-03T09:07:02.000Z</time>
      </trkpt>
      <trkpt lat="44.0989" lon="6.99832">
        <ele>1631</ele>
        <time>2019-08-03T09:07:06.000Z</time>
      </trkpt>
      <trkpt lat="44.09895" lon="6.99839">
        <ele>1623</ele>
        <time>2019-08-03T09:07:08.000Z</time>
      </trkpt>
      <trkpt lat="44.09895" lon="6.99839">
        <ele>1623</ele>
        <time>2019-08-03T09:07:10.000Z</time>
      </trkpt>
      <trkpt lat="44.09874" lon="6.99817">
        <ele>1623</ele>
        <time>2019-08-03T09:07:12.000Z</time>
      </trkpt>
      <trkpt lat="44.09837" lon="6.99776">
        <ele>1619</ele>
        <time>2019-08-03T09:07:14.000Z</time>
      </trkpt>
      <trkpt lat="44.09823" lon="6.9976">
        <ele>1617</ele>
        <time>2019-08-03T09:07:20.000Z</time>
      </trkpt>
      <trkpt lat="44.09805" lon="6.99747">
        <ele>1616</ele>
        <time>2019-08-03T09:07:24.000Z</time>
      </trkpt>
      <trkpt lat="44.09787" lon="6.99737">
        <ele>1615</ele>
        <time>2019-08-03T09:07:28.000Z</time>
      </trkpt>
      <trkpt lat="44.09773" lon="6.99718">
        <ele>1615</ele>
        <time>2019-08-03T09:07:30.000Z</time>
      </trkpt>
      <trkpt lat="44.09761" lon="6.99696">
        <ele>1613</ele>
        <time>2019-08-03T09:07:32.000Z</time>
      </trkpt>
      <trkpt lat="44.09758" lon="6.99669">
        <ele>1610</ele>
        <time>2019-08-03T09:07:36.000Z</time>
      </trkpt>
      <trkpt lat="44.09768" lon="6.99644">
        <ele>1609</ele>
        <time>2019-08-03T09:07:40.000Z</time>
      </trkpt>
      <trkpt lat="44.09783" lon="6.99624">
        <ele>1607</ele>
        <time>2019-08-03T09:07:44.000Z</time>
      </trkpt>
      <trkpt lat="44.09802" lon="6.99608">
        <ele>1606</ele>
        <time>2019-08-03T09:07:46.000Z</time>
      </trkpt>
      <trkpt lat="44.0982" lon="6.99596">
        <ele>1603</ele>
        <time>2019-08-03T09:07:50.000Z</time>
      </trkpt>
      <trkpt lat="44.09834" lon="6.99583">
        <ele>1602</ele>
        <time>2019-08-03T09:07:52.000Z</time>
      </trkpt>
      <trkpt lat="44.09851" lon="6.99558">
        <ele>1601</ele>
        <time>2019-08-03T09:07:54.000Z</time>
      </trkpt>
      <trkpt lat="44.09871" lon="6.99537">
        <ele>1599</ele>
        <time>2019-08-03T09:07:56.000Z</time>
      </trkpt>
      <trkpt lat="44.09896" lon="6.9953">
        <ele>1598</ele>
        <time>2019-08-03T09:07:57.000Z</time>
      </trkpt>
      <trkpt lat="44.09922" lon="6.99531">
        <ele>1598</ele>
        <time>2019-08-03T09:07:59.000Z</time>
      </trkpt>
      <trkpt lat="44.09948" lon="6.99541">
        <ele>1596</ele>
        <time>2019-08-03T09:08:01.000Z</time>
      </trkpt>
      <trkpt lat="44.09974" lon="6.99545">
        <ele>1599</ele>
        <time>2019-08-03T09:08:07.000Z</time>
      </trkpt>
      <trkpt lat="44.10003" lon="6.99555">
        <ele>1594</ele>
        <time>2019-08-03T09:08:09.000Z</time>
      </trkpt>
      <trkpt lat="44.1003" lon="6.9957">
        <ele>1592</ele>
        <time>2019-08-03T09:08:11.000Z</time>
      </trkpt>
      <trkpt lat="44.10055" lon="6.99588">
        <ele>1589</ele>
        <time>2019-08-03T09:08:13.000Z</time>
      </trkpt>
      <trkpt lat="44.10079" lon="6.99607">
        <ele>1588</ele>
        <time>2019-08-03T09:08:15.000Z</time>
      </trkpt>
      <trkpt lat="44.10105" lon="6.99621">
        <ele>1586</ele>
        <time>2019-08-03T09:08:17.000Z</time>
      </trkpt>
      <trkpt lat="44.10132" lon="6.99626">
        <ele>1584</ele>
        <time>2019-08-03T09:08:23.000Z</time>
      </trkpt>
      <trkpt lat="44.1016" lon="6.9963">
        <ele>1581</ele>
        <time>2019-08-03T09:08:25.000Z</time>
      </trkpt>
      <trkpt lat="44.10188" lon="6.99631">
        <ele>1580</ele>
        <time>2019-08-03T09:08:27.000Z</time>
      </trkpt>
      <trkpt lat="44.10215" lon="6.99626">
        <ele>1579</ele>
        <time>2019-08-03T09:08:29.000Z</time>
      </trkpt>
      <trkpt lat="44.1024" lon="6.99622">
        <ele>1569</ele>
        <time>2019-08-03T09:08:31.000Z</time>
      </trkpt>
      <trkpt lat="44.10262" lon="6.99598">
        <ele>1566</ele>
        <time>2019-08-03T09:08:33.000Z</time>
      </trkpt>
      <trkpt lat="44.10255" lon="6.99575">
        <ele>1565</ele>
        <time>2019-08-03T09:08:41.000Z</time>
      </trkpt>
      <trkpt lat="44.10243" lon="6.99557">
        <ele>1564</ele>
        <time>2019-08-03T09:08:43.000Z</time>
      </trkpt>
      <trkpt lat="44.1023" lon="6.99537">
        <ele>1563</ele>
        <time>2019-08-03T09:10:02.000Z</time>
      </trkpt>
      <trkpt lat="44.10218" lon="6.99514">
        <ele>1560</ele>
        <time>2019-08-03T09:10:06.000Z</time>
      </trkpt>
      <trkpt lat="44.10205" lon="6.99492">
        <ele>1559</ele>
        <time>2019-08-03T09:10:08.000Z</time>
      </trkpt>
      <trkpt lat="44.10196" lon="6.99468">
        <ele>1555</ele>
        <time>2019-08-03T09:10:10.000Z</time>
      </trkpt>
      <trkpt lat="44.10196" lon="6.99442">
        <ele>1554</ele>
        <time>2019-08-03T09:10:12.000Z</time>
      </trkpt>
      <trkpt lat="44.10198" lon="6.99412">
        <ele>1551</ele>
        <time>2019-08-03T09:10:14.000Z</time>
      </trkpt>
      <trkpt lat="44.10198" lon="6.99381">
        <ele>1549</ele>
        <time>2019-08-03T09:10:16.000Z</time>
      </trkpt>
      <trkpt lat="44.10194" lon="6.99349">
        <ele>1547</ele>
        <time>2019-08-03T09:10:18.000Z</time>
      </trkpt>
      <trkpt lat="44.10184" lon="6.99324">
        <ele>1545</ele>
        <time>2019-08-03T09:10:20.000Z</time>
      </trkpt>
      <trkpt lat="44.10165" lon="6.99312">
        <ele>1544</ele>
        <time>2019-08-03T09:10:22.000Z</time>
      </trkpt>
      <trkpt lat="44.10144" lon="6.99314">
        <ele>1543</ele>
        <time>2019-08-03T09:10:24.000Z</time>
      </trkpt>
      <trkpt lat="44.10128" lon="6.99326">
        <ele>1542</ele>
        <time>2019-08-03T09:10:26.000Z</time>
      </trkpt>
      <trkpt lat="44.1011" lon="6.99334">
        <ele>1541</ele>
        <time>2019-08-03T09:10:28.000Z</time>
      </trkpt>
      <trkpt lat="44.10094" lon="6.99329">
        <ele>1539</ele>
        <time>2019-08-03T09:10:30.000Z</time>
      </trkpt>
      <trkpt lat="44.10082" lon="6.9931">
        <ele>1538</ele>
        <time>2019-08-03T09:10:32.000Z</time>
      </trkpt>
      <trkpt lat="44.1008" lon="6.99285">
        <ele>1538</ele>
        <time>2019-08-03T09:10:34.000Z</time>
      </trkpt>
      <trkpt lat="44.10088" lon="6.99261">
        <ele>1538</ele>
        <time>2019-08-03T09:10:36.000Z</time>
      </trkpt>
      <trkpt lat="44.10104" lon="6.99243">
        <ele>1536</ele>
        <time>2019-08-03T09:10:38.000Z</time>
      </trkpt>
      <trkpt lat="44.10125" lon="6.99228">
        <ele>1534</ele>
        <time>2019-08-03T09:10:40.000Z</time>
      </trkpt>
      <trkpt lat="44.10147" lon="6.9921">
        <ele>1532</ele>
        <time>2019-08-03T09:10:42.000Z</time>
      </trkpt>
      <trkpt lat="44.10168" lon="6.99188">
        <ele>1529</ele>
        <time>2019-08-03T09:10:44.000Z</time>
      </trkpt>
      <trkpt lat="44.10187" lon="6.99164">
        <ele>1526</ele>
        <time>2019-08-03T09:10:46.000Z</time>
      </trkpt>
      <trkpt lat="44.10205" lon="6.99136">
        <ele>1524</ele>
        <time>2019-08-03T09:10:48.000Z</time>
      </trkpt>
      <trkpt lat="44.1022" lon="6.99109">
        <ele>1522</ele>
        <time>2019-08-03T09:10:50.000Z</time>
      </trkpt>
      <trkpt lat="44.10236" lon="6.9908">
        <ele>1520</ele>
        <time>2019-08-03T09:10:52.000Z</time>
      </trkpt>
      <trkpt lat="44.10251" lon="6.99053">
        <ele>1518</ele>
        <time>2019-08-03T09:10:54.000Z</time>
      </trkpt>
      <trkpt lat="44.10267" lon="6.99026">
        <ele>1515</ele>
        <time>2019-08-03T09:10:56.000Z</time>
      </trkpt>
      <trkpt lat="44.10282" lon="6.98999">
        <ele>1514</ele>
        <time>2019-08-03T09:10:58.000Z</time>
      </trkpt>
      <trkpt lat="44.10299" lon="6.9897">
        <ele>1511</ele>
        <time>2019-08-03T09:11:00.000Z</time>
      </trkpt>
      <trkpt lat="44.10311" lon="6.98944">
        <ele>1510</ele>
        <time>2019-08-03T09:11:02.000Z</time>
      </trkpt>
      <trkpt lat="44.10323" lon="6.98917">
        <ele>1510</ele>
        <time>2019-08-03T09:11:04.000Z</time>
      </trkpt>
      <trkpt lat="44.10335" lon="6.98888">
        <ele>1508</ele>
        <time>2019-08-03T09:11:06.000Z</time>
      </trkpt>
      <trkpt lat="44.10349" lon="6.98861">
        <ele>1505</ele>
        <time>2019-08-03T09:11:08.000Z</time>
      </trkpt>
      <trkpt lat="44.10363" lon="6.98833">
        <ele>1503</ele>
        <time>2019-08-03T09:11:10.000Z</time>
      </trkpt>
      <trkpt lat="44.10379" lon="6.98807">
        <ele>1502</ele>
        <time>2019-08-03T09:11:12.000Z</time>
      </trkpt>
      <trkpt lat="44.10401" lon="6.98788">
        <ele>1500</ele>
        <time>2019-08-03T09:11:14.000Z</time>
      </trkpt>
      <trkpt lat="44.10426" lon="6.98782">
        <ele>1499</ele>
        <time>2019-08-03T09:11:16.000Z</time>
      </trkpt>
      <trkpt lat="44.10452" lon="6.98779">
        <ele>1498</ele>
        <time>2019-08-03T09:11:18.000Z</time>
      </trkpt>
      <trkpt lat="44.10474" lon="6.98772">
        <ele>1498</ele>
        <time>2019-08-03T09:11:20.000Z</time>
      </trkpt>
      <trkpt lat="44.10495" lon="6.98747">
        <ele>1498</ele>
        <time>2019-08-03T09:11:22.000Z</time>
      </trkpt>
      <trkpt lat="44.105" lon="6.98726">
        <ele>1497</ele>
        <time>2019-08-03T09:11:24.000Z</time>
      </trkpt>
      <trkpt lat="44.10501" lon="6.98706">
        <ele>1497</ele>
        <time>2019-08-03T09:11:26.000Z</time>
      </trkpt>
      <trkpt lat="44.10499" lon="6.98689">
        <ele>1496</ele>
        <time>2019-08-03T09:11:30.000Z</time>
      </trkpt>
      <trkpt lat="44.10491" lon="6.98679">
        <ele>1496</ele>
        <time>2019-08-03T09:11:32.000Z</time>
      </trkpt>
      <trkpt lat="44.10491" lon="6.98679">
        <ele>1496</ele>
        <time>2019-08-03T09:11:34.000Z</time>
      </trkpt>
      <trkpt lat="44.10491" lon="6.98679">
        <ele>1496</ele>
        <time>2019-08-03T09:11:36.000Z</time>
      </trkpt>
      <trkpt lat="44.10491" lon="6.98679">
        <ele>1496</ele>
        <time>2019-08-03T09:11:38.000Z</time>
      </trkpt>
      <trkpt lat="44.10491" lon="6.98679">
        <ele>1496</ele>
        <time>2019-08-03T09:11:44.000Z</time>
      </trkpt>
      <trkpt lat="44.10491" lon="6.98679">
        <ele>1496</ele>
        <time>2019-08-03T09:11:46.000Z</time>
      </trkpt>
      <trkpt lat="44.10458" lon="6.98668">
        <ele>1494</ele>
        <time>2019-08-03T09:11:48.000Z</time>
      </trkpt>
      <trkpt lat="44.10468" lon="6.98673">
        <ele>1494</ele>
        <time>2019-08-03T09:11:50.000Z</time>
      </trkpt>
      <trkpt lat="44.10468" lon="6.98673">
        <ele>1494</ele>
        <time>2019-08-03T09:11:52.000Z</time>
      </trkpt>
      <trkpt lat="44.10468" lon="6.98673">
        <ele>1494</ele>
        <time>2019-08-03T09:11:54.000Z</time>
      </trkpt>
      <trkpt lat="44.10468" lon="6.98673">
        <ele>1494</ele>
        <time>2019-08-03T09:11:56.000Z</time>
      </trkpt>
      <trkpt lat="44.10468" lon="6.98673">
        <ele>1494</ele>
        <time>2019-08-03T09:11:59.000Z</time>
      </trkpt>
      <trkpt lat="44.10468" lon="6.98673">
        <ele>1494</ele>
        <time>2019-08-03T09:12:01.000Z</time>
      </trkpt>
      <trkpt lat="44.10468" lon="6.98673">
        <ele>1494</ele>
        <time>2019-08-03T09:12:05.000Z</time>
      </trkpt>
      <trkpt lat="44.10468" lon="6.98673">
        <ele>1494</ele>
        <time>2019-08-03T09:12:07.000Z</time>
      </trkpt>
      <trkpt lat="44.10468" lon="6.98673">
        <ele>1494</ele>
        <time>2019-08-03T09:12:09.000Z</time>
      </trkpt>
      <trkpt lat="44.10468" lon="6.98673">
        <ele>1494</ele>
        <time>2019-08-03T09:12:11.000Z</time>
      </trkpt>
      <trkpt lat="44.10475" lon="6.9867">
        <ele>1495</ele>
        <time>2019-08-03T09:12:13.000Z</time>
      </trkpt>
      <trkpt lat="44.10424" lon="6.98652">
        <ele>1490</ele>
        <time>2019-08-03T09:12:15.000Z</time>
      </trkpt>
      <trkpt lat="44.10406" lon="6.98649">
        <ele>1489</ele>
        <time>2019-08-03T09:12:17.000Z</time>
      </trkpt>
      <trkpt lat="44.10386" lon="6.98646">
        <ele>1488</ele>
        <time>2019-08-03T09:12:19.000Z</time>
      </trkpt>
      <trkpt lat="44.10365" lon="6.98644">
        <ele>1486</ele>
        <time>2019-08-03T09:12:21.000Z</time>
      </trkpt>
      <trkpt lat="44.10344" lon="6.98643">
        <ele>1484</ele>
        <time>2019-08-03T09:12:23.000Z</time>
      </trkpt>
      <trkpt lat="44.10321" lon="6.98642">
        <ele>1483</ele>
        <time>2019-08-03T09:12:25.000Z</time>
      </trkpt>
      <trkpt lat="44.103" lon="6.98644">
        <ele>1482</ele>
        <time>2019-08-03T09:12:29.000Z</time>
      </trkpt>
      <trkpt lat="44.10277" lon="6.98646">
        <ele>1480</ele>
        <time>2019-08-03T09:12:31.000Z</time>
      </trkpt>
      <trkpt lat="44.10253" lon="6.98649">
        <ele>1479</ele>
        <time>2019-08-03T09:12:33.000Z</time>
      </trkpt>
      <trkpt lat="44.10228" lon="6.98655">
        <ele>1477</ele>
        <time>2019-08-03T09:12:35.000Z</time>
      </trkpt>
      <trkpt lat="44.10202" lon="6.98661">
        <ele>1475</ele>
        <time>2019-08-03T09:12:37.000Z</time>
      </trkpt>
      <trkpt lat="44.10177" lon="6.98667">
        <ele>1474</ele>
        <time>2019-08-03T09:12:39.000Z</time>
      </trkpt>
      <trkpt lat="44.10152" lon="6.98675">
        <ele>1472</ele>
        <time>2019-08-03T09:12:41.000Z</time>
      </trkpt>
      <trkpt lat="44.10128" lon="6.98687">
        <ele>1470</ele>
        <time>2019-08-03T09:12:43.000Z</time>
      </trkpt>
      <trkpt lat="44.10103" lon="6.98701">
        <ele>1469</ele>
        <time>2019-08-03T09:12:45.000Z</time>
      </trkpt>
      <trkpt lat="44.10081" lon="6.98713">
        <ele>1469</ele>
        <time>2019-08-03T09:12:47.000Z</time>
      </trkpt>
      <trkpt lat="44.1006" lon="6.98723">
        <ele>1468</ele>
        <time>2019-08-03T09:12:49.000Z</time>
      </trkpt>
      <trkpt lat="44.10041" lon="6.98728">
        <ele>1469</ele>
        <time>2019-08-03T09:12:51.000Z</time>
      </trkpt>
      <trkpt lat="44.10022" lon="6.9873">
        <ele>1470</ele>
        <time>2019-08-03T09:12:53.000Z</time>
      </trkpt>
      <trkpt lat="44.10006" lon="6.98728">
        <ele>1471</ele>
        <time>2019-08-03T09:12:55.000Z</time>
      </trkpt>
      <trkpt lat="44.09992" lon="6.98725">
        <ele>1472</ele>
        <time>2019-08-03T09:12:57.000Z</time>
      </trkpt>
      <trkpt lat="44.09978" lon="6.98722">
        <ele>1473</ele>
        <time>2019-08-03T09:12:59.000Z</time>
      </trkpt>
      <trkpt lat="44.09964" lon="6.98717">
        <ele>1473</ele>
        <time>2019-08-03T09:13:01.000Z</time>
      </trkpt>
      <trkpt lat="44.0995" lon="6.98714">
        <ele>1472</ele>
        <time>2019-08-03T09:13:03.000Z</time>
      </trkpt>
      <trkpt lat="44.09936" lon="6.98713">
        <ele>1473</ele>
        <time>2019-08-03T09:13:05.000Z</time>
      </trkpt>
      <trkpt lat="44.0992" lon="6.98712">
        <ele>1473</ele>
        <time>2019-08-03T09:13:07.000Z</time>
      </trkpt>
      <trkpt lat="44.0992" lon="6.98712">
        <ele>1473</ele>
        <time>2019-08-03T09:13:09.000Z</time>
      </trkpt>
      <trkpt lat="44.099" lon="6.98712">
        <ele>1474</ele>
        <time>2019-08-03T09:13:11.000Z</time>
      </trkpt>
      <trkpt lat="44.09888" lon="6.98712">
        <ele>1475</ele>
        <time>2019-08-03T09:13:13.000Z</time>
      </trkpt>
      <trkpt lat="44.09876" lon="6.98713">
        <ele>1475</ele>
        <time>2019-08-03T09:13:15.000Z</time>
      </trkpt>
      <trkpt lat="44.09866" lon="6.98713">
        <ele>1475</ele>
        <time>2019-08-03T09:13:17.000Z</time>
      </trkpt>
      <trkpt lat="44.09855" lon="6.98712">
        <ele>1475</ele>
        <time>2019-08-03T09:13:19.000Z</time>
      </trkpt>
      <trkpt lat="44.09855" lon="6.98712">
        <ele>1475</ele>
        <time>2019-08-03T09:13:21.000Z</time>
      </trkpt>
      <trkpt lat="44.09855" lon="6.98712">
        <ele>1475</ele>
        <time>2019-08-03T09:13:23.000Z</time>
      </trkpt>
      <trkpt lat="44.09855" lon="6.98712">
        <ele>1475</ele>
        <time>2019-08-03T09:13:25.000Z</time>
      </trkpt>
      <trkpt lat="44.09855" lon="6.98712">
        <ele>1475</ele>
        <time>2019-08-03T09:13:27.000Z</time>
      </trkpt>
      <trkpt lat="44.09793" lon="6.98706">
        <ele>1480</ele>
        <time>2019-08-03T09:13:29.000Z</time>
      </trkpt>
      <trkpt lat="44.09784" lon="6.98704">
        <ele>1480</ele>
        <time>2019-08-03T09:13:31.000Z</time>
      </trkpt>
      <trkpt lat="44.09784" lon="6.98704">
        <ele>1480</ele>
        <time>2019-08-03T09:13:33.000Z</time>
      </trkpt>
      <trkpt lat="44.09784" lon="6.98704">
        <ele>1480</ele>
        <time>2019-08-03T09:13:35.000Z</time>
      </trkpt>
      <trkpt lat="44.09743" lon="6.98692">
        <ele>1481</ele>
        <time>2019-08-03T09:13:37.000Z</time>
      </trkpt>
      <trkpt lat="44.09731" lon="6.98691">
        <ele>1482</ele>
        <time>2019-08-03T09:13:39.000Z</time>
      </trkpt>
      <trkpt lat="44.09731" lon="6.98691">
        <ele>1482</ele>
        <time>2019-08-03T09:13:41.000Z</time>
      </trkpt>
      <trkpt lat="44.09731" lon="6.98691">
        <ele>1482</ele>
        <time>2019-08-03T09:13:43.000Z</time>
      </trkpt>
      <trkpt lat="44.09731" lon="6.98691">
        <ele>1482</ele>
        <time>2019-08-03T09:13:45.000Z</time>
      </trkpt>
      <trkpt lat="44.09731" lon="6.98691">
        <ele>1482</ele>
        <time>2019-08-03T09:13:47.000Z</time>
      </trkpt>
      <trkpt lat="44.09675" lon="6.98668">
        <ele>1487</ele>
        <time>2019-08-03T09:13:49.000Z</time>
      </trkpt>
      <trkpt lat="44.09664" lon="6.98662">
        <ele>1488</ele>
        <time>2019-08-03T09:13:51.000Z</time>
      </trkpt>
      <trkpt lat="44.09654" lon="6.98655">
        <ele>1490</ele>
        <time>2019-08-03T09:13:53.000Z</time>
      </trkpt>
      <trkpt lat="44.09645" lon="6.9865">
        <ele>1490</ele>
        <time>2019-08-03T09:13:56.000Z</time>
      </trkpt>
      <trkpt lat="44.09645" lon="6.9865">
        <ele>1490</ele>
        <time>2019-08-03T09:13:57.000Z</time>
      </trkpt>
      <trkpt lat="44.09645" lon="6.9865">
        <ele>1490</ele>
        <time>2019-08-03T09:13:59.000Z</time>
      </trkpt>
      <trkpt lat="44.09645" lon="6.9865">
        <ele>1490</ele>
        <time>2019-08-03T09:14:01.000Z</time>
      </trkpt>
      <trkpt lat="44.09645" lon="6.9865">
        <ele>1490</ele>
        <time>2019-08-03T09:14:03.000Z</time>
      </trkpt>
      <trkpt lat="44.09645" lon="6.9865">
        <ele>1490</ele>
        <time>2019-08-03T09:14:05.000Z</time>
      </trkpt>
      <trkpt lat="44.09645" lon="6.9865">
        <ele>1490</ele>
        <time>2019-08-03T09:14:07.000Z</time>
      </trkpt>
      <trkpt lat="44.09645" lon="6.9865">
        <ele>1490</ele>
        <time>2019-08-03T09:14:09.000Z</time>
      </trkpt>
      <trkpt lat="44.09645" lon="6.9865">
        <ele>1490</ele>
        <time>2019-08-03T09:14:11.000Z</time>
      </trkpt>
      <trkpt lat="44.09606" lon="6.98608">
        <ele>1495</ele>
        <time>2019-08-03T09:14:13.000Z</time>
      </trkpt>
      <trkpt lat="44.09613" lon="6.986">
        <ele>1493</ele>
        <time>2019-08-03T09:14:15.000Z</time>
      </trkpt>
      <trkpt lat="44.09619" lon="6.98588">
        <ele>1492</ele>
        <time>2019-08-03T09:14:17.000Z</time>
      </trkpt>
      <trkpt lat="44.0962" lon="6.98572">
        <ele>1492</ele>
        <time>2019-08-03T09:14:19.000Z</time>
      </trkpt>
      <trkpt lat="44.09619" lon="6.98555">
        <ele>1491</ele>
        <time>2019-08-03T09:14:21.000Z</time>
      </trkpt>
      <trkpt lat="44.09617" lon="6.98539">
        <ele>1491</ele>
        <time>2019-08-03T09:14:23.000Z</time>
      </trkpt>
      <trkpt lat="44.09614" lon="6.9852">
        <ele>1490</ele>
        <time>2019-08-03T09:14:25.000Z</time>
      </trkpt>
      <trkpt lat="44.0961" lon="6.985">
        <ele>1488</ele>
        <time>2019-08-03T09:14:27.000Z</time>
      </trkpt>
      <trkpt lat="44.09609" lon="6.98478">
        <ele>1487</ele>
        <time>2019-08-03T09:14:29.000Z</time>
      </trkpt>
      <trkpt lat="44.09607" lon="6.98455">
        <ele>1486</ele>
        <time>2019-08-03T09:14:31.000Z</time>
      </trkpt>
      <trkpt lat="44.09607" lon="6.98432">
        <ele>1486</ele>
        <time>2019-08-03T09:14:33.000Z</time>
      </trkpt>
      <trkpt lat="44.09607" lon="6.9841">
        <ele>1486</ele>
        <time>2019-08-03T09:14:35.000Z</time>
      </trkpt>
      <trkpt lat="44.09605" lon="6.98387">
        <ele>1487</ele>
        <time>2019-08-03T09:14:37.000Z</time>
      </trkpt>
      <trkpt lat="44.09602" lon="6.98365">
        <ele>1489</ele>
        <time>2019-08-03T09:14:39.000Z</time>
      </trkpt>
      <trkpt lat="44.09598" lon="6.98345">
        <ele>1489</ele>
        <time>2019-08-03T09:14:41.000Z</time>
      </trkpt>
      <trkpt lat="44.09592" lon="6.98326">
        <ele>1489</ele>
        <time>2019-08-03T09:14:43.000Z</time>
      </trkpt>
      <trkpt lat="44.09586" lon="6.98308">
        <ele>1489</ele>
        <time>2019-08-03T09:14:45.000Z</time>
      </trkpt>
      <trkpt lat="44.09581" lon="6.98293">
        <ele>1488</ele>
        <time>2019-08-03T09:14:47.000Z</time>
      </trkpt>
      <trkpt lat="44.09576" lon="6.98279">
        <ele>1488</ele>
        <time>2019-08-03T09:14:49.000Z</time>
      </trkpt>
      <trkpt lat="44.09572" lon="6.98264">
        <ele>1488</ele>
        <time>2019-08-03T09:14:51.000Z</time>
      </trkpt>
      <trkpt lat="44.09569" lon="6.98249">
        <ele>1488</ele>
        <time>2019-08-03T09:14:53.000Z</time>
      </trkpt>
      <trkpt lat="44.09566" lon="6.98233">
        <ele>1488</ele>
        <time>2019-08-03T09:14:55.000Z</time>
      </trkpt>
      <trkpt lat="44.09559" lon="6.98212">
        <ele>1487</ele>
        <time>2019-08-03T09:14:57.000Z</time>
      </trkpt>
      <trkpt lat="44.09542" lon="6.98189">
        <ele>1488</ele>
        <time>2019-08-03T09:14:59.000Z</time>
      </trkpt>
      <trkpt lat="44.09535" lon="6.98171">
        <ele>1486</ele>
        <time>2019-08-03T09:15:01.000Z</time>
      </trkpt>
      <trkpt lat="44.09528" lon="6.98151">
        <ele>1486</ele>
        <time>2019-08-03T09:15:03.000Z</time>
      </trkpt>
      <trkpt lat="44.09524" lon="6.98129">
        <ele>1486</ele>
        <time>2019-08-03T09:15:05.000Z</time>
      </trkpt>
      <trkpt lat="44.09517" lon="6.98104">
        <ele>1486</ele>
        <time>2019-08-03T09:15:07.000Z</time>
      </trkpt>
      <trkpt lat="44.0951" lon="6.98081">
        <ele>1485</ele>
        <time>2019-08-03T09:15:09.000Z</time>
      </trkpt>
      <trkpt lat="44.09504" lon="6.98059">
        <ele>1484</ele>
        <time>2019-08-03T09:15:11.000Z</time>
      </trkpt>
      <trkpt lat="44.09494" lon="6.9804">
        <ele>1484</ele>
        <time>2019-08-03T09:15:13.000Z</time>
      </trkpt>
      <trkpt lat="44.09485" lon="6.9802">
        <ele>1484</ele>
        <time>2019-08-03T09:15:15.000Z</time>
      </trkpt>
      <trkpt lat="44.09478" lon="6.98002">
        <ele>1484</ele>
        <time>2019-08-03T09:15:17.000Z</time>
      </trkpt>
      <trkpt lat="44.09471" lon="6.97985">
        <ele>1483</ele>
        <time>2019-08-03T09:15:19.000Z</time>
      </trkpt>
      <trkpt lat="44.09466" lon="6.97967">
        <ele>1481</ele>
        <time>2019-08-03T09:15:21.000Z</time>
      </trkpt>
      <trkpt lat="44.09461" lon="6.97951">
        <ele>1480</ele>
        <time>2019-08-03T09:15:23.000Z</time>
      </trkpt>
      <trkpt lat="44.09458" lon="6.97934">
        <ele>1479</ele>
        <time>2019-08-03T09:15:25.000Z</time>
      </trkpt>
      <trkpt lat="44.09454" lon="6.97921">
        <ele>1481</ele>
        <time>2019-08-03T09:15:27.000Z</time>
      </trkpt>
      <trkpt lat="44.09454" lon="6.97921">
        <ele>1481</ele>
        <time>2019-08-03T09:15:29.000Z</time>
      </trkpt>
      <trkpt lat="44.09445" lon="6.97894">
        <ele>1480</ele>
        <time>2019-08-03T09:15:31.000Z</time>
      </trkpt>
      <trkpt lat="44.09438" lon="6.97881">
        <ele>1482</ele>
        <time>2019-08-03T09:15:33.000Z</time>
      </trkpt>
      <trkpt lat="44.09429" lon="6.97871">
        <ele>1482</ele>
        <time>2019-08-03T09:15:37.000Z</time>
      </trkpt>
      <trkpt lat="44.09418" lon="6.97865">
        <ele>1482</ele>
        <time>2019-08-03T09:15:39.000Z</time>
      </trkpt>
      <trkpt lat="44.09407" lon="6.97862">
        <ele>1480</ele>
        <time>2019-08-03T09:15:41.000Z</time>
      </trkpt>
      <trkpt lat="44.09393" lon="6.97868">
        <ele>1479</ele>
        <time>2019-08-03T09:15:43.000Z</time>
      </trkpt>
      <trkpt lat="44.09382" lon="6.97874">
        <ele>1478</ele>
        <time>2019-08-03T09:15:45.000Z</time>
      </trkpt>
      <trkpt lat="44.0937" lon="6.97878">
        <ele>1478</ele>
        <time>2019-08-03T09:15:47.000Z</time>
      </trkpt>
      <trkpt lat="44.09358" lon="6.97884">
        <ele>1479</ele>
        <time>2019-08-03T09:15:56.000Z</time>
      </trkpt>
      <trkpt lat="44.09344" lon="6.97889">
        <ele>1479</ele>
        <time>2019-08-03T09:15:59.000Z</time>
      </trkpt>
      <trkpt lat="44.09331" lon="6.97893">
        <ele>1479</ele>
        <time>2019-08-03T09:16:01.000Z</time>
      </trkpt>
      <trkpt lat="44.09319" lon="6.97899">
        <ele>1480</ele>
        <time>2019-08-03T09:16:03.000Z</time>
      </trkpt>
      <trkpt lat="44.09309" lon="6.97905">
        <ele>1480</ele>
        <time>2019-08-03T09:16:05.000Z</time>
      </trkpt>
      <trkpt lat="44.09309" lon="6.97905">
        <ele>1480</ele>
        <time>2019-08-03T09:16:07.000Z</time>
      </trkpt>
      <trkpt lat="44.09293" lon="6.9795">
        <ele>1477</ele>
        <time>2019-08-03T09:16:09.000Z</time>
      </trkpt>
      <trkpt lat="44.09288" lon="6.9797">
        <ele>1476</ele>
        <time>2019-08-03T09:16:11.000Z</time>
      </trkpt>
      <trkpt lat="44.09285" lon="6.97988">
        <ele>1476</ele>
        <time>2019-08-03T09:16:13.000Z</time>
      </trkpt>
      <trkpt lat="44.09284" lon="6.98007">
        <ele>1476</ele>
        <time>2019-08-03T09:16:15.000Z</time>
      </trkpt>
      <trkpt lat="44.09285" lon="6.98026">
        <ele>1476</ele>
        <time>2019-08-03T09:16:17.000Z</time>
      </trkpt>
      <trkpt lat="44.0929" lon="6.98047">
        <ele>1475</ele>
        <time>2019-08-03T09:16:19.000Z</time>
      </trkpt>
      <trkpt lat="44.09293" lon="6.98073">
        <ele>1474</ele>
        <time>2019-08-03T09:16:21.000Z</time>
      </trkpt>
      <trkpt lat="44.09299" lon="6.98101">
        <ele>1473</ele>
        <time>2019-08-03T09:16:23.000Z</time>
      </trkpt>
      <trkpt lat="44.09304" lon="6.98132">
        <ele>1470</ele>
        <time>2019-08-03T09:16:25.000Z</time>
      </trkpt>
      <trkpt lat="44.09309" lon="6.98163">
        <ele>1469</ele>
        <time>2019-08-03T09:16:27.000Z</time>
      </trkpt>
      <trkpt lat="44.09313" lon="6.98188">
        <ele>1466</ele>
        <time>2019-08-03T09:16:29.000Z</time>
      </trkpt>
      <trkpt lat="44.09316" lon="6.98211">
        <ele>1466</ele>
        <time>2019-08-03T09:16:31.000Z</time>
      </trkpt>
      <trkpt lat="44.0932" lon="6.98235">
        <ele>1464</ele>
        <time>2019-08-03T09:16:33.000Z</time>
      </trkpt>
      <trkpt lat="44.09325" lon="6.98263">
        <ele>1463</ele>
        <time>2019-08-03T09:16:35.000Z</time>
      </trkpt>
      <trkpt lat="44.09333" lon="6.98289">
        <ele>1462</ele>
        <time>2019-08-03T09:16:37.000Z</time>
      </trkpt>
      <trkpt lat="44.0934" lon="6.98316">
        <ele>1462</ele>
        <time>2019-08-03T09:16:39.000Z</time>
      </trkpt>
      <trkpt lat="44.09348" lon="6.98342">
        <ele>1461</ele>
        <time>2019-08-03T09:16:45.000Z</time>
      </trkpt>
      <trkpt lat="44.09355" lon="6.98367">
        <ele>1461</ele>
        <time>2019-08-03T09:16:47.000Z</time>
      </trkpt>
      <trkpt lat="44.09361" lon="6.98387">
        <ele>1460</ele>
        <time>2019-08-03T09:16:49.000Z</time>
      </trkpt>
      <trkpt lat="44.09367" lon="6.98408">
        <ele>1460</ele>
        <time>2019-08-03T09:16:51.000Z</time>
      </trkpt>
      <trkpt lat="44.09372" lon="6.98428">
        <ele>1460</ele>
        <time>2019-08-03T09:16:53.000Z</time>
      </trkpt>
      <trkpt lat="44.09376" lon="6.98449">
        <ele>1460</ele>
        <time>2019-08-03T09:16:55.000Z</time>
      </trkpt>
      <trkpt lat="44.0938" lon="6.98471">
        <ele>1460</ele>
        <time>2019-08-03T09:16:57.000Z</time>
      </trkpt>
      <trkpt lat="44.09383" lon="6.98493">
        <ele>1459</ele>
        <time>2019-08-03T09:16:59.000Z</time>
      </trkpt>
      <trkpt lat="44.09386" lon="6.98514">
        <ele>1460</ele>
        <time>2019-08-03T09:17:01.000Z</time>
      </trkpt>
      <trkpt lat="44.0939" lon="6.98536">
        <ele>1459</ele>
        <time>2019-08-03T09:17:27.000Z</time>
      </trkpt>
      <trkpt lat="44.09392" lon="6.98558">
        <ele>1459</ele>
        <time>2019-08-03T09:17:30.000Z</time>
      </trkpt>
      <trkpt lat="44.09394" lon="6.98579">
        <ele>1459</ele>
        <time>2019-08-03T09:17:32.000Z</time>
      </trkpt>
      <trkpt lat="44.09395" lon="6.98599">
        <ele>1460</ele>
        <time>2019-08-03T09:17:34.000Z</time>
      </trkpt>
      <trkpt lat="44.09396" lon="6.98617">
        <ele>1461</ele>
        <time>2019-08-03T09:17:36.000Z</time>
      </trkpt>
      <trkpt lat="44.09399" lon="6.98635">
        <ele>1461</ele>
        <time>2019-08-03T09:17:38.000Z</time>
      </trkpt>
      <trkpt lat="44.09402" lon="6.98652">
        <ele>1462</ele>
        <time>2019-08-03T09:17:40.000Z</time>
      </trkpt>
      <trkpt lat="44.09405" lon="6.98668">
        <ele>1463</ele>
        <time>2019-08-03T09:17:44.000Z</time>
      </trkpt>
      <trkpt lat="44.09408" lon="6.98684">
        <ele>1463</ele>
        <time>2019-08-03T09:17:46.000Z</time>
      </trkpt>
      <trkpt lat="44.09411" lon="6.98697">
        <ele>1463</ele>
        <time>2019-08-03T09:17:48.000Z</time>
      </trkpt>
      <trkpt lat="44.09413" lon="6.98711">
        <ele>1464</ele>
        <time>2019-08-03T09:18:16.000Z</time>
      </trkpt>
      <trkpt lat="44.09413" lon="6.98711">
        <ele>1464</ele>
        <time>2019-08-03T09:18:18.000Z</time>
      </trkpt>
      <trkpt lat="44.09413" lon="6.98711">
        <ele>1464</ele>
        <time>2019-08-03T09:18:20.000Z</time>
      </trkpt>
      <trkpt lat="44.09413" lon="6.98711">
        <ele>1464</ele>
        <time>2019-08-03T09:18:22.000Z</time>
      </trkpt>
      <trkpt lat="44.09413" lon="6.98711">
        <ele>1464</ele>
        <time>2019-08-03T09:18:24.000Z</time>
      </trkpt>
      <trkpt lat="44.09413" lon="6.98711">
        <ele>1464</ele>
        <time>2019-08-03T09:18:26.000Z</time>
      </trkpt>
      <trkpt lat="44.09413" lon="6.98711">
        <ele>1464</ele>
        <time>2019-08-03T09:18:28.000Z</time>
      </trkpt>
      <trkpt lat="44.09413" lon="6.98711">
        <ele>1464</ele>
        <time>2019-08-03T09:18:30.000Z</time>
      </trkpt>
      <trkpt lat="44.09413" lon="6.98711">
        <ele>1464</ele>
        <time>2019-08-03T09:18:32.000Z</time>
      </trkpt>
      <trkpt lat="44.09413" lon="6.98711">
        <ele>1464</ele>
        <time>2019-08-03T09:18:34.000Z</time>
      </trkpt>
      <trkpt lat="44.09413" lon="6.98711">
        <ele>1464</ele>
        <time>2019-08-03T09:18:38.000Z</time>
      </trkpt>
      <trkpt lat="44.0941" lon="6.98733">
        <ele>1468</ele>
        <time>2019-08-03T09:18:42.000Z</time>
      </trkpt>
      <trkpt lat="44.0941" lon="6.98733">
        <ele>1468</ele>
        <time>2019-08-03T09:18:46.000Z</time>
      </trkpt>
      <trkpt lat="44.0941" lon="6.98733">
        <ele>1468</ele>
        <time>2019-08-03T09:18:50.000Z</time>
      </trkpt>
      <trkpt lat="44.09396" lon="6.98699">
        <ele>1464</ele>
        <time>2019-08-03T09:18:54.000Z</time>
      </trkpt>
      <trkpt lat="44.09383" lon="6.987">
        <ele>1462</ele>
        <time>2019-08-03T09:18:56.000Z</time>
      </trkpt>
      <trkpt lat="44.09367" lon="6.98703">
        <ele>1460</ele>
        <time>2019-08-03T09:19:00.000Z</time>
      </trkpt>
      <trkpt lat="44.09352" lon="6.9871">
        <ele>1458</ele>
        <time>2019-08-03T09:19:02.000Z</time>
      </trkpt>
      <trkpt lat="44.09341" lon="6.98724">
        <ele>1458</ele>
        <time>2019-08-03T09:19:04.000Z</time>
      </trkpt>
      <trkpt lat="44.09329" lon="6.98737">
        <ele>1459</ele>
        <time>2019-08-03T09:19:06.000Z</time>
      </trkpt>
      <trkpt lat="44.09319" lon="6.98743">
        <ele>1460</ele>
        <time>2019-08-03T09:19:08.000Z</time>
      </trkpt>
      <trkpt lat="44.09308" lon="6.98748">
        <ele>1461</ele>
        <time>2019-08-03T09:19:10.000Z</time>
      </trkpt>
      <trkpt lat="44.09296" lon="6.98756">
        <ele>1462</ele>
        <time>2019-08-03T09:19:12.000Z</time>
      </trkpt>
      <trkpt lat="44.09285" lon="6.98764">
        <ele>1462</ele>
        <time>2019-08-03T09:19:14.000Z</time>
      </trkpt>
      <trkpt lat="44.09276" lon="6.98775">
        <ele>1464</ele>
        <time>2019-08-03T09:19:16.000Z</time>
      </trkpt>
      <trkpt lat="44.09268" lon="6.98787">
        <ele>1465</ele>
        <time>2019-08-03T09:19:20.000Z</time>
      </trkpt>
      <trkpt lat="44.09261" lon="6.98799">
        <ele>1466</ele>
        <time>2019-08-03T09:19:22.000Z</time>
      </trkpt>
      <trkpt lat="44.09255" lon="6.9881">
        <ele>1466</ele>
        <time>2019-08-03T09:19:24.000Z</time>
      </trkpt>
      <trkpt lat="44.0925" lon="6.98823">
        <ele>1468</ele>
        <time>2019-08-03T09:19:26.000Z</time>
      </trkpt>
      <trkpt lat="44.0925" lon="6.98823">
        <ele>1468</ele>
        <time>2019-08-03T09:19:28.000Z</time>
      </trkpt>
      <trkpt lat="44.0925" lon="6.98823">
        <ele>1468</ele>
        <time>2019-08-03T09:19:30.000Z</time>
      </trkpt>
      <trkpt lat="44.0925" lon="6.98823">
        <ele>1468</ele>
        <time>2019-08-03T09:19:32.000Z</time>
      </trkpt>
      <trkpt lat="44.0925" lon="6.98823">
        <ele>1468</ele>
        <time>2019-08-03T09:19:34.000Z</time>
      </trkpt>
      <trkpt lat="44.0925" lon="6.98823">
        <ele>1468</ele>
        <time>2019-08-03T09:19:36.000Z</time>
      </trkpt>
      <trkpt lat="44.0925" lon="6.98823">
        <ele>1468</ele>
        <time>2019-08-03T09:19:40.000Z</time>
      </trkpt>
      <trkpt lat="44.09227" lon="6.98919">
        <ele>1478</ele>
        <time>2019-08-03T09:19:42.000Z</time>
      </trkpt>
      <trkpt lat="44.09227" lon="6.98919">
        <ele>1478</ele>
        <time>2019-08-03T09:19:44.000Z</time>
      </trkpt>
      <trkpt lat="44.09227" lon="6.98919">
        <ele>1478</ele>
        <time>2019-08-03T09:19:46.000Z</time>
      </trkpt>
      <trkpt lat="44.09227" lon="6.98919">
        <ele>1478</ele>
        <time>2019-08-03T09:19:50.000Z</time>
      </trkpt>
      <trkpt lat="44.09227" lon="6.98919">
        <ele>1478</ele>
        <time>2019-08-03T09:19:52.000Z</time>
      </trkpt>
      <trkpt lat="44.09227" lon="6.98919">
        <ele>1478</ele>
        <time>2019-08-03T09:19:54.000Z</time>
      </trkpt>
      <trkpt lat="44.09218" lon="6.98919">
        <ele>1485</ele>
        <time>2019-08-03T09:19:56.000Z</time>
      </trkpt>
      <trkpt lat="44.09213" lon="6.98902">
        <ele>1487</ele>
        <time>2019-08-03T09:19:59.000Z</time>
      </trkpt>
      <trkpt lat="44.09208" lon="6.98888">
        <ele>1488</ele>
        <time>2019-08-03T09:20:01.000Z</time>
      </trkpt>
      <trkpt lat="44.09208" lon="6.98888">
        <ele>1488</ele>
        <time>2019-08-03T09:20:03.000Z</time>
      </trkpt>
      <trkpt lat="44.09208" lon="6.98888">
        <ele>1488</ele>
        <time>2019-08-03T09:20:05.000Z</time>
      </trkpt>
      <trkpt lat="44.09201" lon="6.98913">
        <ele>1488</ele>
        <time>2019-08-03T09:20:07.000Z</time>
      </trkpt>
      <trkpt lat="44.09201" lon="6.98932">
        <ele>1489</ele>
        <time>2019-08-03T09:20:11.000Z</time>
      </trkpt>
      <trkpt lat="44.09201" lon="6.98954">
        <ele>1492</ele>
        <time>2019-08-03T09:20:13.000Z</time>
      </trkpt>
      <trkpt lat="44.09193" lon="6.98964">
        <ele>1491</ele>
        <time>2019-08-03T09:20:15.000Z</time>
      </trkpt>
      <trkpt lat="44.09182" lon="6.98977">
        <ele>1495</ele>
        <time>2019-08-03T09:20:17.000Z</time>
      </trkpt>
      <trkpt lat="44.09182" lon="6.98977">
        <ele>1495</ele>
        <time>2019-08-03T09:20:19.000Z</time>
      </trkpt>
      <trkpt lat="44.09182" lon="6.98977">
        <ele>1495</ele>
        <time>2019-08-03T09:20:21.000Z</time>
      </trkpt>
      <trkpt lat="44.09182" lon="6.98977">
        <ele>1495</ele>
        <time>2019-08-03T09:20:23.000Z</time>
      </trkpt>
      <trkpt lat="44.09182" lon="6.98977">
        <ele>1495</ele>
        <time>2019-08-03T09:20:25.000Z</time>
      </trkpt>
      <trkpt lat="44.09182" lon="6.98977">
        <ele>1495</ele>
        <time>2019-08-03T09:20:27.000Z</time>
      </trkpt>
      <trkpt lat="44.09182" lon="6.98977">
        <ele>1495</ele>
        <time>2019-08-03T09:20:29.000Z</time>
      </trkpt>
      <trkpt lat="44.09181" lon="6.98968">
        <ele>1503</ele>
        <time>2019-08-03T09:20:31.000Z</time>
      </trkpt>
      <trkpt lat="44.09181" lon="6.98957">
        <ele>1504</ele>
        <time>2019-08-03T09:20:33.000Z</time>
      </trkpt>
      <trkpt lat="44.09181" lon="6.98947">
        <ele>1503</ele>
        <time>2019-08-03T09:20:35.000Z</time>
      </trkpt>
      <trkpt lat="44.09181" lon="6.98947">
        <ele>1503</ele>
        <time>2019-08-03T09:20:37.000Z</time>
      </trkpt>
      <trkpt lat="44.09181" lon="6.98947">
        <ele>1503</ele>
        <time>2019-08-03T09:20:39.000Z</time>
      </trkpt>
      <trkpt lat="44.09181" lon="6.98947">
        <ele>1503</ele>
        <time>2019-08-03T09:20:41.000Z</time>
      </trkpt>
      <trkpt lat="44.09172" lon="6.98956">
        <ele>1509</ele>
        <time>2019-08-03T09:20:43.000Z</time>
      </trkpt>
      <trkpt lat="44.09164" lon="6.98963">
        <ele>1510</ele>
        <time>2019-08-03T09:20:45.000Z</time>
      </trkpt>
      <trkpt lat="44.09157" lon="6.98968">
        <ele>1510</ele>
        <time>2019-08-03T09:20:47.000Z</time>
      </trkpt>
      <trkpt lat="44.09157" lon="6.98968">
        <ele>1510</ele>
        <time>2019-08-03T09:20:49.000Z</time>
      </trkpt>
      <trkpt lat="44.09157" lon="6.98968">
        <ele>1510</ele>
        <time>2019-08-03T09:20:51.000Z</time>
      </trkpt>
      <trkpt lat="44.09157" lon="6.98968">
        <ele>1510</ele>
        <time>2019-08-03T09:20:53.000Z</time>
      </trkpt>
      <trkpt lat="44.09157" lon="6.98968">
        <ele>1510</ele>
        <time>2019-08-03T09:20:55.000Z</time>
      </trkpt>
      <trkpt lat="44.09157" lon="6.98968">
        <ele>1510</ele>
        <time>2019-08-03T09:20:57.000Z</time>
      </trkpt>
      <trkpt lat="44.09108" lon="6.98967">
        <ele>1515</ele>
        <time>2019-08-03T09:20:59.000Z</time>
      </trkpt>
      <trkpt lat="44.09094" lon="6.98957">
        <ele>1516</ele>
        <time>2019-08-03T09:21:01.000Z</time>
      </trkpt>
      <trkpt lat="44.09085" lon="6.98949">
        <ele>1516</ele>
        <time>2019-08-03T09:21:07.000Z</time>
      </trkpt>
      <trkpt lat="44.09075" lon="6.98941">
        <ele>1516</ele>
        <time>2019-08-03T09:21:09.000Z</time>
      </trkpt>
      <trkpt lat="44.09063" lon="6.98938">
        <ele>1515</ele>
        <time>2019-08-03T09:21:11.000Z</time>
      </trkpt>
      <trkpt lat="44.0905" lon="6.98941">
        <ele>1515</ele>
        <time>2019-08-03T09:21:13.000Z</time>
      </trkpt>
      <trkpt lat="44.09037" lon="6.98941">
        <ele>1515</ele>
        <time>2019-08-03T09:21:15.000Z</time>
      </trkpt>
      <trkpt lat="44.09023" lon="6.9894">
        <ele>1515</ele>
        <time>2019-08-03T09:21:17.000Z</time>
      </trkpt>
      <trkpt lat="44.09012" lon="6.98935">
        <ele>1515</ele>
        <time>2019-08-03T09:21:19.000Z</time>
      </trkpt>
      <trkpt lat="44.09002" lon="6.98925">
        <ele>1515</ele>
        <time>2019-08-03T09:21:21.000Z</time>
      </trkpt>
      <trkpt lat="44.08994" lon="6.98913">
        <ele>1516</ele>
        <time>2019-08-03T09:21:23.000Z</time>
      </trkpt>
      <trkpt lat="44.08987" lon="6.98898">
        <ele>1517</ele>
        <time>2019-08-03T09:21:25.000Z</time>
      </trkpt>
      <trkpt lat="44.08981" lon="6.98882">
        <ele>1518</ele>
        <time>2019-08-03T09:21:44.000Z</time>
      </trkpt>
      <trkpt lat="44.08977" lon="6.98866">
        <ele>1518</ele>
        <time>2019-08-03T09:21:47.000Z</time>
      </trkpt>
      <trkpt lat="44.08972" lon="6.98851">
        <ele>1519</ele>
        <time>2019-08-03T09:21:51.000Z</time>
      </trkpt>
      <trkpt lat="44.08965" lon="6.9884">
        <ele>1520</ele>
        <time>2019-08-03T09:21:56.000Z</time>
      </trkpt>
      <trkpt lat="44.08955" lon="6.98834">
        <ele>1521</ele>
        <time>2019-08-03T09:21:59.000Z</time>
      </trkpt>
      <trkpt lat="44.08944" lon="6.9883">
        <ele>1522</ele>
        <time>2019-08-03T09:22:01.000Z</time>
      </trkpt>
      <trkpt lat="44.08933" lon="6.98826">
        <ele>1522</ele>
        <time>2019-08-03T09:22:03.000Z</time>
      </trkpt>
      <trkpt lat="44.08922" lon="6.98822">
        <ele>1523</ele>
        <time>2019-08-03T09:22:05.000Z</time>
      </trkpt>
      <trkpt lat="44.0891" lon="6.98819">
        <ele>1522</ele>
        <time>2019-08-03T09:22:07.000Z</time>
      </trkpt>
      <trkpt lat="44.08899" lon="6.98818">
        <ele>1522</ele>
        <time>2019-08-03T09:22:09.000Z</time>
      </trkpt>
      <trkpt lat="44.08887" lon="6.9882">
        <ele>1521</ele>
        <time>2019-08-03T09:22:11.000Z</time>
      </trkpt>
      <trkpt lat="44.08875" lon="6.98825">
        <ele>1521</ele>
        <time>2019-08-03T09:22:13.000Z</time>
      </trkpt>
      <trkpt lat="44.08864" lon="6.98833">
        <ele>1522</ele>
        <time>2019-08-03T09:22:15.000Z</time>
      </trkpt>
      <trkpt lat="44.08854" lon="6.98843">
        <ele>1522</ele>
        <time>2019-08-03T09:22:17.000Z</time>
      </trkpt>
      <trkpt lat="44.08843" lon="6.9885">
        <ele>1521</ele>
        <time>2019-08-03T09:22:19.000Z</time>
      </trkpt>
      <trkpt lat="44.08834" lon="6.98857">
        <ele>1521</ele>
        <time>2019-08-03T09:22:21.000Z</time>
      </trkpt>
      <trkpt lat="44.08822" lon="6.98864">
        <ele>1521</ele>
        <time>2019-08-03T09:22:23.000Z</time>
      </trkpt>
      <trkpt lat="44.08811" lon="6.98872">
        <ele>1520</ele>
        <time>2019-08-03T09:22:25.000Z</time>
      </trkpt>
      <trkpt lat="44.08801" lon="6.98877">
        <ele>1519</ele>
        <time>2019-08-03T09:22:27.000Z</time>
      </trkpt>
      <trkpt lat="44.08791" lon="6.9888">
        <ele>1518</ele>
        <time>2019-08-03T09:22:29.000Z</time>
      </trkpt>
      <trkpt lat="44.08779" lon="6.98875">
        <ele>1517</ele>
        <time>2019-08-03T09:22:31.000Z</time>
      </trkpt>
      <trkpt lat="44.08769" lon="6.9886">
        <ele>1517</ele>
        <time>2019-08-03T09:22:33.000Z</time>
      </trkpt>
      <trkpt lat="44.08759" lon="6.98843">
        <ele>1517</ele>
        <time>2019-08-03T09:22:35.000Z</time>
      </trkpt>
      <trkpt lat="44.08749" lon="6.98825">
        <ele>1516</ele>
        <time>2019-08-03T09:22:37.000Z</time>
      </trkpt>
      <trkpt lat="44.08742" lon="6.98805">
        <ele>1515</ele>
        <time>2019-08-03T09:22:39.000Z</time>
      </trkpt>
      <trkpt lat="44.08738" lon="6.98787">
        <ele>1516</ele>
        <time>2019-08-03T09:24:20.000Z</time>
      </trkpt>
      <trkpt lat="44.08731" lon="6.98777">
        <ele>1516</ele>
        <time>2019-08-03T09:24:25.000Z</time>
      </trkpt>
      <trkpt lat="44.0872" lon="6.98781">
        <ele>1516</ele>
        <time>2019-08-03T09:24:27.000Z</time>
      </trkpt>
      <trkpt lat="44.0872" lon="6.98781">
        <ele>1516</ele>
        <time>2019-08-03T09:24:29.000Z</time>
      </trkpt>
      <trkpt lat="44.0872" lon="6.98781">
        <ele>1516</ele>
        <time>2019-08-03T09:24:31.000Z</time>
      </trkpt>
      <trkpt lat="44.0872" lon="6.98781">
        <ele>1516</ele>
        <time>2019-08-03T09:24:33.000Z</time>
      </trkpt>
      <trkpt lat="44.0872" lon="6.98781">
        <ele>1516</ele>
        <time>2019-08-03T09:24:35.000Z</time>
      </trkpt>
      <trkpt lat="44.0872" lon="6.98781">
        <ele>1516</ele>
        <time>2019-08-03T09:24:37.000Z</time>
      </trkpt>
      <trkpt lat="44.0872" lon="6.98781">
        <ele>1516</ele>
        <time>2019-08-03T09:24:39.000Z</time>
      </trkpt>
      <trkpt lat="44.0872" lon="6.98781">
        <ele>1516</ele>
        <time>2019-08-03T09:24:41.000Z</time>
      </trkpt>
      <trkpt lat="44.0872" lon="6.98781">
        <ele>1516</ele>
        <time>2019-08-03T09:24:43.000Z</time>
      </trkpt>
      <trkpt lat="44.0872" lon="6.98781">
        <ele>1516</ele>
        <time>2019-08-03T09:24:45.000Z</time>
      </trkpt>
      <trkpt lat="44.0872" lon="6.98781">
        <ele>1516</ele>
        <time>2019-08-03T09:24:47.000Z</time>
      </trkpt>
      <trkpt lat="44.0872" lon="6.98781">
        <ele>1516</ele>
        <time>2019-08-03T09:24:49.000Z</time>
      </trkpt>
      <trkpt lat="44.0872" lon="6.98781">
        <ele>1516</ele>
        <time>2019-08-03T09:24:51.000Z</time>
      </trkpt>
      <trkpt lat="44.0872" lon="6.98781">
        <ele>1516</ele>
        <time>2019-08-03T09:24:53.000Z</time>
      </trkpt>
      <trkpt lat="44.0872" lon="6.98781">
        <ele>1516</ele>
        <time>2019-08-03T09:24:55.000Z</time>
      </trkpt>
      <trkpt lat="44.08603" lon="6.98934">
        <ele>1547</ele>
        <time>2019-08-03T09:24:57.000Z</time>
      </trkpt>
      <trkpt lat="44.08596" lon="6.98943">
        <ele>1548</ele>
        <time>2019-08-03T09:24:59.000Z</time>
      </trkpt>
      <trkpt lat="44.08587" lon="6.98961">
        <ele>1548</ele>
        <time>2019-08-03T09:25:02.000Z</time>
      </trkpt>
      <trkpt lat="44.08587" lon="6.98961">
        <ele>1548</ele>
        <time>2019-08-03T09:25:04.000Z</time>
      </trkpt>
      <trkpt lat="44.08575" lon="6.98979">
        <ele>1550</ele>
        <time>2019-08-03T09:25:58.000Z</time>
      </trkpt>
      <trkpt lat="44.08569" lon="6.98988">
        <ele>1550</ele>
        <time>2019-08-03T09:26:05.000Z</time>
      </trkpt>
      <trkpt lat="44.08563" lon="6.98999">
        <ele>1551</ele>
        <time>2019-08-03T09:26:07.000Z</time>
      </trkpt>
      <trkpt lat="44.08557" lon="6.99009">
        <ele>1553</ele>
        <time>2019-08-03T09:26:09.000Z</time>
      </trkpt>
      <trkpt lat="44.08557" lon="6.99009">
        <ele>1553</ele>
        <time>2019-08-03T09:26:11.000Z</time>
      </trkpt>
      <trkpt lat="44.08557" lon="6.99009">
        <ele>1553</ele>
        <time>2019-08-03T09:26:13.000Z</time>
      </trkpt>
      <trkpt lat="44.08557" lon="6.99009">
        <ele>1553</ele>
        <time>2019-08-03T09:26:15.000Z</time>
      </trkpt>
      <trkpt lat="44.08557" lon="6.99009">
        <ele>1553</ele>
        <time>2019-08-03T09:26:17.000Z</time>
      </trkpt>
      <trkpt lat="44.08557" lon="6.99009">
        <ele>1553</ele>
        <time>2019-08-03T09:26:19.000Z</time>
      </trkpt>
      <trkpt lat="44.08509" lon="6.99036">
        <ele>1556</ele>
        <time>2019-08-03T09:26:21.000Z</time>
      </trkpt>
      <trkpt lat="44.08498" lon="6.9903">
        <ele>1554</ele>
        <time>2019-08-03T09:26:23.000Z</time>
      </trkpt>
      <trkpt lat="44.08487" lon="6.99021">
        <ele>1554</ele>
        <time>2019-08-03T09:26:25.000Z</time>
      </trkpt>
      <trkpt lat="44.0848" lon="6.99006">
        <ele>1554</ele>
        <time>2019-08-03T09:26:29.000Z</time>
      </trkpt>
      <trkpt lat="44.08471" lon="6.98992">
        <ele>1553</ele>
        <time>2019-08-03T09:26:31.000Z</time>
      </trkpt>
      <trkpt lat="44.08458" lon="6.9899">
        <ele>1552</ele>
        <time>2019-08-03T09:26:33.000Z</time>
      </trkpt>
      <trkpt lat="44.08444" lon="6.98996">
        <ele>1552</ele>
        <time>2019-08-03T09:26:35.000Z</time>
      </trkpt>
      <trkpt lat="44.08431" lon="6.99003">
        <ele>1551</ele>
        <time>2019-08-03T09:26:37.000Z</time>
      </trkpt>
      <trkpt lat="44.08418" lon="6.99012">
        <ele>1552</ele>
        <time>2019-08-03T09:26:39.000Z</time>
      </trkpt>
      <trkpt lat="44.08407" lon="6.99019">
        <ele>1551</ele>
        <time>2019-08-03T09:26:41.000Z</time>
      </trkpt>
      <trkpt lat="44.08397" lon="6.99027">
        <ele>1553</ele>
        <time>2019-08-03T09:26:43.000Z</time>
      </trkpt>
      <trkpt lat="44.08385" lon="6.99033">
        <ele>1555</ele>
        <time>2019-08-03T09:26:45.000Z</time>
      </trkpt>
      <trkpt lat="44.08375" lon="6.99039">
        <ele>1556</ele>
        <time>2019-08-03T09:26:47.000Z</time>
      </trkpt>
      <trkpt lat="44.08365" lon="6.99042">
        <ele>1556</ele>
        <time>2019-08-03T09:26:49.000Z</time>
      </trkpt>
      <trkpt lat="44.08365" lon="6.99042">
        <ele>1556</ele>
        <time>2019-08-03T09:26:51.000Z</time>
      </trkpt>
      <trkpt lat="44.08365" lon="6.99042">
        <ele>1556</ele>
        <time>2019-08-03T09:26:53.000Z</time>
      </trkpt>
      <trkpt lat="44.08331" lon="6.9904">
        <ele>1555</ele>
        <time>2019-08-03T09:26:55.000Z</time>
      </trkpt>
      <trkpt lat="44.08318" lon="6.99037">
        <ele>1555</ele>
        <time>2019-08-03T09:26:57.000Z</time>
      </trkpt>
      <trkpt lat="44.08302" lon="6.99033">
        <ele>1555</ele>
        <time>2019-08-03T09:26:59.000Z</time>
      </trkpt>
      <trkpt lat="44.08287" lon="6.99028">
        <ele>1555</ele>
        <time>2019-08-03T09:27:01.000Z</time>
      </trkpt>
      <trkpt lat="44.08272" lon="6.99025">
        <ele>1556</ele>
        <time>2019-08-03T09:27:03.000Z</time>
      </trkpt>
      <trkpt lat="44.08259" lon="6.99024">
        <ele>1555</ele>
        <time>2019-08-03T09:27:05.000Z</time>
      </trkpt>
      <trkpt lat="44.08247" lon="6.99025">
        <ele>1555</ele>
        <time>2019-08-03T09:27:07.000Z</time>
      </trkpt>
      <trkpt lat="44.08234" lon="6.99025">
        <ele>1556</ele>
        <time>2019-08-03T09:27:09.000Z</time>
      </trkpt>
      <trkpt lat="44.08221" lon="6.99026">
        <ele>1556</ele>
        <time>2019-08-03T09:27:11.000Z</time>
      </trkpt>
      <trkpt lat="44.08209" lon="6.99026">
        <ele>1556</ele>
        <time>2019-08-03T09:27:13.000Z</time>
      </trkpt>
      <trkpt lat="44.08196" lon="6.99028">
        <ele>1557</ele>
        <time>2019-08-03T09:27:15.000Z</time>
      </trkpt>
      <trkpt lat="44.08184" lon="6.99028">
        <ele>1557</ele>
        <time>2019-08-03T09:27:17.000Z</time>
      </trkpt>
      <trkpt lat="44.08172" lon="6.99029">
        <ele>1558</ele>
        <time>2019-08-03T09:27:19.000Z</time>
      </trkpt>
      <trkpt lat="44.08162" lon="6.99025">
        <ele>1556</ele>
        <time>2019-08-03T09:27:21.000Z</time>
      </trkpt>
      <trkpt lat="44.0815" lon="6.99017">
        <ele>1558</ele>
        <time>2019-08-03T09:27:23.000Z</time>
      </trkpt>
      <trkpt lat="44.08142" lon="6.99004">
        <ele>1557</ele>
        <time>2019-08-03T09:27:25.000Z</time>
      </trkpt>
      <trkpt lat="44.08132" lon="6.98993">
        <ele>1558</ele>
        <time>2019-08-03T09:27:27.000Z</time>
      </trkpt>
      <trkpt lat="44.08121" lon="6.98987">
        <ele>1557</ele>
        <time>2019-08-03T09:27:29.000Z</time>
      </trkpt>
      <trkpt lat="44.08109" lon="6.98983">
        <ele>1558</ele>
        <time>2019-08-03T09:27:31.000Z</time>
      </trkpt>
      <trkpt lat="44.08095" lon="6.9898">
        <ele>1558</ele>
        <time>2019-08-03T09:27:33.000Z</time>
      </trkpt>
      <trkpt lat="44.08081" lon="6.98978">
        <ele>1558</ele>
        <time>2019-08-03T09:27:35.000Z</time>
      </trkpt>
      <trkpt lat="44.08068" lon="6.98975">
        <ele>1558</ele>
        <time>2019-08-03T09:27:37.000Z</time>
      </trkpt>
      <trkpt lat="44.08055" lon="6.98969">
        <ele>1558</ele>
        <time>2019-08-03T09:27:39.000Z</time>
      </trkpt>
      <trkpt lat="44.08044" lon="6.98961">
        <ele>1557</ele>
        <time>2019-08-03T09:27:41.000Z</time>
      </trkpt>
      <trkpt lat="44.08036" lon="6.9895">
        <ele>1556</ele>
        <time>2019-08-03T09:27:43.000Z</time>
      </trkpt>
      <trkpt lat="44.08028" lon="6.98936">
        <ele>1558</ele>
        <time>2019-08-03T09:27:45.000Z</time>
      </trkpt>
      <trkpt lat="44.08021" lon="6.98922">
        <ele>1559</ele>
        <time>2019-08-03T09:27:47.000Z</time>
      </trkpt>
      <trkpt lat="44.08011" lon="6.98905">
        <ele>1559</ele>
        <time>2019-08-03T09:27:49.000Z</time>
      </trkpt>
      <trkpt lat="44.08011" lon="6.98905">
        <ele>1559</ele>
        <time>2019-08-03T09:27:51.000Z</time>
      </trkpt>
      <trkpt lat="44.07995" lon="6.98887">
        <ele>1562</ele>
        <time>2019-08-03T09:27:53.000Z</time>
      </trkpt>
      <trkpt lat="44.07986" lon="6.98879">
        <ele>1562</ele>
        <time>2019-08-03T09:27:56.000Z</time>
      </trkpt>
      <trkpt lat="44.07977" lon="6.98868">
        <ele>1562</ele>
        <time>2019-08-03T09:27:57.000Z</time>
      </trkpt>
      <trkpt lat="44.07971" lon="6.98857">
        <ele>1563</ele>
        <time>2019-08-03T09:27:59.000Z</time>
      </trkpt>
      <trkpt lat="44.07971" lon="6.98857">
        <ele>1563</ele>
        <time>2019-08-03T09:28:01.000Z</time>
      </trkpt>
      <trkpt lat="44.07972" lon="6.98842">
        <ele>1564</ele>
        <time>2019-08-03T09:28:03.000Z</time>
      </trkpt>
      <trkpt lat="44.07972" lon="6.98825">
        <ele>1563</ele>
        <time>2019-08-03T09:28:05.000Z</time>
      </trkpt>
      <trkpt lat="44.07974" lon="6.98808">
        <ele>1564</ele>
        <time>2019-08-03T09:28:07.000Z</time>
      </trkpt>
      <trkpt lat="44.07977" lon="6.98789">
        <ele>1564</ele>
        <time>2019-08-03T09:28:09.000Z</time>
      </trkpt>
      <trkpt lat="44.0798" lon="6.9877">
        <ele>1563</ele>
        <time>2019-08-03T09:28:11.000Z</time>
      </trkpt>
      <trkpt lat="44.07987" lon="6.98731">
        <ele>1562</ele>
        <time>2019-08-03T09:28:14.000Z</time>
      </trkpt>
      <trkpt lat="44.07988" lon="6.98709">
        <ele>1562</ele>
        <time>2019-08-03T09:28:16.000Z</time>
      </trkpt>
      <trkpt lat="44.07988" lon="6.98686">
        <ele>1561</ele>
        <time>2019-08-03T09:28:18.000Z</time>
      </trkpt>
      <trkpt lat="44.07981" lon="6.98666">
        <ele>1561</ele>
        <time>2019-08-03T09:28:20.000Z</time>
      </trkpt>
      <trkpt lat="44.07972" lon="6.98647">
        <ele>1562</ele>
        <time>2019-08-03T09:28:22.000Z</time>
      </trkpt>
      <trkpt lat="44.07963" lon="6.9863">
        <ele>1562</ele>
        <time>2019-08-03T09:28:24.000Z</time>
      </trkpt>
      <trkpt lat="44.07958" lon="6.98613">
        <ele>1562</ele>
        <time>2019-08-03T09:28:26.000Z</time>
      </trkpt>
      <trkpt lat="44.07956" lon="6.98596">
        <ele>1563</ele>
        <time>2019-08-03T09:28:28.000Z</time>
      </trkpt>
      <trkpt lat="44.07953" lon="6.98578">
        <ele>1561</ele>
        <time>2019-08-03T09:28:38.000Z</time>
      </trkpt>
      <trkpt lat="44.07951" lon="6.98559">
        <ele>1561</ele>
        <time>2019-08-03T09:28:40.000Z</time>
      </trkpt>
      <trkpt lat="44.07951" lon="6.98541">
        <ele>1562</ele>
        <time>2019-08-03T09:28:42.000Z</time>
      </trkpt>
      <trkpt lat="44.07953" lon="6.98521">
        <ele>1562</ele>
        <time>2019-08-03T09:28:44.000Z</time>
      </trkpt>
      <trkpt lat="44.07955" lon="6.98503">
        <ele>1561</ele>
        <time>2019-08-03T09:28:46.000Z</time>
      </trkpt>
      <trkpt lat="44.07956" lon="6.98485">
        <ele>1561</ele>
        <time>2019-08-03T09:28:48.000Z</time>
      </trkpt>
      <trkpt lat="44.07956" lon="6.98466">
        <ele>1561</ele>
        <time>2019-08-03T09:28:50.000Z</time>
      </trkpt>
      <trkpt lat="44.07957" lon="6.98447">
        <ele>1561</ele>
        <time>2019-08-03T09:28:52.000Z</time>
      </trkpt>
      <trkpt lat="44.0796" lon="6.9843">
        <ele>1561</ele>
        <time>2019-08-03T09:28:54.000Z</time>
      </trkpt>
      <trkpt lat="44.07964" lon="6.98414">
        <ele>1561</ele>
        <time>2019-08-03T09:28:56.000Z</time>
      </trkpt>
      <trkpt lat="44.07965" lon="6.98395">
        <ele>1562</ele>
        <time>2019-08-03T09:28:58.000Z</time>
      </trkpt>
      <trkpt lat="44.07964" lon="6.98375">
        <ele>1562</ele>
        <time>2019-08-03T09:29:00.000Z</time>
      </trkpt>
      <trkpt lat="44.07962" lon="6.98354">
        <ele>1561</ele>
        <time>2019-08-03T09:29:02.000Z</time>
      </trkpt>
      <trkpt lat="44.07959" lon="6.98333">
        <ele>1561</ele>
        <time>2019-08-03T09:29:04.000Z</time>
      </trkpt>
      <trkpt lat="44.07955" lon="6.98313">
        <ele>1560</ele>
        <time>2019-08-03T09:29:06.000Z</time>
      </trkpt>
      <trkpt lat="44.07945" lon="6.98296">
        <ele>1558</ele>
        <time>2019-08-03T09:29:08.000Z</time>
      </trkpt>
      <trkpt lat="44.07935" lon="6.98277">
        <ele>1558</ele>
        <time>2019-08-03T09:29:10.000Z</time>
      </trkpt>
      <trkpt lat="44.07927" lon="6.98259">
        <ele>1557</ele>
        <time>2019-08-03T09:29:12.000Z</time>
      </trkpt>
      <trkpt lat="44.07917" lon="6.98241">
        <ele>1558</ele>
        <time>2019-08-03T09:29:14.000Z</time>
      </trkpt>
      <trkpt lat="44.07907" lon="6.98227">
        <ele>1557</ele>
        <time>2019-08-03T09:29:16.000Z</time>
      </trkpt>
      <trkpt lat="44.07896" lon="6.98214">
        <ele>1557</ele>
        <time>2019-08-03T09:29:18.000Z</time>
      </trkpt>
      <trkpt lat="44.07884" lon="6.98204">
        <ele>1558</ele>
        <time>2019-08-03T09:29:20.000Z</time>
      </trkpt>
      <trkpt lat="44.07872" lon="6.98196">
        <ele>1558</ele>
        <time>2019-08-03T09:29:22.000Z</time>
      </trkpt>
      <trkpt lat="44.07861" lon="6.98189">
        <ele>1560</ele>
        <time>2019-08-03T09:29:24.000Z</time>
      </trkpt>
      <trkpt lat="44.07851" lon="6.98183">
        <ele>1561</ele>
        <time>2019-08-03T09:29:26.000Z</time>
      </trkpt>
      <trkpt lat="44.07839" lon="6.98177">
        <ele>1562</ele>
        <time>2019-08-03T09:29:28.000Z</time>
      </trkpt>
      <trkpt lat="44.07829" lon="6.9817">
        <ele>1562</ele>
        <time>2019-08-03T09:29:30.000Z</time>
      </trkpt>
      <trkpt lat="44.0782" lon="6.98162">
        <ele>1563</ele>
        <time>2019-08-03T09:29:32.000Z</time>
      </trkpt>
      <trkpt lat="44.0782" lon="6.98162">
        <ele>1563</ele>
        <time>2019-08-03T09:29:34.000Z</time>
      </trkpt>
      <trkpt lat="44.0782" lon="6.98162">
        <ele>1563</ele>
        <time>2019-08-03T09:29:36.000Z</time>
      </trkpt>
      <trkpt lat="44.07818" lon="6.98103">
        <ele>1564</ele>
        <time>2019-08-03T09:29:38.000Z</time>
      </trkpt>
      <trkpt lat="44.07824" lon="6.98088">
        <ele>1565</ele>
        <time>2019-08-03T09:29:40.000Z</time>
      </trkpt>
      <trkpt lat="44.0783" lon="6.98076">
        <ele>1566</ele>
        <time>2019-08-03T09:29:42.000Z</time>
      </trkpt>
      <trkpt lat="44.0783" lon="6.98076">
        <ele>1566</ele>
        <time>2019-08-03T09:29:44.000Z</time>
      </trkpt>
      <trkpt lat="44.0783" lon="6.98076">
        <ele>1566</ele>
        <time>2019-08-03T09:29:46.000Z</time>
      </trkpt>
      <trkpt lat="44.0783" lon="6.98076">
        <ele>1566</ele>
        <time>2019-08-03T09:29:50.000Z</time>
      </trkpt>
      <trkpt lat="44.07874" lon="6.98013">
        <ele>1575</ele>
        <time>2019-08-03T09:29:54.000Z</time>
      </trkpt>
      <trkpt lat="44.0788" lon="6.97992">
        <ele>1578</ele>
        <time>2019-08-03T09:29:56.000Z</time>
      </trkpt>
      <trkpt lat="44.07885" lon="6.97981">
        <ele>1579</ele>
        <time>2019-08-03T09:29:57.000Z</time>
      </trkpt>
      <trkpt lat="44.07891" lon="6.97971">
        <ele>1580</ele>
        <time>2019-08-03T09:29:59.000Z</time>
      </trkpt>
      <trkpt lat="44.07898" lon="6.9796">
        <ele>1581</ele>
        <time>2019-08-03T09:30:01.000Z</time>
      </trkpt>
      <trkpt lat="44.07903" lon="6.9795">
        <ele>1582</ele>
        <time>2019-08-03T09:30:03.000Z</time>
      </trkpt>
      <trkpt lat="44.07909" lon="6.97939">
        <ele>1584</ele>
        <time>2019-08-03T09:30:05.000Z</time>
      </trkpt>
      <trkpt lat="44.07916" lon="6.97928">
        <ele>1584</ele>
        <time>2019-08-03T09:30:07.000Z</time>
      </trkpt>
      <trkpt lat="44.07921" lon="6.97917">
        <ele>1584</ele>
        <time>2019-08-03T09:30:09.000Z</time>
      </trkpt>
      <trkpt lat="44.07924" lon="6.97903">
        <ele>1586</ele>
        <time>2019-08-03T09:30:11.000Z</time>
      </trkpt>
      <trkpt lat="44.07927" lon="6.97889">
        <ele>1586</ele>
        <time>2019-08-03T09:30:13.000Z</time>
      </trkpt>
      <trkpt lat="44.07929" lon="6.97874">
        <ele>1587</ele>
        <time>2019-08-03T09:30:15.000Z</time>
      </trkpt>
      <trkpt lat="44.07931" lon="6.9786">
        <ele>1588</ele>
        <time>2019-08-03T09:30:17.000Z</time>
      </trkpt>
      <trkpt lat="44.07931" lon="6.9786">
        <ele>1588</ele>
        <time>2019-08-03T09:31:18.000Z</time>
      </trkpt>
      <trkpt lat="44.07931" lon="6.9786">
        <ele>1588</ele>
        <time>2019-08-03T09:31:21.000Z</time>
      </trkpt>
      <trkpt lat="44.07931" lon="6.9786">
        <ele>1588</ele>
        <time>2019-08-03T09:31:23.000Z</time>
      </trkpt>
      <trkpt lat="44.07931" lon="6.9786">
        <ele>1588</ele>
        <time>2019-08-03T09:31:25.000Z</time>
      </trkpt>
      <trkpt lat="44.07931" lon="6.9786">
        <ele>1588</ele>
        <time>2019-08-03T09:31:27.000Z</time>
      </trkpt>
      <trkpt lat="44.07931" lon="6.9786">
        <ele>1588</ele>
        <time>2019-08-03T09:31:29.000Z</time>
      </trkpt>
      <trkpt lat="44.07931" lon="6.9786">
        <ele>1588</ele>
        <time>2019-08-03T09:31:31.000Z</time>
      </trkpt>
      <trkpt lat="44.07931" lon="6.9786">
        <ele>1588</ele>
        <time>2019-08-03T09:31:33.000Z</time>
      </trkpt>
      <trkpt lat="44.07931" lon="6.9786">
        <ele>1588</ele>
        <time>2019-08-03T09:31:39.000Z</time>
      </trkpt>
      <trkpt lat="44.07979" lon="6.97831">
        <ele>1600</ele>
        <time>2019-08-03T09:31:41.000Z</time>
      </trkpt>
      <trkpt lat="44.0798" lon="6.97844">
        <ele>1601</ele>
        <time>2019-08-03T09:31:43.000Z</time>
      </trkpt>
      <trkpt lat="44.0798" lon="6.97857">
        <ele>1602</ele>
        <time>2019-08-03T09:31:45.000Z</time>
      </trkpt>
      <trkpt lat="44.07982" lon="6.97871">
        <ele>1603</ele>
        <time>2019-08-03T09:31:47.000Z</time>
      </trkpt>
      <trkpt lat="44.07982" lon="6.97884">
        <ele>1604</ele>
        <time>2019-08-03T09:31:49.000Z</time>
      </trkpt>
      <trkpt lat="44.07982" lon="6.97884">
        <ele>1604</ele>
        <time>2019-08-03T09:31:51.000Z</time>
      </trkpt>
      <trkpt lat="44.07982" lon="6.97884">
        <ele>1604</ele>
        <time>2019-08-03T09:31:53.000Z</time>
      </trkpt>
      <trkpt lat="44.07982" lon="6.97884">
        <ele>1604</ele>
        <time>2019-08-03T09:31:56.000Z</time>
      </trkpt>
      <trkpt lat="44.07982" lon="6.97884">
        <ele>1604</ele>
        <time>2019-08-03T09:31:57.000Z</time>
      </trkpt>
      <trkpt lat="44.07983" lon="6.97925">
        <ele>1606</ele>
        <time>2019-08-03T09:32:01.000Z</time>
      </trkpt>
      <trkpt lat="44.07983" lon="6.97925">
        <ele>1606</ele>
        <time>2019-08-03T09:32:03.000Z</time>
      </trkpt>
      <trkpt lat="44.07983" lon="6.97925">
        <ele>1606</ele>
        <time>2019-08-03T09:32:07.000Z</time>
      </trkpt>
      <trkpt lat="44.07983" lon="6.97925">
        <ele>1606</ele>
        <time>2019-08-03T09:32:11.000Z</time>
      </trkpt>
      <trkpt lat="44.07983" lon="6.97925">
        <ele>1606</ele>
        <time>2019-08-03T09:32:15.000Z</time>
      </trkpt>
      <trkpt lat="44.07983" lon="6.97925">
        <ele>1606</ele>
        <time>2019-08-03T09:32:17.000Z</time>
      </trkpt>
      <trkpt lat="44.07983" lon="6.97925">
        <ele>1606</ele>
        <time>2019-08-03T09:32:21.000Z</time>
      </trkpt>
      <trkpt lat="44.07983" lon="6.97925">
        <ele>1606</ele>
        <time>2019-08-03T09:32:25.000Z</time>
      </trkpt>
      <trkpt lat="44.07983" lon="6.97925">
        <ele>1606</ele>
        <time>2019-08-03T09:32:27.000Z</time>
      </trkpt>
      <trkpt lat="44.07983" lon="6.97925">
        <ele>1606</ele>
        <time>2019-08-03T09:32:29.000Z</time>
      </trkpt>
      <trkpt lat="44.07972" lon="6.97974">
        <ele>1610</ele>
        <time>2019-08-03T09:32:31.000Z</time>
      </trkpt>
      <trkpt lat="44.07972" lon="6.97974">
        <ele>1610</ele>
        <time>2019-08-03T09:32:33.000Z</time>
      </trkpt>
      <trkpt lat="44.07972" lon="6.97974">
        <ele>1610</ele>
        <time>2019-08-03T09:32:35.000Z</time>
      </trkpt>
      <trkpt lat="44.07972" lon="6.97974">
        <ele>1610</ele>
        <time>2019-08-03T09:32:37.000Z</time>
      </trkpt>
      <trkpt lat="44.07972" lon="6.97974">
        <ele>1610</ele>
        <time>2019-08-03T09:32:39.000Z</time>
      </trkpt>
      <trkpt lat="44.07972" lon="6.97974">
        <ele>1610</ele>
        <time>2019-08-03T09:32:41.000Z</time>
      </trkpt>
      <trkpt lat="44.07981" lon="6.9798">
        <ele>1612</ele>
        <time>2019-08-03T09:32:43.000Z</time>
      </trkpt>
      <trkpt lat="44.07981" lon="6.9798">
        <ele>1612</ele>
        <time>2019-08-03T09:32:45.000Z</time>
      </trkpt>
      <trkpt lat="44.07981" lon="6.9798">
        <ele>1612</ele>
        <time>2019-08-03T09:32:47.000Z</time>
      </trkpt>
      <trkpt lat="44.07981" lon="6.9798">
        <ele>1612</ele>
        <time>2019-08-03T09:32:49.000Z</time>
      </trkpt>
      <trkpt lat="44.07991" lon="6.97963">
        <ele>1612</ele>
        <time>2019-08-03T09:32:51.000Z</time>
      </trkpt>
      <trkpt lat="44.08001" lon="6.97945">
        <ele>1616</ele>
        <time>2019-08-03T09:32:53.000Z</time>
      </trkpt>
      <trkpt lat="44.08009" lon="6.97927">
        <ele>1618</ele>
        <time>2019-08-03T09:32:57.000Z</time>
      </trkpt>
      <trkpt lat="44.08012" lon="6.97905">
        <ele>1620</ele>
        <time>2019-08-03T09:32:59.000Z</time>
      </trkpt>
      <trkpt lat="44.08017" lon="6.97882">
        <ele>1622</ele>
        <time>2019-08-03T09:33:01.000Z</time>
      </trkpt>
      <trkpt lat="44.08022" lon="6.9787">
        <ele>1623</ele>
        <time>2019-08-03T09:33:03.000Z</time>
      </trkpt>
      <trkpt lat="44.08029" lon="6.97848">
        <ele>1625</ele>
        <time>2019-08-03T09:33:05.000Z</time>
      </trkpt>
      <trkpt lat="44.08033" lon="6.97837">
        <ele>1627</ele>
        <time>2019-08-03T09:33:07.000Z</time>
      </trkpt>
      <trkpt lat="44.0804" lon="6.97827">
        <ele>1628</ele>
        <time>2019-08-03T09:33:09.000Z</time>
      </trkpt>
      <trkpt lat="44.08048" lon="6.97819">
        <ele>1630</ele>
        <time>2019-08-03T09:34:47.000Z</time>
      </trkpt>
      <trkpt lat="44.08056" lon="6.97813">
        <ele>1631</ele>
        <time>2019-08-03T09:34:53.000Z</time>
      </trkpt>
      <trkpt lat="44.08056" lon="6.97813">
        <ele>1631</ele>
        <time>2019-08-03T09:34:55.000Z</time>
      </trkpt>
      <trkpt lat="44.08056" lon="6.97813">
        <ele>1631</ele>
        <time>2019-08-03T09:34:57.000Z</time>
      </trkpt>
      <trkpt lat="44.08056" lon="6.97813">
        <ele>1631</ele>
        <time>2019-08-03T09:34:59.000Z</time>
      </trkpt>
      <trkpt lat="44.08056" lon="6.97813">
        <ele>1631</ele>
        <time>2019-08-03T09:35:01.000Z</time>
      </trkpt>
      <trkpt lat="44.08073" lon="6.97744">
        <ele>1637</ele>
        <time>2019-08-03T09:35:03.000Z</time>
      </trkpt>
      <trkpt lat="44.08078" lon="6.97732">
        <ele>1638</ele>
        <time>2019-08-03T09:35:05.000Z</time>
      </trkpt>
      <trkpt lat="44.08083" lon="6.97721">
        <ele>1639</ele>
        <time>2019-08-03T09:35:07.000Z</time>
      </trkpt>
      <trkpt lat="44.08089" lon="6.9771">
        <ele>1640</ele>
        <time>2019-08-03T09:35:09.000Z</time>
      </trkpt>
      <trkpt lat="44.08096" lon="6.97701">
        <ele>1640</ele>
        <time>2019-08-03T09:35:11.000Z</time>
      </trkpt>
      <trkpt lat="44.08101" lon="6.9769">
        <ele>1641</ele>
        <time>2019-08-03T09:35:13.000Z</time>
      </trkpt>
      <trkpt lat="44.08104" lon="6.97676">
        <ele>1643</ele>
        <time>2019-08-03T09:35:15.000Z</time>
      </trkpt>
      <trkpt lat="44.08103" lon="6.97663">
        <ele>1644</ele>
        <time>2019-08-03T09:35:17.000Z</time>
      </trkpt>
      <trkpt lat="44.08103" lon="6.97663">
        <ele>1644</ele>
        <time>2019-08-03T09:35:19.000Z</time>
      </trkpt>
      <trkpt lat="44.08087" lon="6.9763">
        <ele>1646</ele>
        <time>2019-08-03T09:35:21.000Z</time>
      </trkpt>
      <trkpt lat="44.08087" lon="6.9763">
        <ele>1646</ele>
        <time>2019-08-03T09:35:25.000Z</time>
      </trkpt>
      <trkpt lat="44.08087" lon="6.9763">
        <ele>1646</ele>
        <time>2019-08-03T09:35:27.000Z</time>
      </trkpt>
      <trkpt lat="44.08087" lon="6.9763">
        <ele>1646</ele>
        <time>2019-08-03T09:35:29.000Z</time>
      </trkpt>
      <trkpt lat="44.08054" lon="6.97585">
        <ele>1647</ele>
        <time>2019-08-03T09:35:31.000Z</time>
      </trkpt>
      <trkpt lat="44.08046" lon="6.97576">
        <ele>1647</ele>
        <time>2019-08-03T09:35:33.000Z</time>
      </trkpt>
      <trkpt lat="44.08037" lon="6.97566">
        <ele>1648</ele>
        <time>2019-08-03T09:35:35.000Z</time>
      </trkpt>
      <trkpt lat="44.0803" lon="6.97556">
        <ele>1741</ele>
        <time>2019-08-03T09:35:37.000Z</time>
      </trkpt>
      <trkpt lat="44.08023" lon="6.97532">
        <ele>1674</ele>
        <time>2019-08-03T09:35:39.000Z</time>
      </trkpt>
      <trkpt lat="44.08023" lon="6.97532">
        <ele>1674</ele>
        <time>2019-08-03T09:35:42.000Z</time>
      </trkpt>
      <trkpt lat="44.08023" lon="6.97532">
        <ele>1674</ele>
        <time>2019-08-03T09:35:44.000Z</time>
      </trkpt>
      <trkpt lat="44.08023" lon="6.97532">
        <ele>1674</ele>
        <time>2019-08-03T09:35:46.000Z</time>
      </trkpt>
      <trkpt lat="44.08023" lon="6.97532">
        <ele>1674</ele>
        <time>2019-08-03T09:35:50.000Z</time>
      </trkpt>
      <trkpt lat="44.08035" lon="6.97528">
        <ele>1660</ele>
        <time>2019-08-03T09:35:54.000Z</time>
      </trkpt>
      <trkpt lat="44.08046" lon="6.9753">
        <ele>1660</ele>
        <time>2019-08-03T09:35:56.000Z</time>
      </trkpt>
      <trkpt lat="44.08057" lon="6.97534">
        <ele>1659</ele>
        <time>2019-08-03T09:35:57.000Z</time>
      </trkpt>
      <trkpt lat="44.08068" lon="6.97538">
        <ele>1659</ele>
        <time>2019-08-03T09:35:59.000Z</time>
      </trkpt>
      <trkpt lat="44.0808" lon="6.97542">
        <ele>1658</ele>
        <time>2019-08-03T09:36:01.000Z</time>
      </trkpt>
      <trkpt lat="44.08105" lon="6.97554">
        <ele>1658</ele>
        <time>2019-08-03T09:36:03.000Z</time>
      </trkpt>
      <trkpt lat="44.08115" lon="6.97567">
        <ele>1658</ele>
        <time>2019-08-03T09:36:05.000Z</time>
      </trkpt>
      <trkpt lat="44.08123" lon="6.97581">
        <ele>1658</ele>
        <time>2019-08-03T09:36:07.000Z</time>
      </trkpt>
      <trkpt lat="44.08131" lon="6.97597">
        <ele>1658</ele>
        <time>2019-08-03T09:36:09.000Z</time>
      </trkpt>
      <trkpt lat="44.0814" lon="6.97611">
        <ele>1658</ele>
        <time>2019-08-03T09:36:11.000Z</time>
      </trkpt>
      <trkpt lat="44.08149" lon="6.97623">
        <ele>1658</ele>
        <time>2019-08-03T09:36:13.000Z</time>
      </trkpt>
      <trkpt lat="44.08159" lon="6.97634">
        <ele>1660</ele>
        <time>2019-08-03T09:36:15.000Z</time>
      </trkpt>
      <trkpt lat="44.08169" lon="6.97647">
        <ele>1661</ele>
        <time>2019-08-03T09:36:17.000Z</time>
      </trkpt>
      <trkpt lat="44.0818" lon="6.97659">
        <ele>1661</ele>
        <time>2019-08-03T09:36:19.000Z</time>
      </trkpt>
      <trkpt lat="44.08189" lon="6.97668">
        <ele>1663</ele>
        <time>2019-08-03T09:36:21.000Z</time>
      </trkpt>
      <trkpt lat="44.08201" lon="6.97675">
        <ele>1663</ele>
        <time>2019-08-03T09:36:23.000Z</time>
      </trkpt>
      <trkpt lat="44.08211" lon="6.97685">
        <ele>1664</ele>
        <time>2019-08-03T09:36:25.000Z</time>
      </trkpt>
      <trkpt lat="44.08215" lon="6.97702">
        <ele>1665</ele>
        <time>2019-08-03T09:36:27.000Z</time>
      </trkpt>
      <trkpt lat="44.08216" lon="6.97719">
        <ele>1665</ele>
        <time>2019-08-03T09:36:29.000Z</time>
      </trkpt>
      <trkpt lat="44.08218" lon="6.97736">
        <ele>1666</ele>
        <time>2019-08-03T09:36:31.000Z</time>
      </trkpt>
      <trkpt lat="44.08221" lon="6.97752">
        <ele>1667</ele>
        <time>2019-08-03T09:36:33.000Z</time>
      </trkpt>
      <trkpt lat="44.08225" lon="6.97766">
        <ele>1669</ele>
        <time>2019-08-03T09:36:36.000Z</time>
      </trkpt>
      <trkpt lat="44.08229" lon="6.9778">
        <ele>1671</ele>
        <time>2019-08-03T09:36:38.000Z</time>
      </trkpt>
      <trkpt lat="44.08233" lon="6.97792">
        <ele>1673</ele>
        <time>2019-08-03T09:36:40.000Z</time>
      </trkpt>
      <trkpt lat="44.08233" lon="6.97792">
        <ele>1673</ele>
        <time>2019-08-03T09:36:42.000Z</time>
      </trkpt>
      <trkpt lat="44.08233" lon="6.97792">
        <ele>1673</ele>
        <time>2019-08-03T09:36:44.000Z</time>
      </trkpt>
      <trkpt lat="44.08251" lon="6.97858">
        <ele>1677</ele>
        <time>2019-08-03T09:36:48.000Z</time>
      </trkpt>
      <trkpt lat="44.08256" lon="6.97871">
        <ele>1677</ele>
        <time>2019-08-03T09:36:50.000Z</time>
      </trkpt>
      <trkpt lat="44.08262" lon="6.97886">
        <ele>1678</ele>
        <time>2019-08-03T09:37:08.000Z</time>
      </trkpt>
      <trkpt lat="44.08267" lon="6.979">
        <ele>1678</ele>
        <time>2019-08-03T09:37:11.000Z</time>
      </trkpt>
      <trkpt lat="44.08267" lon="6.979">
        <ele>1678</ele>
        <time>2019-08-03T09:37:13.000Z</time>
      </trkpt>
      <trkpt lat="44.08267" lon="6.979">
        <ele>1678</ele>
        <time>2019-08-03T09:37:15.000Z</time>
      </trkpt>
      <trkpt lat="44.08267" lon="6.979">
        <ele>1678</ele>
        <time>2019-08-03T09:37:17.000Z</time>
      </trkpt>
      <trkpt lat="44.08267" lon="6.979">
        <ele>1678</ele>
        <time>2019-08-03T09:37:19.000Z</time>
      </trkpt>
      <trkpt lat="44.08267" lon="6.979">
        <ele>1678</ele>
        <time>2019-08-03T09:37:37.000Z</time>
      </trkpt>
      <trkpt lat="44.08267" lon="6.979">
        <ele>1678</ele>
        <time>2019-08-03T09:37:41.000Z</time>
      </trkpt>
      <trkpt lat="44.08292" lon="6.97957">
        <ele>1680</ele>
        <time>2019-08-03T09:37:43.000Z</time>
      </trkpt>
      <trkpt lat="44.08292" lon="6.97957">
        <ele>1680</ele>
        <time>2019-08-03T09:37:45.000Z</time>
      </trkpt>
      <trkpt lat="44.08305" lon="6.97996">
        <ele>1682</ele>
        <time>2019-08-03T09:37:47.000Z</time>
      </trkpt>
      <trkpt lat="44.08318" lon="6.9802">
        <ele>1683</ele>
        <time>2019-08-03T09:37:49.000Z</time>
      </trkpt>
      <trkpt lat="44.08327" lon="6.98036">
        <ele>1687</ele>
        <time>2019-08-03T09:37:51.000Z</time>
      </trkpt>
      <trkpt lat="44.08334" lon="6.98045">
        <ele>1688</ele>
        <time>2019-08-03T09:37:53.000Z</time>
      </trkpt>
      <trkpt lat="44.08342" lon="6.98055">
        <ele>1688</ele>
        <time>2019-08-03T09:37:56.000Z</time>
      </trkpt>
      <trkpt lat="44.0835" lon="6.98065">
        <ele>1689</ele>
        <time>2019-08-03T09:37:59.000Z</time>
      </trkpt>
      <trkpt lat="44.0836" lon="6.98076">
        <ele>1690</ele>
        <time>2019-08-03T09:38:01.000Z</time>
      </trkpt>
      <trkpt lat="44.0837" lon="6.98087">
        <ele>1690</ele>
        <time>2019-08-03T09:38:03.000Z</time>
      </trkpt>
      <trkpt lat="44.08381" lon="6.98098">
        <ele>1690</ele>
        <time>2019-08-03T09:38:05.000Z</time>
      </trkpt>
      <trkpt lat="44.08392" lon="6.98107">
        <ele>1690</ele>
        <time>2019-08-03T09:38:07.000Z</time>
      </trkpt>
      <trkpt lat="44.08405" lon="6.98115">
        <ele>1691</ele>
        <time>2019-08-03T09:38:09.000Z</time>
      </trkpt>
      <trkpt lat="44.08417" lon="6.98119">
        <ele>1690</ele>
        <time>2019-08-03T09:38:11.000Z</time>
      </trkpt>
      <trkpt lat="44.0843" lon="6.98117">
        <ele>1690</ele>
        <time>2019-08-03T09:38:28.000Z</time>
      </trkpt>
      <trkpt lat="44.0844" lon="6.98108">
        <ele>1689</ele>
        <time>2019-08-03T09:38:32.000Z</time>
      </trkpt>
      <trkpt lat="44.08451" lon="6.98102">
        <ele>1689</ele>
        <time>2019-08-03T09:38:34.000Z</time>
      </trkpt>
      <trkpt lat="44.08451" lon="6.98102">
        <ele>1689</ele>
        <time>2019-08-03T09:38:36.000Z</time>
      </trkpt>
      <trkpt lat="44.08451" lon="6.98102">
        <ele>1689</ele>
        <time>2019-08-03T09:38:38.000Z</time>
      </trkpt>
      <trkpt lat="44.08451" lon="6.98102">
        <ele>1689</ele>
        <time>2019-08-03T09:38:40.000Z</time>
      </trkpt>
      <trkpt lat="44.08451" lon="6.98102">
        <ele>1689</ele>
        <time>2019-08-03T09:38:42.000Z</time>
      </trkpt>
      <trkpt lat="44.08451" lon="6.98102">
        <ele>1689</ele>
        <time>2019-08-03T09:38:44.000Z</time>
      </trkpt>
      <trkpt lat="44.08451" lon="6.98102">
        <ele>1689</ele>
        <time>2019-08-03T09:38:47.000Z</time>
      </trkpt>
      <trkpt lat="44.08451" lon="6.98102">
        <ele>1689</ele>
        <time>2019-08-03T09:38:48.000Z</time>
      </trkpt>
      <trkpt lat="44.08451" lon="6.98102">
        <ele>1689</ele>
        <time>2019-08-03T09:38:50.000Z</time>
      </trkpt>
      <trkpt lat="44.08496" lon="6.98096">
        <ele>1688</ele>
        <time>2019-08-03T09:38:52.000Z</time>
      </trkpt>
      <trkpt lat="44.08526" lon="6.98099">
        <ele>1687</ele>
        <time>2019-08-03T09:38:54.000Z</time>
      </trkpt>
      <trkpt lat="44.08538" lon="6.98097">
        <ele>1686</ele>
        <time>2019-08-03T09:38:56.000Z</time>
      </trkpt>
      <trkpt lat="44.0855" lon="6.98092">
        <ele>1686</ele>
        <time>2019-08-03T09:38:58.000Z</time>
      </trkpt>
      <trkpt lat="44.08559" lon="6.98084">
        <ele>1686</ele>
        <time>2019-08-03T09:39:00.000Z</time>
      </trkpt>
      <trkpt lat="44.08569" lon="6.98075">
        <ele>1685</ele>
        <time>2019-08-03T09:39:02.000Z</time>
      </trkpt>
      <trkpt lat="44.08576" lon="6.98062">
        <ele>1685</ele>
        <time>2019-08-03T09:39:06.000Z</time>
      </trkpt>
      <trkpt lat="44.0858" lon="6.98048">
        <ele>1685</ele>
        <time>2019-08-03T09:39:08.000Z</time>
      </trkpt>
      <trkpt lat="44.08581" lon="6.98033">
        <ele>1685</ele>
        <time>2019-08-03T09:39:10.000Z</time>
      </trkpt>
      <trkpt lat="44.0858" lon="6.98017">
        <ele>1685</ele>
        <time>2019-08-03T09:39:12.000Z</time>
      </trkpt>
      <trkpt lat="44.08579" lon="6.98002">
        <ele>1684</ele>
        <time>2019-08-03T09:39:14.000Z</time>
      </trkpt>
      <trkpt lat="44.08574" lon="6.97985">
        <ele>1683</ele>
        <time>2019-08-03T09:39:16.000Z</time>
      </trkpt>
      <trkpt lat="44.08563" lon="6.97969">
        <ele>1682</ele>
        <time>2019-08-03T09:39:18.000Z</time>
      </trkpt>
      <trkpt lat="44.08551" lon="6.97953">
        <ele>1681</ele>
        <time>2019-08-03T09:39:20.000Z</time>
      </trkpt>
      <trkpt lat="44.08543" lon="6.9794">
        <ele>1681</ele>
        <time>2019-08-03T09:39:22.000Z</time>
      </trkpt>
      <trkpt lat="44.08534" lon="6.97929">
        <ele>1680</ele>
        <time>2019-08-03T09:39:24.000Z</time>
      </trkpt>
      <trkpt lat="44.08525" lon="6.97917">
        <ele>1679</ele>
        <time>2019-08-03T09:39:26.000Z</time>
      </trkpt>
      <trkpt lat="44.08517" lon="6.97904">
        <ele>1679</ele>
        <time>2019-08-03T09:39:28.000Z</time>
      </trkpt>
      <trkpt lat="44.0851" lon="6.97892">
        <ele>1678</ele>
        <time>2019-08-03T09:39:30.000Z</time>
      </trkpt>
      <trkpt lat="44.0851" lon="6.97892">
        <ele>1678</ele>
        <time>2019-08-03T09:39:32.000Z</time>
      </trkpt>
      <trkpt lat="44.0851" lon="6.97892">
        <ele>1678</ele>
        <time>2019-08-03T09:39:34.000Z</time>
      </trkpt>
      <trkpt lat="44.08485" lon="6.9786">
        <ele>1678</ele>
        <time>2019-08-03T09:39:36.000Z</time>
      </trkpt>
      <trkpt lat="44.08462" lon="6.97785">
        <ele>1673</ele>
        <time>2019-08-03T09:39:38.000Z</time>
      </trkpt>
      <trkpt lat="44.08466" lon="6.97756">
        <ele>1671</ele>
        <time>2019-08-03T09:39:40.000Z</time>
      </trkpt>
      <trkpt lat="44.08475" lon="6.97729">
        <ele>1669</ele>
        <time>2019-08-03T09:39:42.000Z</time>
      </trkpt>
      <trkpt lat="44.08493" lon="6.97705">
        <ele>1668</ele>
        <time>2019-08-03T09:39:44.000Z</time>
      </trkpt>
      <trkpt lat="44.08513" lon="6.97685">
        <ele>1665</ele>
        <time>2019-08-03T09:39:46.000Z</time>
      </trkpt>
      <trkpt lat="44.08535" lon="6.97672">
        <ele>1663</ele>
        <time>2019-08-03T09:39:48.000Z</time>
      </trkpt>
      <trkpt lat="44.08558" lon="6.97665">
        <ele>1662</ele>
        <time>2019-08-03T09:39:50.000Z</time>
      </trkpt>
      <trkpt lat="44.08583" lon="6.97663">
        <ele>1660</ele>
        <time>2019-08-03T09:39:52.000Z</time>
      </trkpt>
      <trkpt lat="44.08608" lon="6.9767">
        <ele>1658</ele>
        <time>2019-08-03T09:39:54.000Z</time>
      </trkpt>
      <trkpt lat="44.0863" lon="6.97685">
        <ele>1656</ele>
        <time>2019-08-03T09:39:56.000Z</time>
      </trkpt>
      <trkpt lat="44.08653" lon="6.97699">
        <ele>1653</ele>
        <time>2019-08-03T09:39:58.000Z</time>
      </trkpt>
      <trkpt lat="44.08685" lon="6.97701">
        <ele>1650</ele>
        <time>2019-08-03T09:40:00.000Z</time>
      </trkpt>
      <trkpt lat="44.08699" lon="6.97694">
        <ele>1648</ele>
        <time>2019-08-03T09:40:02.000Z</time>
      </trkpt>
      <trkpt lat="44.08715" lon="6.97686">
        <ele>1647</ele>
        <time>2019-08-03T09:40:04.000Z</time>
      </trkpt>
      <trkpt lat="44.08728" lon="6.97681">
        <ele>1646</ele>
        <time>2019-08-03T09:40:06.000Z</time>
      </trkpt>
      <trkpt lat="44.0874" lon="6.97677">
        <ele>1644</ele>
        <time>2019-08-03T09:40:08.000Z</time>
      </trkpt>
      <trkpt lat="44.08754" lon="6.97675">
        <ele>1642</ele>
        <time>2019-08-03T09:40:10.000Z</time>
      </trkpt>
      <trkpt lat="44.08767" lon="6.97681">
        <ele>1641</ele>
        <time>2019-08-03T09:40:12.000Z</time>
      </trkpt>
      <trkpt lat="44.0878" lon="6.9769">
        <ele>1640</ele>
        <time>2019-08-03T09:40:14.000Z</time>
      </trkpt>
      <trkpt lat="44.08797" lon="6.97691">
        <ele>1639</ele>
        <time>2019-08-03T09:40:20.000Z</time>
      </trkpt>
      <trkpt lat="44.08814" lon="6.97692">
        <ele>1637</ele>
        <time>2019-08-03T09:40:22.000Z</time>
      </trkpt>
      <trkpt lat="44.08833" lon="6.97689">
        <ele>1635</ele>
        <time>2019-08-03T09:40:24.000Z</time>
      </trkpt>
      <trkpt lat="44.0885" lon="6.97693">
        <ele>1633</ele>
        <time>2019-08-03T09:40:26.000Z</time>
      </trkpt>
      <trkpt lat="44.08866" lon="6.97701">
        <ele>1630</ele>
        <time>2019-08-03T09:40:28.000Z</time>
      </trkpt>
      <trkpt lat="44.0888" lon="6.97713">
        <ele>1628</ele>
        <time>2019-08-03T09:40:30.000Z</time>
      </trkpt>
      <trkpt lat="44.08889" lon="6.97731">
        <ele>1628</ele>
        <time>2019-08-03T09:40:32.000Z</time>
      </trkpt>
      <trkpt lat="44.08891" lon="6.97753">
        <ele>1627</ele>
        <time>2019-08-03T09:40:34.000Z</time>
      </trkpt>
      <trkpt lat="44.08893" lon="6.97767">
        <ele>1626</ele>
        <time>2019-08-03T09:40:38.000Z</time>
      </trkpt>
      <trkpt lat="44.08903" lon="6.97766">
        <ele>1625</ele>
        <time>2019-08-03T09:40:42.000Z</time>
      </trkpt>
      <trkpt lat="44.08912" lon="6.97751">
        <ele>1624</ele>
        <time>2019-08-03T09:40:44.000Z</time>
      </trkpt>
      <trkpt lat="44.08924" lon="6.97735">
        <ele>1623</ele>
        <time>2019-08-03T09:40:47.000Z</time>
      </trkpt>
      <trkpt lat="44.08938" lon="6.9772">
        <ele>1622</ele>
        <time>2019-08-03T09:40:48.000Z</time>
      </trkpt>
      <trkpt lat="44.0895" lon="6.97705">
        <ele>1621</ele>
        <time>2019-08-03T09:40:50.000Z</time>
      </trkpt>
      <trkpt lat="44.08964" lon="6.97687">
        <ele>1620</ele>
        <time>2019-08-03T09:40:52.000Z</time>
      </trkpt>
      <trkpt lat="44.08976" lon="6.97667">
        <ele>1618</ele>
        <time>2019-08-03T09:40:58.000Z</time>
      </trkpt>
      <trkpt lat="44.08989" lon="6.97643">
        <ele>1617</ele>
        <time>2019-08-03T09:41:00.000Z</time>
      </trkpt>
      <trkpt lat="44.08999" lon="6.97619">
        <ele>1616</ele>
        <time>2019-08-03T09:41:02.000Z</time>
      </trkpt>
      <trkpt lat="44.09009" lon="6.97592">
        <ele>1615</ele>
        <time>2019-08-03T09:41:04.000Z</time>
      </trkpt>
      <trkpt lat="44.09018" lon="6.97563">
        <ele>1613</ele>
        <time>2019-08-03T09:41:06.000Z</time>
      </trkpt>
      <trkpt lat="44.09021" lon="6.97532">
        <ele>1611</ele>
        <time>2019-08-03T09:41:08.000Z</time>
      </trkpt>
      <trkpt lat="44.09025" lon="6.97502">
        <ele>1610</ele>
        <time>2019-08-03T09:41:14.000Z</time>
      </trkpt>
      <trkpt lat="44.09032" lon="6.97473">
        <ele>1610</ele>
        <time>2019-08-03T09:41:16.000Z</time>
      </trkpt>
      <trkpt lat="44.09039" lon="6.97445">
        <ele>1609</ele>
        <time>2019-08-03T09:42:05.000Z</time>
      </trkpt>
      <trkpt lat="44.09047" lon="6.97418">
        <ele>1609</ele>
        <time>2019-08-03T09:42:13.000Z</time>
      </trkpt>
      <trkpt lat="44.09052" lon="6.97391">
        <ele>1608</ele>
        <time>2019-08-03T09:42:15.000Z</time>
      </trkpt>
      <trkpt lat="44.09054" lon="6.97364">
        <ele>1608</ele>
        <time>2019-08-03T09:42:27.000Z</time>
      </trkpt>
      <trkpt lat="44.09057" lon="6.97339">
        <ele>1609</ele>
        <time>2019-08-03T09:42:29.000Z</time>
      </trkpt>
      <trkpt lat="44.09058" lon="6.97317">
        <ele>1610</ele>
        <time>2019-08-03T09:42:31.000Z</time>
      </trkpt>
      <trkpt lat="44.0906" lon="6.97298">
        <ele>1611</ele>
        <time>2019-08-03T09:42:33.000Z</time>
      </trkpt>
      <trkpt lat="44.09064" lon="6.9728">
        <ele>1610</ele>
        <time>2019-08-03T09:45:26.000Z</time>
      </trkpt>
      <trkpt lat="44.0907" lon="6.97265">
        <ele>1609</ele>
        <time>2019-08-03T09:45:30.000Z</time>
      </trkpt>
      <trkpt lat="44.0908" lon="6.97252">
        <ele>1609</ele>
        <time>2019-08-03T09:45:32.000Z</time>
      </trkpt>
      <trkpt lat="44.09088" lon="6.97237">
        <ele>1608</ele>
        <time>2019-08-03T09:45:34.000Z</time>
      </trkpt>
      <trkpt lat="44.09096" lon="6.97217">
        <ele>1607</ele>
        <time>2019-08-03T09:45:36.000Z</time>
      </trkpt>
      <trkpt lat="44.091" lon="6.97189">
        <ele>1606</ele>
        <time>2019-08-03T09:45:38.000Z</time>
      </trkpt>
      <trkpt lat="44.09102" lon="6.97176">
        <ele>1604</ele>
        <time>2019-08-03T09:45:40.000Z</time>
      </trkpt>
      <trkpt lat="44.09103" lon="6.9716">
        <ele>1604</ele>
        <time>2019-08-03T09:45:44.000Z</time>
      </trkpt>
      <trkpt lat="44.09101" lon="6.97146">
        <ele>1603</ele>
        <time>2019-08-03T09:45:46.000Z</time>
      </trkpt>
      <trkpt lat="44.09101" lon="6.97146">
        <ele>1603</ele>
        <time>2019-08-03T09:45:48.000Z</time>
      </trkpt>
      <trkpt lat="44.09101" lon="6.97146">
        <ele>1603</ele>
        <time>2019-08-03T09:45:50.000Z</time>
      </trkpt>
      <trkpt lat="44.09101" lon="6.97146">
        <ele>1603</ele>
        <time>2019-08-03T09:45:52.000Z</time>
      </trkpt>
      <trkpt lat="44.09101" lon="6.97146">
        <ele>1603</ele>
        <time>2019-08-03T09:45:54.000Z</time>
      </trkpt>
      <trkpt lat="44.09101" lon="6.97146">
        <ele>1603</ele>
        <time>2019-08-03T09:45:56.000Z</time>
      </trkpt>
      <trkpt lat="44.09101" lon="6.97101">
        <ele>1602</ele>
        <time>2019-08-03T09:46:21.000Z</time>
      </trkpt>
      <trkpt lat="44.09097" lon="6.97087">
        <ele>1602</ele>
        <time>2019-08-03T09:46:25.000Z</time>
      </trkpt>
      <trkpt lat="44.09092" lon="6.97075">
        <ele>1603</ele>
        <time>2019-08-03T09:46:29.000Z</time>
      </trkpt>
      <trkpt lat="44.09088" lon="6.97061">
        <ele>1603</ele>
        <time>2019-08-03T09:46:31.000Z</time>
      </trkpt>
      <trkpt lat="44.09086" lon="6.97044">
        <ele>1603</ele>
        <time>2019-08-03T09:46:33.000Z</time>
      </trkpt>
      <trkpt lat="44.09085" lon="6.97032">
        <ele>1602</ele>
        <time>2019-08-03T09:46:35.000Z</time>
      </trkpt>
      <trkpt lat="44.09085" lon="6.97032">
        <ele>1602</ele>
        <time>2019-08-03T09:46:37.000Z</time>
      </trkpt>
      <trkpt lat="44.09085" lon="6.97032">
        <ele>1602</ele>
        <time>2019-08-03T09:46:39.000Z</time>
      </trkpt>
      <trkpt lat="44.09119" lon="6.96955">
        <ele>1604</ele>
        <time>2019-08-03T09:46:41.000Z</time>
      </trkpt>
      <trkpt lat="44.0912" lon="6.96936">
        <ele>1606</ele>
        <time>2019-08-03T09:46:43.000Z</time>
      </trkpt>
      <trkpt lat="44.09119" lon="6.96918">
        <ele>1606</ele>
        <time>2019-08-03T09:46:45.000Z</time>
      </trkpt>
      <trkpt lat="44.09118" lon="6.96901">
        <ele>1606</ele>
        <time>2019-08-03T09:46:47.000Z</time>
      </trkpt>
      <trkpt lat="44.09121" lon="6.96884">
        <ele>1607</ele>
        <time>2019-08-03T09:46:49.000Z</time>
      </trkpt>
      <trkpt lat="44.09125" lon="6.96869">
        <ele>1607</ele>
        <time>2019-08-03T09:46:51.000Z</time>
      </trkpt>
      <trkpt lat="44.09127" lon="6.96853">
        <ele>1608</ele>
        <time>2019-08-03T09:46:53.000Z</time>
      </trkpt>
      <trkpt lat="44.09128" lon="6.96839">
        <ele>1608</ele>
        <time>2019-08-03T09:46:55.000Z</time>
      </trkpt>
      <trkpt lat="44.09127" lon="6.96823">
        <ele>1609</ele>
        <time>2019-08-03T09:46:57.000Z</time>
      </trkpt>
      <trkpt lat="44.09126" lon="6.96806">
        <ele>1610</ele>
        <time>2019-08-03T09:46:59.000Z</time>
      </trkpt>
      <trkpt lat="44.09125" lon="6.96789">
        <ele>1610</ele>
        <time>2019-08-03T09:47:01.000Z</time>
      </trkpt>
      <trkpt lat="44.09123" lon="6.96772">
        <ele>1610</ele>
        <time>2019-08-03T09:47:06.000Z</time>
      </trkpt>
      <trkpt lat="44.09122" lon="6.96755">
        <ele>1611</ele>
        <time>2019-08-03T09:47:08.000Z</time>
      </trkpt>
      <trkpt lat="44.0912" lon="6.96738">
        <ele>1612</ele>
        <time>2019-08-03T09:47:11.000Z</time>
      </trkpt>
      <trkpt lat="44.09117" lon="6.96723">
        <ele>1614</ele>
        <time>2019-08-03T09:47:13.000Z</time>
      </trkpt>
      <trkpt lat="44.09114" lon="6.96708">
        <ele>1614</ele>
        <time>2019-08-03T09:47:15.000Z</time>
      </trkpt>
      <trkpt lat="44.09111" lon="6.96694">
        <ele>1615</ele>
        <time>2019-08-03T09:47:17.000Z</time>
      </trkpt>
      <trkpt lat="44.09103" lon="6.96681">
        <ele>1616</ele>
        <time>2019-08-03T09:47:19.000Z</time>
      </trkpt>
      <trkpt lat="44.09094" lon="6.96667">
        <ele>1616</ele>
        <time>2019-08-03T09:47:21.000Z</time>
      </trkpt>
      <trkpt lat="44.09088" lon="6.96652">
        <ele>1616</ele>
        <time>2019-08-03T09:47:27.000Z</time>
      </trkpt>
      <trkpt lat="44.09082" lon="6.96638">
        <ele>1617</ele>
        <time>2019-08-03T09:47:29.000Z</time>
      </trkpt>
      <trkpt lat="44.09078" lon="6.96622">
        <ele>1618</ele>
        <time>2019-08-03T09:47:34.000Z</time>
      </trkpt>
      <trkpt lat="44.09074" lon="6.96606">
        <ele>1618</ele>
        <time>2019-08-03T09:47:36.000Z</time>
      </trkpt>
      <trkpt lat="44.09071" lon="6.96592">
        <ele>1620</ele>
        <time>2019-08-03T09:47:38.000Z</time>
      </trkpt>
      <trkpt lat="44.09071" lon="6.96592">
        <ele>1620</ele>
        <time>2019-08-03T09:47:40.000Z</time>
      </trkpt>
      <trkpt lat="44.09071" lon="6.96592">
        <ele>1620</ele>
        <time>2019-08-03T09:47:42.000Z</time>
      </trkpt>
      <trkpt lat="44.09071" lon="6.96592">
        <ele>1620</ele>
        <time>2019-08-03T09:47:44.000Z</time>
      </trkpt>
      <trkpt lat="44.09071" lon="6.96592">
        <ele>1620</ele>
        <time>2019-08-03T09:47:46.000Z</time>
      </trkpt>
      <trkpt lat="44.09071" lon="6.96592">
        <ele>1620</ele>
        <time>2019-08-03T09:47:50.000Z</time>
      </trkpt>
      <trkpt lat="44.09071" lon="6.96592">
        <ele>1620</ele>
        <time>2019-08-03T09:47:52.000Z</time>
      </trkpt>
      <trkpt lat="44.09071" lon="6.96592">
        <ele>1620</ele>
        <time>2019-08-03T09:47:54.000Z</time>
      </trkpt>
      <trkpt lat="44.09071" lon="6.96592">
        <ele>1620</ele>
        <time>2019-08-03T09:47:56.000Z</time>
      </trkpt>
      <trkpt lat="44.09071" lon="6.96592">
        <ele>1620</ele>
        <time>2019-08-03T09:47:58.000Z</time>
      </trkpt>
      <trkpt lat="44.09071" lon="6.96592">
        <ele>1620</ele>
        <time>2019-08-03T09:48:00.000Z</time>
      </trkpt>
      <trkpt lat="44.09071" lon="6.96592">
        <ele>1620</ele>
        <time>2019-08-03T09:48:02.000Z</time>
      </trkpt>
      <trkpt lat="44.09097" lon="6.96438">
        <ele>1634</ele>
        <time>2019-08-03T09:48:05.000Z</time>
      </trkpt>
      <trkpt lat="44.09097" lon="6.96438">
        <ele>1634</ele>
        <time>2019-08-03T09:48:06.000Z</time>
      </trkpt>
      <trkpt lat="44.09097" lon="6.96438">
        <ele>1634</ele>
        <time>2019-08-03T09:48:08.000Z</time>
      </trkpt>
      <trkpt lat="44.09097" lon="6.96438">
        <ele>1634</ele>
        <time>2019-08-03T09:48:10.000Z</time>
      </trkpt>
      <trkpt lat="44.09097" lon="6.96438">
        <ele>1634</ele>
        <time>2019-08-03T09:48:12.000Z</time>
      </trkpt>
      <trkpt lat="44.09097" lon="6.96438">
        <ele>1634</ele>
        <time>2019-08-03T09:48:14.000Z</time>
      </trkpt>
      <trkpt lat="44.09097" lon="6.96438">
        <ele>1634</ele>
        <time>2019-08-03T09:48:16.000Z</time>
      </trkpt>
      <trkpt lat="44.09097" lon="6.96438">
        <ele>1634</ele>
        <time>2019-08-03T09:48:18.000Z</time>
      </trkpt>
      <trkpt lat="44.09097" lon="6.96438">
        <ele>1634</ele>
        <time>2019-08-03T09:48:20.000Z</time>
      </trkpt>
      <trkpt lat="44.09097" lon="6.96438">
        <ele>1634</ele>
        <time>2019-08-03T09:48:22.000Z</time>
      </trkpt>
      <trkpt lat="44.09097" lon="6.96438">
        <ele>1634</ele>
        <time>2019-08-03T09:48:24.000Z</time>
      </trkpt>
      <trkpt lat="44.09097" lon="6.96438">
        <ele>1634</ele>
        <time>2019-08-03T09:48:26.000Z</time>
      </trkpt>
      <trkpt lat="44.09097" lon="6.96438">
        <ele>1634</ele>
        <time>2019-08-03T09:48:28.000Z</time>
      </trkpt>
      <trkpt lat="44.09097" lon="6.96438">
        <ele>1634</ele>
        <time>2019-08-03T09:48:30.000Z</time>
      </trkpt>
      <trkpt lat="44.09165" lon="6.96441">
        <ele>1648</ele>
        <time>2019-08-03T09:48:32.000Z</time>
      </trkpt>
      <trkpt lat="44.09165" lon="6.96441">
        <ele>1648</ele>
        <time>2019-08-03T09:48:34.000Z</time>
      </trkpt>
      <trkpt lat="44.09165" lon="6.96441">
        <ele>1648</ele>
        <time>2019-08-03T09:48:36.000Z</time>
      </trkpt>
      <trkpt lat="44.09165" lon="6.96441">
        <ele>1648</ele>
        <time>2019-08-03T09:48:38.000Z</time>
      </trkpt>
      <trkpt lat="44.09165" lon="6.96441">
        <ele>1648</ele>
        <time>2019-08-03T09:48:40.000Z</time>
      </trkpt>
      <trkpt lat="44.09165" lon="6.96441">
        <ele>1648</ele>
        <time>2019-08-03T09:48:42.000Z</time>
      </trkpt>
      <trkpt lat="44.09165" lon="6.96441">
        <ele>1648</ele>
        <time>2019-08-03T09:48:44.000Z</time>
      </trkpt>
      <trkpt lat="44.09165" lon="6.96441">
        <ele>1648</ele>
        <time>2019-08-03T09:48:46.000Z</time>
      </trkpt>
      <trkpt lat="44.09153" lon="6.96473">
        <ele>1654</ele>
        <time>2019-08-03T09:48:48.000Z</time>
      </trkpt>
      <trkpt lat="44.09153" lon="6.96473">
        <ele>1654</ele>
        <time>2019-08-03T09:48:50.000Z</time>
      </trkpt>
      <trkpt lat="44.09153" lon="6.96473">
        <ele>1654</ele>
        <time>2019-08-03T09:48:52.000Z</time>
      </trkpt>
      <trkpt lat="44.09164" lon="6.96466">
        <ele>1657</ele>
        <time>2019-08-03T09:48:54.000Z</time>
      </trkpt>
      <trkpt lat="44.09164" lon="6.96466">
        <ele>1657</ele>
        <time>2019-08-03T09:48:56.000Z</time>
      </trkpt>
      <trkpt lat="44.09164" lon="6.96466">
        <ele>1657</ele>
        <time>2019-08-03T09:48:58.000Z</time>
      </trkpt>
      <trkpt lat="44.09164" lon="6.96466">
        <ele>1657</ele>
        <time>2019-08-03T09:49:02.000Z</time>
      </trkpt>
      <trkpt lat="44.09164" lon="6.96466">
        <ele>1657</ele>
        <time>2019-08-03T09:49:04.000Z</time>
      </trkpt>
      <trkpt lat="44.09164" lon="6.96466">
        <ele>1657</ele>
        <time>2019-08-03T09:49:06.000Z</time>
      </trkpt>
      <trkpt lat="44.09164" lon="6.96466">
        <ele>1657</ele>
        <time>2019-08-03T09:49:08.000Z</time>
      </trkpt>
      <trkpt lat="44.09164" lon="6.96466">
        <ele>1657</ele>
        <time>2019-08-03T09:49:10.000Z</time>
      </trkpt>
      <trkpt lat="44.09164" lon="6.96466">
        <ele>1657</ele>
        <time>2019-08-03T09:49:12.000Z</time>
      </trkpt>
      <trkpt lat="44.09184" lon="6.9646">
        <ele>1659</ele>
        <time>2019-08-03T09:49:14.000Z</time>
      </trkpt>
      <trkpt lat="44.09174" lon="6.96461">
        <ele>1657</ele>
        <time>2019-08-03T09:49:16.000Z</time>
      </trkpt>
      <trkpt lat="44.09156" lon="6.96469">
        <ele>1654</ele>
        <time>2019-08-03T09:49:18.000Z</time>
      </trkpt>
      <trkpt lat="44.09147" lon="6.96475">
        <ele>1653</ele>
        <time>2019-08-03T09:49:24.000Z</time>
      </trkpt>
      <trkpt lat="44.09138" lon="6.96496">
        <ele>1653</ele>
        <time>2019-08-03T09:49:26.000Z</time>
      </trkpt>
      <trkpt lat="44.09137" lon="6.96528">
        <ele>1654</ele>
        <time>2019-08-03T09:49:28.000Z</time>
      </trkpt>
      <trkpt lat="44.09139" lon="6.96546">
        <ele>1654</ele>
        <time>2019-08-03T09:49:34.000Z</time>
      </trkpt>
      <trkpt lat="44.09142" lon="6.96563">
        <ele>1654</ele>
        <time>2019-08-03T09:49:36.000Z</time>
      </trkpt>
      <trkpt lat="44.09146" lon="6.9658">
        <ele>1653</ele>
        <time>2019-08-03T09:49:55.000Z</time>
      </trkpt>
      <trkpt lat="44.0915" lon="6.96598">
        <ele>1653</ele>
        <time>2019-08-03T09:50:00.000Z</time>
      </trkpt>
      <trkpt lat="44.09156" lon="6.96614">
        <ele>1651</ele>
        <time>2019-08-03T09:50:02.000Z</time>
      </trkpt>
      <trkpt lat="44.09164" lon="6.9663">
        <ele>1651</ele>
        <time>2019-08-03T09:50:05.000Z</time>
      </trkpt>
      <trkpt lat="44.09171" lon="6.96648">
        <ele>1649</ele>
        <time>2019-08-03T09:50:06.000Z</time>
      </trkpt>
      <trkpt lat="44.09176" lon="6.96662">
        <ele>1649</ele>
        <time>2019-08-03T09:50:08.000Z</time>
      </trkpt>
      <trkpt lat="44.09181" lon="6.96677">
        <ele>1650</ele>
        <time>2019-08-03T09:50:10.000Z</time>
      </trkpt>
      <trkpt lat="44.09184" lon="6.96692">
        <ele>1649</ele>
        <time>2019-08-03T09:50:12.000Z</time>
      </trkpt>
      <trkpt lat="44.09188" lon="6.96707">
        <ele>1649</ele>
        <time>2019-08-03T09:50:14.000Z</time>
      </trkpt>
      <trkpt lat="44.09193" lon="6.9672">
        <ele>1648</ele>
        <time>2019-08-03T09:50:16.000Z</time>
      </trkpt>
      <trkpt lat="44.09198" lon="6.96733">
        <ele>1647</ele>
        <time>2019-08-03T09:50:18.000Z</time>
      </trkpt>
      <trkpt lat="44.09198" lon="6.96733">
        <ele>1647</ele>
        <time>2019-08-03T09:50:20.000Z</time>
      </trkpt>
      <trkpt lat="44.0921" lon="6.96781">
        <ele>1647</ele>
        <time>2019-08-03T09:50:24.000Z</time>
      </trkpt>
      <trkpt lat="44.09216" lon="6.96797">
        <ele>1646</ele>
        <time>2019-08-03T09:50:26.000Z</time>
      </trkpt>
      <trkpt lat="44.09223" lon="6.9681">
        <ele>1646</ele>
        <time>2019-08-03T09:50:28.000Z</time>
      </trkpt>
      <trkpt lat="44.09223" lon="6.9681">
        <ele>1646</ele>
        <time>2019-08-03T09:50:30.000Z</time>
      </trkpt>
      <trkpt lat="44.09223" lon="6.9681">
        <ele>1646</ele>
        <time>2019-08-03T09:50:32.000Z</time>
      </trkpt>
      <trkpt lat="44.09223" lon="6.9681">
        <ele>1646</ele>
        <time>2019-08-03T09:50:34.000Z</time>
      </trkpt>
      <trkpt lat="44.09223" lon="6.9681">
        <ele>1646</ele>
        <time>2019-08-03T09:50:36.000Z</time>
      </trkpt>
      <trkpt lat="44.09218" lon="6.96803">
        <ele>1648</ele>
        <time>2019-08-03T09:50:38.000Z</time>
      </trkpt>
      <trkpt lat="44.09202" lon="6.96751">
        <ele>1649</ele>
        <time>2019-08-03T09:50:40.000Z</time>
      </trkpt>
      <trkpt lat="44.09198" lon="6.96735">
        <ele>1649</ele>
        <time>2019-08-03T09:50:44.000Z</time>
      </trkpt>
      <trkpt lat="44.09193" lon="6.96719">
        <ele>1648</ele>
        <time>2019-08-03T09:50:46.000Z</time>
      </trkpt>
      <trkpt lat="44.09187" lon="6.96702">
        <ele>1648</ele>
        <time>2019-08-03T09:50:48.000Z</time>
      </trkpt>
      <trkpt lat="44.09183" lon="6.96687">
        <ele>1649</ele>
        <time>2019-08-03T09:50:50.000Z</time>
      </trkpt>
      <trkpt lat="44.09179" lon="6.9667">
        <ele>1650</ele>
        <time>2019-08-03T09:50:52.000Z</time>
      </trkpt>
      <trkpt lat="44.09174" lon="6.96654">
        <ele>1649</ele>
        <time>2019-08-03T09:50:54.000Z</time>
      </trkpt>
      <trkpt lat="44.09168" lon="6.96639">
        <ele>1649</ele>
        <time>2019-08-03T09:50:56.000Z</time>
      </trkpt>
      <trkpt lat="44.09163" lon="6.96624">
        <ele>1650</ele>
        <time>2019-08-03T09:50:58.000Z</time>
      </trkpt>
      <trkpt lat="44.09156" lon="6.96609">
        <ele>1650</ele>
        <time>2019-08-03T09:51:02.000Z</time>
      </trkpt>
      <trkpt lat="44.09152" lon="6.96595">
        <ele>1651</ele>
        <time>2019-08-03T09:51:04.000Z</time>
      </trkpt>
      <trkpt lat="44.09148" lon="6.96582">
        <ele>1651</ele>
        <time>2019-08-03T09:51:06.000Z</time>
      </trkpt>
      <trkpt lat="44.09148" lon="6.96582">
        <ele>1651</ele>
        <time>2019-08-03T09:51:08.000Z</time>
      </trkpt>
      <trkpt lat="44.09148" lon="6.96582">
        <ele>1651</ele>
        <time>2019-08-03T09:51:16.000Z</time>
      </trkpt>
      <trkpt lat="44.09148" lon="6.96582">
        <ele>1651</ele>
        <time>2019-08-03T09:51:18.000Z</time>
      </trkpt>
      <trkpt lat="44.09137" lon="6.96509">
        <ele>1652</ele>
        <time>2019-08-03T09:51:20.000Z</time>
      </trkpt>
      <trkpt lat="44.09139" lon="6.96494">
        <ele>1651</ele>
        <time>2019-08-03T09:51:22.000Z</time>
      </trkpt>
      <trkpt lat="44.09139" lon="6.9648">
        <ele>1650</ele>
        <time>2019-08-03T09:51:24.000Z</time>
      </trkpt>
      <trkpt lat="44.09143" lon="6.96466">
        <ele>1650</ele>
        <time>2019-08-03T09:51:28.000Z</time>
      </trkpt>
      <trkpt lat="44.09153" lon="6.96453">
        <ele>1650</ele>
        <time>2019-08-03T09:51:30.000Z</time>
      </trkpt>
      <trkpt lat="44.09163" lon="6.96443">
        <ele>1650</ele>
        <time>2019-08-03T09:51:32.000Z</time>
      </trkpt>
      <trkpt lat="44.09163" lon="6.96443">
        <ele>1650</ele>
        <time>2019-08-03T09:51:34.000Z</time>
      </trkpt>
      <trkpt lat="44.09163" lon="6.96443">
        <ele>1650</ele>
        <time>2019-08-03T09:51:36.000Z</time>
      </trkpt>
      <trkpt lat="44.09145" lon="6.96431">
        <ele>1646</ele>
        <time>2019-08-03T09:51:38.000Z</time>
      </trkpt>
      <trkpt lat="44.09128" lon="6.96433">
        <ele>1643</ele>
        <time>2019-08-03T09:54:07.000Z</time>
      </trkpt>
      <trkpt lat="44.09109" lon="6.96438">
        <ele>1639</ele>
        <time>2019-08-03T09:54:09.000Z</time>
      </trkpt>
      <trkpt lat="44.09109" lon="6.96438">
        <ele>1639</ele>
        <time>2019-08-03T09:54:11.000Z</time>
      </trkpt>
      <trkpt lat="44.09073" lon="6.96464">
        <ele>1635</ele>
        <time>2019-08-03T09:54:22.000Z</time>
      </trkpt>
      <trkpt lat="44.0907" lon="6.96481">
        <ele>1634</ele>
        <time>2019-08-03T09:54:34.000Z</time>
      </trkpt>
      <trkpt lat="44.09069" lon="6.96497">
        <ele>1633</ele>
        <time>2019-08-03T09:54:36.000Z</time>
      </trkpt>
      <trkpt lat="44.09069" lon="6.96524">
        <ele>1630</ele>
        <time>2019-08-03T09:54:48.000Z</time>
      </trkpt>
      <trkpt lat="44.09069" lon="6.96553">
        <ele>1628</ele>
        <time>2019-08-03T09:54:50.000Z</time>
      </trkpt>
      <trkpt lat="44.0907" lon="6.9658">
        <ele>1627</ele>
        <time>2019-08-03T09:54:52.000Z</time>
      </trkpt>
      <trkpt lat="44.09072" lon="6.96605">
        <ele>1624</ele>
        <time>2019-08-03T09:55:51.000Z</time>
      </trkpt>
      <trkpt lat="44.09078" lon="6.96631">
        <ele>1622</ele>
        <time>2019-08-03T09:55:53.000Z</time>
      </trkpt>
      <trkpt lat="44.09087" lon="6.96656">
        <ele>1620</ele>
        <time>2019-08-03T09:55:55.000Z</time>
      </trkpt>
      <trkpt lat="44.09096" lon="6.96676">
        <ele>1619</ele>
        <time>2019-08-03T09:55:57.000Z</time>
      </trkpt>
      <trkpt lat="44.09106" lon="6.96695">
        <ele>1619</ele>
        <time>2019-08-03T09:55:59.000Z</time>
      </trkpt>
      <trkpt lat="44.09113" lon="6.96716">
        <ele>1617</ele>
        <time>2019-08-03T09:56:01.000Z</time>
      </trkpt>
      <trkpt lat="44.09117" lon="6.96741">
        <ele>1616</ele>
        <time>2019-08-03T09:56:03.000Z</time>
      </trkpt>
      <trkpt lat="44.09119" lon="6.96768">
        <ele>1614</ele>
        <time>2019-08-03T09:56:06.000Z</time>
      </trkpt>
      <trkpt lat="44.09123" lon="6.96795">
        <ele>1613</ele>
        <time>2019-08-03T09:56:10.000Z</time>
      </trkpt>
      <trkpt lat="44.09126" lon="6.96824">
        <ele>1611</ele>
        <time>2019-08-03T09:56:14.000Z</time>
      </trkpt>
      <trkpt lat="44.09126" lon="6.9685">
        <ele>1607</ele>
        <time>2019-08-03T09:56:18.000Z</time>
      </trkpt>
      <trkpt lat="44.09125" lon="6.96873">
        <ele>1607</ele>
        <time>2019-08-03T09:56:20.000Z</time>
      </trkpt>
      <trkpt lat="44.09121" lon="6.96896">
        <ele>1606</ele>
        <time>2019-08-03T09:56:22.000Z</time>
      </trkpt>
      <trkpt lat="44.09121" lon="6.96919">
        <ele>1606</ele>
        <time>2019-08-03T09:56:24.000Z</time>
      </trkpt>
      <trkpt lat="44.09119" lon="6.96939">
        <ele>1605</ele>
        <time>2019-08-03T09:56:26.000Z</time>
      </trkpt>
      <trkpt lat="44.09116" lon="6.96957">
        <ele>1605</ele>
        <time>2019-08-03T09:56:28.000Z</time>
      </trkpt>
      <trkpt lat="44.09116" lon="6.96957">
        <ele>1605</ele>
        <time>2019-08-03T09:56:30.000Z</time>
      </trkpt>
      <trkpt lat="44.09116" lon="6.96957">
        <ele>1605</ele>
        <time>2019-08-03T09:56:32.000Z</time>
      </trkpt>
      <trkpt lat="44.09116" lon="6.96957">
        <ele>1605</ele>
        <time>2019-08-03T09:56:34.000Z</time>
      </trkpt>
      <trkpt lat="44.09116" lon="6.96957">
        <ele>1605</ele>
        <time>2019-08-03T09:56:36.000Z</time>
      </trkpt>
      <trkpt lat="44.09116" lon="6.96957">
        <ele>1605</ele>
        <time>2019-08-03T09:56:38.000Z</time>
      </trkpt>
      <trkpt lat="44.09116" lon="6.96957">
        <ele>1605</ele>
        <time>2019-08-03T09:56:42.000Z</time>
      </trkpt>
      <trkpt lat="44.09105" lon="6.96903">
        <ele>1601</ele>
        <time>2019-08-03T09:56:44.000Z</time>
      </trkpt>
      <trkpt lat="44.09105" lon="6.96903">
        <ele>1601</ele>
        <time>2019-08-03T09:56:46.000Z</time>
      </trkpt>
      <trkpt lat="44.09105" lon="6.96903">
        <ele>1601</ele>
        <time>2019-08-03T09:56:48.000Z</time>
      </trkpt>
      <trkpt lat="44.09105" lon="6.96903">
        <ele>1601</ele>
        <time>2019-08-03T10:04:14.000Z</time>
      </trkpt>
      <trkpt lat="44.09105" lon="6.96903">
        <ele>1601</ele>
        <time>2019-08-03T10:04:17.000Z</time>
      </trkpt>
      <trkpt lat="44.09105" lon="6.96903">
        <ele>1601</ele>
        <time>2019-08-03T10:04:19.000Z</time>
      </trkpt>
      <trkpt lat="44.09103" lon="6.96884">
        <ele>1601</ele>
        <time>2019-08-03T10:04:21.000Z</time>
      </trkpt>
      <trkpt lat="44.09102" lon="6.96911">
        <ele>1601</ele>
        <time>2019-08-03T10:04:25.000Z</time>
      </trkpt>
      <trkpt lat="44.091" lon="6.96925">
        <ele>1601</ele>
        <time>2019-08-03T10:04:29.000Z</time>
      </trkpt>
      <trkpt lat="44.09098" lon="6.96939">
        <ele>1602</ele>
        <time>2019-08-03T10:04:33.000Z</time>
      </trkpt>
      <trkpt lat="44.09094" lon="6.96951">
        <ele>1602</ele>
        <time>2019-08-03T10:04:35.000Z</time>
      </trkpt>
      <trkpt lat="44.09094" lon="6.96951">
        <ele>1602</ele>
        <time>2019-08-03T10:04:37.000Z</time>
      </trkpt>
      <trkpt lat="44.09094" lon="6.96951">
        <ele>1602</ele>
        <time>2019-08-03T10:04:41.000Z</time>
      </trkpt>
      <trkpt lat="44.0908" lon="6.96992">
        <ele>1602</ele>
        <time>2019-08-03T10:04:43.000Z</time>
      </trkpt>
      <trkpt lat="44.09079" lon="6.97013">
        <ele>1603</ele>
        <time>2019-08-03T10:04:45.000Z</time>
      </trkpt>
      <trkpt lat="44.09081" lon="6.97036">
        <ele>1604</ele>
        <time>2019-08-03T10:04:47.000Z</time>
      </trkpt>
      <trkpt lat="44.09081" lon="6.97036">
        <ele>1604</ele>
        <time>2019-08-03T10:04:49.000Z</time>
      </trkpt>
      <trkpt lat="44.09081" lon="6.97036">
        <ele>1604</ele>
        <time>2019-08-03T10:04:51.000Z</time>
      </trkpt>
      <trkpt lat="44.09081" lon="6.97036">
        <ele>1604</ele>
        <time>2019-08-03T10:04:53.000Z</time>
      </trkpt>
      <trkpt lat="44.09081" lon="6.97036">
        <ele>1604</ele>
        <time>2019-08-03T10:04:59.000Z</time>
      </trkpt>
      <trkpt lat="44.09081" lon="6.97036">
        <ele>1604</ele>
        <time>2019-08-03T10:05:03.000Z</time>
      </trkpt>
      <trkpt lat="44.09081" lon="6.97036">
        <ele>1604</ele>
        <time>2019-08-03T10:05:05.000Z</time>
      </trkpt>
      <trkpt lat="44.0905" lon="6.96998">
        <ele>1597</ele>
        <time>2019-08-03T10:05:07.000Z</time>
      </trkpt>
      <trkpt lat="44.09036" lon="6.96966">
        <ele>1595</ele>
        <time>2019-08-03T10:05:09.000Z</time>
      </trkpt>
      <trkpt lat="44.09029" lon="6.9695">
        <ele>1593</ele>
        <time>2019-08-03T10:05:15.000Z</time>
      </trkpt>
      <trkpt lat="44.09021" lon="6.96931">
        <ele>1592</ele>
        <time>2019-08-03T10:05:19.000Z</time>
      </trkpt>
      <trkpt lat="44.09013" lon="6.96911">
        <ele>1591</ele>
        <time>2019-08-03T10:05:21.000Z</time>
      </trkpt>
      <trkpt lat="44.09005" lon="6.96891">
        <ele>1591</ele>
        <time>2019-08-03T10:05:23.000Z</time>
      </trkpt>
      <trkpt lat="44.08996" lon="6.96872">
        <ele>1591</ele>
        <time>2019-08-03T10:05:25.000Z</time>
      </trkpt>
      <trkpt lat="44.08985" lon="6.96855">
        <ele>1591</ele>
        <time>2019-08-03T10:05:27.000Z</time>
      </trkpt>
      <trkpt lat="44.08971" lon="6.96833">
        <ele>1590</ele>
        <time>2019-08-03T10:05:29.000Z</time>
      </trkpt>
      <trkpt lat="44.08965" lon="6.9682">
        <ele>1591</ele>
        <time>2019-08-03T10:05:31.000Z</time>
      </trkpt>
      <trkpt lat="44.08955" lon="6.96802">
        <ele>1589</ele>
        <time>2019-08-03T10:05:33.000Z</time>
      </trkpt>
      <trkpt lat="44.08947" lon="6.96785">
        <ele>1589</ele>
        <time>2019-08-03T10:05:35.000Z</time>
      </trkpt>
      <trkpt lat="44.0894" lon="6.96769">
        <ele>1589</ele>
        <time>2019-08-03T10:05:37.000Z</time>
      </trkpt>
      <trkpt lat="44.08934" lon="6.96756">
        <ele>1589</ele>
        <time>2019-08-03T10:05:41.000Z</time>
      </trkpt>
      <trkpt lat="44.08929" lon="6.96744">
        <ele>1589</ele>
        <time>2019-08-03T10:05:43.000Z</time>
      </trkpt>
      <trkpt lat="44.08929" lon="6.96744">
        <ele>1589</ele>
        <time>2019-08-03T10:05:45.000Z</time>
      </trkpt>
      <trkpt lat="44.08929" lon="6.96744">
        <ele>1589</ele>
        <time>2019-08-03T10:05:47.000Z</time>
      </trkpt>
      <trkpt lat="44.08913" lon="6.96691">
        <ele>1590</ele>
        <time>2019-08-03T10:05:49.000Z</time>
      </trkpt>
      <trkpt lat="44.0891" lon="6.96672">
        <ele>1590</ele>
        <time>2019-08-03T10:05:51.000Z</time>
      </trkpt>
      <trkpt lat="44.08909" lon="6.96652">
        <ele>1590</ele>
        <time>2019-08-03T10:05:53.000Z</time>
      </trkpt>
      <trkpt lat="44.0891" lon="6.96634">
        <ele>1588</ele>
        <time>2019-08-03T10:05:55.000Z</time>
      </trkpt>
      <trkpt lat="44.08912" lon="6.96615">
        <ele>1588</ele>
        <time>2019-08-03T10:05:57.000Z</time>
      </trkpt>
      <trkpt lat="44.08912" lon="6.96596">
        <ele>1587</ele>
        <time>2019-08-03T10:05:59.000Z</time>
      </trkpt>
      <trkpt lat="44.08912" lon="6.96577">
        <ele>1587</ele>
        <time>2019-08-03T10:06:01.000Z</time>
      </trkpt>
      <trkpt lat="44.08912" lon="6.9656">
        <ele>1586</ele>
        <time>2019-08-03T10:06:07.000Z</time>
      </trkpt>
      <trkpt lat="44.08911" lon="6.96541">
        <ele>1587</ele>
        <time>2019-08-03T10:06:12.000Z</time>
      </trkpt>
      <trkpt lat="44.08904" lon="6.96525">
        <ele>1586</ele>
        <time>2019-08-03T10:06:15.000Z</time>
      </trkpt>
      <trkpt lat="44.08894" lon="6.96513">
        <ele>1585</ele>
        <time>2019-08-03T10:06:17.000Z</time>
      </trkpt>
      <trkpt lat="44.08881" lon="6.96505">
        <ele>1585</ele>
        <time>2019-08-03T10:06:19.000Z</time>
      </trkpt>
      <trkpt lat="44.08869" lon="6.96499">
        <ele>1585</ele>
        <time>2019-08-03T10:06:23.000Z</time>
      </trkpt>
      <trkpt lat="44.08856" lon="6.96495">
        <ele>1585</ele>
        <time>2019-08-03T10:06:25.000Z</time>
      </trkpt>
      <trkpt lat="44.08843" lon="6.9649">
        <ele>1585</ele>
        <time>2019-08-03T10:06:27.000Z</time>
      </trkpt>
      <trkpt lat="44.0883" lon="6.96487">
        <ele>1586</ele>
        <time>2019-08-03T10:06:31.000Z</time>
      </trkpt>
      <trkpt lat="44.08818" lon="6.96483">
        <ele>1586</ele>
        <time>2019-08-03T10:06:35.000Z</time>
      </trkpt>
      <trkpt lat="44.08805" lon="6.96479">
        <ele>1586</ele>
        <time>2019-08-03T10:06:39.000Z</time>
      </trkpt>
      <trkpt lat="44.08794" lon="6.96475">
        <ele>1586</ele>
        <time>2019-08-03T10:06:41.000Z</time>
      </trkpt>
      <trkpt lat="44.08781" lon="6.96471">
        <ele>1586</ele>
        <time>2019-08-03T10:06:43.000Z</time>
      </trkpt>
      <trkpt lat="44.0877" lon="6.96465">
        <ele>1586</ele>
        <time>2019-08-03T10:06:47.000Z</time>
      </trkpt>
      <trkpt lat="44.08761" lon="6.96458">
        <ele>1586</ele>
        <time>2019-08-03T10:06:51.000Z</time>
      </trkpt>
      <trkpt lat="44.08752" lon="6.9645">
        <ele>1585</ele>
        <time>2019-08-03T10:06:55.000Z</time>
      </trkpt>
      <trkpt lat="44.08741" lon="6.96443">
        <ele>1586</ele>
        <time>2019-08-03T10:06:57.000Z</time>
      </trkpt>
      <trkpt lat="44.08729" lon="6.96437">
        <ele>1586</ele>
        <time>2019-08-03T10:06:59.000Z</time>
      </trkpt>
      <trkpt lat="44.08717" lon="6.96431">
        <ele>1586</ele>
        <time>2019-08-03T10:07:11.000Z</time>
      </trkpt>
      <trkpt lat="44.08706" lon="6.96425">
        <ele>1586</ele>
        <time>2019-08-03T10:07:13.000Z</time>
      </trkpt>
      <trkpt lat="44.08694" lon="6.96417">
        <ele>1585</ele>
        <time>2019-08-03T10:07:15.000Z</time>
      </trkpt>
      <trkpt lat="44.08684" lon="6.96408">
        <ele>1584</ele>
        <time>2019-08-03T10:07:17.000Z</time>
      </trkpt>
      <trkpt lat="44.08673" lon="6.96398">
        <ele>1583</ele>
        <time>2019-08-03T10:07:19.000Z</time>
      </trkpt>
      <trkpt lat="44.08663" lon="6.96387">
        <ele>1583</ele>
        <time>2019-08-03T10:07:21.000Z</time>
      </trkpt>
      <trkpt lat="44.08654" lon="6.96378">
        <ele>1584</ele>
        <time>2019-08-03T10:07:25.000Z</time>
      </trkpt>
      <trkpt lat="44.08646" lon="6.9637">
        <ele>1585</ele>
        <time>2019-08-03T10:07:27.000Z</time>
      </trkpt>
      <trkpt lat="44.08646" lon="6.9637">
        <ele>1585</ele>
        <time>2019-08-03T10:07:29.000Z</time>
      </trkpt>
      <trkpt lat="44.08646" lon="6.9637">
        <ele>1585</ele>
        <time>2019-08-03T10:07:31.000Z</time>
      </trkpt>
      <trkpt lat="44.08646" lon="6.9637">
        <ele>1585</ele>
        <time>2019-08-03T10:07:33.000Z</time>
      </trkpt>
      <trkpt lat="44.08646" lon="6.9637">
        <ele>1585</ele>
        <time>2019-08-03T10:07:37.000Z</time>
      </trkpt>
      <trkpt lat="44.08646" lon="6.9637">
        <ele>1585</ele>
        <time>2019-08-03T10:07:41.000Z</time>
      </trkpt>
      <trkpt lat="44.08646" lon="6.9637">
        <ele>1585</ele>
        <time>2019-08-03T10:07:45.000Z</time>
      </trkpt>
      <trkpt lat="44.08646" lon="6.9637">
        <ele>1585</ele>
        <time>2019-08-03T10:07:49.000Z</time>
      </trkpt>
      <trkpt lat="44.08646" lon="6.9637">
        <ele>1585</ele>
        <time>2019-08-03T10:07:51.000Z</time>
      </trkpt>
      <trkpt lat="44.08646" lon="6.9637">
        <ele>1585</ele>
        <time>2019-08-03T10:07:53.000Z</time>
      </trkpt>
      <trkpt lat="44.08646" lon="6.9637">
        <ele>1585</ele>
        <time>2019-08-03T10:07:59.000Z</time>
      </trkpt>
      <trkpt lat="44.08646" lon="6.9637">
        <ele>1585</ele>
        <time>2019-08-03T10:08:01.000Z</time>
      </trkpt>
      <trkpt lat="44.08646" lon="6.9637">
        <ele>1585</ele>
        <time>2019-08-03T10:08:03.000Z</time>
      </trkpt>
      <trkpt lat="44.08533" lon="6.96293">
        <ele>1600</ele>
        <time>2019-08-03T10:08:07.000Z</time>
      </trkpt>
      <trkpt lat="44.08533" lon="6.96293">
        <ele>1600</ele>
        <time>2019-08-03T10:08:09.000Z</time>
      </trkpt>
      <trkpt lat="44.08533" lon="6.96293">
        <ele>1600</ele>
        <time>2019-08-03T10:08:12.000Z</time>
      </trkpt>
      <trkpt lat="44.08533" lon="6.96293">
        <ele>1600</ele>
        <time>2019-08-03T10:10:07.000Z</time>
      </trkpt>
      <trkpt lat="44.08533" lon="6.96293">
        <ele>1600</ele>
        <time>2019-08-03T10:10:10.000Z</time>
      </trkpt>
      <trkpt lat="44.08505" lon="6.96265">
        <ele>1612</ele>
        <time>2019-08-03T10:10:15.000Z</time>
      </trkpt>
      <trkpt lat="44.08505" lon="6.96265">
        <ele>1612</ele>
        <time>2019-08-03T10:10:17.000Z</time>
      </trkpt>
      <trkpt lat="44.08505" lon="6.96265">
        <ele>1612</ele>
        <time>2019-08-03T10:10:19.000Z</time>
      </trkpt>
      <trkpt lat="44.08505" lon="6.96265">
        <ele>1612</ele>
        <time>2019-08-03T10:10:23.000Z</time>
      </trkpt>
      <trkpt lat="44.08505" lon="6.96265">
        <ele>1612</ele>
        <time>2019-08-03T10:10:27.000Z</time>
      </trkpt>
      <trkpt lat="44.08505" lon="6.96265">
        <ele>1612</ele>
        <time>2019-08-03T10:10:31.000Z</time>
      </trkpt>
      <trkpt lat="44.08505" lon="6.96265">
        <ele>1612</ele>
        <time>2019-08-03T10:10:33.000Z</time>
      </trkpt>
      <trkpt lat="44.08505" lon="6.96265">
        <ele>1612</ele>
        <time>2019-08-03T10:10:35.000Z</time>
      </trkpt>
      <trkpt lat="44.08489" lon="6.96256">
        <ele>1615</ele>
        <time>2019-08-03T10:10:37.000Z</time>
      </trkpt>
      <trkpt lat="44.08497" lon="6.9626">
        <ele>1615</ele>
        <time>2019-08-03T10:10:39.000Z</time>
      </trkpt>
      <trkpt lat="44.08497" lon="6.9626">
        <ele>1615</ele>
        <time>2019-08-03T10:10:41.000Z</time>
      </trkpt>
      <trkpt lat="44.08488" lon="6.96255">
        <ele>1613</ele>
        <time>2019-08-03T10:10:43.000Z</time>
      </trkpt>
      <trkpt lat="44.08488" lon="6.96255">
        <ele>1613</ele>
        <time>2019-08-03T10:10:45.000Z</time>
      </trkpt>
      <trkpt lat="44.08488" lon="6.96255">
        <ele>1613</ele>
        <time>2019-08-03T10:10:49.000Z</time>
      </trkpt>
      <trkpt lat="44.08488" lon="6.96255">
        <ele>1613</ele>
        <time>2019-08-03T10:10:53.000Z</time>
      </trkpt>
      <trkpt lat="44.08473" lon="6.96242">
        <ele>1618</ele>
        <time>2019-08-03T10:10:55.000Z</time>
      </trkpt>
      <trkpt lat="44.08464" lon="6.96224">
        <ele>1617</ele>
        <time>2019-08-03T10:10:57.000Z</time>
      </trkpt>
      <trkpt lat="44.08464" lon="6.96224">
        <ele>1617</ele>
        <time>2019-08-03T10:10:59.000Z</time>
      </trkpt>
      <trkpt lat="44.08464" lon="6.96224">
        <ele>1617</ele>
        <time>2019-08-03T10:11:05.000Z</time>
      </trkpt>
      <trkpt lat="44.08454" lon="6.96195">
        <ele>1619</ele>
        <time>2019-08-03T10:11:09.000Z</time>
      </trkpt>
      <trkpt lat="44.08451" lon="6.96182">
        <ele>1620</ele>
        <time>2019-08-03T10:11:13.000Z</time>
      </trkpt>
      <trkpt lat="44.08449" lon="6.9617">
        <ele>1621</ele>
        <time>2019-08-03T10:11:17.000Z</time>
      </trkpt>
      <trkpt lat="44.08446" lon="6.96147">
        <ele>1625</ele>
        <time>2019-08-03T10:11:19.000Z</time>
      </trkpt>
      <trkpt lat="44.08446" lon="6.96147">
        <ele>1625</ele>
        <time>2019-08-03T10:11:23.000Z</time>
      </trkpt>
      <trkpt lat="44.08446" lon="6.96147">
        <ele>1625</ele>
        <time>2019-08-03T10:11:27.000Z</time>
      </trkpt>
      <trkpt lat="44.08446" lon="6.96147">
        <ele>1625</ele>
        <time>2019-08-03T10:11:29.000Z</time>
      </trkpt>
      <trkpt lat="44.08446" lon="6.96147">
        <ele>1625</ele>
        <time>2019-08-03T10:11:31.000Z</time>
      </trkpt>
      <trkpt lat="44.08446" lon="6.96147">
        <ele>1625</ele>
        <time>2019-08-03T10:11:33.000Z</time>
      </trkpt>
      <trkpt lat="44.08446" lon="6.96147">
        <ele>1625</ele>
        <time>2019-08-03T10:11:35.000Z</time>
      </trkpt>
      <trkpt lat="44.0846" lon="6.96126">
        <ele>1632</ele>
        <time>2019-08-03T10:11:37.000Z</time>
      </trkpt>
      <trkpt lat="44.08469" lon="6.96147">
        <ele>1630</ele>
        <time>2019-08-03T10:11:39.000Z</time>
      </trkpt>
      <trkpt lat="44.08487" lon="6.96153">
        <ele>1627</ele>
        <time>2019-08-03T10:11:41.000Z</time>
      </trkpt>
      <trkpt lat="44.08496" lon="6.96145">
        <ele>1627</ele>
        <time>2019-08-03T10:13:11.000Z</time>
      </trkpt>
      <trkpt lat="44.08496" lon="6.9613">
        <ele>1628</ele>
        <time>2019-08-03T10:13:13.000Z</time>
      </trkpt>
      <trkpt lat="44.08491" lon="6.96114">
        <ele>1627</ele>
        <time>2019-08-03T10:13:15.000Z</time>
      </trkpt>
      <trkpt lat="44.08486" lon="6.96093">
        <ele>1626</ele>
        <time>2019-08-03T10:13:19.000Z</time>
      </trkpt>
      <trkpt lat="44.08481" lon="6.96071">
        <ele>1624</ele>
        <time>2019-08-03T10:13:23.000Z</time>
      </trkpt>
      <trkpt lat="44.0848" lon="6.96049">
        <ele>1624</ele>
        <time>2019-08-03T10:13:27.000Z</time>
      </trkpt>
      <trkpt lat="44.08479" lon="6.96023">
        <ele>1622</ele>
        <time>2019-08-03T10:13:31.000Z</time>
      </trkpt>
      <trkpt lat="44.08473" lon="6.95998">
        <ele>1620</ele>
        <time>2019-08-03T10:13:33.000Z</time>
      </trkpt>
      <trkpt lat="44.08468" lon="6.9597">
        <ele>1620</ele>
        <time>2019-08-03T10:13:37.000Z</time>
      </trkpt>
      <trkpt lat="44.08461" lon="6.9594">
        <ele>1617</ele>
        <time>2019-08-03T10:13:39.000Z</time>
      </trkpt>
      <trkpt lat="44.08455" lon="6.95912">
        <ele>1616</ele>
        <time>2019-08-03T10:13:41.000Z</time>
      </trkpt>
      <trkpt lat="44.08448" lon="6.95884">
        <ele>1614</ele>
        <time>2019-08-03T10:13:43.000Z</time>
      </trkpt>
      <trkpt lat="44.08445" lon="6.95858">
        <ele>1612</ele>
        <time>2019-08-03T10:13:45.000Z</time>
      </trkpt>
      <trkpt lat="44.08442" lon="6.95837">
        <ele>1613</ele>
        <time>2019-08-03T10:13:47.000Z</time>
      </trkpt>
      <trkpt lat="44.0844" lon="6.95822">
        <ele>1611</ele>
        <time>2019-08-03T10:13:53.000Z</time>
      </trkpt>
      <trkpt lat="44.0844" lon="6.95822">
        <ele>1611</ele>
        <time>2019-08-03T10:13:55.000Z</time>
      </trkpt>
      <trkpt lat="44.08461" lon="6.95864">
        <ele>1612</ele>
        <time>2019-08-03T10:13:57.000Z</time>
      </trkpt>
      <trkpt lat="44.0847" lon="6.95886">
        <ele>1611</ele>
        <time>2019-08-03T10:13:59.000Z</time>
      </trkpt>
      <trkpt lat="44.08493" lon="6.95926">
        <ele>1601</ele>
        <time>2019-08-03T10:14:01.000Z</time>
      </trkpt>
      <trkpt lat="44.08505" lon="6.95956">
        <ele>1594</ele>
        <time>2019-08-03T10:14:03.000Z</time>
      </trkpt>
      <trkpt lat="44.08518" lon="6.95984">
        <ele>1593</ele>
        <time>2019-08-03T10:14:05.000Z</time>
      </trkpt>
      <trkpt lat="44.08532" lon="6.96012">
        <ele>1592</ele>
        <time>2019-08-03T10:14:07.000Z</time>
      </trkpt>
      <trkpt lat="44.08546" lon="6.96041">
        <ele>1590</ele>
        <time>2019-08-03T10:14:09.000Z</time>
      </trkpt>
      <trkpt lat="44.08559" lon="6.96066">
        <ele>1586</ele>
        <time>2019-08-03T10:14:12.000Z</time>
      </trkpt>
      <trkpt lat="44.08559" lon="6.96066">
        <ele>1586</ele>
        <time>2019-08-03T10:14:15.000Z</time>
      </trkpt>
      <trkpt lat="44.08559" lon="6.96066">
        <ele>1586</ele>
        <time>2019-08-03T10:14:19.000Z</time>
      </trkpt>
      <trkpt lat="44.08568" lon="6.96048">
        <ele>1583</ele>
        <time>2019-08-03T10:14:23.000Z</time>
      </trkpt>
      <trkpt lat="44.08564" lon="6.96028">
        <ele>1582</ele>
        <time>2019-08-03T10:14:27.000Z</time>
      </trkpt>
      <trkpt lat="44.08562" lon="6.96008">
        <ele>1583</ele>
        <time>2019-08-03T10:14:29.000Z</time>
      </trkpt>
      <trkpt lat="44.08559" lon="6.9599">
        <ele>1583</ele>
        <time>2019-08-03T10:14:31.000Z</time>
      </trkpt>
      <trkpt lat="44.08559" lon="6.9599">
        <ele>1583</ele>
        <time>2019-08-03T10:14:35.000Z</time>
      </trkpt>
      <trkpt lat="44.08559" lon="6.9599">
        <ele>1583</ele>
        <time>2019-08-03T10:14:37.000Z</time>
      </trkpt>
      <trkpt lat="44.08559" lon="6.9599">
        <ele>1583</ele>
        <time>2019-08-03T10:14:39.000Z</time>
      </trkpt>
      <trkpt lat="44.08549" lon="6.95918">
        <ele>1580</ele>
        <time>2019-08-03T10:14:41.000Z</time>
      </trkpt>
      <trkpt lat="44.08547" lon="6.95901">
        <ele>1580</ele>
        <time>2019-08-03T10:14:43.000Z</time>
      </trkpt>
      <trkpt lat="44.08545" lon="6.95883">
        <ele>1579</ele>
        <time>2019-08-03T10:14:45.000Z</time>
      </trkpt>
      <trkpt lat="44.08543" lon="6.95866">
        <ele>1579</ele>
        <time>2019-08-03T10:14:47.000Z</time>
      </trkpt>
      <trkpt lat="44.08542" lon="6.95848">
        <ele>1579</ele>
        <time>2019-08-03T10:14:49.000Z</time>
      </trkpt>
      <trkpt lat="44.08541" lon="6.9583">
        <ele>1577</ele>
        <time>2019-08-03T10:14:51.000Z</time>
      </trkpt>
      <trkpt lat="44.0854" lon="6.95813">
        <ele>1577</ele>
        <time>2019-08-03T10:14:53.000Z</time>
      </trkpt>
      <trkpt lat="44.08537" lon="6.95789">
        <ele>1575</ele>
        <time>2019-08-03T10:14:59.000Z</time>
      </trkpt>
      <trkpt lat="44.08533" lon="6.95776">
        <ele>1574</ele>
        <time>2019-08-03T10:15:01.000Z</time>
      </trkpt>
      <trkpt lat="44.08532" lon="6.95758">
        <ele>1573</ele>
        <time>2019-08-03T10:15:03.000Z</time>
      </trkpt>
      <trkpt lat="44.08529" lon="6.95742">
        <ele>1572</ele>
        <time>2019-08-03T10:15:05.000Z</time>
      </trkpt>
      <trkpt lat="44.08527" lon="6.95727">
        <ele>1572</ele>
        <time>2019-08-03T10:15:07.000Z</time>
      </trkpt>
      <trkpt lat="44.08524" lon="6.95712">
        <ele>1570</ele>
        <time>2019-08-03T10:15:09.000Z</time>
      </trkpt>
      <trkpt lat="44.08519" lon="6.95699">
        <ele>1569</ele>
        <time>2019-08-03T10:15:11.000Z</time>
      </trkpt>
      <trkpt lat="44.08513" lon="6.95687">
        <ele>1570</ele>
        <time>2019-08-03T10:15:13.000Z</time>
      </trkpt>
      <trkpt lat="44.08503" lon="6.95681">
        <ele>1570</ele>
        <time>2019-08-03T10:15:17.000Z</time>
      </trkpt>
      <trkpt lat="44.08491" lon="6.95678">
        <ele>1570</ele>
        <time>2019-08-03T10:15:19.000Z</time>
      </trkpt>
      <trkpt lat="44.0848" lon="6.95676">
        <ele>1570</ele>
        <time>2019-08-03T10:15:21.000Z</time>
      </trkpt>
      <trkpt lat="44.08468" lon="6.95672">
        <ele>1569</ele>
        <time>2019-08-03T10:15:23.000Z</time>
      </trkpt>
      <trkpt lat="44.08458" lon="6.95668">
        <ele>1568</ele>
        <time>2019-08-03T10:15:27.000Z</time>
      </trkpt>
      <trkpt lat="44.08458" lon="6.95668">
        <ele>1568</ele>
        <time>2019-08-03T10:15:29.000Z</time>
      </trkpt>
      <trkpt lat="44.08458" lon="6.95668">
        <ele>1568</ele>
        <time>2019-08-03T10:15:31.000Z</time>
      </trkpt>
      <trkpt lat="44.08458" lon="6.95668">
        <ele>1568</ele>
        <time>2019-08-03T10:15:33.000Z</time>
      </trkpt>
      <trkpt lat="44.08458" lon="6.95668">
        <ele>1568</ele>
        <time>2019-08-03T10:15:35.000Z</time>
      </trkpt>
      <trkpt lat="44.08458" lon="6.95668">
        <ele>1568</ele>
        <time>2019-08-03T10:15:37.000Z</time>
      </trkpt>
      <trkpt lat="44.08458" lon="6.95668">
        <ele>1568</ele>
        <time>2019-08-03T10:15:41.000Z</time>
      </trkpt>
      <trkpt lat="44.08458" lon="6.95668">
        <ele>1568</ele>
        <time>2019-08-03T10:15:43.000Z</time>
      </trkpt>
      <trkpt lat="44.08376" lon="6.95661">
        <ele>1564</ele>
        <time>2019-08-03T10:15:45.000Z</time>
      </trkpt>
      <trkpt lat="44.08366" lon="6.95659">
        <ele>1564</ele>
        <time>2019-08-03T10:15:51.000Z</time>
      </trkpt>
      <trkpt lat="44.08357" lon="6.95657">
        <ele>1563</ele>
        <time>2019-08-03T10:15:53.000Z</time>
      </trkpt>
      <trkpt lat="44.08346" lon="6.95651">
        <ele>1563</ele>
        <time>2019-08-03T10:15:55.000Z</time>
      </trkpt>
      <trkpt lat="44.08336" lon="6.95647">
        <ele>1562</ele>
        <time>2019-08-03T10:15:57.000Z</time>
      </trkpt>
      <trkpt lat="44.08325" lon="6.95643">
        <ele>1562</ele>
        <time>2019-08-03T10:15:59.000Z</time>
      </trkpt>
      <trkpt lat="44.08316" lon="6.95637">
        <ele>1561</ele>
        <time>2019-08-03T10:16:01.000Z</time>
      </trkpt>
      <trkpt lat="44.08316" lon="6.95637">
        <ele>1561</ele>
        <time>2019-08-03T10:16:03.000Z</time>
      </trkpt>
      <trkpt lat="44.08284" lon="6.95623">
        <ele>1559</ele>
        <time>2019-08-03T10:16:05.000Z</time>
      </trkpt>
      <trkpt lat="44.08273" lon="6.9562">
        <ele>1559</ele>
        <time>2019-08-03T10:16:07.000Z</time>
      </trkpt>
      <trkpt lat="44.08262" lon="6.9562">
        <ele>1559</ele>
        <time>2019-08-03T10:16:09.000Z</time>
      </trkpt>
      <trkpt lat="44.08262" lon="6.9562">
        <ele>1559</ele>
        <time>2019-08-03T10:16:12.000Z</time>
      </trkpt>
      <trkpt lat="44.08262" lon="6.9562">
        <ele>1559</ele>
        <time>2019-08-03T10:16:13.000Z</time>
      </trkpt>
      <trkpt lat="44.08262" lon="6.9562">
        <ele>1559</ele>
        <time>2019-08-03T10:16:21.000Z</time>
      </trkpt>
      <trkpt lat="44.08262" lon="6.9562">
        <ele>1559</ele>
        <time>2019-08-03T10:16:25.000Z</time>
      </trkpt>
      <trkpt lat="44.08262" lon="6.9562">
        <ele>1559</ele>
        <time>2019-08-03T10:16:29.000Z</time>
      </trkpt>
      <trkpt lat="44.08262" lon="6.9562">
        <ele>1559</ele>
        <time>2019-08-03T10:16:31.000Z</time>
      </trkpt>
      <trkpt lat="44.08262" lon="6.9562">
        <ele>1559</ele>
        <time>2019-08-03T10:16:33.000Z</time>
      </trkpt>
      <trkpt lat="44.08262" lon="6.9562">
        <ele>1559</ele>
        <time>2019-08-03T10:16:37.000Z</time>
      </trkpt>
      <trkpt lat="44.08262" lon="6.9562">
        <ele>1559</ele>
        <time>2019-08-03T10:16:41.000Z</time>
      </trkpt>
      <trkpt lat="44.08262" lon="6.9562">
        <ele>1559</ele>
        <time>2019-08-03T10:16:43.000Z</time>
      </trkpt>
      <trkpt lat="44.08262" lon="6.9562">
        <ele>1559</ele>
        <time>2019-08-03T10:16:45.000Z</time>
      </trkpt>
      <trkpt lat="44.08201" lon="6.95603">
        <ele>1552</ele>
        <time>2019-08-03T10:16:47.000Z</time>
      </trkpt>
      <trkpt lat="44.08168" lon="6.95601">
        <ele>1549</ele>
        <time>2019-08-03T10:16:49.000Z</time>
      </trkpt>
      <trkpt lat="44.08155" lon="6.95606">
        <ele>1549</ele>
        <time>2019-08-03T10:16:53.000Z</time>
      </trkpt>
      <trkpt lat="44.08139" lon="6.95611">
        <ele>1549</ele>
        <time>2019-08-03T10:16:57.000Z</time>
      </trkpt>
      <trkpt lat="44.08139" lon="6.95611">
        <ele>1549</ele>
        <time>2019-08-03T10:16:59.000Z</time>
      </trkpt>
      <trkpt lat="44.0812" lon="6.95616">
        <ele>1548</ele>
        <time>2019-08-03T10:17:01.000Z</time>
      </trkpt>
      <trkpt lat="44.08109" lon="6.95619">
        <ele>1548</ele>
        <time>2019-08-03T10:17:03.000Z</time>
      </trkpt>
      <trkpt lat="44.08099" lon="6.95624">
        <ele>1549</ele>
        <time>2019-08-03T10:17:07.000Z</time>
      </trkpt>
      <trkpt lat="44.08089" lon="6.95626">
        <ele>1548</ele>
        <time>2019-08-03T10:17:09.000Z</time>
      </trkpt>
      <trkpt lat="44.08089" lon="6.95626">
        <ele>1548</ele>
        <time>2019-08-03T10:17:11.000Z</time>
      </trkpt>
      <trkpt lat="44.08089" lon="6.95626">
        <ele>1548</ele>
        <time>2019-08-03T10:17:13.000Z</time>
      </trkpt>
      <trkpt lat="44.08089" lon="6.95626">
        <ele>1548</ele>
        <time>2019-08-03T10:17:15.000Z</time>
      </trkpt>
      <trkpt lat="44.08089" lon="6.95626">
        <ele>1548</ele>
        <time>2019-08-03T10:17:17.000Z</time>
      </trkpt>
      <trkpt lat="44.08089" lon="6.95626">
        <ele>1548</ele>
        <time>2019-08-03T10:17:21.000Z</time>
      </trkpt>
      <trkpt lat="44.08089" lon="6.95626">
        <ele>1548</ele>
        <time>2019-08-03T10:17:25.000Z</time>
      </trkpt>
      <trkpt lat="44.08089" lon="6.95626">
        <ele>1548</ele>
        <time>2019-08-03T10:17:29.000Z</time>
      </trkpt>
      <trkpt lat="44.08089" lon="6.95626">
        <ele>1548</ele>
        <time>2019-08-03T10:17:31.000Z</time>
      </trkpt>
      <trkpt lat="44.08089" lon="6.95626">
        <ele>1548</ele>
        <time>2019-08-03T10:17:33.000Z</time>
      </trkpt>
      <trkpt lat="44.08089" lon="6.95626">
        <ele>1548</ele>
        <time>2019-08-03T10:17:35.000Z</time>
      </trkpt>
      <trkpt lat="44.08089" lon="6.95626">
        <ele>1548</ele>
        <time>2019-08-03T10:17:41.000Z</time>
      </trkpt>
      <trkpt lat="44.08089" lon="6.95626">
        <ele>1548</ele>
        <time>2019-08-03T10:17:43.000Z</time>
      </trkpt>
      <trkpt lat="44.07975" lon="6.95609">
        <ele>1569</ele>
        <time>2019-08-03T10:17:45.000Z</time>
      </trkpt>
      <trkpt lat="44.07975" lon="6.95609">
        <ele>1569</ele>
        <time>2019-08-03T10:17:49.000Z</time>
      </trkpt>
      <trkpt lat="44.07975" lon="6.95609">
        <ele>1569</ele>
        <time>2019-08-03T10:17:53.000Z</time>
      </trkpt>
      <trkpt lat="44.07975" lon="6.95609">
        <ele>1569</ele>
        <time>2019-08-03T10:17:57.000Z</time>
      </trkpt>
      <trkpt lat="44.07975" lon="6.95609">
        <ele>1569</ele>
        <time>2019-08-03T10:17:59.000Z</time>
      </trkpt>
      <trkpt lat="44.07975" lon="6.95609">
        <ele>1569</ele>
        <time>2019-08-03T10:18:01.000Z</time>
      </trkpt>
      <trkpt lat="44.07975" lon="6.95609">
        <ele>1569</ele>
        <time>2019-08-03T10:18:03.000Z</time>
      </trkpt>
      <trkpt lat="44.07975" lon="6.95609">
        <ele>1569</ele>
        <time>2019-08-03T10:18:07.000Z</time>
      </trkpt>
      <trkpt lat="44.07929" lon="6.95615">
        <ele>1581</ele>
        <time>2019-08-03T10:18:09.000Z</time>
      </trkpt>
      <trkpt lat="44.07929" lon="6.95615">
        <ele>1581</ele>
        <time>2019-08-03T10:18:13.000Z</time>
      </trkpt>
      <trkpt lat="44.07929" lon="6.95615">
        <ele>1581</ele>
        <time>2019-08-03T10:18:16.000Z</time>
      </trkpt>
      <trkpt lat="44.07929" lon="6.95615">
        <ele>1581</ele>
        <time>2019-08-03T10:18:18.000Z</time>
      </trkpt>
      <trkpt lat="44.07929" lon="6.95615">
        <ele>1581</ele>
        <time>2019-08-03T10:18:20.000Z</time>
      </trkpt>
      <trkpt lat="44.07929" lon="6.95615">
        <ele>1581</ele>
        <time>2019-08-03T10:18:22.000Z</time>
      </trkpt>
      <trkpt lat="44.07929" lon="6.95615">
        <ele>1581</ele>
        <time>2019-08-03T10:18:32.000Z</time>
      </trkpt>
      <trkpt lat="44.07929" lon="6.95615">
        <ele>1581</ele>
        <time>2019-08-03T10:18:34.000Z</time>
      </trkpt>
      <trkpt lat="44.07929" lon="6.95615">
        <ele>1581</ele>
        <time>2019-08-03T10:18:36.000Z</time>
      </trkpt>
      <trkpt lat="44.07905" lon="6.95609">
        <ele>1592</ele>
        <time>2019-08-03T10:18:38.000Z</time>
      </trkpt>
      <trkpt lat="44.07891" lon="6.95605">
        <ele>1593</ele>
        <time>2019-08-03T10:18:40.000Z</time>
      </trkpt>
      <trkpt lat="44.07883" lon="6.95602">
        <ele>1594</ele>
        <time>2019-08-03T10:18:42.000Z</time>
      </trkpt>
      <trkpt lat="44.07883" lon="6.95602">
        <ele>1594</ele>
        <time>2019-08-03T10:18:44.000Z</time>
      </trkpt>
      <trkpt lat="44.07883" lon="6.95602">
        <ele>1594</ele>
        <time>2019-08-03T10:18:46.000Z</time>
      </trkpt>
      <trkpt lat="44.07883" lon="6.95602">
        <ele>1594</ele>
        <time>2019-08-03T10:18:48.000Z</time>
      </trkpt>
      <trkpt lat="44.07863" lon="6.95575">
        <ele>1603</ele>
        <time>2019-08-03T10:18:50.000Z</time>
      </trkpt>
      <trkpt lat="44.07863" lon="6.95575">
        <ele>1603</ele>
        <time>2019-08-03T10:18:52.000Z</time>
      </trkpt>
      <trkpt lat="44.07863" lon="6.95575">
        <ele>1603</ele>
        <time>2019-08-03T10:18:54.000Z</time>
      </trkpt>
      <trkpt lat="44.07857" lon="6.95567">
        <ele>1606</ele>
        <time>2019-08-03T10:18:58.000Z</time>
      </trkpt>
      <trkpt lat="44.07857" lon="6.95567">
        <ele>1606</ele>
        <time>2019-08-03T10:19:00.000Z</time>
      </trkpt>
      <trkpt lat="44.07857" lon="6.95567">
        <ele>1606</ele>
        <time>2019-08-03T10:19:02.000Z</time>
      </trkpt>
      <trkpt lat="44.07854" lon="6.9555">
        <ele>1611</ele>
        <time>2019-08-03T10:19:04.000Z</time>
      </trkpt>
      <trkpt lat="44.07854" lon="6.9555">
        <ele>1611</ele>
        <time>2019-08-03T10:19:37.000Z</time>
      </trkpt>
      <trkpt lat="44.07854" lon="6.9555">
        <ele>1611</ele>
        <time>2019-08-03T10:19:39.000Z</time>
      </trkpt>
      <trkpt lat="44.07837" lon="6.95515">
        <ele>1617</ele>
        <time>2019-08-03T10:19:41.000Z</time>
      </trkpt>
      <trkpt lat="44.07837" lon="6.95515">
        <ele>1617</ele>
        <time>2019-08-03T10:20:54.000Z</time>
      </trkpt>
      <trkpt lat="44.07837" lon="6.95515">
        <ele>1617</ele>
        <time>2019-08-03T10:20:58.000Z</time>
      </trkpt>
      <trkpt lat="44.07837" lon="6.95515">
        <ele>1617</ele>
        <time>2019-08-03T10:21:02.000Z</time>
      </trkpt>
      <trkpt lat="44.07837" lon="6.95515">
        <ele>1617</ele>
        <time>2019-08-03T10:21:04.000Z</time>
      </trkpt>
      <trkpt lat="44.07837" lon="6.95515">
        <ele>1617</ele>
        <time>2019-08-03T10:21:06.000Z</time>
      </trkpt>
      <trkpt lat="44.07837" lon="6.95515">
        <ele>1617</ele>
        <time>2019-08-03T10:21:08.000Z</time>
      </trkpt>
      <trkpt lat="44.07825" lon="6.95473">
        <ele>1628</ele>
        <time>2019-08-03T10:21:10.000Z</time>
      </trkpt>
      <trkpt lat="44.07823" lon="6.95458">
        <ele>1630</ele>
        <time>2019-08-03T10:21:12.000Z</time>
      </trkpt>
      <trkpt lat="44.07819" lon="6.95442">
        <ele>1633</ele>
        <time>2019-08-03T10:21:14.000Z</time>
      </trkpt>
      <trkpt lat="44.07815" lon="6.95426">
        <ele>1634</ele>
        <time>2019-08-03T10:21:16.000Z</time>
      </trkpt>
      <trkpt lat="44.07815" lon="6.95426">
        <ele>1634</ele>
        <time>2019-08-03T10:21:18.000Z</time>
      </trkpt>
      <trkpt lat="44.07815" lon="6.95426">
        <ele>1634</ele>
        <time>2019-08-03T10:21:20.000Z</time>
      </trkpt>
      <trkpt lat="44.07815" lon="6.95426">
        <ele>1634</ele>
        <time>2019-08-03T10:21:22.000Z</time>
      </trkpt>
      <trkpt lat="44.07815" lon="6.95426">
        <ele>1634</ele>
        <time>2019-08-03T10:21:24.000Z</time>
      </trkpt>
      <trkpt lat="44.07815" lon="6.95426">
        <ele>1634</ele>
        <time>2019-08-03T10:21:26.000Z</time>
      </trkpt>
      <trkpt lat="44.07815" lon="6.95426">
        <ele>1634</ele>
        <time>2019-08-03T10:21:28.000Z</time>
      </trkpt>
      <trkpt lat="44.07815" lon="6.95426">
        <ele>1634</ele>
        <time>2019-08-03T10:21:30.000Z</time>
      </trkpt>
      <trkpt lat="44.07815" lon="6.95426">
        <ele>1634</ele>
        <time>2019-08-03T10:21:34.000Z</time>
      </trkpt>
      <trkpt lat="44.07815" lon="6.95426">
        <ele>1634</ele>
        <time>2019-08-03T10:21:36.000Z</time>
      </trkpt>
      <trkpt lat="44.07815" lon="6.95426">
        <ele>1634</ele>
        <time>2019-08-03T10:21:38.000Z</time>
      </trkpt>
      <trkpt lat="44.07811" lon="6.95349">
        <ele>1645</ele>
        <time>2019-08-03T10:21:40.000Z</time>
      </trkpt>
      <trkpt lat="44.07811" lon="6.95349">
        <ele>1645</ele>
        <time>2019-08-03T10:21:42.000Z</time>
      </trkpt>
      <trkpt lat="44.07811" lon="6.95349">
        <ele>1645</ele>
        <time>2019-08-03T10:21:44.000Z</time>
      </trkpt>
      <trkpt lat="44.07811" lon="6.95349">
        <ele>1645</ele>
        <time>2019-08-03T10:21:46.000Z</time>
      </trkpt>
      <trkpt lat="44.07828" lon="6.95317">
        <ele>1655</ele>
        <time>2019-08-03T10:21:52.000Z</time>
      </trkpt>
      <trkpt lat="44.07828" lon="6.95317">
        <ele>1655</ele>
        <time>2019-08-03T10:21:55.000Z</time>
      </trkpt>
      <trkpt lat="44.07828" lon="6.95317">
        <ele>1655</ele>
        <time>2019-08-03T10:21:59.000Z</time>
      </trkpt>
      <trkpt lat="44.07828" lon="6.95317">
        <ele>1655</ele>
        <time>2019-08-03T10:22:01.000Z</time>
      </trkpt>
      <trkpt lat="44.07829" lon="6.95268">
        <ele>1656</ele>
        <time>2019-08-03T10:22:03.000Z</time>
      </trkpt>
      <trkpt lat="44.07817" lon="6.95257">
        <ele>1657</ele>
        <time>2019-08-03T10:22:05.000Z</time>
      </trkpt>
      <trkpt lat="44.07803" lon="6.95246">
        <ele>1657</ele>
        <time>2019-08-03T10:22:07.000Z</time>
      </trkpt>
      <trkpt lat="44.07795" lon="6.95238">
        <ele>1658</ele>
        <time>2019-08-03T10:22:09.000Z</time>
      </trkpt>
      <trkpt lat="44.07786" lon="6.95232">
        <ele>1659</ele>
        <time>2019-08-03T10:22:12.000Z</time>
      </trkpt>
      <trkpt lat="44.07771" lon="6.95219">
        <ele>1662</ele>
        <time>2019-08-03T10:22:13.000Z</time>
      </trkpt>
      <trkpt lat="44.07771" lon="6.95219">
        <ele>1662</ele>
        <time>2019-08-03T10:22:15.000Z</time>
      </trkpt>
      <trkpt lat="44.07771" lon="6.95219">
        <ele>1662</ele>
        <time>2019-08-03T10:22:17.000Z</time>
      </trkpt>
      <trkpt lat="44.07771" lon="6.95219">
        <ele>1662</ele>
        <time>2019-08-03T10:22:19.000Z</time>
      </trkpt>
      <trkpt lat="44.07771" lon="6.95219">
        <ele>1662</ele>
        <time>2019-08-03T10:22:21.000Z</time>
      </trkpt>
      <trkpt lat="44.07771" lon="6.95219">
        <ele>1662</ele>
        <time>2019-08-03T10:22:23.000Z</time>
      </trkpt>
      <trkpt lat="44.07771" lon="6.95219">
        <ele>1662</ele>
        <time>2019-08-03T10:22:25.000Z</time>
      </trkpt>
      <trkpt lat="44.07711" lon="6.95177">
        <ele>1672</ele>
        <time>2019-08-03T10:22:27.000Z</time>
      </trkpt>
      <trkpt lat="44.077" lon="6.95161">
        <ele>1674</ele>
        <time>2019-08-03T10:22:29.000Z</time>
      </trkpt>
      <trkpt lat="44.077" lon="6.95161">
        <ele>1674</ele>
        <time>2019-08-03T10:22:31.000Z</time>
      </trkpt>
      <trkpt lat="44.077" lon="6.95161">
        <ele>1674</ele>
        <time>2019-08-03T10:22:33.000Z</time>
      </trkpt>
      <trkpt lat="44.077" lon="6.95161">
        <ele>1674</ele>
        <time>2019-08-03T10:22:35.000Z</time>
      </trkpt>
      <trkpt lat="44.07671" lon="6.95116">
        <ele>1674</ele>
        <time>2019-08-03T10:22:37.000Z</time>
      </trkpt>
      <trkpt lat="44.07656" lon="6.95111">
        <ele>1676</ele>
        <time>2019-08-03T10:22:39.000Z</time>
      </trkpt>
      <trkpt lat="44.07656" lon="6.95111">
        <ele>1676</ele>
        <time>2019-08-03T10:22:41.000Z</time>
      </trkpt>
      <trkpt lat="44.07656" lon="6.95111">
        <ele>1676</ele>
        <time>2019-08-03T10:22:43.000Z</time>
      </trkpt>
      <trkpt lat="44.07656" lon="6.95111">
        <ele>1676</ele>
        <time>2019-08-03T10:22:45.000Z</time>
      </trkpt>
      <trkpt lat="44.07656" lon="6.95111">
        <ele>1676</ele>
        <time>2019-08-03T10:22:47.000Z</time>
      </trkpt>
      <trkpt lat="44.07656" lon="6.95111">
        <ele>1676</ele>
        <time>2019-08-03T10:22:49.000Z</time>
      </trkpt>
      <trkpt lat="44.07656" lon="6.95111">
        <ele>1676</ele>
        <time>2019-08-03T10:22:51.000Z</time>
      </trkpt>
      <trkpt lat="44.07656" lon="6.95111">
        <ele>1676</ele>
        <time>2019-08-03T10:22:53.000Z</time>
      </trkpt>
      <trkpt lat="44.07656" lon="6.95111">
        <ele>1676</ele>
        <time>2019-08-03T10:22:55.000Z</time>
      </trkpt>
      <trkpt lat="44.07656" lon="6.95111">
        <ele>1676</ele>
        <time>2019-08-03T10:22:57.000Z</time>
      </trkpt>
      <trkpt lat="44.07624" lon="6.95104">
        <ele>1691</ele>
        <time>2019-08-03T10:22:59.000Z</time>
      </trkpt>
      <trkpt lat="44.07606" lon="6.95101">
        <ele>1689</ele>
        <time>2019-08-03T10:23:01.000Z</time>
      </trkpt>
      <trkpt lat="44.07594" lon="6.95101">
        <ele>1691</ele>
        <time>2019-08-03T10:23:03.000Z</time>
      </trkpt>
      <trkpt lat="44.07585" lon="6.95101">
        <ele>1692</ele>
        <time>2019-08-03T10:23:48.000Z</time>
      </trkpt>
      <trkpt lat="44.07578" lon="6.95101">
        <ele>1693</ele>
        <time>2019-08-03T10:23:55.000Z</time>
      </trkpt>
      <trkpt lat="44.07565" lon="6.95101">
        <ele>1695</ele>
        <time>2019-08-03T10:23:57.000Z</time>
      </trkpt>
      <trkpt lat="44.07565" lon="6.95101">
        <ele>1695</ele>
        <time>2019-08-03T10:23:59.000Z</time>
      </trkpt>
      <trkpt lat="44.07565" lon="6.95101">
        <ele>1695</ele>
        <time>2019-08-03T10:24:01.000Z</time>
      </trkpt>
      <trkpt lat="44.07565" lon="6.95101">
        <ele>1695</ele>
        <time>2019-08-03T10:24:03.000Z</time>
      </trkpt>
      <trkpt lat="44.07565" lon="6.95101">
        <ele>1695</ele>
        <time>2019-08-03T10:24:05.000Z</time>
      </trkpt>
      <trkpt lat="44.07565" lon="6.95101">
        <ele>1695</ele>
        <time>2019-08-03T10:24:07.000Z</time>
      </trkpt>
      <trkpt lat="44.07528" lon="6.95088">
        <ele>1705</ele>
        <time>2019-08-03T10:24:09.000Z</time>
      </trkpt>
      <trkpt lat="44.07516" lon="6.95082">
        <ele>1707</ele>
        <time>2019-08-03T10:24:12.000Z</time>
      </trkpt>
      <trkpt lat="44.07516" lon="6.95082">
        <ele>1707</ele>
        <time>2019-08-03T10:24:13.000Z</time>
      </trkpt>
      <trkpt lat="44.07516" lon="6.95082">
        <ele>1707</ele>
        <time>2019-08-03T10:24:15.000Z</time>
      </trkpt>
      <trkpt lat="44.07498" lon="6.9507">
        <ele>1712</ele>
        <time>2019-08-03T10:24:17.000Z</time>
      </trkpt>
      <trkpt lat="44.07488" lon="6.95066">
        <ele>1716</ele>
        <time>2019-08-03T10:24:19.000Z</time>
      </trkpt>
      <trkpt lat="44.07488" lon="6.95066">
        <ele>1716</ele>
        <time>2019-08-03T10:24:21.000Z</time>
      </trkpt>
      <trkpt lat="44.07488" lon="6.95066">
        <ele>1716</ele>
        <time>2019-08-03T10:24:23.000Z</time>
      </trkpt>
      <trkpt lat="44.07466" lon="6.95068">
        <ele>1721</ele>
        <time>2019-08-03T10:24:25.000Z</time>
      </trkpt>
      <trkpt lat="44.07457" lon="6.95074">
        <ele>1723</ele>
        <time>2019-08-03T10:24:27.000Z</time>
      </trkpt>
      <trkpt lat="44.07457" lon="6.95074">
        <ele>1723</ele>
        <time>2019-08-03T10:24:29.000Z</time>
      </trkpt>
      <trkpt lat="44.07457" lon="6.95074">
        <ele>1723</ele>
        <time>2019-08-03T10:24:31.000Z</time>
      </trkpt>
      <trkpt lat="44.07457" lon="6.95074">
        <ele>1723</ele>
        <time>2019-08-03T10:24:33.000Z</time>
      </trkpt>
      <trkpt lat="44.07426" lon="6.95083">
        <ele>1732</ele>
        <time>2019-08-03T10:24:35.000Z</time>
      </trkpt>
      <trkpt lat="44.07413" lon="6.95082">
        <ele>1733</ele>
        <time>2019-08-03T10:24:37.000Z</time>
      </trkpt>
      <trkpt lat="44.07413" lon="6.95082">
        <ele>1733</ele>
        <time>2019-08-03T10:24:39.000Z</time>
      </trkpt>
      <trkpt lat="44.07413" lon="6.95082">
        <ele>1733</ele>
        <time>2019-08-03T10:24:41.000Z</time>
      </trkpt>
      <trkpt lat="44.07413" lon="6.95082">
        <ele>1733</ele>
        <time>2019-08-03T10:24:43.000Z</time>
      </trkpt>
      <trkpt lat="44.07394" lon="6.9506">
        <ele>1742</ele>
        <time>2019-08-03T10:24:45.000Z</time>
      </trkpt>
      <trkpt lat="44.07384" lon="6.95044">
        <ele>1743</ele>
        <time>2019-08-03T10:24:47.000Z</time>
      </trkpt>
      <trkpt lat="44.07377" lon="6.95033">
        <ele>1745</ele>
        <time>2019-08-03T10:24:49.000Z</time>
      </trkpt>
      <trkpt lat="44.07373" lon="6.95023">
        <ele>1746</ele>
        <time>2019-08-03T10:24:51.000Z</time>
      </trkpt>
      <trkpt lat="44.07369" lon="6.95015">
        <ele>1746</ele>
        <time>2019-08-03T10:24:53.000Z</time>
      </trkpt>
      <trkpt lat="44.07363" lon="6.94998">
        <ele>1746</ele>
        <time>2019-08-03T10:24:55.000Z</time>
      </trkpt>
      <trkpt lat="44.07358" lon="6.94982">
        <ele>1747</ele>
        <time>2019-08-03T10:24:57.000Z</time>
      </trkpt>
      <trkpt lat="44.07358" lon="6.94982">
        <ele>1747</ele>
        <time>2019-08-03T10:24:59.000Z</time>
      </trkpt>
      <trkpt lat="44.07358" lon="6.94982">
        <ele>1747</ele>
        <time>2019-08-03T10:25:01.000Z</time>
      </trkpt>
      <trkpt lat="44.07358" lon="6.94982">
        <ele>1747</ele>
        <time>2019-08-03T10:25:03.000Z</time>
      </trkpt>
      <trkpt lat="44.07358" lon="6.94982">
        <ele>1747</ele>
        <time>2019-08-03T10:25:05.000Z</time>
      </trkpt>
      <trkpt lat="44.07344" lon="6.94945">
        <ele>1749</ele>
        <time>2019-08-03T10:25:07.000Z</time>
      </trkpt>
      <trkpt lat="44.07338" lon="6.94933">
        <ele>1750</ele>
        <time>2019-08-03T10:25:09.000Z</time>
      </trkpt>
      <trkpt lat="44.0733" lon="6.94923">
        <ele>1751</ele>
        <time>2019-08-03T10:25:11.000Z</time>
      </trkpt>
      <trkpt lat="44.07321" lon="6.94915">
        <ele>1751</ele>
        <time>2019-08-03T10:25:13.000Z</time>
      </trkpt>
      <trkpt lat="44.07321" lon="6.94915">
        <ele>1751</ele>
        <time>2019-08-03T10:25:15.000Z</time>
      </trkpt>
      <trkpt lat="44.07321" lon="6.94915">
        <ele>1751</ele>
        <time>2019-08-03T10:25:17.000Z</time>
      </trkpt>
      <trkpt lat="44.07301" lon="6.94891">
        <ele>1753</ele>
        <time>2019-08-03T10:25:19.000Z</time>
      </trkpt>
      <trkpt lat="44.07301" lon="6.94891">
        <ele>1753</ele>
        <time>2019-08-03T10:25:21.000Z</time>
      </trkpt>
      <trkpt lat="44.07301" lon="6.94891">
        <ele>1753</ele>
        <time>2019-08-03T10:25:39.000Z</time>
      </trkpt>
      <trkpt lat="44.07301" lon="6.94891">
        <ele>1753</ele>
        <time>2019-08-03T10:25:45.000Z</time>
      </trkpt>
      <trkpt lat="44.07301" lon="6.94891">
        <ele>1753</ele>
        <time>2019-08-03T10:25:47.000Z</time>
      </trkpt>
      <trkpt lat="44.07301" lon="6.94891">
        <ele>1753</ele>
        <time>2019-08-03T10:25:49.000Z</time>
      </trkpt>
      <trkpt lat="44.07282" lon="6.94854">
        <ele>1754</ele>
        <time>2019-08-03T10:25:51.000Z</time>
      </trkpt>
      <trkpt lat="44.07282" lon="6.94854">
        <ele>1754</ele>
        <time>2019-08-03T10:25:53.000Z</time>
      </trkpt>
      <trkpt lat="44.07282" lon="6.94854">
        <ele>1754</ele>
        <time>2019-08-03T10:25:55.000Z</time>
      </trkpt>
      <trkpt lat="44.07282" lon="6.94854">
        <ele>1754</ele>
        <time>2019-08-03T10:25:57.000Z</time>
      </trkpt>
      <trkpt lat="44.07282" lon="6.94854">
        <ele>1754</ele>
        <time>2019-08-03T10:25:59.000Z</time>
      </trkpt>
      <trkpt lat="44.07251" lon="6.94794">
        <ele>1763</ele>
        <time>2019-08-03T10:26:01.000Z</time>
      </trkpt>
      <trkpt lat="44.07243" lon="6.94775">
        <ele>1764</ele>
        <time>2019-08-03T10:26:03.000Z</time>
      </trkpt>
      <trkpt lat="44.07234" lon="6.9476">
        <ele>1766</ele>
        <time>2019-08-03T10:26:05.000Z</time>
      </trkpt>
      <trkpt lat="44.07234" lon="6.9476">
        <ele>1766</ele>
        <time>2019-08-03T10:26:07.000Z</time>
      </trkpt>
      <trkpt lat="44.07234" lon="6.9476">
        <ele>1766</ele>
        <time>2019-08-03T10:26:09.000Z</time>
      </trkpt>
      <trkpt lat="44.07234" lon="6.9476">
        <ele>1766</ele>
        <time>2019-08-03T10:26:12.000Z</time>
      </trkpt>
      <trkpt lat="44.07234" lon="6.9476">
        <ele>1766</ele>
        <time>2019-08-03T10:26:13.000Z</time>
      </trkpt>
      <trkpt lat="44.07234" lon="6.9476">
        <ele>1766</ele>
        <time>2019-08-03T10:26:15.000Z</time>
      </trkpt>
      <trkpt lat="44.07234" lon="6.9476">
        <ele>1766</ele>
        <time>2019-08-03T10:26:17.000Z</time>
      </trkpt>
      <trkpt lat="44.07234" lon="6.9476">
        <ele>1766</ele>
        <time>2019-08-03T10:26:19.000Z</time>
      </trkpt>
      <trkpt lat="44.07198" lon="6.94701">
        <ele>1774</ele>
        <time>2019-08-03T10:26:21.000Z</time>
      </trkpt>
      <trkpt lat="44.0719" lon="6.94691">
        <ele>1779</ele>
        <time>2019-08-03T10:26:23.000Z</time>
      </trkpt>
      <trkpt lat="44.0719" lon="6.94691">
        <ele>1779</ele>
        <time>2019-08-03T10:26:25.000Z</time>
      </trkpt>
      <trkpt lat="44.0719" lon="6.94691">
        <ele>1779</ele>
        <time>2019-08-03T10:26:27.000Z</time>
      </trkpt>
      <trkpt lat="44.0719" lon="6.94691">
        <ele>1779</ele>
        <time>2019-08-03T10:26:29.000Z</time>
      </trkpt>
      <trkpt lat="44.07169" lon="6.94669">
        <ele>1790</ele>
        <time>2019-08-03T10:26:31.000Z</time>
      </trkpt>
      <trkpt lat="44.07162" lon="6.94659">
        <ele>1793</ele>
        <time>2019-08-03T10:26:33.000Z</time>
      </trkpt>
      <trkpt lat="44.07155" lon="6.94648">
        <ele>1792</ele>
        <time>2019-08-03T10:26:35.000Z</time>
      </trkpt>
      <trkpt lat="44.07155" lon="6.94648">
        <ele>1792</ele>
        <time>2019-08-03T10:26:37.000Z</time>
      </trkpt>
      <trkpt lat="44.07155" lon="6.94648">
        <ele>1792</ele>
        <time>2019-08-03T10:26:39.000Z</time>
      </trkpt>
      <trkpt lat="44.07136" lon="6.94632">
        <ele>1797</ele>
        <time>2019-08-03T10:26:41.000Z</time>
      </trkpt>
      <trkpt lat="44.07136" lon="6.94632">
        <ele>1797</ele>
        <time>2019-08-03T10:26:43.000Z</time>
      </trkpt>
      <trkpt lat="44.07136" lon="6.94632">
        <ele>1797</ele>
        <time>2019-08-03T10:26:45.000Z</time>
      </trkpt>
      <trkpt lat="44.07136" lon="6.94632">
        <ele>1797</ele>
        <time>2019-08-03T10:26:47.000Z</time>
      </trkpt>
      <trkpt lat="44.07136" lon="6.94632">
        <ele>1797</ele>
        <time>2019-08-03T10:26:49.000Z</time>
      </trkpt>
      <trkpt lat="44.07136" lon="6.94632">
        <ele>1797</ele>
        <time>2019-08-03T10:26:51.000Z</time>
      </trkpt>
      <trkpt lat="44.07136" lon="6.94632">
        <ele>1797</ele>
        <time>2019-08-03T10:26:53.000Z</time>
      </trkpt>
      <trkpt lat="44.07136" lon="6.94632">
        <ele>1797</ele>
        <time>2019-08-03T10:26:55.000Z</time>
      </trkpt>
      <trkpt lat="44.07136" lon="6.94632">
        <ele>1797</ele>
        <time>2019-08-03T10:26:57.000Z</time>
      </trkpt>
      <trkpt lat="44.07097" lon="6.94606">
        <ele>1806</ele>
        <time>2019-08-03T10:27:18.000Z</time>
      </trkpt>
      <trkpt lat="44.07097" lon="6.94606">
        <ele>1806</ele>
        <time>2019-08-03T10:27:26.000Z</time>
      </trkpt>
      <trkpt lat="44.07097" lon="6.94606">
        <ele>1806</ele>
        <time>2019-08-03T10:27:30.000Z</time>
      </trkpt>
      <trkpt lat="44.07076" lon="6.94613">
        <ele>1809</ele>
        <time>2019-08-03T10:27:34.000Z</time>
      </trkpt>
      <trkpt lat="44.07065" lon="6.94614">
        <ele>1808</ele>
        <time>2019-08-03T10:27:36.000Z</time>
      </trkpt>
      <trkpt lat="44.07052" lon="6.94618">
        <ele>1808</ele>
        <time>2019-08-03T10:27:38.000Z</time>
      </trkpt>
      <trkpt lat="44.07035" lon="6.9462">
        <ele>1812</ele>
        <time>2019-08-03T10:27:40.000Z</time>
      </trkpt>
      <trkpt lat="44.07026" lon="6.9462">
        <ele>1814</ele>
        <time>2019-08-03T10:27:42.000Z</time>
      </trkpt>
      <trkpt lat="44.0701" lon="6.9462">
        <ele>1817</ele>
        <time>2019-08-03T10:27:44.000Z</time>
      </trkpt>
      <trkpt lat="44.0701" lon="6.9462">
        <ele>1817</ele>
        <time>2019-08-03T10:27:46.000Z</time>
      </trkpt>
      <trkpt lat="44.0701" lon="6.9462">
        <ele>1817</ele>
        <time>2019-08-03T10:27:48.000Z</time>
      </trkpt>
      <trkpt lat="44.0701" lon="6.9462">
        <ele>1817</ele>
        <time>2019-08-03T10:27:50.000Z</time>
      </trkpt>
      <trkpt lat="44.0701" lon="6.9462">
        <ele>1817</ele>
        <time>2019-08-03T10:27:52.000Z</time>
      </trkpt>
      <trkpt lat="44.0701" lon="6.9462">
        <ele>1817</ele>
        <time>2019-08-03T10:27:54.000Z</time>
      </trkpt>
      <trkpt lat="44.06957" lon="6.94599">
        <ele>1824</ele>
        <time>2019-08-03T10:27:56.000Z</time>
      </trkpt>
      <trkpt lat="44.06957" lon="6.94599">
        <ele>1824</ele>
        <time>2019-08-03T10:27:58.000Z</time>
      </trkpt>
      <trkpt lat="44.06948" lon="6.94585">
        <ele>1824</ele>
        <time>2019-08-03T10:28:00.000Z</time>
      </trkpt>
      <trkpt lat="44.06948" lon="6.94585">
        <ele>1824</ele>
        <time>2019-08-03T10:28:02.000Z</time>
      </trkpt>
      <trkpt lat="44.06948" lon="6.94585">
        <ele>1824</ele>
        <time>2019-08-03T10:28:04.000Z</time>
      </trkpt>
      <trkpt lat="44.06948" lon="6.94585">
        <ele>1824</ele>
        <time>2019-08-03T10:28:06.000Z</time>
      </trkpt>
      <trkpt lat="44.06948" lon="6.94585">
        <ele>1824</ele>
        <time>2019-08-03T10:28:08.000Z</time>
      </trkpt>
      <trkpt lat="44.06948" lon="6.94585">
        <ele>1824</ele>
        <time>2019-08-03T10:28:10.000Z</time>
      </trkpt>
      <trkpt lat="44.06948" lon="6.94585">
        <ele>1824</ele>
        <time>2019-08-03T10:28:12.000Z</time>
      </trkpt>
      <trkpt lat="44.06925" lon="6.94531">
        <ele>1829</ele>
        <time>2019-08-03T10:28:13.000Z</time>
      </trkpt>
      <trkpt lat="44.06922" lon="6.94513">
        <ele>1829</ele>
        <time>2019-08-03T10:28:19.000Z</time>
      </trkpt>
      <trkpt lat="44.06922" lon="6.9449">
        <ele>1831</ele>
        <time>2019-08-03T10:28:23.000Z</time>
      </trkpt>
      <trkpt lat="44.06922" lon="6.94467">
        <ele>1832</ele>
        <time>2019-08-03T10:28:25.000Z</time>
      </trkpt>
      <trkpt lat="44.06923" lon="6.94444">
        <ele>1833</ele>
        <time>2019-08-03T10:28:27.000Z</time>
      </trkpt>
      <trkpt lat="44.06923" lon="6.94444">
        <ele>1833</ele>
        <time>2019-08-03T10:28:29.000Z</time>
      </trkpt>
      <trkpt lat="44.06924" lon="6.94421">
        <ele>1835</ele>
        <time>2019-08-03T10:28:31.000Z</time>
      </trkpt>
      <trkpt lat="44.06925" lon="6.94397">
        <ele>1836</ele>
        <time>2019-08-03T10:28:35.000Z</time>
      </trkpt>
      <trkpt lat="44.06925" lon="6.94397">
        <ele>1836</ele>
        <time>2019-08-03T10:28:37.000Z</time>
      </trkpt>
      <trkpt lat="44.06925" lon="6.94397">
        <ele>1836</ele>
        <time>2019-08-03T10:28:39.000Z</time>
      </trkpt>
      <trkpt lat="44.06925" lon="6.94397">
        <ele>1836</ele>
        <time>2019-08-03T10:28:43.000Z</time>
      </trkpt>
      <trkpt lat="44.06925" lon="6.94397">
        <ele>1836</ele>
        <time>2019-08-03T10:28:47.000Z</time>
      </trkpt>
      <trkpt lat="44.06925" lon="6.94397">
        <ele>1836</ele>
        <time>2019-08-03T10:28:51.000Z</time>
      </trkpt>
      <trkpt lat="44.06925" lon="6.94397">
        <ele>1836</ele>
        <time>2019-08-03T10:28:55.000Z</time>
      </trkpt>
      <trkpt lat="44.06925" lon="6.94397">
        <ele>1836</ele>
        <time>2019-08-03T10:28:57.000Z</time>
      </trkpt>
      <trkpt lat="44.06925" lon="6.94397">
        <ele>1836</ele>
        <time>2019-08-03T10:28:59.000Z</time>
      </trkpt>
      <trkpt lat="44.06925" lon="6.94397">
        <ele>1836</ele>
        <time>2019-08-03T10:29:01.000Z</time>
      </trkpt>
      <trkpt lat="44.06923" lon="6.94342">
        <ele>1849</ele>
        <time>2019-08-03T10:29:03.000Z</time>
      </trkpt>
      <trkpt lat="44.06923" lon="6.9431">
        <ele>1849</ele>
        <time>2019-08-03T10:29:05.000Z</time>
      </trkpt>
      <trkpt lat="44.06923" lon="6.94291">
        <ele>1850</ele>
        <time>2019-08-03T10:29:07.000Z</time>
      </trkpt>
      <trkpt lat="44.06923" lon="6.94291">
        <ele>1850</ele>
        <time>2019-08-03T10:29:09.000Z</time>
      </trkpt>
      <trkpt lat="44.06923" lon="6.94291">
        <ele>1850</ele>
        <time>2019-08-03T10:29:11.000Z</time>
      </trkpt>
      <trkpt lat="44.06923" lon="6.94291">
        <ele>1850</ele>
        <time>2019-08-03T10:29:13.000Z</time>
      </trkpt>
      <trkpt lat="44.06923" lon="6.94291">
        <ele>1850</ele>
        <time>2019-08-03T10:29:15.000Z</time>
      </trkpt>
      <trkpt lat="44.06923" lon="6.94291">
        <ele>1850</ele>
        <time>2019-08-03T10:29:17.000Z</time>
      </trkpt>
      <trkpt lat="44.06927" lon="6.94252">
        <ele>1857</ele>
        <time>2019-08-03T10:29:30.000Z</time>
      </trkpt>
      <trkpt lat="44.0693" lon="6.9423">
        <ele>1857</ele>
        <time>2019-08-03T10:29:34.000Z</time>
      </trkpt>
      <trkpt lat="44.0693" lon="6.9423">
        <ele>1857</ele>
        <time>2019-08-03T10:29:38.000Z</time>
      </trkpt>
      <trkpt lat="44.0693" lon="6.9423">
        <ele>1857</ele>
        <time>2019-08-03T10:29:40.000Z</time>
      </trkpt>
      <trkpt lat="44.06936" lon="6.94204">
        <ele>1862</ele>
        <time>2019-08-03T10:29:42.000Z</time>
      </trkpt>
      <trkpt lat="44.06941" lon="6.94187">
        <ele>1863</ele>
        <time>2019-08-03T10:29:44.000Z</time>
      </trkpt>
      <trkpt lat="44.06946" lon="6.94174">
        <ele>1865</ele>
        <time>2019-08-03T10:29:46.000Z</time>
      </trkpt>
      <trkpt lat="44.0695" lon="6.94162">
        <ele>1866</ele>
        <time>2019-08-03T10:29:48.000Z</time>
      </trkpt>
      <trkpt lat="44.06954" lon="6.94149">
        <ele>1867</ele>
        <time>2019-08-03T10:29:50.000Z</time>
      </trkpt>
      <trkpt lat="44.06961" lon="6.94124">
        <ele>1867</ele>
        <time>2019-08-03T10:29:52.000Z</time>
      </trkpt>
      <trkpt lat="44.06966" lon="6.94101">
        <ele>1868</ele>
        <time>2019-08-03T10:30:20.000Z</time>
      </trkpt>
      <trkpt lat="44.06969" lon="6.94089">
        <ele>1868</ele>
        <time>2019-08-03T10:30:24.000Z</time>
      </trkpt>
      <trkpt lat="44.06973" lon="6.94078">
        <ele>1868</ele>
        <time>2019-08-03T10:30:26.000Z</time>
      </trkpt>
      <trkpt lat="44.06973" lon="6.94078">
        <ele>1868</ele>
        <time>2019-08-03T10:30:28.000Z</time>
      </trkpt>
      <trkpt lat="44.06973" lon="6.94078">
        <ele>1868</ele>
        <time>2019-08-03T10:30:30.000Z</time>
      </trkpt>
      <trkpt lat="44.06973" lon="6.94078">
        <ele>1868</ele>
        <time>2019-08-03T10:30:32.000Z</time>
      </trkpt>
      <trkpt lat="44.06973" lon="6.94078">
        <ele>1868</ele>
        <time>2019-08-03T10:30:34.000Z</time>
      </trkpt>
      <trkpt lat="44.06973" lon="6.94078">
        <ele>1868</ele>
        <time>2019-08-03T10:30:36.000Z</time>
      </trkpt>
      <trkpt lat="44.06973" lon="6.94078">
        <ele>1868</ele>
        <time>2019-08-03T10:30:38.000Z</time>
      </trkpt>
      <trkpt lat="44.06973" lon="6.94078">
        <ele>1868</ele>
        <time>2019-08-03T10:30:40.000Z</time>
      </trkpt>
      <trkpt lat="44.06973" lon="6.94078">
        <ele>1868</ele>
        <time>2019-08-03T10:30:46.000Z</time>
      </trkpt>
      <trkpt lat="44.06973" lon="6.94078">
        <ele>1868</ele>
        <time>2019-08-03T10:30:48.000Z</time>
      </trkpt>
      <trkpt lat="44.06973" lon="6.94078">
        <ele>1868</ele>
        <time>2019-08-03T10:30:50.000Z</time>
      </trkpt>
      <trkpt lat="44.06973" lon="6.94078">
        <ele>1868</ele>
        <time>2019-08-03T10:30:52.000Z</time>
      </trkpt>
      <trkpt lat="44.06973" lon="6.94078">
        <ele>1868</ele>
        <time>2019-08-03T10:30:54.000Z</time>
      </trkpt>
      <trkpt lat="44.06973" lon="6.94078">
        <ele>1868</ele>
        <time>2019-08-03T10:30:56.000Z</time>
      </trkpt>
      <trkpt lat="44.07066" lon="6.94005">
        <ele>1889</ele>
        <time>2019-08-03T10:30:58.000Z</time>
      </trkpt>
      <trkpt lat="44.07075" lon="6.94007">
        <ele>1891</ele>
        <time>2019-08-03T10:31:00.000Z</time>
      </trkpt>
      <trkpt lat="44.07075" lon="6.94007">
        <ele>1891</ele>
        <time>2019-08-03T10:31:02.000Z</time>
      </trkpt>
      <trkpt lat="44.07086" lon="6.94011">
        <ele>1893</ele>
        <time>2019-08-03T10:31:04.000Z</time>
      </trkpt>
      <trkpt lat="44.07097" lon="6.94016">
        <ele>1894</ele>
        <time>2019-08-03T10:31:08.000Z</time>
      </trkpt>
      <trkpt lat="44.07107" lon="6.94022">
        <ele>1896</ele>
        <time>2019-08-03T10:31:10.000Z</time>
      </trkpt>
      <trkpt lat="44.07107" lon="6.94022">
        <ele>1896</ele>
        <time>2019-08-03T10:31:12.000Z</time>
      </trkpt>
      <trkpt lat="44.07107" lon="6.94022">
        <ele>1896</ele>
        <time>2019-08-03T10:31:14.000Z</time>
      </trkpt>
      <trkpt lat="44.07107" lon="6.94022">
        <ele>1896</ele>
        <time>2019-08-03T10:31:16.000Z</time>
      </trkpt>
      <trkpt lat="44.07124" lon="6.94043">
        <ele>1898</ele>
        <time>2019-08-03T10:31:18.000Z</time>
      </trkpt>
      <trkpt lat="44.0713" lon="6.94058">
        <ele>1899</ele>
        <time>2019-08-03T10:31:20.000Z</time>
      </trkpt>
      <trkpt lat="44.07134" lon="6.94073">
        <ele>1900</ele>
        <time>2019-08-03T10:31:22.000Z</time>
      </trkpt>
      <trkpt lat="44.07134" lon="6.94073">
        <ele>1900</ele>
        <time>2019-08-03T10:31:24.000Z</time>
      </trkpt>
      <trkpt lat="44.07134" lon="6.94073">
        <ele>1900</ele>
        <time>2019-08-03T10:31:26.000Z</time>
      </trkpt>
      <trkpt lat="44.07134" lon="6.94073">
        <ele>1900</ele>
        <time>2019-08-03T10:31:28.000Z</time>
      </trkpt>
      <trkpt lat="44.07137" lon="6.94093">
        <ele>1904</ele>
        <time>2019-08-03T10:31:30.000Z</time>
      </trkpt>
      <trkpt lat="44.0714" lon="6.94106">
        <ele>1903</ele>
        <time>2019-08-03T10:31:32.000Z</time>
      </trkpt>
      <trkpt lat="44.07142" lon="6.94118">
        <ele>1907</ele>
        <time>2019-08-03T10:31:34.000Z</time>
      </trkpt>
      <trkpt lat="44.07145" lon="6.94128">
        <ele>1907</ele>
        <time>2019-08-03T10:31:36.000Z</time>
      </trkpt>
      <trkpt lat="44.07147" lon="6.94136">
        <ele>1909</ele>
        <time>2019-08-03T10:31:38.000Z</time>
      </trkpt>
      <trkpt lat="44.07153" lon="6.94154">
        <ele>1909</ele>
        <time>2019-08-03T10:31:40.000Z</time>
      </trkpt>
      <trkpt lat="44.0716" lon="6.94169">
        <ele>1911</ele>
        <time>2019-08-03T10:31:42.000Z</time>
      </trkpt>
      <trkpt lat="44.07171" lon="6.94182">
        <ele>1913</ele>
        <time>2019-08-03T10:31:44.000Z</time>
      </trkpt>
      <trkpt lat="44.07183" lon="6.9419">
        <ele>1913</ele>
        <time>2019-08-03T10:31:46.000Z</time>
      </trkpt>
      <trkpt lat="44.07183" lon="6.9419">
        <ele>1913</ele>
        <time>2019-08-03T10:31:50.000Z</time>
      </trkpt>
      <trkpt lat="44.07183" lon="6.9419">
        <ele>1913</ele>
        <time>2019-08-03T10:31:54.000Z</time>
      </trkpt>
      <trkpt lat="44.07183" lon="6.9419">
        <ele>1913</ele>
        <time>2019-08-03T10:32:00.000Z</time>
      </trkpt>
      <trkpt lat="44.07222" lon="6.94199">
        <ele>1913</ele>
        <time>2019-08-03T10:32:02.000Z</time>
      </trkpt>
      <trkpt lat="44.07222" lon="6.94199">
        <ele>1913</ele>
        <time>2019-08-03T10:32:04.000Z</time>
      </trkpt>
      <trkpt lat="44.07235" lon="6.94194">
        <ele>1914</ele>
        <time>2019-08-03T10:32:06.000Z</time>
      </trkpt>
      <trkpt lat="44.07248" lon="6.94187">
        <ele>1917</ele>
        <time>2019-08-03T10:32:08.000Z</time>
      </trkpt>
      <trkpt lat="44.07262" lon="6.9418">
        <ele>1918</ele>
        <time>2019-08-03T10:32:10.000Z</time>
      </trkpt>
      <trkpt lat="44.07276" lon="6.94172">
        <ele>1918</ele>
        <time>2019-08-03T10:32:13.000Z</time>
      </trkpt>
      <trkpt lat="44.07276" lon="6.94172">
        <ele>1918</ele>
        <time>2019-08-03T10:32:17.000Z</time>
      </trkpt>
      <trkpt lat="44.07276" lon="6.94172">
        <ele>1918</ele>
        <time>2019-08-03T10:32:21.000Z</time>
      </trkpt>
      <trkpt lat="44.07276" lon="6.94172">
        <ele>1918</ele>
        <time>2019-08-03T10:32:23.000Z</time>
      </trkpt>
      <trkpt lat="44.0731" lon="6.94152">
        <ele>1921</ele>
        <time>2019-08-03T10:32:25.000Z</time>
      </trkpt>
      <trkpt lat="44.07319" lon="6.94145">
        <ele>1922</ele>
        <time>2019-08-03T10:32:27.000Z</time>
      </trkpt>
      <trkpt lat="44.07334" lon="6.9413">
        <ele>1924</ele>
        <time>2019-08-03T10:32:29.000Z</time>
      </trkpt>
      <trkpt lat="44.07347" lon="6.94113">
        <ele>1925</ele>
        <time>2019-08-03T10:32:31.000Z</time>
      </trkpt>
      <trkpt lat="44.07354" lon="6.94104">
        <ele>1925</ele>
        <time>2019-08-03T10:32:37.000Z</time>
      </trkpt>
      <trkpt lat="44.07354" lon="6.94104">
        <ele>1925</ele>
        <time>2019-08-03T10:32:39.000Z</time>
      </trkpt>
      <trkpt lat="44.07354" lon="6.94104">
        <ele>1925</ele>
        <time>2019-08-03T10:32:41.000Z</time>
      </trkpt>
      <trkpt lat="44.07354" lon="6.94104">
        <ele>1925</ele>
        <time>2019-08-03T10:32:43.000Z</time>
      </trkpt>
      <trkpt lat="44.07354" lon="6.94104">
        <ele>1925</ele>
        <time>2019-08-03T10:32:47.000Z</time>
      </trkpt>
      <trkpt lat="44.07354" lon="6.94104">
        <ele>1925</ele>
        <time>2019-08-03T10:32:49.000Z</time>
      </trkpt>
      <trkpt lat="44.07354" lon="6.94104">
        <ele>1925</ele>
        <time>2019-08-03T10:32:51.000Z</time>
      </trkpt>
      <trkpt lat="44.07354" lon="6.94104">
        <ele>1925</ele>
        <time>2019-08-03T10:32:53.000Z</time>
      </trkpt>
      <trkpt lat="44.07354" lon="6.94104">
        <ele>1925</ele>
        <time>2019-08-03T10:32:55.000Z</time>
      </trkpt>
      <trkpt lat="44.07354" lon="6.94104">
        <ele>1925</ele>
        <time>2019-08-03T10:32:57.000Z</time>
      </trkpt>
      <trkpt lat="44.07354" lon="6.94104">
        <ele>1925</ele>
        <time>2019-08-03T10:32:59.000Z</time>
      </trkpt>
      <trkpt lat="44.07354" lon="6.94104">
        <ele>1925</ele>
        <time>2019-08-03T10:33:01.000Z</time>
      </trkpt>
      <trkpt lat="44.07354" lon="6.94104">
        <ele>1925</ele>
        <time>2019-08-03T10:33:03.000Z</time>
      </trkpt>
      <trkpt lat="44.07354" lon="6.94104">
        <ele>1925</ele>
        <time>2019-08-03T10:33:05.000Z</time>
      </trkpt>
      <trkpt lat="44.07354" lon="6.94104">
        <ele>1925</ele>
        <time>2019-08-03T10:33:07.000Z</time>
      </trkpt>
      <trkpt lat="44.07354" lon="6.94104">
        <ele>1925</ele>
        <time>2019-08-03T10:33:09.000Z</time>
      </trkpt>
      <trkpt lat="44.07354" lon="6.94104">
        <ele>1925</ele>
        <time>2019-08-03T10:33:23.000Z</time>
      </trkpt>
      <trkpt lat="44.07354" lon="6.94104">
        <ele>1925</ele>
        <time>2019-08-03T10:33:25.000Z</time>
      </trkpt>
      <trkpt lat="44.07354" lon="6.94104">
        <ele>1925</ele>
        <time>2019-08-03T10:33:27.000Z</time>
      </trkpt>
      <trkpt lat="44.07482" lon="6.94065">
        <ele>1937</ele>
        <time>2019-08-03T10:33:29.000Z</time>
      </trkpt>
      <trkpt lat="44.07482" lon="6.94065">
        <ele>1937</ele>
        <time>2019-08-03T10:33:31.000Z</time>
      </trkpt>
      <trkpt lat="44.07482" lon="6.94065">
        <ele>1937</ele>
        <time>2019-08-03T10:34:37.000Z</time>
      </trkpt>
      <trkpt lat="44.0749" lon="6.94062">
        <ele>1938</ele>
        <time>2019-08-03T10:34:47.000Z</time>
      </trkpt>
      <trkpt lat="44.07499" lon="6.94059">
        <ele>1937</ele>
        <time>2019-08-03T10:34:55.000Z</time>
      </trkpt>
      <trkpt lat="44.07504" lon="6.94046">
        <ele>1935</ele>
        <time>2019-08-03T10:34:59.000Z</time>
      </trkpt>
      <trkpt lat="44.07504" lon="6.94046">
        <ele>1935</ele>
        <time>2019-08-03T10:35:13.000Z</time>
      </trkpt>
      <trkpt lat="44.07491" lon="6.9403">
        <ele>1933</ele>
        <time>2019-08-03T10:38:52.000Z</time>
      </trkpt>
      <trkpt lat="44.07485" lon="6.94014">
        <ele>1931</ele>
        <time>2019-08-03T10:39:02.000Z</time>
      </trkpt>
      <trkpt lat="44.07475" lon="6.94006">
        <ele>1930</ele>
      </trkpt>
      <trkpt lat="44.07475" lon="6.94006">
        <ele>1930</ele>
      </trkpt>
      <trkpt lat="44.07475" lon="6.94006">
        <ele>1930</ele>
      </trkpt>
      <trkpt lat="44.07475" lon="6.94006">
        <ele>1930</ele>
      </trkpt>
      <trkpt lat="44.07475" lon="6.94006">
        <ele>1930</ele>
      </trkpt>
      <trkpt lat="44.07475" lon="6.94006">
        <ele>1930</ele>
      </trkpt>
      <trkpt lat="44.07475" lon="6.94006">
        <ele>1930</ele>
      </trkpt>
      <trkpt lat="44.07475" lon="6.94006">
        <ele>1930</ele>
      </trkpt>
      <trkpt lat="44.07475" lon="6.94006">
        <ele>1930</ele>
      </trkpt>
      <trkpt lat="44.07475" lon="6.94006">
        <ele>1930</ele>
      </trkpt>
      <trkpt lat="44.07475" lon="6.94006">
        <ele>1930</ele>
      </trkpt>
      <trkpt lat="44.07489" lon="6.93925">
        <ele>1919</ele>
      </trkpt>
      <trkpt lat="44.0748" lon="6.93915">
        <ele>1921</ele>
      </trkpt>
      <trkpt lat="44.0748" lon="6.93915">
        <ele>1921</ele>
      </trkpt>
      <trkpt lat="44.07491" lon="6.93902">
        <ele>1914</ele>
      </trkpt>
      <trkpt lat="44.07491" lon="6.93902">
        <ele>1914</ele>
      </trkpt>
      <trkpt lat="44.07491" lon="6.93902">
        <ele>1914</ele>
      </trkpt>
      <trkpt lat="44.07491" lon="6.93902">
        <ele>1914</ele>
      </trkpt>
      <trkpt lat="44.07501" lon="6.93855">
        <ele>1910</ele>
      </trkpt>
      <trkpt lat="44.07513" lon="6.93834">
        <ele>1907</ele>
      </trkpt>
      <trkpt lat="44.07528" lon="6.93846">
        <ele>1904</ele>
      </trkpt>
      <trkpt lat="44.07539" lon="6.93849">
        <ele>1904</ele>
      </trkpt>
      <trkpt lat="44.07541" lon="6.93832">
        <ele>1904</ele>
      </trkpt>
      <trkpt lat="44.07548" lon="6.93819">
        <ele>1903</ele>
      </trkpt>
      <trkpt lat="44.07556" lon="6.93805">
        <ele>1901</ele>
      </trkpt>
      <trkpt lat="44.0756" lon="6.93786">
        <ele>1899</ele>
      </trkpt>
      <trkpt lat="44.07568" lon="6.93762">
        <ele>1895</ele>
      </trkpt>
      <trkpt lat="44.07577" lon="6.9375">
        <ele>1892</ele>
      </trkpt>
      <trkpt lat="44.0759" lon="6.93732">
        <ele>1886</ele>
      </trkpt>
      <trkpt lat="44.07607" lon="6.93717">
        <ele>1884</ele>
      </trkpt>
      <trkpt lat="44.07623" lon="6.93704">
        <ele>1883</ele>
      </trkpt>
      <trkpt lat="44.07637" lon="6.93696">
        <ele>1882</ele>
      </trkpt>
      <trkpt lat="44.0765" lon="6.93687">
        <ele>1881</ele>
      </trkpt>
      <trkpt lat="44.0766" lon="6.93677">
        <ele>1880</ele>
      </trkpt>
      <trkpt lat="44.0767" lon="6.93666">
        <ele>1879</ele>
      </trkpt>
      <trkpt lat="44.07681" lon="6.93658">
        <ele>1878</ele>
      </trkpt>
      <trkpt lat="44.07693" lon="6.9365">
        <ele>1875</ele>
      </trkpt>
      <trkpt lat="44.07704" lon="6.93642">
        <ele>1874</ele>
      </trkpt>
      <trkpt lat="44.07713" lon="6.93636">
        <ele>1872</ele>
      </trkpt>
      <trkpt lat="44.07713" lon="6.93636">
        <ele>1872</ele>
      </trkpt>
      <trkpt lat="44.07713" lon="6.93636">
        <ele>1872</ele>
      </trkpt>
      <trkpt lat="44.07713" lon="6.93636">
        <ele>1872</ele>
      </trkpt>
      <trkpt lat="44.07713" lon="6.93636">
        <ele>1872</ele>
      </trkpt>
      <trkpt lat="44.07713" lon="6.93636">
        <ele>1872</ele>
      </trkpt>
      <trkpt lat="44.07713" lon="6.93636">
        <ele>1872</ele>
      </trkpt>
      <trkpt lat="44.07713" lon="6.93636">
        <ele>1872</ele>
      </trkpt>
      <trkpt lat="44.07713" lon="6.93636">
        <ele>1872</ele>
      </trkpt>
      <trkpt lat="44.07713" lon="6.93636">
        <ele>1872</ele>
      </trkpt>
      <trkpt lat="44.07713" lon="6.93636">
        <ele>1872</ele>
      </trkpt>
      <trkpt lat="44.07713" lon="6.93636">
        <ele>1872</ele>
      </trkpt>
      <trkpt lat="44.07713" lon="6.93636">
        <ele>1872</ele>
      </trkpt>
      <trkpt lat="44.07713" lon="6.93636">
        <ele>1872</ele>
      </trkpt>
      <trkpt lat="44.07713" lon="6.93636">
        <ele>1872</ele>
      </trkpt>
      <trkpt lat="44.07778" lon="6.93573">
        <ele>1874</ele>
      </trkpt>
      <trkpt lat="44.0783" lon="6.93547">
        <ele>1866</ele>
      </trkpt>
      <trkpt lat="44.07848" lon="6.93545">
        <ele>1864</ele>
      </trkpt>
      <trkpt lat="44.07867" lon="6.9354">
        <ele>1864</ele>
      </trkpt>
      <trkpt lat="44.07885" lon="6.93534">
        <ele>1865</ele>
      </trkpt>
      <trkpt lat="44.07905" lon="6.93528">
        <ele>1866</ele>
      </trkpt>
      <trkpt lat="44.07928" lon="6.93521">
        <ele>1865</ele>
      </trkpt>
      <trkpt lat="44.07952" lon="6.93525">
        <ele>1863</ele>
      </trkpt>
      <trkpt lat="44.07975" lon="6.93536">
        <ele>1864</ele>
      </trkpt>
      <trkpt lat="44.07997" lon="6.93561">
        <ele>1860</ele>
      </trkpt>
      <trkpt lat="44.08004" lon="6.93577">
        <ele>1857</ele>
      </trkpt>
      <trkpt lat="44.08013" lon="6.93598">
        <ele>1857</ele>
      </trkpt>
      <trkpt lat="44.08029" lon="6.93603">
        <ele>1853</ele>
      </trkpt>
      <trkpt lat="44.08045" lon="6.93605">
        <ele>1854</ele>
      </trkpt>
      <trkpt lat="44.0806" lon="6.93601">
        <ele>1853</ele>
      </trkpt>
      <trkpt lat="44.08073" lon="6.93592">
        <ele>1853</ele>
      </trkpt>
      <trkpt lat="44.08088" lon="6.93582">
        <ele>1852</ele>
      </trkpt>
      <trkpt lat="44.08105" lon="6.93572">
        <ele>1848</ele>
      </trkpt>
      <trkpt lat="44.08122" lon="6.93561">
        <ele>1847</ele>
      </trkpt>
      <trkpt lat="44.08139" lon="6.93546">
        <ele>1846</ele>
      </trkpt>
      <trkpt lat="44.08157" lon="6.93534">
        <ele>1844</ele>
      </trkpt>
      <trkpt lat="44.08176" lon="6.93524">
        <ele>1842</ele>
      </trkpt>
      <trkpt lat="44.08197" lon="6.93516">
        <ele>1840</ele>
      </trkpt>
      <trkpt lat="44.08218" lon="6.93509">
        <ele>1842</ele>
      </trkpt>
      <trkpt lat="44.0824" lon="6.93499">
        <ele>1837</ele>
      </trkpt>
      <trkpt lat="44.0826" lon="6.93494">
        <ele>1835</ele>
      </trkpt>
      <trkpt lat="44.08278" lon="6.93502">
        <ele>1834</ele>
      </trkpt>
      <trkpt lat="44.08293" lon="6.93516">
        <ele>1832</ele>
      </trkpt>
      <trkpt lat="44.08307" lon="6.93529">
        <ele>1830</ele>
      </trkpt>
      <trkpt lat="44.08323" lon="6.93536">
        <ele>1826</ele>
      </trkpt>
      <trkpt lat="44.08339" lon="6.93534">
        <ele>1820</ele>
      </trkpt>
      <trkpt lat="44.08355" lon="6.93526">
        <ele>1817</ele>
      </trkpt>
      <trkpt lat="44.0837" lon="6.93514">
        <ele>1816</ele>
      </trkpt>
      <trkpt lat="44.08384" lon="6.93504">
        <ele>1817</ele>
      </trkpt>
      <trkpt lat="44.08393" lon="6.93484">
        <ele>1817</ele>
      </trkpt>
      <trkpt lat="44.08401" lon="6.93467">
        <ele>1819</ele>
      </trkpt>
      <trkpt lat="44.0841" lon="6.93452">
        <ele>1819</ele>
      </trkpt>
      <trkpt lat="44.08418" lon="6.93437">
        <ele>1818</ele>
      </trkpt>
      <trkpt lat="44.08424" lon="6.93422">
        <ele>1821</ele>
      </trkpt>
      <trkpt lat="44.08429" lon="6.93409">
        <ele>1824</ele>
      </trkpt>
      <trkpt lat="44.08434" lon="6.93397">
        <ele>1824</ele>
      </trkpt>
      <trkpt lat="44.08434" lon="6.93397">
        <ele>1824</ele>
      </trkpt>
      <trkpt lat="44.08434" lon="6.93397">
        <ele>1824</ele>
      </trkpt>
      <trkpt lat="44.08434" lon="6.93397">
        <ele>1824</ele>
      </trkpt>
      <trkpt lat="44.08434" lon="6.93397">
        <ele>1824</ele>
      </trkpt>
      <trkpt lat="44.08446" lon="6.93356">
        <ele>1836</ele>
      </trkpt>
      <trkpt lat="44.08456" lon="6.93292">
        <ele>1828</ele>
      </trkpt>
      <trkpt lat="44.08461" lon="6.93267">
        <ele>1826</ele>
      </trkpt>
      <trkpt lat="44.08465" lon="6.93241">
        <ele>1826</ele>
      </trkpt>
      <trkpt lat="44.08467" lon="6.93213">
        <ele>1829</ele>
      </trkpt>
      <trkpt lat="44.08469" lon="6.93182">
        <ele>1830</ele>
      </trkpt>
      <trkpt lat="44.08473" lon="6.93149">
        <ele>1824</ele>
      </trkpt>
      <trkpt lat="44.08477" lon="6.93117">
        <ele>1820</ele>
      </trkpt>
      <trkpt lat="44.08483" lon="6.93085">
        <ele>1816</ele>
      </trkpt>
      <trkpt lat="44.08487" lon="6.93053">
        <ele>1816</ele>
      </trkpt>
      <trkpt lat="44.08492" lon="6.93024">
        <ele>1816</ele>
      </trkpt>
      <trkpt lat="44.08494" lon="6.92999">
        <ele>1816</ele>
      </trkpt>
      <trkpt lat="44.08495" lon="6.92976">
        <ele>1815</ele>
      </trkpt>
      <trkpt lat="44.08496" lon="6.92956">
        <ele>1815</ele>
      </trkpt>
      <trkpt lat="44.08497" lon="6.92934">
        <ele>1814</ele>
      </trkpt>
      <trkpt lat="44.08497" lon="6.92934">
        <ele>1814</ele>
      </trkpt>
      <trkpt lat="44.08497" lon="6.92906">
        <ele>1815</ele>
      </trkpt>
      <trkpt lat="44.08498" lon="6.92887">
        <ele>1815</ele>
      </trkpt>
      <trkpt lat="44.08499" lon="6.9287">
        <ele>1814</ele>
      </trkpt>
      <trkpt lat="44.085" lon="6.92852">
        <ele>1813</ele>
      </trkpt>
      <trkpt lat="44.08502" lon="6.92834">
        <ele>1814</ele>
      </trkpt>
      <trkpt lat="44.08505" lon="6.92816">
        <ele>1814</ele>
      </trkpt>
      <trkpt lat="44.08507" lon="6.92797">
        <ele>1814</ele>
      </trkpt>
      <trkpt lat="44.0851" lon="6.92779">
        <ele>1813</ele>
      </trkpt>
      <trkpt lat="44.08514" lon="6.92761">
        <ele>1814</ele>
      </trkpt>
      <trkpt lat="44.08519" lon="6.92743">
        <ele>1813</ele>
      </trkpt>
      <trkpt lat="44.08523" lon="6.92726">
        <ele>1812</ele>
      </trkpt>
      <trkpt lat="44.08527" lon="6.92709">
        <ele>1811</ele>
      </trkpt>
      <trkpt lat="44.08534" lon="6.92694">
        <ele>1810</ele>
      </trkpt>
      <trkpt lat="44.08538" lon="6.9268">
        <ele>1810</ele>
      </trkpt>
      <trkpt lat="44.08546" lon="6.92668">
        <ele>1809</ele>
      </trkpt>
      <trkpt lat="44.08557" lon="6.92667">
        <ele>1808</ele>
      </trkpt>
      <trkpt lat="44.08557" lon="6.92667">
        <ele>1808</ele>
      </trkpt>
      <trkpt lat="44.08557" lon="6.92667">
        <ele>1808</ele>
      </trkpt>
      <trkpt lat="44.08557" lon="6.92667">
        <ele>1808</ele>
      </trkpt>
      <trkpt lat="44.08557" lon="6.92667">
        <ele>1808</ele>
      </trkpt>
      <trkpt lat="44.08557" lon="6.92667">
        <ele>1808</ele>
      </trkpt>
      <trkpt lat="44.08557" lon="6.92667">
        <ele>1808</ele>
      </trkpt>
      <trkpt lat="44.08569" lon="6.92702">
        <ele>1806</ele>
      </trkpt>
      <trkpt lat="44.08571" lon="6.92688">
        <ele>1809</ele>
      </trkpt>
      <trkpt lat="44.08572" lon="6.92665">
        <ele>1810</ele>
      </trkpt>
      <trkpt lat="44.08583" lon="6.9265">
        <ele>1809</ele>
      </trkpt>
      <trkpt lat="44.08583" lon="6.9265">
        <ele>1809</ele>
      </trkpt>
      <trkpt lat="44.08599" lon="6.92646">
        <ele>1809</ele>
      </trkpt>
      <trkpt lat="44.08609" lon="6.92645">
        <ele>1810</ele>
      </trkpt>
      <trkpt lat="44.08619" lon="6.92642">
        <ele>1812</ele>
      </trkpt>
      <trkpt lat="44.0863" lon="6.9264">
        <ele>1812</ele>
      </trkpt>
      <trkpt lat="44.0864" lon="6.92639">
        <ele>1812</ele>
      </trkpt>
      <trkpt lat="44.08651" lon="6.92637">
        <ele>1813</ele>
      </trkpt>
      <trkpt lat="44.08663" lon="6.92636">
        <ele>1816</ele>
      </trkpt>
      <trkpt lat="44.08676" lon="6.92635">
        <ele>1817</ele>
      </trkpt>
      <trkpt lat="44.08688" lon="6.92633">
        <ele>1818</ele>
      </trkpt>
      <trkpt lat="44.08699" lon="6.92628">
        <ele>1818</ele>
      </trkpt>
      <trkpt lat="44.08711" lon="6.92623">
        <ele>1818</ele>
      </trkpt>
      <trkpt lat="44.08722" lon="6.92618">
        <ele>1818</ele>
      </trkpt>
      <trkpt lat="44.08733" lon="6.92615">
        <ele>1818</ele>
      </trkpt>
      <trkpt lat="44.08733" lon="6.92615">
        <ele>1818</ele>
      </trkpt>
      <trkpt lat="44.08733" lon="6.92615">
        <ele>1818</ele>
      </trkpt>
      <trkpt lat="44.08733" lon="6.92615">
        <ele>1818</ele>
      </trkpt>
      <trkpt lat="44.08733" lon="6.92615">
        <ele>1818</ele>
      </trkpt>
      <trkpt lat="44.08733" lon="6.92615">
        <ele>1818</ele>
      </trkpt>
      <trkpt lat="44.08733" lon="6.92615">
        <ele>1818</ele>
      </trkpt>
      <trkpt lat="44.08789" lon="6.92638">
        <ele>1827</ele>
      </trkpt>
      <trkpt lat="44.088" lon="6.92649">
        <ele>1827</ele>
      </trkpt>
      <trkpt lat="44.088" lon="6.92649">
        <ele>1827</ele>
      </trkpt>
      <trkpt lat="44.088" lon="6.92649">
        <ele>1827</ele>
      </trkpt>
      <trkpt lat="44.088" lon="6.92649">
        <ele>1827</ele>
      </trkpt>
      <trkpt lat="44.088" lon="6.92649">
        <ele>1827</ele>
      </trkpt>
      <trkpt lat="44.088" lon="6.92649">
        <ele>1827</ele>
      </trkpt>
      <trkpt lat="44.088" lon="6.92649">
        <ele>1827</ele>
      </trkpt>
      <trkpt lat="44.08818" lon="6.92674">
        <ele>1836</ele>
      </trkpt>
      <trkpt lat="44.08825" lon="6.92686">
        <ele>1837</ele>
      </trkpt>
      <trkpt lat="44.08831" lon="6.92701">
        <ele>1843</ele>
      </trkpt>
      <trkpt lat="44.08837" lon="6.92716">
        <ele>1850</ele>
      </trkpt>
      <trkpt lat="44.08844" lon="6.9273">
        <ele>1851</ele>
      </trkpt>
      <trkpt lat="44.08844" lon="6.9273">
        <ele>1851</ele>
      </trkpt>
      <trkpt lat="44.08844" lon="6.9273">
        <ele>1851</ele>
      </trkpt>
      <trkpt lat="44.08844" lon="6.9273">
        <ele>1851</ele>
      </trkpt>
      <trkpt lat="44.08844" lon="6.9273">
        <ele>1851</ele>
      </trkpt>
      <trkpt lat="44.08844" lon="6.9273">
        <ele>1851</ele>
      </trkpt>
      <trkpt lat="44.08844" lon="6.9273">
        <ele>1851</ele>
      </trkpt>
      <trkpt lat="44.08844" lon="6.9273">
        <ele>1851</ele>
      </trkpt>
      <trkpt lat="44.08844" lon="6.9273">
        <ele>1851</ele>
      </trkpt>
      <trkpt lat="44.08844" lon="6.9273">
        <ele>1851</ele>
      </trkpt>
      <trkpt lat="44.08844" lon="6.9273">
        <ele>1851</ele>
      </trkpt>
      <trkpt lat="44.08844" lon="6.9273">
        <ele>1851</ele>
      </trkpt>
      <trkpt lat="44.0886" lon="6.92786">
        <ele>1859</ele>
      </trkpt>
      <trkpt lat="44.08865" lon="6.92798">
        <ele>1858</ele>
      </trkpt>
      <trkpt lat="44.08865" lon="6.92798">
        <ele>1858</ele>
      </trkpt>
      <trkpt lat="44.08865" lon="6.92798">
        <ele>1858</ele>
      </trkpt>
      <trkpt lat="44.08865" lon="6.92798">
        <ele>1858</ele>
      </trkpt>
      <trkpt lat="44.08865" lon="6.92798">
        <ele>1858</ele>
      </trkpt>
      <trkpt lat="44.08865" lon="6.92798">
        <ele>1858</ele>
      </trkpt>
      <trkpt lat="44.08865" lon="6.92798">
        <ele>1858</ele>
      </trkpt>
      <trkpt lat="44.08865" lon="6.92798">
        <ele>1858</ele>
      </trkpt>
      <trkpt lat="44.08865" lon="6.92798">
        <ele>1858</ele>
      </trkpt>
      <trkpt lat="44.08899" lon="6.9282">
        <ele>1849</ele>
      </trkpt>
      <trkpt lat="44.08916" lon="6.92809">
        <ele>1840</ele>
      </trkpt>
      <trkpt lat="44.08926" lon="6.92807">
        <ele>1834</ele>
      </trkpt>
      <trkpt lat="44.08937" lon="6.92807">
        <ele>1828</ele>
      </trkpt>
      <trkpt lat="44.08947" lon="6.92811">
        <ele>1823</ele>
      </trkpt>
      <trkpt lat="44.08957" lon="6.92817">
        <ele>1821</ele>
      </trkpt>
      <trkpt lat="44.08967" lon="6.92821">
        <ele>1818</ele>
      </trkpt>
      <trkpt lat="44.08967" lon="6.92821">
        <ele>1818</ele>
      </trkpt>
      <trkpt lat="44.08967" lon="6.92821">
        <ele>1818</ele>
      </trkpt>
      <trkpt lat="44.08967" lon="6.92821">
        <ele>1818</ele>
      </trkpt>
      <trkpt lat="44.09016" lon="6.92857">
        <ele>1808</ele>
      </trkpt>
      <trkpt lat="44.09023" lon="6.92871">
        <ele>1809</ele>
      </trkpt>
      <trkpt lat="44.09029" lon="6.92885">
        <ele>1809</ele>
      </trkpt>
      <trkpt lat="44.09031" lon="6.92901">
        <ele>1810</ele>
      </trkpt>
      <trkpt lat="44.09034" lon="6.92919">
        <ele>1808</ele>
      </trkpt>
      <trkpt lat="44.09036" lon="6.92936">
        <ele>1804</ele>
      </trkpt>
      <trkpt lat="44.09037" lon="6.92949">
        <ele>1801</ele>
      </trkpt>
      <trkpt lat="44.09037" lon="6.92949">
        <ele>1801</ele>
      </trkpt>
      <trkpt lat="44.09037" lon="6.92949">
        <ele>1801</ele>
      </trkpt>
      <trkpt lat="44.09037" lon="6.92949">
        <ele>1801</ele>
      </trkpt>
      <trkpt lat="44.09056" lon="6.92958">
        <ele>1793</ele>
      </trkpt>
      <trkpt lat="44.09058" lon="6.92943">
        <ele>1792</ele>
      </trkpt>
      <trkpt lat="44.09059" lon="6.92929">
        <ele>1793</ele>
      </trkpt>
      <trkpt lat="44.0906" lon="6.92917">
        <ele>1794</ele>
      </trkpt>
      <trkpt lat="44.0906" lon="6.92917">
        <ele>1794</ele>
      </trkpt>
      <trkpt lat="44.09081" lon="6.92909">
        <ele>1788</ele>
      </trkpt>
      <trkpt lat="44.09098" lon="6.92906">
        <ele>1784</ele>
      </trkpt>
      <trkpt lat="44.09116" lon="6.92904">
        <ele>1781</ele>
      </trkpt>
      <trkpt lat="44.09134" lon="6.92906">
        <ele>1779</ele>
      </trkpt>
      <trkpt lat="44.09152" lon="6.92911">
        <ele>1776</ele>
      </trkpt>
      <trkpt lat="44.0917" lon="6.92915">
        <ele>1772</ele>
      </trkpt>
      <trkpt lat="44.09188" lon="6.92918">
        <ele>1771</ele>
      </trkpt>
      <trkpt lat="44.09206" lon="6.92921">
        <ele>1771</ele>
      </trkpt>
      <trkpt lat="44.09224" lon="6.92925">
        <ele>1769</ele>
      </trkpt>
      <trkpt lat="44.09241" lon="6.92929">
        <ele>1769</ele>
      </trkpt>
      <trkpt lat="44.09258" lon="6.9292">
        <ele>1765</ele>
      </trkpt>
      <trkpt lat="44.09278" lon="6.9291">
        <ele>1760</ele>
      </trkpt>
      <trkpt lat="44.09301" lon="6.92903">
        <ele>1757</ele>
      </trkpt>
      <trkpt lat="44.09326" lon="6.92896">
        <ele>1756</ele>
      </trkpt>
      <trkpt lat="44.09352" lon="6.92893">
        <ele>1754</ele>
      </trkpt>
      <trkpt lat="44.09385" lon="6.92892">
        <ele>1753</ele>
      </trkpt>
      <trkpt lat="44.09385" lon="6.92892">
        <ele>1753</ele>
      </trkpt>
      <trkpt lat="44.09427" lon="6.92894">
        <ele>1749</ele>
      </trkpt>
      <trkpt lat="44.09427" lon="6.92894">
        <ele>1749</ele>
      </trkpt>
      <trkpt lat="44.09427" lon="6.92894">
        <ele>1749</ele>
      </trkpt>
      <trkpt lat="44.09427" lon="6.92894">
        <ele>1749</ele>
      </trkpt>
      <trkpt lat="44.09427" lon="6.92894">
        <ele>1749</ele>
      </trkpt>
      <trkpt lat="44.09427" lon="6.92894">
        <ele>1749</ele>
      </trkpt>
      <trkpt lat="44.09453" lon="6.92893">
        <ele>1744</ele>
      </trkpt>
      <trkpt lat="44.09465" lon="6.92906">
        <ele>1748</ele>
      </trkpt>
      <trkpt lat="44.09477" lon="6.92913">
        <ele>1744</ele>
      </trkpt>
      <trkpt lat="44.09477" lon="6.92913">
        <ele>1744</ele>
      </trkpt>
      <trkpt lat="44.09477" lon="6.92913">
        <ele>1744</ele>
      </trkpt>
      <trkpt lat="44.09477" lon="6.92913">
        <ele>1744</ele>
      </trkpt>
      <trkpt lat="44.09477" lon="6.92913">
        <ele>1744</ele>
      </trkpt>
      <trkpt lat="44.09477" lon="6.92913">
        <ele>1744</ele>
      </trkpt>
      <trkpt lat="44.09477" lon="6.92913">
        <ele>1744</ele>
      </trkpt>
      <trkpt lat="44.09477" lon="6.92913">
        <ele>1744</ele>
      </trkpt>
      <trkpt lat="44.09477" lon="6.92913">
        <ele>1744</ele>
      </trkpt>
      <trkpt lat="44.09477" lon="6.92913">
        <ele>1744</ele>
      </trkpt>
      <trkpt lat="44.09497" lon="6.92925">
        <ele>1742</ele>
      </trkpt>
      <trkpt lat="44.09507" lon="6.92934">
        <ele>1743</ele>
      </trkpt>
      <trkpt lat="44.09512" lon="6.92942">
        <ele>1742</ele>
      </trkpt>
      <trkpt lat="44.09514" lon="6.9295">
        <ele>1742</ele>
      </trkpt>
      <trkpt lat="44.09517" lon="6.92959">
        <ele>1740</ele>
      </trkpt>
      <trkpt lat="44.09523" lon="6.9298">
        <ele>1740</ele>
      </trkpt>
      <trkpt lat="44.09523" lon="6.92997">
        <ele>1740</ele>
      </trkpt>
      <trkpt lat="44.09521" lon="6.93013">
        <ele>1738</ele>
      </trkpt>
      <trkpt lat="44.09518" lon="6.93028">
        <ele>1736</ele>
      </trkpt>
      <trkpt lat="44.09518" lon="6.93028">
        <ele>1736</ele>
      </trkpt>
      <trkpt lat="44.09518" lon="6.93028">
        <ele>1736</ele>
      </trkpt>
      <trkpt lat="44.09518" lon="6.93028">
        <ele>1736</ele>
      </trkpt>
      <trkpt lat="44.09518" lon="6.93028">
        <ele>1736</ele>
      </trkpt>
      <trkpt lat="44.09518" lon="6.93028">
        <ele>1736</ele>
      </trkpt>
      <trkpt lat="44.09518" lon="6.93028">
        <ele>1736</ele>
      </trkpt>
      <trkpt lat="44.09518" lon="6.93028">
        <ele>1736</ele>
      </trkpt>
      <trkpt lat="44.09518" lon="6.93028">
        <ele>1736</ele>
      </trkpt>
      <trkpt lat="44.09505" lon="6.93032">
        <ele>1735</ele>
      </trkpt>
      <trkpt lat="44.09505" lon="6.93032">
        <ele>1735</ele>
      </trkpt>
      <trkpt lat="44.09516" lon="6.93024">
        <ele>1735</ele>
      </trkpt>
      <trkpt lat="44.09516" lon="6.93024">
        <ele>1735</ele>
      </trkpt>
      <trkpt lat="44.09516" lon="6.93024">
        <ele>1735</ele>
      </trkpt>
      <trkpt lat="44.09512" lon="6.93028">
        <ele>1739</ele>
      </trkpt>
      <trkpt lat="44.09512" lon="6.93028">
        <ele>1739</ele>
      </trkpt>
    </trkseg>
  </trk>
</gpx>